<?xml version="1.0"?>
<gpx version="1.0" creator="Ultra GPS Logger" xmlns:xsi="http://www.w3.org/2001/XMLSchema-instance" xmlns="http://www.topografix.com/GPX/1/0" xsi:schemaLocation="http://www.topografix.com/GPX/1/0 http://www.topografix.com/GPX/1/0/gpx.xsd">
<!-- segment: Khao_Yoi_Saturday_16_June category: Car -->
<trk>
<name><![CDATA[Khao_Yoi_Saturday_16_June]]></name>
<trkseg>
<trkpt lat="13.25744" lon="99.78707"><ele>20</ele><time>2018-06-16T05:09:52Z</time></trkpt>
<trkpt lat="13.25742" lon="99.78702"><ele>12</ele><time>2018-06-16T05:11:00Z</time></trkpt>
<trkpt lat="13.25741" lon="99.78696"><ele>11</ele><time>2018-06-16T05:11:03Z</time></trkpt>
<trkpt lat="13.25741" lon="99.78690"><ele>11</ele><time>2018-06-16T05:11:05Z</time></trkpt>
<trkpt lat="13.25742" lon="99.78681"><ele>9</ele><time>2018-06-16T05:11:07Z</time></trkpt>
<trkpt lat="13.25746" lon="99.78674"><ele>8</ele><time>2018-06-16T05:11:09Z</time></trkpt>
<trkpt lat="13.25752" lon="99.78669"><ele>7</ele><time>2018-06-16T05:11:11Z</time></trkpt>
<trkpt lat="13.25759" lon="99.78663"><ele>7</ele><time>2018-06-16T05:11:13Z</time></trkpt>
<trkpt lat="13.25762" lon="99.78659"><ele>7</ele><time>2018-06-16T05:11:14Z</time></trkpt>
<trkpt lat="13.25765" lon="99.78655"><ele>7</ele><time>2018-06-16T05:11:15Z</time></trkpt>
<trkpt lat="13.25768" lon="99.78651"><ele>6</ele><time>2018-06-16T05:11:16Z</time></trkpt>
<trkpt lat="13.25770" lon="99.78647"><ele>7</ele><time>2018-06-16T05:11:17Z</time></trkpt>
<trkpt lat="13.25772" lon="99.78642"><ele>7</ele><time>2018-06-16T05:11:18Z</time></trkpt>
<trkpt lat="13.25773" lon="99.78638"><ele>6</ele><time>2018-06-16T05:11:19Z</time></trkpt>
<trkpt lat="13.25774" lon="99.78633"><ele>6</ele><time>2018-06-16T05:11:20Z</time></trkpt>
<trkpt lat="13.25775" lon="99.78628"><ele>7</ele><time>2018-06-16T05:11:21Z</time></trkpt>
<trkpt lat="13.25775" lon="99.78624"><ele>7</ele><time>2018-06-16T05:11:22Z</time></trkpt>
<trkpt lat="13.25778" lon="99.78615"><ele>7</ele><time>2018-06-16T05:11:24Z</time></trkpt>
<trkpt lat="13.25782" lon="99.78606"><ele>8</ele><time>2018-06-16T05:11:26Z</time></trkpt>
<trkpt lat="13.25784" lon="99.78602"><ele>8</ele><time>2018-06-16T05:11:27Z</time></trkpt>
<trkpt lat="13.25788" lon="99.78594"><ele>8</ele><time>2018-06-16T05:11:29Z</time></trkpt>
<trkpt lat="13.25793" lon="99.78587"><ele>8</ele><time>2018-06-16T05:11:31Z</time></trkpt>
<trkpt lat="13.25797" lon="99.78579"><ele>8</ele><time>2018-06-16T05:11:33Z</time></trkpt>
<trkpt lat="13.25801" lon="99.78572"><ele>8</ele><time>2018-06-16T05:11:35Z</time></trkpt>
<trkpt lat="13.25805" lon="99.78564"><ele>8</ele><time>2018-06-16T05:11:37Z</time></trkpt>
<trkpt lat="13.25808" lon="99.78556"><ele>8</ele><time>2018-06-16T05:11:39Z</time></trkpt>
<trkpt lat="13.25812" lon="99.78549"><ele>8</ele><time>2018-06-16T05:11:41Z</time></trkpt>
<trkpt lat="13.25816" lon="99.78541"><ele>8</ele><time>2018-06-16T05:11:43Z</time></trkpt>
<trkpt lat="13.25819" lon="99.78533"><ele>8</ele><time>2018-06-16T05:11:45Z</time></trkpt>
<trkpt lat="13.25824" lon="99.78526"><ele>9</ele><time>2018-06-16T05:11:47Z</time></trkpt>
<trkpt lat="13.25827" lon="99.78518"><ele>9</ele><time>2018-06-16T05:11:49Z</time></trkpt>
<trkpt lat="13.25831" lon="99.78511"><ele>9</ele><time>2018-06-16T05:11:51Z</time></trkpt>
<trkpt lat="13.25833" lon="99.78503"><ele>8</ele><time>2018-06-16T05:11:53Z</time></trkpt>
<trkpt lat="13.25836" lon="99.78496"><ele>9</ele><time>2018-06-16T05:11:55Z</time></trkpt>
<trkpt lat="13.25840" lon="99.78489"><ele>9</ele><time>2018-06-16T05:11:57Z</time></trkpt>
<trkpt lat="13.25844" lon="99.78483"><ele>9</ele><time>2018-06-16T05:11:59Z</time></trkpt>
<trkpt lat="13.25848" lon="99.78476"><ele>9</ele><time>2018-06-16T05:12:01Z</time></trkpt>
<trkpt lat="13.25853" lon="99.78468"><ele>9</ele><time>2018-06-16T05:12:03Z</time></trkpt>
<trkpt lat="13.25857" lon="99.78461"><ele>9</ele><time>2018-06-16T05:12:05Z</time></trkpt>
<trkpt lat="13.25859" lon="99.78454"><ele>9</ele><time>2018-06-16T05:12:07Z</time></trkpt>
<trkpt lat="13.25861" lon="99.78446"><ele>9</ele><time>2018-06-16T05:12:09Z</time></trkpt>
<trkpt lat="13.25862" lon="99.78439"><ele>10</ele><time>2018-06-16T05:12:11Z</time></trkpt>
<trkpt lat="13.25863" lon="99.78433"><ele>10</ele><time>2018-06-16T05:12:13Z</time></trkpt>
<trkpt lat="13.25865" lon="99.78426"><ele>11</ele><time>2018-06-16T05:12:15Z</time></trkpt>
<trkpt lat="13.25867" lon="99.78420"><ele>11</ele><time>2018-06-16T05:12:17Z</time></trkpt>
<trkpt lat="13.25870" lon="99.78414"><ele>11</ele><time>2018-06-16T05:12:19Z</time></trkpt>
<trkpt lat="13.25875" lon="99.78407"><ele>11</ele><time>2018-06-16T05:12:21Z</time></trkpt>
<trkpt lat="13.25879" lon="99.78401"><ele>11</ele><time>2018-06-16T05:12:23Z</time></trkpt>
<trkpt lat="13.25884" lon="99.78394"><ele>11</ele><time>2018-06-16T05:12:25Z</time></trkpt>
<trkpt lat="13.25890" lon="99.78387"><ele>11</ele><time>2018-06-16T05:12:27Z</time></trkpt>
<trkpt lat="13.25896" lon="99.78380"><ele>11</ele><time>2018-06-16T05:12:29Z</time></trkpt>
<trkpt lat="13.25900" lon="99.78376"><ele>11</ele><time>2018-06-16T05:12:30Z</time></trkpt>
<trkpt lat="13.25903" lon="99.78373"><ele>11</ele><time>2018-06-16T05:12:31Z</time></trkpt>
<trkpt lat="13.25906" lon="99.78370"><ele>11</ele><time>2018-06-16T05:12:32Z</time></trkpt>
<trkpt lat="13.25910" lon="99.78366"><ele>11</ele><time>2018-06-16T05:12:33Z</time></trkpt>
<trkpt lat="13.25913" lon="99.78363"><ele>11</ele><time>2018-06-16T05:12:34Z</time></trkpt>
<trkpt lat="13.25920" lon="99.78357"><ele>11</ele><time>2018-06-16T05:12:36Z</time></trkpt>
<trkpt lat="13.25925" lon="99.78351"><ele>11</ele><time>2018-06-16T05:12:38Z</time></trkpt>
<trkpt lat="13.25930" lon="99.78345"><ele>11</ele><time>2018-06-16T05:12:40Z</time></trkpt>
<trkpt lat="13.25935" lon="99.78339"><ele>11</ele><time>2018-06-16T05:12:42Z</time></trkpt>
<trkpt lat="13.25940" lon="99.78332"><ele>11</ele><time>2018-06-16T05:12:44Z</time></trkpt>
<trkpt lat="13.25946" lon="99.78324"><ele>11</ele><time>2018-06-16T05:12:46Z</time></trkpt>
<trkpt lat="13.25951" lon="99.78317"><ele>11</ele><time>2018-06-16T05:12:48Z</time></trkpt>
<trkpt lat="13.25956" lon="99.78311"><ele>10</ele><time>2018-06-16T05:12:50Z</time></trkpt>
<trkpt lat="13.25963" lon="99.78305"><ele>10</ele><time>2018-06-16T05:12:52Z</time></trkpt>
<trkpt lat="13.25966" lon="99.78301"><ele>10</ele><time>2018-06-16T05:12:53Z</time></trkpt>
<trkpt lat="13.25970" lon="99.78298"><ele>10</ele><time>2018-06-16T05:12:54Z</time></trkpt>
<trkpt lat="13.25974" lon="99.78295"><ele>10</ele><time>2018-06-16T05:12:55Z</time></trkpt>
<trkpt lat="13.25978" lon="99.78293"><ele>10</ele><time>2018-06-16T05:12:56Z</time></trkpt>
<trkpt lat="13.25982" lon="99.78290"><ele>11</ele><time>2018-06-16T05:12:57Z</time></trkpt>
<trkpt lat="13.25987" lon="99.78287"><ele>11</ele><time>2018-06-16T05:12:58Z</time></trkpt>
<trkpt lat="13.25991" lon="99.78285"><ele>11</ele><time>2018-06-16T05:12:59Z</time></trkpt>
<trkpt lat="13.25995" lon="99.78283"><ele>11</ele><time>2018-06-16T05:13:00Z</time></trkpt>
<trkpt lat="13.26000" lon="99.78281"><ele>11</ele><time>2018-06-16T05:13:01Z</time></trkpt>
<trkpt lat="13.26004" lon="99.78278"><ele>11</ele><time>2018-06-16T05:13:02Z</time></trkpt>
<trkpt lat="13.26009" lon="99.78276"><ele>11</ele><time>2018-06-16T05:13:03Z</time></trkpt>
<trkpt lat="13.26013" lon="99.78275"><ele>11</ele><time>2018-06-16T05:13:04Z</time></trkpt>
<trkpt lat="13.26018" lon="99.78273"><ele>11</ele><time>2018-06-16T05:13:05Z</time></trkpt>
<trkpt lat="13.26022" lon="99.78271"><ele>11</ele><time>2018-06-16T05:13:06Z</time></trkpt>
<trkpt lat="13.26030" lon="99.78268"><ele>11</ele><time>2018-06-16T05:13:08Z</time></trkpt>
<trkpt lat="13.26038" lon="99.78264"><ele>11</ele><time>2018-06-16T05:13:10Z</time></trkpt>
<trkpt lat="13.26045" lon="99.78259"><ele>11</ele><time>2018-06-16T05:13:12Z</time></trkpt>
<trkpt lat="13.26052" lon="99.78254"><ele>11</ele><time>2018-06-16T05:13:14Z</time></trkpt>
<trkpt lat="13.26059" lon="99.78248"><ele>11</ele><time>2018-06-16T05:13:16Z</time></trkpt>
<trkpt lat="13.26065" lon="99.78242"><ele>12</ele><time>2018-06-16T05:13:18Z</time></trkpt>
<trkpt lat="13.26071" lon="99.78236"><ele>12</ele><time>2018-06-16T05:13:20Z</time></trkpt>
<trkpt lat="13.26077" lon="99.78230"><ele>12</ele><time>2018-06-16T05:13:22Z</time></trkpt>
<trkpt lat="13.26083" lon="99.78224"><ele>12</ele><time>2018-06-16T05:13:24Z</time></trkpt>
<trkpt lat="13.26089" lon="99.78218"><ele>12</ele><time>2018-06-16T05:13:26Z</time></trkpt>
<trkpt lat="13.26093" lon="99.78212"><ele>12</ele><time>2018-06-16T05:13:28Z</time></trkpt>
<trkpt lat="13.26098" lon="99.78208"><ele>12</ele><time>2018-06-16T05:13:30Z</time></trkpt>
<trkpt lat="13.26104" lon="99.78205"><ele>13</ele><time>2018-06-16T05:13:32Z</time></trkpt>
<trkpt lat="13.26111" lon="99.78202"><ele>13</ele><time>2018-06-16T05:13:34Z</time></trkpt>
<trkpt lat="13.26117" lon="99.78200"><ele>13</ele><time>2018-06-16T05:13:36Z</time></trkpt>
<trkpt lat="13.26125" lon="99.78197"><ele>14</ele><time>2018-06-16T05:13:38Z</time></trkpt>
<trkpt lat="13.26132" lon="99.78193"><ele>15</ele><time>2018-06-16T05:13:40Z</time></trkpt>
<trkpt lat="13.26138" lon="99.78189"><ele>15</ele><time>2018-06-16T05:13:42Z</time></trkpt>
<trkpt lat="13.26144" lon="99.78185"><ele>15</ele><time>2018-06-16T05:13:44Z</time></trkpt>
<trkpt lat="13.26150" lon="99.78180"><ele>16</ele><time>2018-06-16T05:13:46Z</time></trkpt>
<trkpt lat="13.26154" lon="99.78174"><ele>16</ele><time>2018-06-16T05:13:48Z</time></trkpt>
<trkpt lat="13.26158" lon="99.78169"><ele>16</ele><time>2018-06-16T05:13:50Z</time></trkpt>
<trkpt lat="13.26162" lon="99.78164"><ele>16</ele><time>2018-06-16T05:13:52Z</time></trkpt>
<trkpt lat="13.26167" lon="99.78160"><ele>17</ele><time>2018-06-16T05:13:54Z</time></trkpt>
<trkpt lat="13.26173" lon="99.78156"><ele>17</ele><time>2018-06-16T05:13:56Z</time></trkpt>
<trkpt lat="13.26179" lon="99.78151"><ele>17</ele><time>2018-06-16T05:13:58Z</time></trkpt>
<trkpt lat="13.26185" lon="99.78146"><ele>18</ele><time>2018-06-16T05:14:00Z</time></trkpt>
<trkpt lat="13.26192" lon="99.78140"><ele>18</ele><time>2018-06-16T05:14:02Z</time></trkpt>
<trkpt lat="13.26196" lon="99.78137"><ele>18</ele><time>2018-06-16T05:14:03Z</time></trkpt>
<trkpt lat="13.26200" lon="99.78134"><ele>18</ele><time>2018-06-16T05:14:04Z</time></trkpt>
<trkpt lat="13.26204" lon="99.78131"><ele>18</ele><time>2018-06-16T05:14:05Z</time></trkpt>
<trkpt lat="13.26208" lon="99.78128"><ele>18</ele><time>2018-06-16T05:14:06Z</time></trkpt>
<trkpt lat="13.26212" lon="99.78125"><ele>18</ele><time>2018-06-16T05:14:07Z</time></trkpt>
<trkpt lat="13.26216" lon="99.78122"><ele>18</ele><time>2018-06-16T05:14:08Z</time></trkpt>
<trkpt lat="13.26220" lon="99.78119"><ele>18</ele><time>2018-06-16T05:14:09Z</time></trkpt>
<trkpt lat="13.26224" lon="99.78116"><ele>18</ele><time>2018-06-16T05:14:10Z</time></trkpt>
<trkpt lat="13.26230" lon="99.78110"><ele>18</ele><time>2018-06-16T05:14:12Z</time></trkpt>
<trkpt lat="13.26237" lon="99.78103"><ele>18</ele><time>2018-06-16T05:14:14Z</time></trkpt>
<trkpt lat="13.26240" lon="99.78100"><ele>18</ele><time>2018-06-16T05:14:15Z</time></trkpt>
<trkpt lat="13.26243" lon="99.78096"><ele>18</ele><time>2018-06-16T05:14:16Z</time></trkpt>
<trkpt lat="13.26245" lon="99.78092"><ele>18</ele><time>2018-06-16T05:14:17Z</time></trkpt>
<trkpt lat="13.26248" lon="99.78088"><ele>18</ele><time>2018-06-16T05:14:18Z</time></trkpt>
<trkpt lat="13.26250" lon="99.78083"><ele>18</ele><time>2018-06-16T05:14:19Z</time></trkpt>
<trkpt lat="13.26252" lon="99.78079"><ele>18</ele><time>2018-06-16T05:14:20Z</time></trkpt>
<trkpt lat="13.26254" lon="99.78075"><ele>18</ele><time>2018-06-16T05:14:21Z</time></trkpt>
<trkpt lat="13.26256" lon="99.78071"><ele>18</ele><time>2018-06-16T05:14:22Z</time></trkpt>
<trkpt lat="13.26259" lon="99.78066"><ele>19</ele><time>2018-06-16T05:14:23Z</time></trkpt>
<trkpt lat="13.26261" lon="99.78062"><ele>19</ele><time>2018-06-16T05:14:24Z</time></trkpt>
<trkpt lat="13.26264" lon="99.78059"><ele>19</ele><time>2018-06-16T05:14:25Z</time></trkpt>
<trkpt lat="13.26269" lon="99.78052"><ele>19</ele><time>2018-06-16T05:14:27Z</time></trkpt>
<trkpt lat="13.26273" lon="99.78044"><ele>19</ele><time>2018-06-16T05:14:29Z</time></trkpt>
<trkpt lat="13.26277" lon="99.78037"><ele>19</ele><time>2018-06-16T05:14:31Z</time></trkpt>
<trkpt lat="13.26281" lon="99.78030"><ele>19</ele><time>2018-06-16T05:14:33Z</time></trkpt>
<trkpt lat="13.26286" lon="99.78022"><ele>19</ele><time>2018-06-16T05:14:35Z</time></trkpt>
<trkpt lat="13.26288" lon="99.78013"><ele>18</ele><time>2018-06-16T05:14:37Z</time></trkpt>
<trkpt lat="13.26289" lon="99.78009"><ele>18</ele><time>2018-06-16T05:14:38Z</time></trkpt>
<trkpt lat="13.26290" lon="99.78004"><ele>18</ele><time>2018-06-16T05:14:39Z</time></trkpt>
<trkpt lat="13.26290" lon="99.77999"><ele>19</ele><time>2018-06-16T05:14:40Z</time></trkpt>
<trkpt lat="13.26290" lon="99.77994"><ele>19</ele><time>2018-06-16T05:14:41Z</time></trkpt>
<trkpt lat="13.26290" lon="99.77990"><ele>18</ele><time>2018-06-16T05:14:42Z</time></trkpt>
<trkpt lat="13.26290" lon="99.77981"><ele>18</ele><time>2018-06-16T05:14:44Z</time></trkpt>
<trkpt lat="13.26290" lon="99.77972"><ele>17</ele><time>2018-06-16T05:14:46Z</time></trkpt>
<trkpt lat="13.26289" lon="99.77963"><ele>17</ele><time>2018-06-16T05:14:48Z</time></trkpt>
<trkpt lat="13.26289" lon="99.77957"><ele>17</ele><time>2018-06-16T05:14:50Z</time></trkpt>
<trkpt lat="13.26293" lon="99.77953"><ele>17</ele><time>2018-06-16T05:14:52Z</time></trkpt>
<trkpt lat="13.26297" lon="99.77951"><ele>18</ele><time>2018-06-16T05:14:55Z</time></trkpt>
<trkpt lat="13.26300" lon="99.77946"><ele>18</ele><time>2018-06-16T05:14:58Z</time></trkpt>
<trkpt lat="13.26300" lon="99.77939"><ele>18</ele><time>2018-06-16T05:15:01Z</time></trkpt>
<trkpt lat="13.26300" lon="99.77934"><ele>18</ele><time>2018-06-16T05:15:03Z</time></trkpt>
<trkpt lat="13.26300" lon="99.77928"><ele>18</ele><time>2018-06-16T05:15:04Z</time></trkpt>
<trkpt lat="13.26299" lon="99.77921"><ele>18</ele><time>2018-06-16T05:15:06Z</time></trkpt>
<trkpt lat="13.26299" lon="99.77914"><ele>18</ele><time>2018-06-16T05:15:08Z</time></trkpt>
<trkpt lat="13.26298" lon="99.77906"><ele>18</ele><time>2018-06-16T05:15:10Z</time></trkpt>
<trkpt lat="13.26298" lon="99.77899"><ele>18</ele><time>2018-06-16T05:15:12Z</time></trkpt>
<trkpt lat="13.26298" lon="99.77891"><ele>19</ele><time>2018-06-16T05:15:14Z</time></trkpt>
<trkpt lat="13.26297" lon="99.77883"><ele>19</ele><time>2018-06-16T05:15:16Z</time></trkpt>
<trkpt lat="13.26296" lon="99.77875"><ele>20</ele><time>2018-06-16T05:15:18Z</time></trkpt>
<trkpt lat="13.26295" lon="99.77867"><ele>19</ele><time>2018-06-16T05:15:20Z</time></trkpt>
<trkpt lat="13.26295" lon="99.77860"><ele>19</ele><time>2018-06-16T05:15:22Z</time></trkpt>
<trkpt lat="13.26294" lon="99.77852"><ele>20</ele><time>2018-06-16T05:15:24Z</time></trkpt>
<trkpt lat="13.26294" lon="99.77845"><ele>20</ele><time>2018-06-16T05:15:26Z</time></trkpt>
<trkpt lat="13.26294" lon="99.77837"><ele>20</ele><time>2018-06-16T05:15:28Z</time></trkpt>
<trkpt lat="13.26294" lon="99.77829"><ele>19</ele><time>2018-06-16T05:15:30Z</time></trkpt>
<trkpt lat="13.26295" lon="99.77820"><ele>19</ele><time>2018-06-16T05:15:32Z</time></trkpt>
<trkpt lat="13.26296" lon="99.77811"><ele>20</ele><time>2018-06-16T05:15:34Z</time></trkpt>
<trkpt lat="13.26297" lon="99.77803"><ele>20</ele><time>2018-06-16T05:15:36Z</time></trkpt>
<trkpt lat="13.26298" lon="99.77796"><ele>20</ele><time>2018-06-16T05:15:38Z</time></trkpt>
<trkpt lat="13.26300" lon="99.77789"><ele>20</ele><time>2018-06-16T05:15:40Z</time></trkpt>
<trkpt lat="13.26303" lon="99.77782"><ele>21</ele><time>2018-06-16T05:15:42Z</time></trkpt>
<trkpt lat="13.26305" lon="99.77774"><ele>21</ele><time>2018-06-16T05:15:44Z</time></trkpt>
<trkpt lat="13.26308" lon="99.77767"><ele>21</ele><time>2018-06-16T05:15:46Z</time></trkpt>
<trkpt lat="13.26310" lon="99.77759"><ele>21</ele><time>2018-06-16T05:15:48Z</time></trkpt>
<trkpt lat="13.26312" lon="99.77751"><ele>21</ele><time>2018-06-16T05:15:50Z</time></trkpt>
<trkpt lat="13.26314" lon="99.77743"><ele>21</ele><time>2018-06-16T05:15:52Z</time></trkpt>
<trkpt lat="13.26315" lon="99.77735"><ele>21</ele><time>2018-06-16T05:15:54Z</time></trkpt>
<trkpt lat="13.26315" lon="99.77727"><ele>21</ele><time>2018-06-16T05:15:56Z</time></trkpt>
<trkpt lat="13.26315" lon="99.77719"><ele>21</ele><time>2018-06-16T05:15:58Z</time></trkpt>
<trkpt lat="13.26315" lon="99.77710"><ele>21</ele><time>2018-06-16T05:16:00Z</time></trkpt>
<trkpt lat="13.26315" lon="99.77700"><ele>22</ele><time>2018-06-16T05:16:02Z</time></trkpt>
<trkpt lat="13.26315" lon="99.77696"><ele>22</ele><time>2018-06-16T05:16:03Z</time></trkpt>
<trkpt lat="13.26316" lon="99.77691"><ele>22</ele><time>2018-06-16T05:16:04Z</time></trkpt>
<trkpt lat="13.26317" lon="99.77686"><ele>22</ele><time>2018-06-16T05:16:05Z</time></trkpt>
<trkpt lat="13.26317" lon="99.77678"><ele>22</ele><time>2018-06-16T05:16:07Z</time></trkpt>
<trkpt lat="13.26317" lon="99.77671"><ele>22</ele><time>2018-06-16T05:16:09Z</time></trkpt>
<trkpt lat="13.26319" lon="99.77664"><ele>22</ele><time>2018-06-16T05:16:11Z</time></trkpt>
<trkpt lat="13.26319" lon="99.77656"><ele>21</ele><time>2018-06-16T05:16:13Z</time></trkpt>
<trkpt lat="13.26319" lon="99.77649"><ele>21</ele><time>2018-06-16T05:16:15Z</time></trkpt>
<trkpt lat="13.26320" lon="99.77640"><ele>22</ele><time>2018-06-16T05:16:17Z</time></trkpt>
<trkpt lat="13.26322" lon="99.77631"><ele>22</ele><time>2018-06-16T05:16:19Z</time></trkpt>
<trkpt lat="13.26323" lon="99.77627"><ele>22</ele><time>2018-06-16T05:16:20Z</time></trkpt>
<trkpt lat="13.26326" lon="99.77623"><ele>23</ele><time>2018-06-16T05:16:21Z</time></trkpt>
<trkpt lat="13.26328" lon="99.77618"><ele>23</ele><time>2018-06-16T05:16:22Z</time></trkpt>
<trkpt lat="13.26330" lon="99.77614"><ele>23</ele><time>2018-06-16T05:16:23Z</time></trkpt>
<trkpt lat="13.26335" lon="99.77607"><ele>24</ele><time>2018-06-16T05:16:25Z</time></trkpt>
<trkpt lat="13.26339" lon="99.77599"><ele>23</ele><time>2018-06-16T05:16:27Z</time></trkpt>
<trkpt lat="13.26341" lon="99.77592"><ele>23</ele><time>2018-06-16T05:16:29Z</time></trkpt>
<trkpt lat="13.26344" lon="99.77586"><ele>24</ele><time>2018-06-16T05:16:31Z</time></trkpt>
<trkpt lat="13.26347" lon="99.77579"><ele>24</ele><time>2018-06-16T05:16:33Z</time></trkpt>
<trkpt lat="13.26351" lon="99.77572"><ele>25</ele><time>2018-06-16T05:16:35Z</time></trkpt>
<trkpt lat="13.26353" lon="99.77563"><ele>25</ele><time>2018-06-16T05:16:37Z</time></trkpt>
<trkpt lat="13.26356" lon="99.77555"><ele>25</ele><time>2018-06-16T05:16:39Z</time></trkpt>
<trkpt lat="13.26359" lon="99.77548"><ele>25</ele><time>2018-06-16T05:16:41Z</time></trkpt>
<trkpt lat="13.26363" lon="99.77540"><ele>25</ele><time>2018-06-16T05:16:43Z</time></trkpt>
<trkpt lat="13.26366" lon="99.77532"><ele>25</ele><time>2018-06-16T05:16:45Z</time></trkpt>
<trkpt lat="13.26369" lon="99.77525"><ele>26</ele><time>2018-06-16T05:16:47Z</time></trkpt>
<trkpt lat="13.26372" lon="99.77521"><ele>26</ele><time>2018-06-16T05:16:49Z</time></trkpt>
<trkpt lat="13.26375" lon="99.77517"><ele>26</ele><time>2018-06-16T05:16:52Z</time></trkpt>
<trkpt lat="13.26378" lon="99.77513"><ele>26</ele><time>2018-06-16T05:16:56Z</time></trkpt>
<trkpt lat="13.26382" lon="99.77510"><ele>26</ele><time>2018-06-16T05:17:01Z</time></trkpt>
<trkpt lat="13.26386" lon="99.77506"><ele>27</ele><time>2018-06-16T05:17:07Z</time></trkpt>
<trkpt lat="13.26390" lon="99.77502"><ele>27</ele><time>2018-06-16T05:17:11Z</time></trkpt>
<trkpt lat="13.26394" lon="99.77497"><ele>27</ele><time>2018-06-16T05:17:14Z</time></trkpt>
<trkpt lat="13.26396" lon="99.77493"><ele>27</ele><time>2018-06-16T05:17:16Z</time></trkpt>
<trkpt lat="13.26399" lon="99.77488"><ele>27</ele><time>2018-06-16T05:17:18Z</time></trkpt>
<trkpt lat="13.26402" lon="99.77483"><ele>27</ele><time>2018-06-16T05:17:20Z</time></trkpt>
<trkpt lat="13.26406" lon="99.77478"><ele>28</ele><time>2018-06-16T05:17:22Z</time></trkpt>
<trkpt lat="13.26409" lon="99.77473"><ele>27</ele><time>2018-06-16T05:17:24Z</time></trkpt>
<trkpt lat="13.26414" lon="99.77467"><ele>27</ele><time>2018-06-16T05:17:26Z</time></trkpt>
<trkpt lat="13.26419" lon="99.77462"><ele>27</ele><time>2018-06-16T05:17:28Z</time></trkpt>
<trkpt lat="13.26426" lon="99.77459"><ele>28</ele><time>2018-06-16T05:17:30Z</time></trkpt>
<trkpt lat="13.26433" lon="99.77457"><ele>27</ele><time>2018-06-16T05:17:32Z</time></trkpt>
<trkpt lat="13.26441" lon="99.77457"><ele>27</ele><time>2018-06-16T05:17:34Z</time></trkpt>
<trkpt lat="13.26448" lon="99.77457"><ele>27</ele><time>2018-06-16T05:17:36Z</time></trkpt>
<trkpt lat="13.26454" lon="99.77456"><ele>27</ele><time>2018-06-16T05:17:38Z</time></trkpt>
<trkpt lat="13.26461" lon="99.77455"><ele>27</ele><time>2018-06-16T05:17:40Z</time></trkpt>
<trkpt lat="13.26468" lon="99.77455"><ele>27</ele><time>2018-06-16T05:17:42Z</time></trkpt>
<trkpt lat="13.26472" lon="99.77456"><ele>27</ele><time>2018-06-16T05:17:50Z</time></trkpt>
<trkpt lat="13.26477" lon="99.77455"><ele>26</ele><time>2018-06-16T05:18:08Z</time></trkpt>
<trkpt lat="13.26481" lon="99.77454"><ele>26</ele><time>2018-06-16T05:18:34Z</time></trkpt>
<trkpt lat="13.26486" lon="99.77453"><ele>26</ele><time>2018-06-16T05:19:12Z</time></trkpt>
<trkpt lat="13.26490" lon="99.77452"><ele>26</ele><time>2018-06-16T05:19:21Z</time></trkpt>
<trkpt lat="13.26494" lon="99.77449"><ele>26</ele><time>2018-06-16T05:19:44Z</time></trkpt>
<trkpt lat="13.26498" lon="99.77445"><ele>25</ele><time>2018-06-16T05:19:46Z</time></trkpt>
<trkpt lat="13.26506" lon="99.77443"><ele>25</ele><time>2018-06-16T05:19:48Z</time></trkpt>
<trkpt lat="13.26514" lon="99.77442"><ele>25</ele><time>2018-06-16T05:19:50Z</time></trkpt>
<trkpt lat="13.26523" lon="99.77442"><ele>25</ele><time>2018-06-16T05:19:52Z</time></trkpt>
<trkpt lat="13.26529" lon="99.77441"><ele>25</ele><time>2018-06-16T05:19:54Z</time></trkpt>
<trkpt lat="13.26537" lon="99.77437"><ele>23</ele><time>2018-06-16T05:19:56Z</time></trkpt>
<trkpt lat="13.26544" lon="99.77433"><ele>22</ele><time>2018-06-16T05:19:58Z</time></trkpt>
<trkpt lat="13.26549" lon="99.77431"><ele>21</ele><time>2018-06-16T05:19:59Z</time></trkpt>
<trkpt lat="13.26554" lon="99.77428"><ele>21</ele><time>2018-06-16T05:20:00Z</time></trkpt>
<trkpt lat="13.26558" lon="99.77425"><ele>21</ele><time>2018-06-16T05:20:01Z</time></trkpt>
<trkpt lat="13.26567" lon="99.77421"><ele>20</ele><time>2018-06-16T05:20:02Z</time></trkpt>
<trkpt lat="13.26573" lon="99.77417"><ele>20</ele><time>2018-06-16T05:20:03Z</time></trkpt>
<trkpt lat="13.26579" lon="99.77413"><ele>21</ele><time>2018-06-16T05:20:04Z</time></trkpt>
<trkpt lat="13.26586" lon="99.77408"><ele>21</ele><time>2018-06-16T05:20:05Z</time></trkpt>
<trkpt lat="13.26593" lon="99.77405"><ele>22</ele><time>2018-06-16T05:20:06Z</time></trkpt>
<trkpt lat="13.26599" lon="99.77402"><ele>20</ele><time>2018-06-16T05:20:07Z</time></trkpt>
<trkpt lat="13.26603" lon="99.77399"><ele>20</ele><time>2018-06-16T05:20:08Z</time></trkpt>
<trkpt lat="13.26607" lon="99.77396"><ele>19</ele><time>2018-06-16T05:20:09Z</time></trkpt>
<trkpt lat="13.26614" lon="99.77390"><ele>18</ele><time>2018-06-16T05:20:11Z</time></trkpt>
<trkpt lat="13.26618" lon="99.77386"><ele>18</ele><time>2018-06-16T05:20:12Z</time></trkpt>
<trkpt lat="13.26623" lon="99.77380"><ele>18</ele><time>2018-06-16T05:20:14Z</time></trkpt>
<trkpt lat="13.26628" lon="99.77375"><ele>18</ele><time>2018-06-16T05:20:16Z</time></trkpt>
<trkpt lat="13.26633" lon="99.77370"><ele>18</ele><time>2018-06-16T05:20:18Z</time></trkpt>
<trkpt lat="13.26639" lon="99.77366"><ele>18</ele><time>2018-06-16T05:20:20Z</time></trkpt>
<trkpt lat="13.26644" lon="99.77361"><ele>17</ele><time>2018-06-16T05:20:22Z</time></trkpt>
<trkpt lat="13.26649" lon="99.77357"><ele>17</ele><time>2018-06-16T05:20:24Z</time></trkpt>
<trkpt lat="13.26653" lon="99.77352"><ele>17</ele><time>2018-06-16T05:20:26Z</time></trkpt>
<trkpt lat="13.26657" lon="99.77348"><ele>17</ele><time>2018-06-16T05:20:28Z</time></trkpt>
<trkpt lat="13.26663" lon="99.77343"><ele>17</ele><time>2018-06-16T05:20:30Z</time></trkpt>
<trkpt lat="13.26668" lon="99.77340"><ele>16</ele><time>2018-06-16T05:20:32Z</time></trkpt>
<trkpt lat="13.26672" lon="99.77336"><ele>17</ele><time>2018-06-16T05:20:34Z</time></trkpt>
<trkpt lat="13.26676" lon="99.77333"><ele>16</ele><time>2018-06-16T05:20:36Z</time></trkpt>
<trkpt lat="13.26679" lon="99.77330"><ele>16</ele><time>2018-06-16T05:20:38Z</time></trkpt>
<trkpt lat="13.26683" lon="99.77327"><ele>16</ele><time>2018-06-16T05:20:42Z</time></trkpt>
<trkpt lat="13.26686" lon="99.77322"><ele>15</ele><time>2018-06-16T05:21:10Z</time></trkpt>
<trkpt lat="13.26690" lon="99.77319"><ele>15</ele><time>2018-06-16T05:21:15Z</time></trkpt>
<trkpt lat="13.26693" lon="99.77315"><ele>15</ele><time>2018-06-16T05:21:42Z</time></trkpt>
<trkpt lat="13.26698" lon="99.77309"><ele>15</ele><time>2018-06-16T05:21:45Z</time></trkpt>
<trkpt lat="13.26703" lon="99.77304"><ele>15</ele><time>2018-06-16T05:21:47Z</time></trkpt>
<trkpt lat="13.26708" lon="99.77299"><ele>15</ele><time>2018-06-16T05:21:49Z</time></trkpt>
<trkpt lat="13.26715" lon="99.77294"><ele>16</ele><time>2018-06-16T05:21:51Z</time></trkpt>
<trkpt lat="13.26722" lon="99.77288"><ele>15</ele><time>2018-06-16T05:21:53Z</time></trkpt>
<trkpt lat="13.26729" lon="99.77284"><ele>16</ele><time>2018-06-16T05:21:55Z</time></trkpt>
<trkpt lat="13.26735" lon="99.77279"><ele>15</ele><time>2018-06-16T05:21:57Z</time></trkpt>
<trkpt lat="13.26740" lon="99.77273"><ele>16</ele><time>2018-06-16T05:21:59Z</time></trkpt>
<trkpt lat="13.26744" lon="99.77268"><ele>15</ele><time>2018-06-16T05:22:01Z</time></trkpt>
<trkpt lat="13.26748" lon="99.77263"><ele>15</ele><time>2018-06-16T05:22:03Z</time></trkpt>
<trkpt lat="13.26752" lon="99.77256"><ele>14</ele><time>2018-06-16T05:22:05Z</time></trkpt>
<trkpt lat="13.26755" lon="99.77248"><ele>14</ele><time>2018-06-16T05:22:07Z</time></trkpt>
<trkpt lat="13.26756" lon="99.77240"><ele>15</ele><time>2018-06-16T05:22:09Z</time></trkpt>
<trkpt lat="13.26756" lon="99.77232"><ele>14</ele><time>2018-06-16T05:22:11Z</time></trkpt>
<trkpt lat="13.26756" lon="99.77226"><ele>14</ele><time>2018-06-16T05:22:13Z</time></trkpt>
<trkpt lat="13.26757" lon="99.77220"><ele>14</ele><time>2018-06-16T05:22:15Z</time></trkpt>
<trkpt lat="13.26758" lon="99.77215"><ele>15</ele><time>2018-06-16T05:22:18Z</time></trkpt>
<trkpt lat="13.26760" lon="99.77210"><ele>15</ele><time>2018-06-16T05:22:46Z</time></trkpt>
<trkpt lat="13.26761" lon="99.77204"><ele>15</ele><time>2018-06-16T05:22:49Z</time></trkpt>
<trkpt lat="13.26762" lon="99.77199"><ele>15</ele><time>2018-06-16T05:22:51Z</time></trkpt>
<trkpt lat="13.26763" lon="99.77193"><ele>15</ele><time>2018-06-16T05:22:54Z</time></trkpt>
<trkpt lat="13.26764" lon="99.77189"><ele>15</ele><time>2018-06-16T05:22:57Z</time></trkpt>
<trkpt lat="13.26764" lon="99.77183"><ele>15</ele><time>2018-06-16T05:23:02Z</time></trkpt>
<trkpt lat="13.26764" lon="99.77178"><ele>15</ele><time>2018-06-16T05:23:58Z</time></trkpt>
<trkpt lat="13.26764" lon="99.77172"><ele>14</ele><time>2018-06-16T05:24:01Z</time></trkpt>
<trkpt lat="13.26766" lon="99.77167"><ele>14</ele><time>2018-06-16T05:24:03Z</time></trkpt>
<trkpt lat="13.26769" lon="99.77162"><ele>14</ele><time>2018-06-16T05:24:06Z</time></trkpt>
<trkpt lat="13.26773" lon="99.77159"><ele>15</ele><time>2018-06-16T05:24:16Z</time></trkpt>
<trkpt lat="13.26778" lon="99.77156"><ele>14</ele><time>2018-06-16T05:24:21Z</time></trkpt>
<trkpt lat="13.26783" lon="99.77153"><ele>14</ele><time>2018-06-16T05:24:23Z</time></trkpt>
<trkpt lat="13.26789" lon="99.77148"><ele>14</ele><time>2018-06-16T05:24:25Z</time></trkpt>
<trkpt lat="13.26792" lon="99.77141"><ele>13</ele><time>2018-06-16T05:24:27Z</time></trkpt>
<trkpt lat="13.26792" lon="99.77132"><ele>13</ele><time>2018-06-16T05:24:29Z</time></trkpt>
<trkpt lat="13.26791" lon="99.77124"><ele>13</ele><time>2018-06-16T05:24:31Z</time></trkpt>
<trkpt lat="13.26789" lon="99.77115"><ele>13</ele><time>2018-06-16T05:24:33Z</time></trkpt>
<trkpt lat="13.26786" lon="99.77109"><ele>15</ele><time>2018-06-16T05:24:35Z</time></trkpt>
<trkpt lat="13.26783" lon="99.77104"><ele>14</ele><time>2018-06-16T05:24:37Z</time></trkpt>
<trkpt lat="13.26781" lon="99.77098"><ele>14</ele><time>2018-06-16T05:24:40Z</time></trkpt>
<trkpt lat="13.26780" lon="99.77092"><ele>13</ele><time>2018-06-16T05:24:42Z</time></trkpt>
<trkpt lat="13.26780" lon="99.77087"><ele>13</ele><time>2018-06-16T05:24:46Z</time></trkpt>
<trkpt lat="13.26778" lon="99.77082"><ele>12</ele><time>2018-06-16T05:25:02Z</time></trkpt>
<trkpt lat="13.26774" lon="99.77079"><ele>13</ele><time>2018-06-16T05:25:04Z</time></trkpt>
<trkpt lat="13.26771" lon="99.77075"><ele>13</ele><time>2018-06-16T05:25:06Z</time></trkpt>
<trkpt lat="13.26767" lon="99.77071"><ele>13</ele><time>2018-06-16T05:25:08Z</time></trkpt>
<trkpt lat="13.26762" lon="99.77066"><ele>12</ele><time>2018-06-16T05:25:10Z</time></trkpt>
<trkpt lat="13.26756" lon="99.77061"><ele>12</ele><time>2018-06-16T05:25:12Z</time></trkpt>
<trkpt lat="13.26750" lon="99.77056"><ele>12</ele><time>2018-06-16T05:25:14Z</time></trkpt>
<trkpt lat="13.26746" lon="99.77050"><ele>12</ele><time>2018-06-16T05:25:16Z</time></trkpt>
<trkpt lat="13.26744" lon="99.77043"><ele>12</ele><time>2018-06-16T05:25:18Z</time></trkpt>
<trkpt lat="13.26742" lon="99.77037"><ele>12</ele><time>2018-06-16T05:25:20Z</time></trkpt>
<trkpt lat="13.26740" lon="99.77030"><ele>11</ele><time>2018-06-16T05:25:22Z</time></trkpt>
<trkpt lat="13.26739" lon="99.77023"><ele>10</ele><time>2018-06-16T05:25:24Z</time></trkpt>
<trkpt lat="13.26737" lon="99.77015"><ele>10</ele><time>2018-06-16T05:25:26Z</time></trkpt>
<trkpt lat="13.26735" lon="99.77006"><ele>10</ele><time>2018-06-16T05:25:28Z</time></trkpt>
<trkpt lat="13.26734" lon="99.76998"><ele>11</ele><time>2018-06-16T05:25:30Z</time></trkpt>
<trkpt lat="13.26732" lon="99.76989"><ele>12</ele><time>2018-06-16T05:25:32Z</time></trkpt>
<trkpt lat="13.26727" lon="99.76983"><ele>12</ele><time>2018-06-16T05:25:34Z</time></trkpt>
<trkpt lat="13.26720" lon="99.76977"><ele>12</ele><time>2018-06-16T05:25:36Z</time></trkpt>
<trkpt lat="13.26716" lon="99.76974"><ele>12</ele><time>2018-06-16T05:25:37Z</time></trkpt>
<trkpt lat="13.26712" lon="99.76972"><ele>12</ele><time>2018-06-16T05:25:38Z</time></trkpt>
<trkpt lat="13.26709" lon="99.76969"><ele>12</ele><time>2018-06-16T05:25:39Z</time></trkpt>
<trkpt lat="13.26705" lon="99.76966"><ele>12</ele><time>2018-06-16T05:25:40Z</time></trkpt>
<trkpt lat="13.26698" lon="99.76960"><ele>12</ele><time>2018-06-16T05:25:42Z</time></trkpt>
<trkpt lat="13.26692" lon="99.76954"><ele>13</ele><time>2018-06-16T05:25:44Z</time></trkpt>
<trkpt lat="13.26686" lon="99.76948"><ele>13</ele><time>2018-06-16T05:25:46Z</time></trkpt>
<trkpt lat="13.26682" lon="99.76946"><ele>13</ele><time>2018-06-16T05:25:47Z</time></trkpt>
<trkpt lat="13.26678" lon="99.76943"><ele>13</ele><time>2018-06-16T05:25:48Z</time></trkpt>
<trkpt lat="13.26674" lon="99.76940"><ele>13</ele><time>2018-06-16T05:25:49Z</time></trkpt>
<trkpt lat="13.26669" lon="99.76938"><ele>14</ele><time>2018-06-16T05:25:50Z</time></trkpt>
<trkpt lat="13.26665" lon="99.76935"><ele>14</ele><time>2018-06-16T05:25:51Z</time></trkpt>
<trkpt lat="13.26661" lon="99.76933"><ele>14</ele><time>2018-06-16T05:25:52Z</time></trkpt>
<trkpt lat="13.26657" lon="99.76931"><ele>14</ele><time>2018-06-16T05:25:53Z</time></trkpt>
<trkpt lat="13.26653" lon="99.76928"><ele>14</ele><time>2018-06-16T05:25:54Z</time></trkpt>
<trkpt lat="13.26649" lon="99.76926"><ele>14</ele><time>2018-06-16T05:25:55Z</time></trkpt>
<trkpt lat="13.26645" lon="99.76924"><ele>14</ele><time>2018-06-16T05:25:56Z</time></trkpt>
<trkpt lat="13.26639" lon="99.76918"><ele>14</ele><time>2018-06-16T05:25:58Z</time></trkpt>
<trkpt lat="13.26633" lon="99.76913"><ele>15</ele><time>2018-06-16T05:26:00Z</time></trkpt>
<trkpt lat="13.26626" lon="99.76910"><ele>14</ele><time>2018-06-16T05:26:02Z</time></trkpt>
<trkpt lat="13.26620" lon="99.76907"><ele>14</ele><time>2018-06-16T05:26:04Z</time></trkpt>
<trkpt lat="13.26614" lon="99.76905"><ele>13</ele><time>2018-06-16T05:26:06Z</time></trkpt>
<trkpt lat="13.26606" lon="99.76901"><ele>13</ele><time>2018-06-16T05:26:08Z</time></trkpt>
<trkpt lat="13.26602" lon="99.76898"><ele>13</ele><time>2018-06-16T05:26:09Z</time></trkpt>
<trkpt lat="13.26595" lon="99.76893"><ele>12</ele><time>2018-06-16T05:26:11Z</time></trkpt>
<trkpt lat="13.26588" lon="99.76890"><ele>12</ele><time>2018-06-16T05:26:13Z</time></trkpt>
<trkpt lat="13.26581" lon="99.76889"><ele>13</ele><time>2018-06-16T05:26:15Z</time></trkpt>
<trkpt lat="13.26575" lon="99.76888"><ele>14</ele><time>2018-06-16T05:26:17Z</time></trkpt>
<trkpt lat="13.26570" lon="99.76887"><ele>13</ele><time>2018-06-16T05:26:20Z</time></trkpt>
<trkpt lat="13.26566" lon="99.76884"><ele>14</ele><time>2018-06-16T05:26:23Z</time></trkpt>
<trkpt lat="13.26562" lon="99.76886"><ele>15</ele><time>2018-06-16T05:26:26Z</time></trkpt>
<trkpt lat="13.26557" lon="99.76891"><ele>15</ele><time>2018-06-16T05:26:29Z</time></trkpt>
<trkpt lat="13.26552" lon="99.76892"><ele>15</ele><time>2018-06-16T05:26:32Z</time></trkpt>
<trkpt lat="13.26546" lon="99.76895"><ele>15</ele><time>2018-06-16T05:26:40Z</time></trkpt>
<trkpt lat="13.26540" lon="99.76897"><ele>15</ele><time>2018-06-16T05:26:42Z</time></trkpt>
<trkpt lat="13.26534" lon="99.76898"><ele>15</ele><time>2018-06-16T05:26:44Z</time></trkpt>
<trkpt lat="13.26528" lon="99.76899"><ele>15</ele><time>2018-06-16T05:26:46Z</time></trkpt>
<trkpt lat="13.26523" lon="99.76899"><ele>15</ele><time>2018-06-16T05:26:48Z</time></trkpt>
<trkpt lat="13.26518" lon="99.76898"><ele>16</ele><time>2018-06-16T05:26:50Z</time></trkpt>
<trkpt lat="13.26514" lon="99.76897"><ele>16</ele><time>2018-06-16T05:26:52Z</time></trkpt>
<trkpt lat="13.26509" lon="99.76895"><ele>16</ele><time>2018-06-16T05:26:54Z</time></trkpt>
<trkpt lat="13.26504" lon="99.76894"><ele>16</ele><time>2018-06-16T05:26:56Z</time></trkpt>
<trkpt lat="13.26499" lon="99.76892"><ele>16</ele><time>2018-06-16T05:26:59Z</time></trkpt>
<trkpt lat="13.26494" lon="99.76890"><ele>17</ele><time>2018-06-16T05:27:04Z</time></trkpt>
<trkpt lat="13.26490" lon="99.76887"><ele>17</ele><time>2018-06-16T05:27:08Z</time></trkpt>
<trkpt lat="13.26487" lon="99.76882"><ele>17</ele><time>2018-06-16T05:27:13Z</time></trkpt>
<trkpt lat="13.26483" lon="99.76880"><ele>18</ele><time>2018-06-16T05:27:20Z</time></trkpt>
<trkpt lat="13.26481" lon="99.76875"><ele>18</ele><time>2018-06-16T05:27:42Z</time></trkpt>
<trkpt lat="13.26479" lon="99.76869"><ele>18</ele><time>2018-06-16T05:27:45Z</time></trkpt>
<trkpt lat="13.26477" lon="99.76865"><ele>18</ele><time>2018-06-16T05:27:47Z</time></trkpt>
<trkpt lat="13.26475" lon="99.76860"><ele>17</ele><time>2018-06-16T05:27:49Z</time></trkpt>
<trkpt lat="13.26473" lon="99.76853"><ele>17</ele><time>2018-06-16T05:27:51Z</time></trkpt>
<trkpt lat="13.26473" lon="99.76847"><ele>17</ele><time>2018-06-16T05:27:53Z</time></trkpt>
<trkpt lat="13.26474" lon="99.76841"><ele>17</ele><time>2018-06-16T05:27:55Z</time></trkpt>
<trkpt lat="13.26476" lon="99.76836"><ele>17</ele><time>2018-06-16T05:27:57Z</time></trkpt>
<trkpt lat="13.26477" lon="99.76829"><ele>17</ele><time>2018-06-16T05:27:59Z</time></trkpt>
<trkpt lat="13.26478" lon="99.76821"><ele>18</ele><time>2018-06-16T05:28:01Z</time></trkpt>
<trkpt lat="13.26479" lon="99.76813"><ele>18</ele><time>2018-06-16T05:28:03Z</time></trkpt>
<trkpt lat="13.26480" lon="99.76806"><ele>18</ele><time>2018-06-16T05:28:05Z</time></trkpt>
<trkpt lat="13.26481" lon="99.76798"><ele>18</ele><time>2018-06-16T05:28:07Z</time></trkpt>
<trkpt lat="13.26482" lon="99.76790"><ele>18</ele><time>2018-06-16T05:28:09Z</time></trkpt>
<trkpt lat="13.26483" lon="99.76784"><ele>19</ele><time>2018-06-16T05:28:11Z</time></trkpt>
<trkpt lat="13.26483" lon="99.76777"><ele>20</ele><time>2018-06-16T05:28:13Z</time></trkpt>
<trkpt lat="13.26482" lon="99.76771"><ele>20</ele><time>2018-06-16T05:28:15Z</time></trkpt>
<trkpt lat="13.26484" lon="99.76766"><ele>20</ele><time>2018-06-16T05:28:19Z</time></trkpt>
<trkpt lat="13.26489" lon="99.76764"><ele>20</ele><time>2018-06-16T05:28:22Z</time></trkpt>
<trkpt lat="13.26496" lon="99.76763"><ele>21</ele><time>2018-06-16T05:28:25Z</time></trkpt>
<trkpt lat="13.26500" lon="99.76762"><ele>21</ele><time>2018-06-16T05:28:27Z</time></trkpt>
<trkpt lat="13.26505" lon="99.76762"><ele>21</ele><time>2018-06-16T05:28:29Z</time></trkpt>
<trkpt lat="13.26511" lon="99.76761"><ele>21</ele><time>2018-06-16T05:28:31Z</time></trkpt>
<trkpt lat="13.26516" lon="99.76759"><ele>21</ele><time>2018-06-16T05:28:33Z</time></trkpt>
<trkpt lat="13.26522" lon="99.76758"><ele>22</ele><time>2018-06-16T05:28:35Z</time></trkpt>
<trkpt lat="13.26529" lon="99.76756"><ele>22</ele><time>2018-06-16T05:28:37Z</time></trkpt>
<trkpt lat="13.26536" lon="99.76754"><ele>22</ele><time>2018-06-16T05:28:39Z</time></trkpt>
<trkpt lat="13.26544" lon="99.76752"><ele>22</ele><time>2018-06-16T05:28:41Z</time></trkpt>
<trkpt lat="13.26552" lon="99.76749"><ele>22</ele><time>2018-06-16T05:28:43Z</time></trkpt>
<trkpt lat="13.26560" lon="99.76745"><ele>21</ele><time>2018-06-16T05:28:45Z</time></trkpt>
<trkpt lat="13.26565" lon="99.76743"><ele>22</ele><time>2018-06-16T05:28:47Z</time></trkpt>
<trkpt lat="13.26570" lon="99.76744"><ele>22</ele><time>2018-06-16T05:28:49Z</time></trkpt>
<trkpt lat="13.26576" lon="99.76744"><ele>23</ele><time>2018-06-16T05:28:51Z</time></trkpt>
<trkpt lat="13.26581" lon="99.76743"><ele>23</ele><time>2018-06-16T05:28:53Z</time></trkpt>
<trkpt lat="13.26586" lon="99.76739"><ele>23</ele><time>2018-06-16T05:28:56Z</time></trkpt>
<trkpt lat="13.26587" lon="99.76734"><ele>23</ele><time>2018-06-16T05:28:58Z</time></trkpt>
<trkpt lat="13.26588" lon="99.76728"><ele>23</ele><time>2018-06-16T05:29:00Z</time></trkpt>
<trkpt lat="13.26589" lon="99.76723"><ele>24</ele><time>2018-06-16T05:29:02Z</time></trkpt>
<trkpt lat="13.26592" lon="99.76718"><ele>23</ele><time>2018-06-16T05:29:04Z</time></trkpt>
<trkpt lat="13.26594" lon="99.76713"><ele>23</ele><time>2018-06-16T05:29:06Z</time></trkpt>
<trkpt lat="13.26597" lon="99.76708"><ele>23</ele><time>2018-06-16T05:29:08Z</time></trkpt>
<trkpt lat="13.26601" lon="99.76702"><ele>23</ele><time>2018-06-16T05:29:10Z</time></trkpt>
<trkpt lat="13.26605" lon="99.76697"><ele>24</ele><time>2018-06-16T05:29:12Z</time></trkpt>
<trkpt lat="13.26609" lon="99.76690"><ele>24</ele><time>2018-06-16T05:29:14Z</time></trkpt>
<trkpt lat="13.26613" lon="99.76683"><ele>24</ele><time>2018-06-16T05:29:16Z</time></trkpt>
<trkpt lat="13.26616" lon="99.76676"><ele>24</ele><time>2018-06-16T05:29:18Z</time></trkpt>
<trkpt lat="13.26619" lon="99.76669"><ele>24</ele><time>2018-06-16T05:29:20Z</time></trkpt>
<trkpt lat="13.26622" lon="99.76662"><ele>24</ele><time>2018-06-16T05:29:22Z</time></trkpt>
<trkpt lat="13.26624" lon="99.76655"><ele>23</ele><time>2018-06-16T05:29:24Z</time></trkpt>
<trkpt lat="13.26625" lon="99.76647"><ele>24</ele><time>2018-06-16T05:29:26Z</time></trkpt>
<trkpt lat="13.26625" lon="99.76640"><ele>24</ele><time>2018-06-16T05:29:28Z</time></trkpt>
<trkpt lat="13.26624" lon="99.76634"><ele>24</ele><time>2018-06-16T05:29:30Z</time></trkpt>
<trkpt lat="13.26623" lon="99.76628"><ele>25</ele><time>2018-06-16T05:29:32Z</time></trkpt>
<trkpt lat="13.26622" lon="99.76622"><ele>25</ele><time>2018-06-16T05:29:34Z</time></trkpt>
<trkpt lat="13.26622" lon="99.76616"><ele>25</ele><time>2018-06-16T05:29:36Z</time></trkpt>
<trkpt lat="13.26622" lon="99.76609"><ele>25</ele><time>2018-06-16T05:29:38Z</time></trkpt>
<trkpt lat="13.26623" lon="99.76602"><ele>25</ele><time>2018-06-16T05:29:40Z</time></trkpt>
<trkpt lat="13.26624" lon="99.76593"><ele>25</ele><time>2018-06-16T05:29:42Z</time></trkpt>
<trkpt lat="13.26624" lon="99.76589"><ele>26</ele><time>2018-06-16T05:29:43Z</time></trkpt>
<trkpt lat="13.26626" lon="99.76580"><ele>26</ele><time>2018-06-16T05:29:45Z</time></trkpt>
<trkpt lat="13.26627" lon="99.76572"><ele>26</ele><time>2018-06-16T05:29:47Z</time></trkpt>
<trkpt lat="13.26629" lon="99.76566"><ele>26</ele><time>2018-06-16T05:29:49Z</time></trkpt>
<trkpt lat="13.26631" lon="99.76560"><ele>27</ele><time>2018-06-16T05:29:51Z</time></trkpt>
<trkpt lat="13.26632" lon="99.76554"><ele>26</ele><time>2018-06-16T05:29:53Z</time></trkpt>
<trkpt lat="13.26633" lon="99.76548"><ele>27</ele><time>2018-06-16T05:29:55Z</time></trkpt>
<trkpt lat="13.26633" lon="99.76542"><ele>27</ele><time>2018-06-16T05:29:57Z</time></trkpt>
<trkpt lat="13.26633" lon="99.76536"><ele>27</ele><time>2018-06-16T05:30:00Z</time></trkpt>
<trkpt lat="13.26633" lon="99.76531"><ele>26</ele><time>2018-06-16T05:30:38Z</time></trkpt>
<trkpt lat="13.26631" lon="99.76526"><ele>25</ele><time>2018-06-16T05:31:07Z</time></trkpt>
<trkpt lat="13.26629" lon="99.76521"><ele>25</ele><time>2018-06-16T05:31:11Z</time></trkpt>
<trkpt lat="13.26627" lon="99.76516"><ele>25</ele><time>2018-06-16T05:31:15Z</time></trkpt>
<trkpt lat="13.26626" lon="99.76511"><ele>26</ele><time>2018-06-16T05:31:27Z</time></trkpt>
<trkpt lat="13.26626" lon="99.76507"><ele>26</ele><time>2018-06-16T05:32:32Z</time></trkpt>
<trkpt lat="13.26627" lon="99.76502"><ele>31</ele><time>2018-06-16T05:36:54Z</time></trkpt>
<trkpt lat="13.26627" lon="99.76498"><ele>31</ele><time>2018-06-16T05:38:11Z</time></trkpt>
<trkpt lat="13.26630" lon="99.76494"><ele>30</ele><time>2018-06-16T05:38:17Z</time></trkpt>
<trkpt lat="13.26634" lon="99.76493"><ele>29</ele><time>2018-06-16T05:38:24Z</time></trkpt>
<trkpt lat="13.26638" lon="99.76490"><ele>29</ele><time>2018-06-16T05:38:29Z</time></trkpt>
<trkpt lat="13.26643" lon="99.76490"><ele>29</ele><time>2018-06-16T05:38:52Z</time></trkpt>
<trkpt lat="13.26648" lon="99.76491"><ele>26</ele><time>2018-06-16T05:39:31Z</time></trkpt>
<trkpt lat="13.26653" lon="99.76493"><ele>26</ele><time>2018-06-16T05:39:34Z</time></trkpt>
<trkpt lat="13.26658" lon="99.76492"><ele>26</ele><time>2018-06-16T05:39:36Z</time></trkpt>
<trkpt lat="13.26663" lon="99.76490"><ele>26</ele><time>2018-06-16T05:39:38Z</time></trkpt>
<trkpt lat="13.26668" lon="99.76488"><ele>27</ele><time>2018-06-16T05:39:41Z</time></trkpt>
<trkpt lat="13.26672" lon="99.76486"><ele>26</ele><time>2018-06-16T05:39:44Z</time></trkpt>
<trkpt lat="13.26676" lon="99.76484"><ele>25</ele><time>2018-06-16T05:41:11Z</time></trkpt>
<trkpt lat="13.26678" lon="99.76478"><ele>24</ele><time>2018-06-16T05:41:15Z</time></trkpt>
<trkpt lat="13.26683" lon="99.76474"><ele>24</ele><time>2018-06-16T05:41:18Z</time></trkpt>
<trkpt lat="13.26687" lon="99.76471"><ele>23</ele><time>2018-06-16T05:41:20Z</time></trkpt>
<trkpt lat="13.26691" lon="99.76468"><ele>24</ele><time>2018-06-16T05:41:23Z</time></trkpt>
<trkpt lat="13.26696" lon="99.76468"><ele>23</ele><time>2018-06-16T05:42:05Z</time></trkpt>
<trkpt lat="13.26702" lon="99.76469"><ele>23</ele><time>2018-06-16T05:42:11Z</time></trkpt>
<trkpt lat="13.26709" lon="99.76471"><ele>23</ele><time>2018-06-16T05:42:14Z</time></trkpt>
<trkpt lat="13.26716" lon="99.76470"><ele>22</ele><time>2018-06-16T05:42:16Z</time></trkpt>
<trkpt lat="13.26725" lon="99.76472"><ele>22</ele><time>2018-06-16T05:42:18Z</time></trkpt>
<trkpt lat="13.26729" lon="99.76473"><ele>23</ele><time>2018-06-16T05:42:19Z</time></trkpt>
<trkpt lat="13.26734" lon="99.76473"><ele>22</ele><time>2018-06-16T05:42:20Z</time></trkpt>
<trkpt lat="13.26739" lon="99.76473"><ele>21</ele><time>2018-06-16T05:42:21Z</time></trkpt>
<trkpt lat="13.26744" lon="99.76473"><ele>21</ele><time>2018-06-16T05:42:22Z</time></trkpt>
<trkpt lat="13.26749" lon="99.76473"><ele>21</ele><time>2018-06-16T05:42:23Z</time></trkpt>
<trkpt lat="13.26756" lon="99.76470"><ele>21</ele><time>2018-06-16T05:42:25Z</time></trkpt>
<trkpt lat="13.26760" lon="99.76465"><ele>21</ele><time>2018-06-16T05:42:27Z</time></trkpt>
<trkpt lat="13.26761" lon="99.76459"><ele>21</ele><time>2018-06-16T05:42:29Z</time></trkpt>
<trkpt lat="13.26762" lon="99.76454"><ele>21</ele><time>2018-06-16T05:42:31Z</time></trkpt>
<trkpt lat="13.26763" lon="99.76448"><ele>21</ele><time>2018-06-16T05:42:33Z</time></trkpt>
<trkpt lat="13.26765" lon="99.76442"><ele>21</ele><time>2018-06-16T05:42:35Z</time></trkpt>
<trkpt lat="13.26768" lon="99.76436"><ele>20</ele><time>2018-06-16T05:42:37Z</time></trkpt>
<trkpt lat="13.26772" lon="99.76429"><ele>20</ele><time>2018-06-16T05:42:39Z</time></trkpt>
<trkpt lat="13.26777" lon="99.76423"><ele>20</ele><time>2018-06-16T05:42:41Z</time></trkpt>
<trkpt lat="13.26782" lon="99.76420"><ele>21</ele><time>2018-06-16T05:42:44Z</time></trkpt>
<trkpt lat="13.26787" lon="99.76417"><ele>20</ele><time>2018-06-16T05:42:47Z</time></trkpt>
<trkpt lat="13.26793" lon="99.76415"><ele>20</ele><time>2018-06-16T05:42:49Z</time></trkpt>
<trkpt lat="13.26801" lon="99.76412"><ele>20</ele><time>2018-06-16T05:42:51Z</time></trkpt>
<trkpt lat="13.26808" lon="99.76410"><ele>20</ele><time>2018-06-16T05:42:53Z</time></trkpt>
<trkpt lat="13.26817" lon="99.76408"><ele>20</ele><time>2018-06-16T05:42:55Z</time></trkpt>
<trkpt lat="13.26825" lon="99.76406"><ele>20</ele><time>2018-06-16T05:42:57Z</time></trkpt>
<trkpt lat="13.26832" lon="99.76403"><ele>20</ele><time>2018-06-16T05:42:59Z</time></trkpt>
<trkpt lat="13.26839" lon="99.76400"><ele>20</ele><time>2018-06-16T05:43:01Z</time></trkpt>
<trkpt lat="13.26843" lon="99.76396"><ele>20</ele><time>2018-06-16T05:43:03Z</time></trkpt>
<trkpt lat="13.26847" lon="99.76393"><ele>20</ele><time>2018-06-16T05:43:05Z</time></trkpt>
<trkpt lat="13.26853" lon="99.76392"><ele>20</ele><time>2018-06-16T05:43:07Z</time></trkpt>
<trkpt lat="13.26860" lon="99.76391"><ele>19</ele><time>2018-06-16T05:43:09Z</time></trkpt>
<trkpt lat="13.26868" lon="99.76391"><ele>19</ele><time>2018-06-16T05:43:11Z</time></trkpt>
<trkpt lat="13.26877" lon="99.76389"><ele>19</ele><time>2018-06-16T05:43:13Z</time></trkpt>
<trkpt lat="13.26882" lon="99.76387"><ele>19</ele><time>2018-06-16T05:43:14Z</time></trkpt>
<trkpt lat="13.26886" lon="99.76384"><ele>19</ele><time>2018-06-16T05:43:15Z</time></trkpt>
<trkpt lat="13.26890" lon="99.76382"><ele>19</ele><time>2018-06-16T05:43:16Z</time></trkpt>
<trkpt lat="13.26895" lon="99.76376"><ele>19</ele><time>2018-06-16T05:43:18Z</time></trkpt>
<trkpt lat="13.26898" lon="99.76372"><ele>18</ele><time>2018-06-16T05:43:20Z</time></trkpt>
<trkpt lat="13.26901" lon="99.76368"><ele>18</ele><time>2018-06-16T05:43:27Z</time></trkpt>
<trkpt lat="13.26903" lon="99.76364"><ele>18</ele><time>2018-06-16T05:43:32Z</time></trkpt>
<trkpt lat="13.26905" lon="99.76359"><ele>17</ele><time>2018-06-16T05:43:34Z</time></trkpt>
<trkpt lat="13.26907" lon="99.76354"><ele>17</ele><time>2018-06-16T05:43:36Z</time></trkpt>
<trkpt lat="13.26909" lon="99.76349"><ele>17</ele><time>2018-06-16T05:43:38Z</time></trkpt>
<trkpt lat="13.26912" lon="99.76343"><ele>17</ele><time>2018-06-16T05:43:40Z</time></trkpt>
<trkpt lat="13.26915" lon="99.76338"><ele>17</ele><time>2018-06-16T05:43:43Z</time></trkpt>
<trkpt lat="13.26917" lon="99.76334"><ele>16</ele><time>2018-06-16T05:43:48Z</time></trkpt>
<trkpt lat="13.26917" lon="99.76329"><ele>16</ele><time>2018-06-16T05:45:21Z</time></trkpt>
<trkpt lat="13.26911" lon="99.76325"><ele>16</ele><time>2018-06-16T05:45:25Z</time></trkpt>
<trkpt lat="13.26906" lon="99.76323"><ele>15</ele><time>2018-06-16T05:45:28Z</time></trkpt>
<trkpt lat="13.26903" lon="99.76320"><ele>15</ele><time>2018-06-16T05:45:30Z</time></trkpt>
<trkpt lat="13.26899" lon="99.76316"><ele>15</ele><time>2018-06-16T05:45:32Z</time></trkpt>
<trkpt lat="13.26898" lon="99.76311"><ele>16</ele><time>2018-06-16T05:45:34Z</time></trkpt>
<trkpt lat="13.26898" lon="99.76306"><ele>16</ele><time>2018-06-16T05:45:37Z</time></trkpt>
<trkpt lat="13.26902" lon="99.76301"><ele>15</ele><time>2018-06-16T05:45:40Z</time></trkpt>
<trkpt lat="13.26905" lon="99.76296"><ele>15</ele><time>2018-06-16T05:45:43Z</time></trkpt>
<trkpt lat="13.26907" lon="99.76289"><ele>15</ele><time>2018-06-16T05:45:46Z</time></trkpt>
<trkpt lat="13.26907" lon="99.76284"><ele>14</ele><time>2018-06-16T05:45:48Z</time></trkpt>
<trkpt lat="13.26906" lon="99.76279"><ele>14</ele><time>2018-06-16T05:45:50Z</time></trkpt>
<trkpt lat="13.26904" lon="99.76273"><ele>14</ele><time>2018-06-16T05:45:52Z</time></trkpt>
<trkpt lat="13.26904" lon="99.76268"><ele>14</ele><time>2018-06-16T05:45:54Z</time></trkpt>
<trkpt lat="13.26905" lon="99.76261"><ele>14</ele><time>2018-06-16T05:45:56Z</time></trkpt>
<trkpt lat="13.26907" lon="99.76255"><ele>14</ele><time>2018-06-16T05:45:58Z</time></trkpt>
<trkpt lat="13.26909" lon="99.76249"><ele>15</ele><time>2018-06-16T05:46:00Z</time></trkpt>
<trkpt lat="13.26912" lon="99.76243"><ele>15</ele><time>2018-06-16T05:46:02Z</time></trkpt>
<trkpt lat="13.26914" lon="99.76238"><ele>16</ele><time>2018-06-16T05:46:04Z</time></trkpt>
<trkpt lat="13.26917" lon="99.76232"><ele>15</ele><time>2018-06-16T05:46:06Z</time></trkpt>
<trkpt lat="13.26919" lon="99.76226"><ele>16</ele><time>2018-06-16T05:46:08Z</time></trkpt>
<trkpt lat="13.26921" lon="99.76219"><ele>16</ele><time>2018-06-16T05:46:10Z</time></trkpt>
<trkpt lat="13.26923" lon="99.76212"><ele>17</ele><time>2018-06-16T05:46:12Z</time></trkpt>
<trkpt lat="13.26925" lon="99.76205"><ele>17</ele><time>2018-06-16T05:46:14Z</time></trkpt>
<trkpt lat="13.26927" lon="99.76198"><ele>17</ele><time>2018-06-16T05:46:16Z</time></trkpt>
<trkpt lat="13.26927" lon="99.76191"><ele>17</ele><time>2018-06-16T05:46:18Z</time></trkpt>
<trkpt lat="13.26928" lon="99.76183"><ele>18</ele><time>2018-06-16T05:46:20Z</time></trkpt>
<trkpt lat="13.26929" lon="99.76176"><ele>18</ele><time>2018-06-16T05:46:22Z</time></trkpt>
<trkpt lat="13.26930" lon="99.76169"><ele>19</ele><time>2018-06-16T05:46:24Z</time></trkpt>
<trkpt lat="13.26932" lon="99.76162"><ele>19</ele><time>2018-06-16T05:46:26Z</time></trkpt>
<trkpt lat="13.26933" lon="99.76154"><ele>19</ele><time>2018-06-16T05:46:28Z</time></trkpt>
<trkpt lat="13.26935" lon="99.76147"><ele>20</ele><time>2018-06-16T05:46:30Z</time></trkpt>
<trkpt lat="13.26936" lon="99.76141"><ele>20</ele><time>2018-06-16T05:46:32Z</time></trkpt>
<trkpt lat="13.26937" lon="99.76135"><ele>21</ele><time>2018-06-16T05:46:34Z</time></trkpt>
<trkpt lat="13.26941" lon="99.76131"><ele>21</ele><time>2018-06-16T05:46:36Z</time></trkpt>
<trkpt lat="13.26947" lon="99.76128"><ele>22</ele><time>2018-06-16T05:46:38Z</time></trkpt>
<trkpt lat="13.26953" lon="99.76124"><ele>22</ele><time>2018-06-16T05:46:40Z</time></trkpt>
<trkpt lat="13.26958" lon="99.76119"><ele>22</ele><time>2018-06-16T05:46:42Z</time></trkpt>
<trkpt lat="13.26960" lon="99.76113"><ele>22</ele><time>2018-06-16T05:46:44Z</time></trkpt>
<trkpt lat="13.26962" lon="99.76107"><ele>22</ele><time>2018-06-16T05:46:46Z</time></trkpt>
<trkpt lat="13.26964" lon="99.76100"><ele>22</ele><time>2018-06-16T05:46:48Z</time></trkpt>
<trkpt lat="13.26966" lon="99.76094"><ele>23</ele><time>2018-06-16T05:46:50Z</time></trkpt>
<trkpt lat="13.26969" lon="99.76088"><ele>24</ele><time>2018-06-16T05:46:52Z</time></trkpt>
<trkpt lat="13.26971" lon="99.76082"><ele>24</ele><time>2018-06-16T05:46:54Z</time></trkpt>
<trkpt lat="13.26974" lon="99.76077"><ele>24</ele><time>2018-06-16T05:46:56Z</time></trkpt>
<trkpt lat="13.26977" lon="99.76072"><ele>24</ele><time>2018-06-16T05:46:58Z</time></trkpt>
<trkpt lat="13.26980" lon="99.76067"><ele>24</ele><time>2018-06-16T05:47:00Z</time></trkpt>
<trkpt lat="13.26986" lon="99.76062"><ele>24</ele><time>2018-06-16T05:47:02Z</time></trkpt>
<trkpt lat="13.26992" lon="99.76058"><ele>25</ele><time>2018-06-16T05:47:04Z</time></trkpt>
<trkpt lat="13.26999" lon="99.76054"><ele>25</ele><time>2018-06-16T05:47:06Z</time></trkpt>
<trkpt lat="13.27005" lon="99.76049"><ele>25</ele><time>2018-06-16T05:47:08Z</time></trkpt>
<trkpt lat="13.27011" lon="99.76044"><ele>25</ele><time>2018-06-16T05:47:10Z</time></trkpt>
<trkpt lat="13.27016" lon="99.76040"><ele>25</ele><time>2018-06-16T05:47:12Z</time></trkpt>
<trkpt lat="13.27020" lon="99.76036"><ele>26</ele><time>2018-06-16T05:47:15Z</time></trkpt>
<trkpt lat="13.27022" lon="99.76031"><ele>26</ele><time>2018-06-16T05:47:30Z</time></trkpt>
<trkpt lat="13.27024" lon="99.76027"><ele>26</ele><time>2018-06-16T05:47:34Z</time></trkpt>
<trkpt lat="13.27027" lon="99.76022"><ele>26</ele><time>2018-06-16T05:47:38Z</time></trkpt>
<trkpt lat="13.27030" lon="99.76018"><ele>26</ele><time>2018-06-16T05:47:42Z</time></trkpt>
<trkpt lat="13.27032" lon="99.76012"><ele>25</ele><time>2018-06-16T05:47:46Z</time></trkpt>
<trkpt lat="13.27034" lon="99.76007"><ele>26</ele><time>2018-06-16T05:47:49Z</time></trkpt>
<trkpt lat="13.27035" lon="99.76001"><ele>26</ele><time>2018-06-16T05:47:51Z</time></trkpt>
<trkpt lat="13.27037" lon="99.75996"><ele>25</ele><time>2018-06-16T05:47:53Z</time></trkpt>
<trkpt lat="13.27038" lon="99.75990"><ele>25</ele><time>2018-06-16T05:47:55Z</time></trkpt>
<trkpt lat="13.27040" lon="99.75984"><ele>25</ele><time>2018-06-16T05:47:57Z</time></trkpt>
<trkpt lat="13.27042" lon="99.75978"><ele>26</ele><time>2018-06-16T05:47:59Z</time></trkpt>
<trkpt lat="13.27043" lon="99.75972"><ele>26</ele><time>2018-06-16T05:48:01Z</time></trkpt>
<trkpt lat="13.27043" lon="99.75966"><ele>26</ele><time>2018-06-16T05:48:03Z</time></trkpt>
<trkpt lat="13.27043" lon="99.75959"><ele>26</ele><time>2018-06-16T05:48:05Z</time></trkpt>
<trkpt lat="13.27044" lon="99.75954"><ele>27</ele><time>2018-06-16T05:48:07Z</time></trkpt>
<trkpt lat="13.27047" lon="99.75949"><ele>27</ele><time>2018-06-16T05:48:09Z</time></trkpt>
<trkpt lat="13.27047" lon="99.75942"><ele>28</ele><time>2018-06-16T05:48:12Z</time></trkpt>
<trkpt lat="13.27048" lon="99.75936"><ele>28</ele><time>2018-06-16T05:48:15Z</time></trkpt>
<trkpt lat="13.27049" lon="99.75932"><ele>31</ele><time>2018-06-16T05:49:29Z</time></trkpt>
<trkpt lat="13.27049" lon="99.75926"><ele>32</ele><time>2018-06-16T05:50:27Z</time></trkpt>
<trkpt lat="13.27049" lon="99.75920"><ele>31</ele><time>2018-06-16T05:50:30Z</time></trkpt>
<trkpt lat="13.27050" lon="99.75915"><ele>33</ele><time>2018-06-16T05:51:02Z</time></trkpt>
<trkpt lat="13.27054" lon="99.75911"><ele>32</ele><time>2018-06-16T05:51:06Z</time></trkpt>
<trkpt lat="13.27058" lon="99.75908"><ele>33</ele><time>2018-06-16T05:51:12Z</time></trkpt>
<trkpt lat="13.27061" lon="99.75905"><ele>32</ele><time>2018-06-16T05:52:29Z</time></trkpt>
<trkpt lat="13.27063" lon="99.75900"><ele>31</ele><time>2018-06-16T05:52:52Z</time></trkpt>
<trkpt lat="13.27064" lon="99.75894"><ele>31</ele><time>2018-06-16T05:52:54Z</time></trkpt>
<trkpt lat="13.27065" lon="99.75888"><ele>31</ele><time>2018-06-16T05:52:56Z</time></trkpt>
<trkpt lat="13.27066" lon="99.75882"><ele>31</ele><time>2018-06-16T05:52:58Z</time></trkpt>
<trkpt lat="13.27068" lon="99.75877"><ele>31</ele><time>2018-06-16T05:53:00Z</time></trkpt>
<trkpt lat="13.27071" lon="99.75871"><ele>31</ele><time>2018-06-16T05:53:02Z</time></trkpt>
<trkpt lat="13.27074" lon="99.75864"><ele>31</ele><time>2018-06-16T05:53:04Z</time></trkpt>
<trkpt lat="13.27075" lon="99.75858"><ele>30</ele><time>2018-06-16T05:53:06Z</time></trkpt>
<trkpt lat="13.27076" lon="99.75851"><ele>31</ele><time>2018-06-16T05:53:08Z</time></trkpt>
<trkpt lat="13.27074" lon="99.75846"><ele>30</ele><time>2018-06-16T05:53:10Z</time></trkpt>
<trkpt lat="13.27072" lon="99.75840"><ele>31</ele><time>2018-06-16T05:53:12Z</time></trkpt>
<trkpt lat="13.27071" lon="99.75835"><ele>31</ele><time>2018-06-16T05:53:14Z</time></trkpt>
<trkpt lat="13.27070" lon="99.75829"><ele>31</ele><time>2018-06-16T05:53:16Z</time></trkpt>
<trkpt lat="13.27069" lon="99.75824"><ele>31</ele><time>2018-06-16T05:53:18Z</time></trkpt>
<trkpt lat="13.27069" lon="99.75817"><ele>31</ele><time>2018-06-16T05:53:21Z</time></trkpt>
<trkpt lat="13.27069" lon="99.75810"><ele>32</ele><time>2018-06-16T05:53:24Z</time></trkpt>
<trkpt lat="13.27069" lon="99.75804"><ele>32</ele><time>2018-06-16T05:53:27Z</time></trkpt>
<trkpt lat="13.27069" lon="99.75799"><ele>32</ele><time>2018-06-16T05:53:31Z</time></trkpt>
<trkpt lat="13.27069" lon="99.75794"><ele>33</ele><time>2018-06-16T05:53:36Z</time></trkpt>
<trkpt lat="13.27068" lon="99.75789"><ele>34</ele><time>2018-06-16T05:54:43Z</time></trkpt>
<trkpt lat="13.27068" lon="99.75785"><ele>34</ele><time>2018-06-16T05:55:03Z</time></trkpt>
<trkpt lat="13.27070" lon="99.75778"><ele>34</ele><time>2018-06-16T05:55:21Z</time></trkpt>
<trkpt lat="13.27073" lon="99.75774"><ele>33</ele><time>2018-06-16T05:56:00Z</time></trkpt>
<trkpt lat="13.27078" lon="99.75771"><ele>33</ele><time>2018-06-16T05:56:03Z</time></trkpt>
<trkpt lat="13.27083" lon="99.75768"><ele>33</ele><time>2018-06-16T05:56:05Z</time></trkpt>
<trkpt lat="13.27089" lon="99.75762"><ele>33</ele><time>2018-06-16T05:56:07Z</time></trkpt>
<trkpt lat="13.27091" lon="99.75756"><ele>33</ele><time>2018-06-16T05:56:09Z</time></trkpt>
<trkpt lat="13.27089" lon="99.75750"><ele>33</ele><time>2018-06-16T05:56:12Z</time></trkpt>
<trkpt lat="13.27087" lon="99.75745"><ele>32</ele><time>2018-06-16T05:56:15Z</time></trkpt>
<trkpt lat="13.27084" lon="99.75740"><ele>32</ele><time>2018-06-16T05:56:18Z</time></trkpt>
<trkpt lat="13.27081" lon="99.75736"><ele>32</ele><time>2018-06-16T05:56:21Z</time></trkpt>
<trkpt lat="13.27079" lon="99.75731"><ele>32</ele><time>2018-06-16T05:56:24Z</time></trkpt>
<trkpt lat="13.27077" lon="99.75725"><ele>32</ele><time>2018-06-16T05:56:27Z</time></trkpt>
<trkpt lat="13.27074" lon="99.75720"><ele>32</ele><time>2018-06-16T05:56:30Z</time></trkpt>
<trkpt lat="13.27072" lon="99.75714"><ele>32</ele><time>2018-06-16T05:56:33Z</time></trkpt>
<trkpt lat="13.27072" lon="99.75708"><ele>33</ele><time>2018-06-16T05:56:35Z</time></trkpt>
<trkpt lat="13.27071" lon="99.75703"><ele>33</ele><time>2018-06-16T05:56:37Z</time></trkpt>
<trkpt lat="13.27071" lon="99.75697"><ele>33</ele><time>2018-06-16T05:56:39Z</time></trkpt>
<trkpt lat="13.27071" lon="99.75691"><ele>33</ele><time>2018-06-16T05:56:41Z</time></trkpt>
<trkpt lat="13.27071" lon="99.75686"><ele>33</ele><time>2018-06-16T05:56:43Z</time></trkpt>
<trkpt lat="13.27071" lon="99.75680"><ele>33</ele><time>2018-06-16T05:56:45Z</time></trkpt>
<trkpt lat="13.27072" lon="99.75673"><ele>33</ele><time>2018-06-16T05:56:47Z</time></trkpt>
<trkpt lat="13.27072" lon="99.75666"><ele>33</ele><time>2018-06-16T05:56:49Z</time></trkpt>
<trkpt lat="13.27073" lon="99.75659"><ele>33</ele><time>2018-06-16T05:56:51Z</time></trkpt>
<trkpt lat="13.27074" lon="99.75652"><ele>33</ele><time>2018-06-16T05:56:53Z</time></trkpt>
<trkpt lat="13.27075" lon="99.75645"><ele>33</ele><time>2018-06-16T05:56:55Z</time></trkpt>
<trkpt lat="13.27076" lon="99.75638"><ele>33</ele><time>2018-06-16T05:56:57Z</time></trkpt>
<trkpt lat="13.27077" lon="99.75630"><ele>33</ele><time>2018-06-16T05:56:59Z</time></trkpt>
<trkpt lat="13.27078" lon="99.75622"><ele>33</ele><time>2018-06-16T05:57:01Z</time></trkpt>
<trkpt lat="13.27078" lon="99.75617"><ele>33</ele><time>2018-06-16T05:57:02Z</time></trkpt>
<trkpt lat="13.27077" lon="99.75612"><ele>33</ele><time>2018-06-16T05:57:03Z</time></trkpt>
<trkpt lat="13.27076" lon="99.75608"><ele>33</ele><time>2018-06-16T05:57:04Z</time></trkpt>
<trkpt lat="13.27074" lon="99.75603"><ele>33</ele><time>2018-06-16T05:57:05Z</time></trkpt>
<trkpt lat="13.27072" lon="99.75599"><ele>33</ele><time>2018-06-16T05:57:06Z</time></trkpt>
<trkpt lat="13.27068" lon="99.75592"><ele>33</ele><time>2018-06-16T05:57:08Z</time></trkpt>
<trkpt lat="13.27062" lon="99.75586"><ele>33</ele><time>2018-06-16T05:57:10Z</time></trkpt>
<trkpt lat="13.27056" lon="99.75580"><ele>33</ele><time>2018-06-16T05:57:12Z</time></trkpt>
<trkpt lat="13.27051" lon="99.75576"><ele>33</ele><time>2018-06-16T05:57:14Z</time></trkpt>
<trkpt lat="13.27045" lon="99.75571"><ele>33</ele><time>2018-06-16T05:57:16Z</time></trkpt>
<trkpt lat="13.27039" lon="99.75566"><ele>32</ele><time>2018-06-16T05:57:18Z</time></trkpt>
<trkpt lat="13.27033" lon="99.75561"><ele>32</ele><time>2018-06-16T05:57:20Z</time></trkpt>
<trkpt lat="13.27027" lon="99.75556"><ele>32</ele><time>2018-06-16T05:57:22Z</time></trkpt>
<trkpt lat="13.27021" lon="99.75551"><ele>32</ele><time>2018-06-16T05:57:24Z</time></trkpt>
<trkpt lat="13.27015" lon="99.75545"><ele>32</ele><time>2018-06-16T05:57:26Z</time></trkpt>
<trkpt lat="13.27009" lon="99.75540"><ele>32</ele><time>2018-06-16T05:57:28Z</time></trkpt>
<trkpt lat="13.27003" lon="99.75535"><ele>32</ele><time>2018-06-16T05:57:30Z</time></trkpt>
<trkpt lat="13.26996" lon="99.75531"><ele>32</ele><time>2018-06-16T05:57:32Z</time></trkpt>
<trkpt lat="13.26990" lon="99.75527"><ele>32</ele><time>2018-06-16T05:57:34Z</time></trkpt>
<trkpt lat="13.26983" lon="99.75523"><ele>32</ele><time>2018-06-16T05:57:36Z</time></trkpt>
<trkpt lat="13.26977" lon="99.75519"><ele>32</ele><time>2018-06-16T05:57:38Z</time></trkpt>
<trkpt lat="13.26970" lon="99.75516"><ele>32</ele><time>2018-06-16T05:57:40Z</time></trkpt>
<trkpt lat="13.26964" lon="99.75513"><ele>33</ele><time>2018-06-16T05:57:42Z</time></trkpt>
<trkpt lat="13.26957" lon="99.75510"><ele>33</ele><time>2018-06-16T05:57:44Z</time></trkpt>
<trkpt lat="13.26951" lon="99.75507"><ele>33</ele><time>2018-06-16T05:57:46Z</time></trkpt>
<trkpt lat="13.26943" lon="99.75504"><ele>32</ele><time>2018-06-16T05:57:48Z</time></trkpt>
<trkpt lat="13.26936" lon="99.75502"><ele>32</ele><time>2018-06-16T05:57:50Z</time></trkpt>
<trkpt lat="13.26928" lon="99.75499"><ele>32</ele><time>2018-06-16T05:57:52Z</time></trkpt>
<trkpt lat="13.26920" lon="99.75495"><ele>32</ele><time>2018-06-16T05:57:54Z</time></trkpt>
<trkpt lat="13.26913" lon="99.75492"><ele>32</ele><time>2018-06-16T05:57:56Z</time></trkpt>
<trkpt lat="13.26905" lon="99.75489"><ele>32</ele><time>2018-06-16T05:57:58Z</time></trkpt>
<trkpt lat="13.26901" lon="99.75488"><ele>32</ele><time>2018-06-16T05:57:59Z</time></trkpt>
<trkpt lat="13.26896" lon="99.75486"><ele>32</ele><time>2018-06-16T05:58:00Z</time></trkpt>
<trkpt lat="13.26892" lon="99.75485"><ele>32</ele><time>2018-06-16T05:58:01Z</time></trkpt>
<trkpt lat="13.26888" lon="99.75483"><ele>32</ele><time>2018-06-16T05:58:02Z</time></trkpt>
<trkpt lat="13.26884" lon="99.75481"><ele>32</ele><time>2018-06-16T05:58:03Z</time></trkpt>
<trkpt lat="13.26879" lon="99.75480"><ele>32</ele><time>2018-06-16T05:58:04Z</time></trkpt>
<trkpt lat="13.26875" lon="99.75478"><ele>32</ele><time>2018-06-16T05:58:05Z</time></trkpt>
<trkpt lat="13.26870" lon="99.75477"><ele>32</ele><time>2018-06-16T05:58:06Z</time></trkpt>
<trkpt lat="13.26865" lon="99.75476"><ele>32</ele><time>2018-06-16T05:58:07Z</time></trkpt>
<trkpt lat="13.26860" lon="99.75475"><ele>32</ele><time>2018-06-16T05:58:08Z</time></trkpt>
<trkpt lat="13.26855" lon="99.75474"><ele>32</ele><time>2018-06-16T05:58:09Z</time></trkpt>
<trkpt lat="13.26849" lon="99.75473"><ele>32</ele><time>2018-06-16T05:58:10Z</time></trkpt>
<trkpt lat="13.26844" lon="99.75472"><ele>32</ele><time>2018-06-16T05:58:11Z</time></trkpt>
<trkpt lat="13.26839" lon="99.75471"><ele>32</ele><time>2018-06-16T05:58:12Z</time></trkpt>
<trkpt lat="13.26834" lon="99.75470"><ele>32</ele><time>2018-06-16T05:58:13Z</time></trkpt>
<trkpt lat="13.26830" lon="99.75469"><ele>33</ele><time>2018-06-16T05:58:14Z</time></trkpt>
<trkpt lat="13.26825" lon="99.75467"><ele>33</ele><time>2018-06-16T05:58:15Z</time></trkpt>
<trkpt lat="13.26820" lon="99.75466"><ele>33</ele><time>2018-06-16T05:58:16Z</time></trkpt>
<trkpt lat="13.26816" lon="99.75465"><ele>32</ele><time>2018-06-16T05:58:17Z</time></trkpt>
<trkpt lat="13.26811" lon="99.75463"><ele>32</ele><time>2018-06-16T05:58:18Z</time></trkpt>
<trkpt lat="13.26806" lon="99.75462"><ele>32</ele><time>2018-06-16T05:58:19Z</time></trkpt>
<trkpt lat="13.26802" lon="99.75461"><ele>32</ele><time>2018-06-16T05:58:20Z</time></trkpt>
<trkpt lat="13.26794" lon="99.75461"><ele>32</ele><time>2018-06-16T05:58:22Z</time></trkpt>
<trkpt lat="13.26788" lon="99.75461"><ele>32</ele><time>2018-06-16T05:58:23Z</time></trkpt>
<trkpt lat="13.26779" lon="99.75461"><ele>32</ele><time>2018-06-16T05:58:25Z</time></trkpt>
<trkpt lat="13.26775" lon="99.75461"><ele>32</ele><time>2018-06-16T05:58:26Z</time></trkpt>
<trkpt lat="13.26766" lon="99.75463"><ele>33</ele><time>2018-06-16T05:58:28Z</time></trkpt>
<trkpt lat="13.26762" lon="99.75464"><ele>33</ele><time>2018-06-16T05:58:29Z</time></trkpt>
<trkpt lat="13.26757" lon="99.75465"><ele>33</ele><time>2018-06-16T05:58:30Z</time></trkpt>
<trkpt lat="13.26749" lon="99.75468"><ele>33</ele><time>2018-06-16T05:58:32Z</time></trkpt>
<trkpt lat="13.26741" lon="99.75470"><ele>33</ele><time>2018-06-16T05:58:34Z</time></trkpt>
<trkpt lat="13.26734" lon="99.75471"><ele>33</ele><time>2018-06-16T05:58:36Z</time></trkpt>
<trkpt lat="13.26726" lon="99.75472"><ele>34</ele><time>2018-06-16T05:58:38Z</time></trkpt>
<trkpt lat="13.26718" lon="99.75473"><ele>33</ele><time>2018-06-16T05:58:40Z</time></trkpt>
<trkpt lat="13.26711" lon="99.75474"><ele>34</ele><time>2018-06-16T05:58:42Z</time></trkpt>
<trkpt lat="13.26705" lon="99.75474"><ele>34</ele><time>2018-06-16T05:58:44Z</time></trkpt>
<trkpt lat="13.26699" lon="99.75475"><ele>34</ele><time>2018-06-16T05:58:46Z</time></trkpt>
<trkpt lat="13.26693" lon="99.75475"><ele>34</ele><time>2018-06-16T05:58:48Z</time></trkpt>
<trkpt lat="13.26686" lon="99.75475"><ele>34</ele><time>2018-06-16T05:58:50Z</time></trkpt>
<trkpt lat="13.26679" lon="99.75475"><ele>34</ele><time>2018-06-16T05:58:52Z</time></trkpt>
<trkpt lat="13.26672" lon="99.75475"><ele>34</ele><time>2018-06-16T05:58:54Z</time></trkpt>
<trkpt lat="13.26668" lon="99.75475"><ele>34</ele><time>2018-06-16T05:58:55Z</time></trkpt>
<trkpt lat="13.26660" lon="99.75475"><ele>34</ele><time>2018-06-16T05:58:57Z</time></trkpt>
<trkpt lat="13.26653" lon="99.75475"><ele>34</ele><time>2018-06-16T05:58:59Z</time></trkpt>
<trkpt lat="13.26645" lon="99.75476"><ele>35</ele><time>2018-06-16T05:59:01Z</time></trkpt>
<trkpt lat="13.26636" lon="99.75479"><ele>35</ele><time>2018-06-16T05:59:03Z</time></trkpt>
<trkpt lat="13.26628" lon="99.75481"><ele>34</ele><time>2018-06-16T05:59:05Z</time></trkpt>
<trkpt lat="13.26621" lon="99.75483"><ele>35</ele><time>2018-06-16T05:59:07Z</time></trkpt>
<trkpt lat="13.26614" lon="99.75485"><ele>34</ele><time>2018-06-16T05:59:09Z</time></trkpt>
<trkpt lat="13.26607" lon="99.75486"><ele>34</ele><time>2018-06-16T05:59:11Z</time></trkpt>
<trkpt lat="13.26599" lon="99.75486"><ele>34</ele><time>2018-06-16T05:59:13Z</time></trkpt>
<trkpt lat="13.26590" lon="99.75486"><ele>34</ele><time>2018-06-16T05:59:15Z</time></trkpt>
<trkpt lat="13.26582" lon="99.75486"><ele>34</ele><time>2018-06-16T05:59:17Z</time></trkpt>
<trkpt lat="13.26574" lon="99.75487"><ele>33</ele><time>2018-06-16T05:59:19Z</time></trkpt>
<trkpt lat="13.26566" lon="99.75489"><ele>33</ele><time>2018-06-16T05:59:21Z</time></trkpt>
<trkpt lat="13.26562" lon="99.75492"><ele>33</ele><time>2018-06-16T05:59:22Z</time></trkpt>
<trkpt lat="13.26554" lon="99.75496"><ele>34</ele><time>2018-06-16T05:59:24Z</time></trkpt>
<trkpt lat="13.26550" lon="99.75499"><ele>34</ele><time>2018-06-16T05:59:25Z</time></trkpt>
<trkpt lat="13.26546" lon="99.75502"><ele>34</ele><time>2018-06-16T05:59:26Z</time></trkpt>
<trkpt lat="13.26541" lon="99.75505"><ele>33</ele><time>2018-06-16T05:59:27Z</time></trkpt>
<trkpt lat="13.26537" lon="99.75508"><ele>33</ele><time>2018-06-16T05:59:28Z</time></trkpt>
<trkpt lat="13.26532" lon="99.75511"><ele>33</ele><time>2018-06-16T05:59:29Z</time></trkpt>
<trkpt lat="13.26528" lon="99.75514"><ele>33</ele><time>2018-06-16T05:59:30Z</time></trkpt>
<trkpt lat="13.26524" lon="99.75517"><ele>33</ele><time>2018-06-16T05:59:31Z</time></trkpt>
<trkpt lat="13.26520" lon="99.75521"><ele>33</ele><time>2018-06-16T05:59:32Z</time></trkpt>
<trkpt lat="13.26517" lon="99.75525"><ele>33</ele><time>2018-06-16T05:59:33Z</time></trkpt>
<trkpt lat="13.26513" lon="99.75529"><ele>33</ele><time>2018-06-16T05:59:34Z</time></trkpt>
<trkpt lat="13.26510" lon="99.75533"><ele>33</ele><time>2018-06-16T05:59:35Z</time></trkpt>
<trkpt lat="13.26507" lon="99.75537"><ele>33</ele><time>2018-06-16T05:59:36Z</time></trkpt>
<trkpt lat="13.26504" lon="99.75542"><ele>33</ele><time>2018-06-16T05:59:37Z</time></trkpt>
<trkpt lat="13.26501" lon="99.75546"><ele>33</ele><time>2018-06-16T05:59:38Z</time></trkpt>
<trkpt lat="13.26498" lon="99.75552"><ele>34</ele><time>2018-06-16T05:59:39Z</time></trkpt>
<trkpt lat="13.26496" lon="99.75557"><ele>34</ele><time>2018-06-16T05:59:40Z</time></trkpt>
<trkpt lat="13.26493" lon="99.75562"><ele>34</ele><time>2018-06-16T05:59:41Z</time></trkpt>
<trkpt lat="13.26490" lon="99.75566"><ele>31</ele><time>2018-06-16T05:59:42Z</time></trkpt>
<trkpt lat="13.26485" lon="99.75570"><ele>33</ele><time>2018-06-16T05:59:44Z</time></trkpt>
<trkpt lat="13.26477" lon="99.75574"><ele>33</ele><time>2018-06-16T05:59:46Z</time></trkpt>
<trkpt lat="13.26473" lon="99.75577"><ele>33</ele><time>2018-06-16T05:59:47Z</time></trkpt>
<trkpt lat="13.26469" lon="99.75579"><ele>33</ele><time>2018-06-16T05:59:48Z</time></trkpt>
<trkpt lat="13.26465" lon="99.75582"><ele>34</ele><time>2018-06-16T05:59:49Z</time></trkpt>
<trkpt lat="13.26461" lon="99.75585"><ele>33</ele><time>2018-06-16T05:59:50Z</time></trkpt>
<trkpt lat="13.26457" lon="99.75588"><ele>33</ele><time>2018-06-16T05:59:51Z</time></trkpt>
<trkpt lat="13.26453" lon="99.75590"><ele>33</ele><time>2018-06-16T05:59:52Z</time></trkpt>
<trkpt lat="13.26449" lon="99.75593"><ele>33</ele><time>2018-06-16T05:59:53Z</time></trkpt>
<trkpt lat="13.26446" lon="99.75596"><ele>33</ele><time>2018-06-16T05:59:54Z</time></trkpt>
<trkpt lat="13.26442" lon="99.75599"><ele>33</ele><time>2018-06-16T05:59:55Z</time></trkpt>
<trkpt lat="13.26438" lon="99.75602"><ele>33</ele><time>2018-06-16T05:59:56Z</time></trkpt>
<trkpt lat="13.26434" lon="99.75605"><ele>33</ele><time>2018-06-16T05:59:57Z</time></trkpt>
<trkpt lat="13.26431" lon="99.75608"><ele>33</ele><time>2018-06-16T05:59:58Z</time></trkpt>
<trkpt lat="13.26427" lon="99.75611"><ele>33</ele><time>2018-06-16T05:59:59Z</time></trkpt>
<trkpt lat="13.26419" lon="99.75615"><ele>33</ele><time>2018-06-16T06:00:01Z</time></trkpt>
<trkpt lat="13.26412" lon="99.75619"><ele>33</ele><time>2018-06-16T06:00:03Z</time></trkpt>
<trkpt lat="13.26406" lon="99.75622"><ele>34</ele><time>2018-06-16T06:00:05Z</time></trkpt>
<trkpt lat="13.26399" lon="99.75626"><ele>34</ele><time>2018-06-16T06:00:07Z</time></trkpt>
<trkpt lat="13.26393" lon="99.75628"><ele>34</ele><time>2018-06-16T06:00:09Z</time></trkpt>
<trkpt lat="13.26387" lon="99.75630"><ele>34</ele><time>2018-06-16T06:00:11Z</time></trkpt>
<trkpt lat="13.26381" lon="99.75633"><ele>34</ele><time>2018-06-16T06:00:13Z</time></trkpt>
<trkpt lat="13.26375" lon="99.75635"><ele>34</ele><time>2018-06-16T06:00:15Z</time></trkpt>
<trkpt lat="13.26368" lon="99.75637"><ele>34</ele><time>2018-06-16T06:00:17Z</time></trkpt>
<trkpt lat="13.26362" lon="99.75640"><ele>35</ele><time>2018-06-16T06:00:19Z</time></trkpt>
<trkpt lat="13.26356" lon="99.75642"><ele>35</ele><time>2018-06-16T06:00:21Z</time></trkpt>
<trkpt lat="13.26351" lon="99.75645"><ele>35</ele><time>2018-06-16T06:00:23Z</time></trkpt>
<trkpt lat="13.26345" lon="99.75647"><ele>34</ele><time>2018-06-16T06:00:25Z</time></trkpt>
<trkpt lat="13.26340" lon="99.75649"><ele>35</ele><time>2018-06-16T06:00:27Z</time></trkpt>
<trkpt lat="13.26333" lon="99.75651"><ele>35</ele><time>2018-06-16T06:00:29Z</time></trkpt>
<trkpt lat="13.26327" lon="99.75651"><ele>35</ele><time>2018-06-16T06:00:31Z</time></trkpt>
<trkpt lat="13.26321" lon="99.75651"><ele>35</ele><time>2018-06-16T06:00:33Z</time></trkpt>
<trkpt lat="13.26315" lon="99.75650"><ele>36</ele><time>2018-06-16T06:00:35Z</time></trkpt>
<trkpt lat="13.26309" lon="99.75649"><ele>35</ele><time>2018-06-16T06:00:37Z</time></trkpt>
<trkpt lat="13.26302" lon="99.75648"><ele>36</ele><time>2018-06-16T06:00:39Z</time></trkpt>
<trkpt lat="13.26293" lon="99.75646"><ele>36</ele><time>2018-06-16T06:00:41Z</time></trkpt>
<trkpt lat="13.26285" lon="99.75644"><ele>36</ele><time>2018-06-16T06:00:43Z</time></trkpt>
<trkpt lat="13.26277" lon="99.75643"><ele>36</ele><time>2018-06-16T06:00:45Z</time></trkpt>
<trkpt lat="13.26268" lon="99.75643"><ele>36</ele><time>2018-06-16T06:00:47Z</time></trkpt>
<trkpt lat="13.26263" lon="99.75642"><ele>36</ele><time>2018-06-16T06:00:48Z</time></trkpt>
<trkpt lat="13.26259" lon="99.75642"><ele>36</ele><time>2018-06-16T06:00:49Z</time></trkpt>
<trkpt lat="13.26253" lon="99.75642"><ele>36</ele><time>2018-06-16T06:00:50Z</time></trkpt>
<trkpt lat="13.26249" lon="99.75641"><ele>36</ele><time>2018-06-16T06:00:51Z</time></trkpt>
<trkpt lat="13.26244" lon="99.75640"><ele>37</ele><time>2018-06-16T06:00:52Z</time></trkpt>
<trkpt lat="13.26239" lon="99.75638"><ele>37</ele><time>2018-06-16T06:00:53Z</time></trkpt>
<trkpt lat="13.26234" lon="99.75637"><ele>37</ele><time>2018-06-16T06:00:54Z</time></trkpt>
<trkpt lat="13.26229" lon="99.75636"><ele>36</ele><time>2018-06-16T06:00:55Z</time></trkpt>
<trkpt lat="13.26224" lon="99.75636"><ele>36</ele><time>2018-06-16T06:00:56Z</time></trkpt>
<trkpt lat="13.26220" lon="99.75636"><ele>36</ele><time>2018-06-16T06:00:57Z</time></trkpt>
<trkpt lat="13.26215" lon="99.75637"><ele>36</ele><time>2018-06-16T06:00:58Z</time></trkpt>
<trkpt lat="13.26210" lon="99.75637"><ele>36</ele><time>2018-06-16T06:00:59Z</time></trkpt>
<trkpt lat="13.26205" lon="99.75638"><ele>36</ele><time>2018-06-16T06:01:00Z</time></trkpt>
<trkpt lat="13.26200" lon="99.75638"><ele>36</ele><time>2018-06-16T06:01:01Z</time></trkpt>
<trkpt lat="13.26195" lon="99.75638"><ele>36</ele><time>2018-06-16T06:01:02Z</time></trkpt>
<trkpt lat="13.26189" lon="99.75637"><ele>35</ele><time>2018-06-16T06:01:03Z</time></trkpt>
<trkpt lat="13.26183" lon="99.75637"><ele>36</ele><time>2018-06-16T06:01:04Z</time></trkpt>
<trkpt lat="13.26176" lon="99.75637"><ele>36</ele><time>2018-06-16T06:01:05Z</time></trkpt>
<trkpt lat="13.26170" lon="99.75638"><ele>36</ele><time>2018-06-16T06:01:06Z</time></trkpt>
<trkpt lat="13.26164" lon="99.75639"><ele>35</ele><time>2018-06-16T06:01:07Z</time></trkpt>
<trkpt lat="13.26159" lon="99.75642"><ele>34</ele><time>2018-06-16T06:01:08Z</time></trkpt>
<trkpt lat="13.26154" lon="99.75644"><ele>34</ele><time>2018-06-16T06:01:09Z</time></trkpt>
<trkpt lat="13.26150" lon="99.75647"><ele>35</ele><time>2018-06-16T06:01:10Z</time></trkpt>
<trkpt lat="13.26145" lon="99.75651"><ele>35</ele><time>2018-06-16T06:01:11Z</time></trkpt>
<trkpt lat="13.26142" lon="99.75655"><ele>36</ele><time>2018-06-16T06:01:12Z</time></trkpt>
<trkpt lat="13.26139" lon="99.75660"><ele>36</ele><time>2018-06-16T06:01:13Z</time></trkpt>
<trkpt lat="13.26137" lon="99.75664"><ele>35</ele><time>2018-06-16T06:01:14Z</time></trkpt>
<trkpt lat="13.26134" lon="99.75669"><ele>35</ele><time>2018-06-16T06:01:15Z</time></trkpt>
<trkpt lat="13.26132" lon="99.75674"><ele>35</ele><time>2018-06-16T06:01:16Z</time></trkpt>
<trkpt lat="13.26130" lon="99.75679"><ele>36</ele><time>2018-06-16T06:01:17Z</time></trkpt>
<trkpt lat="13.26127" lon="99.75684"><ele>36</ele><time>2018-06-16T06:01:18Z</time></trkpt>
<trkpt lat="13.26124" lon="99.75689"><ele>36</ele><time>2018-06-16T06:01:19Z</time></trkpt>
<trkpt lat="13.26120" lon="99.75694"><ele>36</ele><time>2018-06-16T06:01:20Z</time></trkpt>
<trkpt lat="13.26118" lon="99.75699"><ele>37</ele><time>2018-06-16T06:01:21Z</time></trkpt>
<trkpt lat="13.26116" lon="99.75705"><ele>37</ele><time>2018-06-16T06:01:22Z</time></trkpt>
<trkpt lat="13.26115" lon="99.75710"><ele>37</ele><time>2018-06-16T06:01:23Z</time></trkpt>
<trkpt lat="13.26114" lon="99.75715"><ele>37</ele><time>2018-06-16T06:01:24Z</time></trkpt>
<trkpt lat="13.26112" lon="99.75720"><ele>37</ele><time>2018-06-16T06:01:25Z</time></trkpt>
<trkpt lat="13.26110" lon="99.75725"><ele>37</ele><time>2018-06-16T06:01:26Z</time></trkpt>
<trkpt lat="13.26108" lon="99.75729"><ele>37</ele><time>2018-06-16T06:01:27Z</time></trkpt>
<trkpt lat="13.26103" lon="99.75736"><ele>37</ele><time>2018-06-16T06:01:29Z</time></trkpt>
<trkpt lat="13.26100" lon="99.75740"><ele>37</ele><time>2018-06-16T06:01:30Z</time></trkpt>
<trkpt lat="13.26098" lon="99.75744"><ele>37</ele><time>2018-06-16T06:01:31Z</time></trkpt>
<trkpt lat="13.26095" lon="99.75748"><ele>37</ele><time>2018-06-16T06:01:32Z</time></trkpt>
<trkpt lat="13.26093" lon="99.75753"><ele>38</ele><time>2018-06-16T06:01:33Z</time></trkpt>
<trkpt lat="13.26091" lon="99.75757"><ele>38</ele><time>2018-06-16T06:01:34Z</time></trkpt>
<trkpt lat="13.26089" lon="99.75761"><ele>38</ele><time>2018-06-16T06:01:35Z</time></trkpt>
<trkpt lat="13.26088" lon="99.75766"><ele>38</ele><time>2018-06-16T06:01:36Z</time></trkpt>
<trkpt lat="13.26086" lon="99.75770"><ele>39</ele><time>2018-06-16T06:01:37Z</time></trkpt>
<trkpt lat="13.26082" lon="99.75777"><ele>39</ele><time>2018-06-16T06:01:39Z</time></trkpt>
<trkpt lat="13.26077" lon="99.75783"><ele>39</ele><time>2018-06-16T06:01:41Z</time></trkpt>
<trkpt lat="13.26073" lon="99.75788"><ele>39</ele><time>2018-06-16T06:01:43Z</time></trkpt>
<trkpt lat="13.26068" lon="99.75791"><ele>39</ele><time>2018-06-16T06:01:46Z</time></trkpt>
<trkpt lat="13.26063" lon="99.75792"><ele>39</ele><time>2018-06-16T06:01:50Z</time></trkpt>
<trkpt lat="13.26058" lon="99.75791"><ele>40</ele><time>2018-06-16T06:02:08Z</time></trkpt>
<trkpt lat="13.26054" lon="99.75790"><ele>40</ele><time>2018-06-16T06:02:11Z</time></trkpt>
<trkpt lat="13.26049" lon="99.75789"><ele>40</ele><time>2018-06-16T06:02:14Z</time></trkpt>
<trkpt lat="13.26043" lon="99.75788"><ele>39</ele><time>2018-06-16T06:02:17Z</time></trkpt>
<trkpt lat="13.26038" lon="99.75788"><ele>39</ele><time>2018-06-16T06:02:19Z</time></trkpt>
<trkpt lat="13.26033" lon="99.75787"><ele>40</ele><time>2018-06-16T06:02:21Z</time></trkpt>
<trkpt lat="13.26027" lon="99.75787"><ele>40</ele><time>2018-06-16T06:02:23Z</time></trkpt>
<trkpt lat="13.26020" lon="99.75787"><ele>40</ele><time>2018-06-16T06:02:25Z</time></trkpt>
<trkpt lat="13.26014" lon="99.75786"><ele>40</ele><time>2018-06-16T06:02:27Z</time></trkpt>
<trkpt lat="13.26007" lon="99.75786"><ele>40</ele><time>2018-06-16T06:02:29Z</time></trkpt>
<trkpt lat="13.26000" lon="99.75786"><ele>40</ele><time>2018-06-16T06:02:31Z</time></trkpt>
<trkpt lat="13.25993" lon="99.75785"><ele>40</ele><time>2018-06-16T06:02:33Z</time></trkpt>
<trkpt lat="13.25986" lon="99.75784"><ele>40</ele><time>2018-06-16T06:02:35Z</time></trkpt>
<trkpt lat="13.25980" lon="99.75783"><ele>41</ele><time>2018-06-16T06:02:37Z</time></trkpt>
<trkpt lat="13.25973" lon="99.75782"><ele>41</ele><time>2018-06-16T06:02:39Z</time></trkpt>
<trkpt lat="13.25966" lon="99.75781"><ele>41</ele><time>2018-06-16T06:02:41Z</time></trkpt>
<trkpt lat="13.25959" lon="99.75781"><ele>41</ele><time>2018-06-16T06:02:43Z</time></trkpt>
<trkpt lat="13.25952" lon="99.75781"><ele>42</ele><time>2018-06-16T06:02:45Z</time></trkpt>
<trkpt lat="13.25946" lon="99.75780"><ele>42</ele><time>2018-06-16T06:02:47Z</time></trkpt>
<trkpt lat="13.25939" lon="99.75779"><ele>42</ele><time>2018-06-16T06:02:49Z</time></trkpt>
<trkpt lat="13.25932" lon="99.75777"><ele>43</ele><time>2018-06-16T06:02:51Z</time></trkpt>
<trkpt lat="13.25926" lon="99.75776"><ele>43</ele><time>2018-06-16T06:02:53Z</time></trkpt>
<trkpt lat="13.25920" lon="99.75774"><ele>43</ele><time>2018-06-16T06:02:55Z</time></trkpt>
<trkpt lat="13.25913" lon="99.75773"><ele>43</ele><time>2018-06-16T06:02:57Z</time></trkpt>
<trkpt lat="13.25906" lon="99.75772"><ele>43</ele><time>2018-06-16T06:02:59Z</time></trkpt>
<trkpt lat="13.25899" lon="99.75770"><ele>43</ele><time>2018-06-16T06:03:01Z</time></trkpt>
<trkpt lat="13.25892" lon="99.75769"><ele>44</ele><time>2018-06-16T06:03:03Z</time></trkpt>
<trkpt lat="13.25885" lon="99.75769"><ele>44</ele><time>2018-06-16T06:03:05Z</time></trkpt>
<trkpt lat="13.25878" lon="99.75768"><ele>44</ele><time>2018-06-16T06:03:07Z</time></trkpt>
<trkpt lat="13.25871" lon="99.75767"><ele>45</ele><time>2018-06-16T06:03:09Z</time></trkpt>
<trkpt lat="13.25864" lon="99.75767"><ele>45</ele><time>2018-06-16T06:03:11Z</time></trkpt>
<trkpt lat="13.25858" lon="99.75767"><ele>45</ele><time>2018-06-16T06:03:13Z</time></trkpt>
<trkpt lat="13.25851" lon="99.75766"><ele>45</ele><time>2018-06-16T06:03:15Z</time></trkpt>
<trkpt lat="13.25844" lon="99.75766"><ele>46</ele><time>2018-06-16T06:03:17Z</time></trkpt>
<trkpt lat="13.25838" lon="99.75766"><ele>46</ele><time>2018-06-16T06:03:19Z</time></trkpt>
<trkpt lat="13.25832" lon="99.75766"><ele>46</ele><time>2018-06-16T06:03:21Z</time></trkpt>
<trkpt lat="13.25825" lon="99.75767"><ele>46</ele><time>2018-06-16T06:03:23Z</time></trkpt>
<trkpt lat="13.25819" lon="99.75768"><ele>47</ele><time>2018-06-16T06:03:25Z</time></trkpt>
<trkpt lat="13.25813" lon="99.75769"><ele>47</ele><time>2018-06-16T06:03:27Z</time></trkpt>
<trkpt lat="13.25807" lon="99.75771"><ele>47</ele><time>2018-06-16T06:03:29Z</time></trkpt>
<trkpt lat="13.25801" lon="99.75773"><ele>47</ele><time>2018-06-16T06:03:31Z</time></trkpt>
<trkpt lat="13.25795" lon="99.75775"><ele>47</ele><time>2018-06-16T06:03:33Z</time></trkpt>
<trkpt lat="13.25789" lon="99.75776"><ele>47</ele><time>2018-06-16T06:03:35Z</time></trkpt>
<trkpt lat="13.25783" lon="99.75778"><ele>47</ele><time>2018-06-16T06:03:37Z</time></trkpt>
<trkpt lat="13.25778" lon="99.75779"><ele>47</ele><time>2018-06-16T06:03:39Z</time></trkpt>
<trkpt lat="13.25772" lon="99.75781"><ele>47</ele><time>2018-06-16T06:03:41Z</time></trkpt>
<trkpt lat="13.25766" lon="99.75783"><ele>48</ele><time>2018-06-16T06:03:43Z</time></trkpt>
<trkpt lat="13.25760" lon="99.75785"><ele>48</ele><time>2018-06-16T06:03:45Z</time></trkpt>
<trkpt lat="13.25752" lon="99.75787"><ele>48</ele><time>2018-06-16T06:03:47Z</time></trkpt>
<trkpt lat="13.25747" lon="99.75788"><ele>48</ele><time>2018-06-16T06:03:48Z</time></trkpt>
<trkpt lat="13.25743" lon="99.75789"><ele>48</ele><time>2018-06-16T06:03:49Z</time></trkpt>
<trkpt lat="13.25738" lon="99.75790"><ele>48</ele><time>2018-06-16T06:03:50Z</time></trkpt>
<trkpt lat="13.25733" lon="99.75791"><ele>48</ele><time>2018-06-16T06:03:51Z</time></trkpt>
<trkpt lat="13.25728" lon="99.75791"><ele>48</ele><time>2018-06-16T06:03:52Z</time></trkpt>
<trkpt lat="13.25724" lon="99.75792"><ele>48</ele><time>2018-06-16T06:03:53Z</time></trkpt>
<trkpt lat="13.25719" lon="99.75793"><ele>48</ele><time>2018-06-16T06:03:54Z</time></trkpt>
<trkpt lat="13.25711" lon="99.75794"><ele>49</ele><time>2018-06-16T06:03:56Z</time></trkpt>
<trkpt lat="13.25703" lon="99.75795"><ele>49</ele><time>2018-06-16T06:03:58Z</time></trkpt>
<trkpt lat="13.25694" lon="99.75796"><ele>49</ele><time>2018-06-16T06:04:00Z</time></trkpt>
<trkpt lat="13.25685" lon="99.75795"><ele>49</ele><time>2018-06-16T06:04:02Z</time></trkpt>
<trkpt lat="13.25680" lon="99.75795"><ele>49</ele><time>2018-06-16T06:04:03Z</time></trkpt>
<trkpt lat="13.25675" lon="99.75795"><ele>49</ele><time>2018-06-16T06:04:04Z</time></trkpt>
<trkpt lat="13.25671" lon="99.75794"><ele>49</ele><time>2018-06-16T06:04:05Z</time></trkpt>
<trkpt lat="13.25665" lon="99.75793"><ele>50</ele><time>2018-06-16T06:04:06Z</time></trkpt>
<trkpt lat="13.25660" lon="99.75792"><ele>50</ele><time>2018-06-16T06:04:07Z</time></trkpt>
<trkpt lat="13.25654" lon="99.75791"><ele>49</ele><time>2018-06-16T06:04:08Z</time></trkpt>
<trkpt lat="13.25649" lon="99.75791"><ele>49</ele><time>2018-06-16T06:04:09Z</time></trkpt>
<trkpt lat="13.25643" lon="99.75791"><ele>49</ele><time>2018-06-16T06:04:10Z</time></trkpt>
<trkpt lat="13.25637" lon="99.75792"><ele>49</ele><time>2018-06-16T06:04:11Z</time></trkpt>
<trkpt lat="13.25631" lon="99.75793"><ele>49</ele><time>2018-06-16T06:04:12Z</time></trkpt>
<trkpt lat="13.25625" lon="99.75793"><ele>49</ele><time>2018-06-16T06:04:13Z</time></trkpt>
<trkpt lat="13.25619" lon="99.75794"><ele>49</ele><time>2018-06-16T06:04:14Z</time></trkpt>
<trkpt lat="13.25613" lon="99.75795"><ele>49</ele><time>2018-06-16T06:04:15Z</time></trkpt>
<trkpt lat="13.25607" lon="99.75796"><ele>49</ele><time>2018-06-16T06:04:16Z</time></trkpt>
<trkpt lat="13.25601" lon="99.75797"><ele>49</ele><time>2018-06-16T06:04:17Z</time></trkpt>
<trkpt lat="13.25596" lon="99.75798"><ele>49</ele><time>2018-06-16T06:04:18Z</time></trkpt>
<trkpt lat="13.25591" lon="99.75799"><ele>49</ele><time>2018-06-16T06:04:19Z</time></trkpt>
<trkpt lat="13.25585" lon="99.75801"><ele>49</ele><time>2018-06-16T06:04:20Z</time></trkpt>
<trkpt lat="13.25580" lon="99.75801"><ele>48</ele><time>2018-06-16T06:04:21Z</time></trkpt>
<trkpt lat="13.25575" lon="99.75801"><ele>49</ele><time>2018-06-16T06:04:22Z</time></trkpt>
<trkpt lat="13.25570" lon="99.75801"><ele>48</ele><time>2018-06-16T06:04:23Z</time></trkpt>
<trkpt lat="13.25565" lon="99.75801"><ele>49</ele><time>2018-06-16T06:04:24Z</time></trkpt>
<trkpt lat="13.25560" lon="99.75801"><ele>49</ele><time>2018-06-16T06:04:25Z</time></trkpt>
<trkpt lat="13.25555" lon="99.75801"><ele>49</ele><time>2018-06-16T06:04:26Z</time></trkpt>
<trkpt lat="13.25546" lon="99.75800"><ele>49</ele><time>2018-06-16T06:04:28Z</time></trkpt>
<trkpt lat="13.25538" lon="99.75800"><ele>50</ele><time>2018-06-16T06:04:30Z</time></trkpt>
<trkpt lat="13.25532" lon="99.75800"><ele>50</ele><time>2018-06-16T06:04:32Z</time></trkpt>
<trkpt lat="13.25527" lon="99.75801"><ele>50</ele><time>2018-06-16T06:04:34Z</time></trkpt>
<trkpt lat="13.25522" lon="99.75801"><ele>51</ele><time>2018-06-16T06:04:46Z</time></trkpt>
<trkpt lat="13.25517" lon="99.75801"><ele>51</ele><time>2018-06-16T06:04:49Z</time></trkpt>
<trkpt lat="13.25512" lon="99.75802"><ele>51</ele><time>2018-06-16T06:04:51Z</time></trkpt>
<trkpt lat="13.25506" lon="99.75802"><ele>51</ele><time>2018-06-16T06:04:53Z</time></trkpt>
<trkpt lat="13.25498" lon="99.75801"><ele>51</ele><time>2018-06-16T06:04:55Z</time></trkpt>
<trkpt lat="13.25490" lon="99.75800"><ele>51</ele><time>2018-06-16T06:04:57Z</time></trkpt>
<trkpt lat="13.25481" lon="99.75799"><ele>51</ele><time>2018-06-16T06:04:59Z</time></trkpt>
<trkpt lat="13.25476" lon="99.75798"><ele>51</ele><time>2018-06-16T06:05:00Z</time></trkpt>
<trkpt lat="13.25471" lon="99.75798"><ele>51</ele><time>2018-06-16T06:05:01Z</time></trkpt>
<trkpt lat="13.25466" lon="99.75797"><ele>51</ele><time>2018-06-16T06:05:02Z</time></trkpt>
<trkpt lat="13.25462" lon="99.75797"><ele>51</ele><time>2018-06-16T06:05:03Z</time></trkpt>
<trkpt lat="13.25457" lon="99.75796"><ele>51</ele><time>2018-06-16T06:05:04Z</time></trkpt>
<trkpt lat="13.25453" lon="99.75796"><ele>51</ele><time>2018-06-16T06:05:05Z</time></trkpt>
<trkpt lat="13.25444" lon="99.75796"><ele>52</ele><time>2018-06-16T06:05:07Z</time></trkpt>
<trkpt lat="13.25437" lon="99.75798"><ele>52</ele><time>2018-06-16T06:05:09Z</time></trkpt>
<trkpt lat="13.25430" lon="99.75798"><ele>51</ele><time>2018-06-16T06:05:11Z</time></trkpt>
<trkpt lat="13.25422" lon="99.75797"><ele>50</ele><time>2018-06-16T06:05:13Z</time></trkpt>
<trkpt lat="13.25413" lon="99.75796"><ele>51</ele><time>2018-06-16T06:05:15Z</time></trkpt>
<trkpt lat="13.25408" lon="99.75796"><ele>50</ele><time>2018-06-16T06:05:16Z</time></trkpt>
<trkpt lat="13.25403" lon="99.75796"><ele>50</ele><time>2018-06-16T06:05:17Z</time></trkpt>
<trkpt lat="13.25398" lon="99.75796"><ele>50</ele><time>2018-06-16T06:05:18Z</time></trkpt>
<trkpt lat="13.25394" lon="99.75797"><ele>50</ele><time>2018-06-16T06:05:19Z</time></trkpt>
<trkpt lat="13.25385" lon="99.75798"><ele>49</ele><time>2018-06-16T06:05:21Z</time></trkpt>
<trkpt lat="13.25378" lon="99.75801"><ele>49</ele><time>2018-06-16T06:05:23Z</time></trkpt>
<trkpt lat="13.25370" lon="99.75805"><ele>49</ele><time>2018-06-16T06:05:25Z</time></trkpt>
<trkpt lat="13.25366" lon="99.75807"><ele>48</ele><time>2018-06-16T06:05:26Z</time></trkpt>
<trkpt lat="13.25358" lon="99.75808"><ele>49</ele><time>2018-06-16T06:05:28Z</time></trkpt>
<trkpt lat="13.25350" lon="99.75810"><ele>49</ele><time>2018-06-16T06:05:30Z</time></trkpt>
<trkpt lat="13.25342" lon="99.75813"><ele>50</ele><time>2018-06-16T06:05:32Z</time></trkpt>
<trkpt lat="13.25333" lon="99.75816"><ele>50</ele><time>2018-06-16T06:05:34Z</time></trkpt>
<trkpt lat="13.25329" lon="99.75817"><ele>50</ele><time>2018-06-16T06:05:35Z</time></trkpt>
<trkpt lat="13.25324" lon="99.75817"><ele>50</ele><time>2018-06-16T06:05:36Z</time></trkpt>
<trkpt lat="13.25316" lon="99.75817"><ele>50</ele><time>2018-06-16T06:05:38Z</time></trkpt>
<trkpt lat="13.25308" lon="99.75818"><ele>50</ele><time>2018-06-16T06:05:40Z</time></trkpt>
<trkpt lat="13.25300" lon="99.75821"><ele>50</ele><time>2018-06-16T06:05:42Z</time></trkpt>
<trkpt lat="13.25295" lon="99.75823"><ele>50</ele><time>2018-06-16T06:05:43Z</time></trkpt>
<trkpt lat="13.25291" lon="99.75825"><ele>50</ele><time>2018-06-16T06:05:44Z</time></trkpt>
<trkpt lat="13.25287" lon="99.75827"><ele>50</ele><time>2018-06-16T06:05:45Z</time></trkpt>
<trkpt lat="13.25283" lon="99.75829"><ele>50</ele><time>2018-06-16T06:05:46Z</time></trkpt>
<trkpt lat="13.25279" lon="99.75831"><ele>50</ele><time>2018-06-16T06:05:47Z</time></trkpt>
<trkpt lat="13.25270" lon="99.75831"><ele>50</ele><time>2018-06-16T06:05:49Z</time></trkpt>
<trkpt lat="13.25263" lon="99.75830"><ele>50</ele><time>2018-06-16T06:05:51Z</time></trkpt>
<trkpt lat="13.25257" lon="99.75829"><ele>50</ele><time>2018-06-16T06:05:53Z</time></trkpt>
<trkpt lat="13.25252" lon="99.75829"><ele>50</ele><time>2018-06-16T06:05:56Z</time></trkpt>
<trkpt lat="13.25247" lon="99.75828"><ele>51</ele><time>2018-06-16T06:05:59Z</time></trkpt>
<trkpt lat="13.25241" lon="99.75826"><ele>51</ele><time>2018-06-16T06:06:02Z</time></trkpt>
<trkpt lat="13.25235" lon="99.75825"><ele>51</ele><time>2018-06-16T06:06:04Z</time></trkpt>
<trkpt lat="13.25227" lon="99.75824"><ele>51</ele><time>2018-06-16T06:06:06Z</time></trkpt>
<trkpt lat="13.25220" lon="99.75823"><ele>51</ele><time>2018-06-16T06:06:08Z</time></trkpt>
<trkpt lat="13.25211" lon="99.75822"><ele>50</ele><time>2018-06-16T06:06:10Z</time></trkpt>
<trkpt lat="13.25206" lon="99.75818"><ele>50</ele><time>2018-06-16T06:06:12Z</time></trkpt>
<trkpt lat="13.25205" lon="99.75811"><ele>50</ele><time>2018-06-16T06:06:14Z</time></trkpt>
<trkpt lat="13.25205" lon="99.75806"><ele>50</ele><time>2018-06-16T06:06:15Z</time></trkpt>
<trkpt lat="13.25204" lon="99.75801"><ele>50</ele><time>2018-06-16T06:06:16Z</time></trkpt>
<trkpt lat="13.25204" lon="99.75796"><ele>49</ele><time>2018-06-16T06:06:17Z</time></trkpt>
<trkpt lat="13.25203" lon="99.75792"><ele>49</ele><time>2018-06-16T06:06:18Z</time></trkpt>
<trkpt lat="13.25201" lon="99.75784"><ele>49</ele><time>2018-06-16T06:06:20Z</time></trkpt>
<trkpt lat="13.25196" lon="99.75779"><ele>49</ele><time>2018-06-16T06:06:22Z</time></trkpt>
<trkpt lat="13.25190" lon="99.75778"><ele>46</ele><time>2018-06-16T06:06:24Z</time></trkpt>
<trkpt lat="13.25182" lon="99.75775"><ele>46</ele><time>2018-06-16T06:06:26Z</time></trkpt>
<trkpt lat="13.25177" lon="99.75772"><ele>46</ele><time>2018-06-16T06:06:27Z</time></trkpt>
<trkpt lat="13.25172" lon="99.75768"><ele>46</ele><time>2018-06-16T06:06:28Z</time></trkpt>
<trkpt lat="13.25167" lon="99.75764"><ele>47</ele><time>2018-06-16T06:06:29Z</time></trkpt>
<trkpt lat="13.25164" lon="99.75760"><ele>47</ele><time>2018-06-16T06:06:30Z</time></trkpt>
<trkpt lat="13.25161" lon="99.75755"><ele>46</ele><time>2018-06-16T06:06:31Z</time></trkpt>
<trkpt lat="13.25158" lon="99.75750"><ele>46</ele><time>2018-06-16T06:06:32Z</time></trkpt>
<trkpt lat="13.25155" lon="99.75745"><ele>46</ele><time>2018-06-16T06:06:33Z</time></trkpt>
<trkpt lat="13.25152" lon="99.75741"><ele>45</ele><time>2018-06-16T06:06:34Z</time></trkpt>
<trkpt lat="13.25150" lon="99.75736"><ele>45</ele><time>2018-06-16T06:06:35Z</time></trkpt>
<trkpt lat="13.25148" lon="99.75730"><ele>45</ele><time>2018-06-16T06:06:36Z</time></trkpt>
<trkpt lat="13.25145" lon="99.75725"><ele>45</ele><time>2018-06-16T06:06:37Z</time></trkpt>
<trkpt lat="13.25142" lon="99.75720"><ele>46</ele><time>2018-06-16T06:06:38Z</time></trkpt>
<trkpt lat="13.25140" lon="99.75714"><ele>46</ele><time>2018-06-16T06:06:39Z</time></trkpt>
<trkpt lat="13.25139" lon="99.75709"><ele>46</ele><time>2018-06-16T06:06:40Z</time></trkpt>
<trkpt lat="13.25137" lon="99.75704"><ele>45</ele><time>2018-06-16T06:06:41Z</time></trkpt>
<trkpt lat="13.25135" lon="99.75699"><ele>46</ele><time>2018-06-16T06:06:43Z</time></trkpt>
<trkpt lat="13.25132" lon="99.75693"><ele>44</ele><time>2018-06-16T06:06:46Z</time></trkpt>
<trkpt lat="13.25131" lon="99.75688"><ele>44</ele><time>2018-06-16T06:06:48Z</time></trkpt>
<trkpt lat="13.25129" lon="99.75681"><ele>44</ele><time>2018-06-16T06:06:50Z</time></trkpt>
<trkpt lat="13.25127" lon="99.75674"><ele>43</ele><time>2018-06-16T06:06:52Z</time></trkpt>
<trkpt lat="13.25126" lon="99.75667"><ele>44</ele><time>2018-06-16T06:06:54Z</time></trkpt>
<trkpt lat="13.25125" lon="99.75661"><ele>43</ele><time>2018-06-16T06:06:56Z</time></trkpt>
<trkpt lat="13.25125" lon="99.75655"><ele>45</ele><time>2018-06-16T06:06:59Z</time></trkpt>
<trkpt lat="13.25121" lon="99.75652"><ele>44</ele><time>2018-06-16T06:07:03Z</time></trkpt>
<trkpt lat="13.25117" lon="99.75649"><ele>44</ele><time>2018-06-16T06:07:07Z</time></trkpt>
<trkpt lat="13.25113" lon="99.75645"><ele>44</ele><time>2018-06-16T06:07:11Z</time></trkpt>
<trkpt lat="13.25110" lon="99.75639"><ele>43</ele><time>2018-06-16T06:07:14Z</time></trkpt>
<trkpt lat="13.25109" lon="99.75633"><ele>43</ele><time>2018-06-16T06:07:16Z</time></trkpt>
<trkpt lat="13.25109" lon="99.75625"><ele>43</ele><time>2018-06-16T06:07:18Z</time></trkpt>
<trkpt lat="13.25113" lon="99.75619"><ele>43</ele><time>2018-06-16T06:07:20Z</time></trkpt>
<trkpt lat="13.25120" lon="99.75615"><ele>42</ele><time>2018-06-16T06:07:22Z</time></trkpt>
<trkpt lat="13.25128" lon="99.75610"><ele>42</ele><time>2018-06-16T06:07:24Z</time></trkpt>
<trkpt lat="13.25133" lon="99.75604"><ele>42</ele><time>2018-06-16T06:07:26Z</time></trkpt>
<trkpt lat="13.25137" lon="99.75597"><ele>40</ele><time>2018-06-16T06:07:28Z</time></trkpt>
<trkpt lat="13.25137" lon="99.75592"><ele>41</ele><time>2018-06-16T06:07:29Z</time></trkpt>
<trkpt lat="13.25130" lon="99.75590"><ele>41</ele><time>2018-06-16T06:07:32Z</time></trkpt>
<trkpt lat="13.25125" lon="99.75590"><ele>41</ele><time>2018-06-16T06:07:34Z</time></trkpt>
<trkpt lat="13.25118" lon="99.75590"><ele>40</ele><time>2018-06-16T06:07:36Z</time></trkpt>
<trkpt lat="13.25111" lon="99.75589"><ele>40</ele><time>2018-06-16T06:07:38Z</time></trkpt>
<trkpt lat="13.25106" lon="99.75589"><ele>40</ele><time>2018-06-16T06:07:40Z</time></trkpt>
<trkpt lat="13.25101" lon="99.75587"><ele>40</ele><time>2018-06-16T06:07:42Z</time></trkpt>
<trkpt lat="13.25096" lon="99.75586"><ele>41</ele><time>2018-06-16T06:07:44Z</time></trkpt>
<trkpt lat="13.25090" lon="99.75584"><ele>41</ele><time>2018-06-16T06:07:46Z</time></trkpt>
<trkpt lat="13.25084" lon="99.75582"><ele>41</ele><time>2018-06-16T06:07:48Z</time></trkpt>
<trkpt lat="13.25079" lon="99.75579"><ele>41</ele><time>2018-06-16T06:07:50Z</time></trkpt>
<trkpt lat="13.25074" lon="99.75577"><ele>41</ele><time>2018-06-16T06:07:52Z</time></trkpt>
<trkpt lat="13.25069" lon="99.75574"><ele>42</ele><time>2018-06-16T06:07:54Z</time></trkpt>
<trkpt lat="13.25065" lon="99.75572"><ele>42</ele><time>2018-06-16T06:07:56Z</time></trkpt>
<trkpt lat="13.25060" lon="99.75568"><ele>42</ele><time>2018-06-16T06:07:59Z</time></trkpt>
<trkpt lat="13.25056" lon="99.75565"><ele>42</ele><time>2018-06-16T06:08:01Z</time></trkpt>
<trkpt lat="13.25051" lon="99.75563"><ele>43</ele><time>2018-06-16T06:08:03Z</time></trkpt>
<trkpt lat="13.25046" lon="99.75561"><ele>43</ele><time>2018-06-16T06:08:05Z</time></trkpt>
<trkpt lat="13.25040" lon="99.75560"><ele>43</ele><time>2018-06-16T06:08:07Z</time></trkpt>
<trkpt lat="13.25034" lon="99.75559"><ele>43</ele><time>2018-06-16T06:08:09Z</time></trkpt>
<trkpt lat="13.25026" lon="99.75557"><ele>42</ele><time>2018-06-16T06:08:11Z</time></trkpt>
<trkpt lat="13.25020" lon="99.75553"><ele>42</ele><time>2018-06-16T06:08:13Z</time></trkpt>
<trkpt lat="13.25013" lon="99.75547"><ele>43</ele><time>2018-06-16T06:08:15Z</time></trkpt>
<trkpt lat="13.25009" lon="99.75544"><ele>42</ele><time>2018-06-16T06:08:16Z</time></trkpt>
<trkpt lat="13.25006" lon="99.75540"><ele>43</ele><time>2018-06-16T06:08:17Z</time></trkpt>
<trkpt lat="13.25002" lon="99.75537"><ele>43</ele><time>2018-06-16T06:08:18Z</time></trkpt>
<trkpt lat="13.24999" lon="99.75534"><ele>44</ele><time>2018-06-16T06:08:19Z</time></trkpt>
<trkpt lat="13.24992" lon="99.75528"><ele>44</ele><time>2018-06-16T06:08:21Z</time></trkpt>
<trkpt lat="13.24986" lon="99.75522"><ele>43</ele><time>2018-06-16T06:08:23Z</time></trkpt>
<trkpt lat="13.24980" lon="99.75516"><ele>43</ele><time>2018-06-16T06:08:25Z</time></trkpt>
<trkpt lat="13.24976" lon="99.75509"><ele>43</ele><time>2018-06-16T06:08:27Z</time></trkpt>
<trkpt lat="13.24972" lon="99.75502"><ele>43</ele><time>2018-06-16T06:08:29Z</time></trkpt>
<trkpt lat="13.24968" lon="99.75495"><ele>43</ele><time>2018-06-16T06:08:31Z</time></trkpt>
<trkpt lat="13.24963" lon="99.75488"><ele>43</ele><time>2018-06-16T06:08:33Z</time></trkpt>
<trkpt lat="13.24959" lon="99.75483"><ele>43</ele><time>2018-06-16T06:08:35Z</time></trkpt>
<trkpt lat="13.24958" lon="99.75479"><ele>44</ele><time>2018-06-16T06:09:02Z</time></trkpt>
<trkpt lat="13.24963" lon="99.75474"><ele>45</ele><time>2018-06-16T06:10:21Z</time></trkpt>
<trkpt lat="13.24969" lon="99.75472"><ele>45</ele><time>2018-06-16T06:10:23Z</time></trkpt>
<trkpt lat="13.24978" lon="99.75471"><ele>45</ele><time>2018-06-16T06:10:25Z</time></trkpt>
<trkpt lat="13.24987" lon="99.75473"><ele>45</ele><time>2018-06-16T06:10:27Z</time></trkpt>
<trkpt lat="13.24991" lon="99.75474"><ele>45</ele><time>2018-06-16T06:10:28Z</time></trkpt>
<trkpt lat="13.24996" lon="99.75476"><ele>45</ele><time>2018-06-16T06:10:29Z</time></trkpt>
<trkpt lat="13.25000" lon="99.75479"><ele>46</ele><time>2018-06-16T06:10:30Z</time></trkpt>
<trkpt lat="13.25004" lon="99.75482"><ele>46</ele><time>2018-06-16T06:10:31Z</time></trkpt>
<trkpt lat="13.25009" lon="99.75487"><ele>45</ele><time>2018-06-16T06:10:33Z</time></trkpt>
<trkpt lat="13.25015" lon="99.75486"><ele>46</ele><time>2018-06-16T06:10:36Z</time></trkpt>
<trkpt lat="13.25020" lon="99.75486"><ele>45</ele><time>2018-06-16T06:10:38Z</time></trkpt>
<trkpt lat="13.25026" lon="99.75486"><ele>45</ele><time>2018-06-16T06:10:40Z</time></trkpt>
<trkpt lat="13.25033" lon="99.75486"><ele>45</ele><time>2018-06-16T06:10:42Z</time></trkpt>
<trkpt lat="13.25038" lon="99.75485"><ele>46</ele><time>2018-06-16T06:10:44Z</time></trkpt>
<trkpt lat="13.25041" lon="99.75481"><ele>44</ele><time>2018-06-16T06:10:47Z</time></trkpt>
<trkpt lat="13.25041" lon="99.75475"><ele>44</ele><time>2018-06-16T06:10:51Z</time></trkpt>
<trkpt lat="13.25043" lon="99.75468"><ele>44</ele><time>2018-06-16T06:10:54Z</time></trkpt>
<trkpt lat="13.25044" lon="99.75463"><ele>44</ele><time>2018-06-16T06:10:56Z</time></trkpt>
<trkpt lat="13.25046" lon="99.75458"><ele>44</ele><time>2018-06-16T06:10:58Z</time></trkpt>
<trkpt lat="13.25046" lon="99.75452"><ele>44</ele><time>2018-06-16T06:11:00Z</time></trkpt>
<trkpt lat="13.25046" lon="99.75447"><ele>44</ele><time>2018-06-16T06:11:02Z</time></trkpt>
<trkpt lat="13.25043" lon="99.75442"><ele>44</ele><time>2018-06-16T06:11:04Z</time></trkpt>
<trkpt lat="13.25038" lon="99.75440"><ele>44</ele><time>2018-06-16T06:11:06Z</time></trkpt>
<trkpt lat="13.25032" lon="99.75437"><ele>44</ele><time>2018-06-16T06:11:08Z</time></trkpt>
<trkpt lat="13.25026" lon="99.75435"><ele>45</ele><time>2018-06-16T06:11:10Z</time></trkpt>
<trkpt lat="13.25020" lon="99.75434"><ele>45</ele><time>2018-06-16T06:11:12Z</time></trkpt>
<trkpt lat="13.25015" lon="99.75431"><ele>44</ele><time>2018-06-16T06:11:14Z</time></trkpt>
<trkpt lat="13.25011" lon="99.75428"><ele>44</ele><time>2018-06-16T06:11:16Z</time></trkpt>
<trkpt lat="13.25012" lon="99.75422"><ele>44</ele><time>2018-06-16T06:11:18Z</time></trkpt>
<trkpt lat="13.25014" lon="99.75416"><ele>44</ele><time>2018-06-16T06:11:20Z</time></trkpt>
<trkpt lat="13.25018" lon="99.75408"><ele>45</ele><time>2018-06-16T06:11:22Z</time></trkpt>
<trkpt lat="13.25022" lon="99.75400"><ele>45</ele><time>2018-06-16T06:11:24Z</time></trkpt>
<trkpt lat="13.25026" lon="99.75393"><ele>45</ele><time>2018-06-16T06:11:26Z</time></trkpt>
<trkpt lat="13.25031" lon="99.75385"><ele>45</ele><time>2018-06-16T06:11:28Z</time></trkpt>
<trkpt lat="13.25036" lon="99.75378"><ele>44</ele><time>2018-06-16T06:11:30Z</time></trkpt>
<trkpt lat="13.25040" lon="99.75371"><ele>44</ele><time>2018-06-16T06:11:32Z</time></trkpt>
<trkpt lat="13.25045" lon="99.75364"><ele>44</ele><time>2018-06-16T06:11:34Z</time></trkpt>
<trkpt lat="13.25050" lon="99.75357"><ele>44</ele><time>2018-06-16T06:11:36Z</time></trkpt>
<trkpt lat="13.25050" lon="99.75350"><ele>44</ele><time>2018-06-16T06:11:38Z</time></trkpt>
<trkpt lat="13.25046" lon="99.75343"><ele>44</ele><time>2018-06-16T06:11:40Z</time></trkpt>
<trkpt lat="13.25042" lon="99.75336"><ele>44</ele><time>2018-06-16T06:11:42Z</time></trkpt>
<trkpt lat="13.25039" lon="99.75332"><ele>44</ele><time>2018-06-16T06:11:43Z</time></trkpt>
<trkpt lat="13.25036" lon="99.75328"><ele>45</ele><time>2018-06-16T06:11:44Z</time></trkpt>
<trkpt lat="13.25033" lon="99.75324"><ele>45</ele><time>2018-06-16T06:11:45Z</time></trkpt>
<trkpt lat="13.25031" lon="99.75320"><ele>44</ele><time>2018-06-16T06:11:46Z</time></trkpt>
<trkpt lat="13.25028" lon="99.75317"><ele>44</ele><time>2018-06-16T06:11:47Z</time></trkpt>
<trkpt lat="13.25025" lon="99.75313"><ele>44</ele><time>2018-06-16T06:11:48Z</time></trkpt>
<trkpt lat="13.25022" lon="99.75309"><ele>44</ele><time>2018-06-16T06:11:49Z</time></trkpt>
<trkpt lat="13.25020" lon="99.75305"><ele>44</ele><time>2018-06-16T06:11:50Z</time></trkpt>
<trkpt lat="13.25017" lon="99.75301"><ele>45</ele><time>2018-06-16T06:11:51Z</time></trkpt>
<trkpt lat="13.25013" lon="99.75293"><ele>44</ele><time>2018-06-16T06:11:53Z</time></trkpt>
<trkpt lat="13.25009" lon="99.75287"><ele>44</ele><time>2018-06-16T06:11:55Z</time></trkpt>
<trkpt lat="13.25006" lon="99.75282"><ele>44</ele><time>2018-06-16T06:11:57Z</time></trkpt>
<trkpt lat="13.25004" lon="99.75278"><ele>45</ele><time>2018-06-16T06:12:00Z</time></trkpt>
<trkpt lat="13.25001" lon="99.75273"><ele>45</ele><time>2018-06-16T06:12:05Z</time></trkpt>
<trkpt lat="13.24997" lon="99.75268"><ele>45</ele><time>2018-06-16T06:12:09Z</time></trkpt>
<trkpt lat="13.24994" lon="99.75264"><ele>45</ele><time>2018-06-16T06:12:12Z</time></trkpt>
<trkpt lat="13.24991" lon="99.75258"><ele>45</ele><time>2018-06-16T06:12:15Z</time></trkpt>
<trkpt lat="13.24988" lon="99.75253"><ele>45</ele><time>2018-06-16T06:12:17Z</time></trkpt>
<trkpt lat="13.24985" lon="99.75247"><ele>45</ele><time>2018-06-16T06:12:19Z</time></trkpt>
<trkpt lat="13.24979" lon="99.75243"><ele>45</ele><time>2018-06-16T06:12:21Z</time></trkpt>
<trkpt lat="13.24973" lon="99.75241"><ele>46</ele><time>2018-06-16T06:12:23Z</time></trkpt>
<trkpt lat="13.24968" lon="99.75243"><ele>46</ele><time>2018-06-16T06:12:26Z</time></trkpt>
<trkpt lat="13.24965" lon="99.75250"><ele>46</ele><time>2018-06-16T06:12:29Z</time></trkpt>
<trkpt lat="13.24963" lon="99.75255"><ele>46</ele><time>2018-06-16T06:12:31Z</time></trkpt>
<trkpt lat="13.24961" lon="99.75261"><ele>46</ele><time>2018-06-16T06:12:33Z</time></trkpt>
<trkpt lat="13.24960" lon="99.75267"><ele>46</ele><time>2018-06-16T06:12:35Z</time></trkpt>
<trkpt lat="13.24959" lon="99.75273"><ele>46</ele><time>2018-06-16T06:12:37Z</time></trkpt>
<trkpt lat="13.24956" lon="99.75280"><ele>47</ele><time>2018-06-16T06:12:39Z</time></trkpt>
<trkpt lat="13.24951" lon="99.75285"><ele>46</ele><time>2018-06-16T06:12:41Z</time></trkpt>
<trkpt lat="13.24945" lon="99.75286"><ele>47</ele><time>2018-06-16T06:12:43Z</time></trkpt>
<trkpt lat="13.24938" lon="99.75285"><ele>47</ele><time>2018-06-16T06:12:45Z</time></trkpt>
<trkpt lat="13.24932" lon="99.75284"><ele>47</ele><time>2018-06-16T06:12:47Z</time></trkpt>
<trkpt lat="13.24926" lon="99.75284"><ele>47</ele><time>2018-06-16T06:12:49Z</time></trkpt>
<trkpt lat="13.24920" lon="99.75284"><ele>47</ele><time>2018-06-16T06:12:51Z</time></trkpt>
<trkpt lat="13.24915" lon="99.75285"><ele>47</ele><time>2018-06-16T06:12:53Z</time></trkpt>
<trkpt lat="13.24909" lon="99.75285"><ele>47</ele><time>2018-06-16T06:12:55Z</time></trkpt>
<trkpt lat="13.24903" lon="99.75286"><ele>47</ele><time>2018-06-16T06:12:57Z</time></trkpt>
<trkpt lat="13.24897" lon="99.75287"><ele>48</ele><time>2018-06-16T06:12:59Z</time></trkpt>
<trkpt lat="13.24891" lon="99.75287"><ele>48</ele><time>2018-06-16T06:13:01Z</time></trkpt>
<trkpt lat="13.24885" lon="99.75288"><ele>48</ele><time>2018-06-16T06:13:03Z</time></trkpt>
<trkpt lat="13.24879" lon="99.75288"><ele>48</ele><time>2018-06-16T06:13:05Z</time></trkpt>
<trkpt lat="13.24873" lon="99.75289"><ele>48</ele><time>2018-06-16T06:13:07Z</time></trkpt>
<trkpt lat="13.24868" lon="99.75289"><ele>48</ele><time>2018-06-16T06:13:09Z</time></trkpt>
<trkpt lat="13.24863" lon="99.75289"><ele>48</ele><time>2018-06-16T06:13:11Z</time></trkpt>
<trkpt lat="13.24857" lon="99.75290"><ele>49</ele><time>2018-06-16T06:13:14Z</time></trkpt>
<trkpt lat="13.24851" lon="99.75290"><ele>49</ele><time>2018-06-16T06:13:17Z</time></trkpt>
<trkpt lat="13.24846" lon="99.75291"><ele>49</ele><time>2018-06-16T06:13:20Z</time></trkpt>
<trkpt lat="13.24840" lon="99.75291"><ele>49</ele><time>2018-06-16T06:13:23Z</time></trkpt>
<trkpt lat="13.24836" lon="99.75292"><ele>50</ele><time>2018-06-16T06:13:25Z</time></trkpt>
<trkpt lat="13.24831" lon="99.75292"><ele>50</ele><time>2018-06-16T06:13:27Z</time></trkpt>
<trkpt lat="13.24825" lon="99.75293"><ele>50</ele><time>2018-06-16T06:13:29Z</time></trkpt>
<trkpt lat="13.24819" lon="99.75293"><ele>50</ele><time>2018-06-16T06:13:31Z</time></trkpt>
<trkpt lat="13.24813" lon="99.75293"><ele>50</ele><time>2018-06-16T06:13:33Z</time></trkpt>
<trkpt lat="13.24807" lon="99.75294"><ele>50</ele><time>2018-06-16T06:13:35Z</time></trkpt>
<trkpt lat="13.24800" lon="99.75294"><ele>50</ele><time>2018-06-16T06:13:37Z</time></trkpt>
<trkpt lat="13.24794" lon="99.75295"><ele>50</ele><time>2018-06-16T06:13:39Z</time></trkpt>
<trkpt lat="13.24787" lon="99.75295"><ele>50</ele><time>2018-06-16T06:13:41Z</time></trkpt>
<trkpt lat="13.24780" lon="99.75296"><ele>50</ele><time>2018-06-16T06:13:43Z</time></trkpt>
<trkpt lat="13.24773" lon="99.75296"><ele>50</ele><time>2018-06-16T06:13:45Z</time></trkpt>
<trkpt lat="13.24767" lon="99.75297"><ele>50</ele><time>2018-06-16T06:13:47Z</time></trkpt>
<trkpt lat="13.24760" lon="99.75297"><ele>50</ele><time>2018-06-16T06:13:49Z</time></trkpt>
<trkpt lat="13.24753" lon="99.75298"><ele>50</ele><time>2018-06-16T06:13:51Z</time></trkpt>
<trkpt lat="13.24746" lon="99.75298"><ele>50</ele><time>2018-06-16T06:13:53Z</time></trkpt>
<trkpt lat="13.24738" lon="99.75299"><ele>50</ele><time>2018-06-16T06:13:55Z</time></trkpt>
<trkpt lat="13.24731" lon="99.75299"><ele>51</ele><time>2018-06-16T06:13:57Z</time></trkpt>
<trkpt lat="13.24724" lon="99.75300"><ele>51</ele><time>2018-06-16T06:13:59Z</time></trkpt>
<trkpt lat="13.24716" lon="99.75300"><ele>51</ele><time>2018-06-16T06:14:01Z</time></trkpt>
<trkpt lat="13.24709" lon="99.75301"><ele>51</ele><time>2018-06-16T06:14:03Z</time></trkpt>
<trkpt lat="13.24701" lon="99.75301"><ele>51</ele><time>2018-06-16T06:14:05Z</time></trkpt>
<trkpt lat="13.24693" lon="99.75302"><ele>51</ele><time>2018-06-16T06:14:07Z</time></trkpt>
<trkpt lat="13.24685" lon="99.75301"><ele>51</ele><time>2018-06-16T06:14:09Z</time></trkpt>
<trkpt lat="13.24677" lon="99.75300"><ele>52</ele><time>2018-06-16T06:14:11Z</time></trkpt>
<trkpt lat="13.24672" lon="99.75297"><ele>52</ele><time>2018-06-16T06:14:13Z</time></trkpt>
<trkpt lat="13.24671" lon="99.75291"><ele>52</ele><time>2018-06-16T06:14:15Z</time></trkpt>
<trkpt lat="13.24671" lon="99.75283"><ele>52</ele><time>2018-06-16T06:14:17Z</time></trkpt>
<trkpt lat="13.24671" lon="99.75276"><ele>52</ele><time>2018-06-16T06:14:19Z</time></trkpt>
<trkpt lat="13.24671" lon="99.75268"><ele>53</ele><time>2018-06-16T06:14:21Z</time></trkpt>
<trkpt lat="13.24671" lon="99.75261"><ele>53</ele><time>2018-06-16T06:14:23Z</time></trkpt>
<trkpt lat="13.24670" lon="99.75255"><ele>53</ele><time>2018-06-16T06:14:25Z</time></trkpt>
<trkpt lat="13.24668" lon="99.75249"><ele>53</ele><time>2018-06-16T06:14:27Z</time></trkpt>
<trkpt lat="13.24667" lon="99.75245"><ele>53</ele><time>2018-06-16T06:14:29Z</time></trkpt>
<trkpt lat="13.24668" lon="99.75240"><ele>53</ele><time>2018-06-16T06:14:31Z</time></trkpt>
<trkpt lat="13.24670" lon="99.75234"><ele>53</ele><time>2018-06-16T06:14:33Z</time></trkpt>
<trkpt lat="13.24670" lon="99.75228"><ele>53</ele><time>2018-06-16T06:14:35Z</time></trkpt>
<trkpt lat="13.24667" lon="99.75221"><ele>53</ele><time>2018-06-16T06:14:37Z</time></trkpt>
<trkpt lat="13.24665" lon="99.75214"><ele>53</ele><time>2018-06-16T06:14:39Z</time></trkpt>
<trkpt lat="13.24664" lon="99.75206"><ele>53</ele><time>2018-06-16T06:14:41Z</time></trkpt>
<trkpt lat="13.24662" lon="99.75198"><ele>53</ele><time>2018-06-16T06:14:43Z</time></trkpt>
<trkpt lat="13.24661" lon="99.75190"><ele>53</ele><time>2018-06-16T06:14:45Z</time></trkpt>
<trkpt lat="13.24660" lon="99.75181"><ele>52</ele><time>2018-06-16T06:14:47Z</time></trkpt>
<trkpt lat="13.24659" lon="99.75175"><ele>52</ele><time>2018-06-16T06:14:48Z</time></trkpt>
<trkpt lat="13.24658" lon="99.75170"><ele>52</ele><time>2018-06-16T06:14:49Z</time></trkpt>
<trkpt lat="13.24657" lon="99.75165"><ele>52</ele><time>2018-06-16T06:14:50Z</time></trkpt>
<trkpt lat="13.24655" lon="99.75161"><ele>52</ele><time>2018-06-16T06:14:51Z</time></trkpt>
<trkpt lat="13.24651" lon="99.75153"><ele>52</ele><time>2018-06-16T06:14:53Z</time></trkpt>
<trkpt lat="13.24646" lon="99.75146"><ele>52</ele><time>2018-06-16T06:14:55Z</time></trkpt>
<trkpt lat="13.24642" lon="99.75140"><ele>52</ele><time>2018-06-16T06:14:57Z</time></trkpt>
<trkpt lat="13.24638" lon="99.75133"><ele>52</ele><time>2018-06-16T06:14:59Z</time></trkpt>
<trkpt lat="13.24635" lon="99.75127"><ele>52</ele><time>2018-06-16T06:15:01Z</time></trkpt>
<trkpt lat="13.24632" lon="99.75120"><ele>52</ele><time>2018-06-16T06:15:03Z</time></trkpt>
<trkpt lat="13.24630" lon="99.75112"><ele>52</ele><time>2018-06-16T06:15:05Z</time></trkpt>
<trkpt lat="13.24630" lon="99.75103"><ele>52</ele><time>2018-06-16T06:15:07Z</time></trkpt>
<trkpt lat="13.24630" lon="99.75094"><ele>52</ele><time>2018-06-16T06:15:09Z</time></trkpt>
<trkpt lat="13.24631" lon="99.75085"><ele>52</ele><time>2018-06-16T06:15:11Z</time></trkpt>
<trkpt lat="13.24633" lon="99.75078"><ele>52</ele><time>2018-06-16T06:15:13Z</time></trkpt>
<trkpt lat="13.24631" lon="99.75071"><ele>52</ele><time>2018-06-16T06:15:15Z</time></trkpt>
<trkpt lat="13.24630" lon="99.75062"><ele>51</ele><time>2018-06-16T06:15:17Z</time></trkpt>
<trkpt lat="13.24630" lon="99.75057"><ele>52</ele><time>2018-06-16T06:15:18Z</time></trkpt>
<trkpt lat="13.24629" lon="99.75048"><ele>51</ele><time>2018-06-16T06:15:20Z</time></trkpt>
<trkpt lat="13.24630" lon="99.75039"><ele>51</ele><time>2018-06-16T06:15:22Z</time></trkpt>
<trkpt lat="13.24632" lon="99.75035"><ele>51</ele><time>2018-06-16T06:15:23Z</time></trkpt>
<trkpt lat="13.24635" lon="99.75030"><ele>52</ele><time>2018-06-16T06:15:24Z</time></trkpt>
<trkpt lat="13.24638" lon="99.75026"><ele>51</ele><time>2018-06-16T06:15:25Z</time></trkpt>
<trkpt lat="13.24642" lon="99.75021"><ele>51</ele><time>2018-06-16T06:15:26Z</time></trkpt>
<trkpt lat="13.24646" lon="99.75017"><ele>51</ele><time>2018-06-16T06:15:27Z</time></trkpt>
<trkpt lat="13.24650" lon="99.75013"><ele>52</ele><time>2018-06-16T06:15:28Z</time></trkpt>
<trkpt lat="13.24654" lon="99.75009"><ele>51</ele><time>2018-06-16T06:15:29Z</time></trkpt>
<trkpt lat="13.24658" lon="99.75006"><ele>51</ele><time>2018-06-16T06:15:30Z</time></trkpt>
<trkpt lat="13.24662" lon="99.75004"><ele>51</ele><time>2018-06-16T06:15:31Z</time></trkpt>
<trkpt lat="13.24667" lon="99.75003"><ele>51</ele><time>2018-06-16T06:15:32Z</time></trkpt>
<trkpt lat="13.24671" lon="99.75003"><ele>51</ele><time>2018-06-16T06:15:33Z</time></trkpt>
<trkpt lat="13.24676" lon="99.75002"><ele>50</ele><time>2018-06-16T06:15:34Z</time></trkpt>
<trkpt lat="13.24681" lon="99.75002"><ele>51</ele><time>2018-06-16T06:15:35Z</time></trkpt>
<trkpt lat="13.24687" lon="99.75001"><ele>50</ele><time>2018-06-16T06:15:36Z</time></trkpt>
<trkpt lat="13.24692" lon="99.75001"><ele>50</ele><time>2018-06-16T06:15:37Z</time></trkpt>
<trkpt lat="13.24697" lon="99.75000"><ele>50</ele><time>2018-06-16T06:15:38Z</time></trkpt>
<trkpt lat="13.24703" lon="99.75000"><ele>50</ele><time>2018-06-16T06:15:39Z</time></trkpt>
<trkpt lat="13.24708" lon="99.75000"><ele>50</ele><time>2018-06-16T06:15:40Z</time></trkpt>
<trkpt lat="13.24713" lon="99.75000"><ele>50</ele><time>2018-06-16T06:15:41Z</time></trkpt>
<trkpt lat="13.24718" lon="99.74999"><ele>50</ele><time>2018-06-16T06:15:42Z</time></trkpt>
<trkpt lat="13.24722" lon="99.74999"><ele>50</ele><time>2018-06-16T06:15:43Z</time></trkpt>
<trkpt lat="13.24727" lon="99.74999"><ele>49</ele><time>2018-06-16T06:15:44Z</time></trkpt>
<trkpt lat="13.24733" lon="99.74999"><ele>49</ele><time>2018-06-16T06:15:45Z</time></trkpt>
<trkpt lat="13.24738" lon="99.74997"><ele>49</ele><time>2018-06-16T06:15:46Z</time></trkpt>
<trkpt lat="13.24743" lon="99.74994"><ele>49</ele><time>2018-06-16T06:15:47Z</time></trkpt>
<trkpt lat="13.24745" lon="99.74989"><ele>49</ele><time>2018-06-16T06:15:48Z</time></trkpt>
<trkpt lat="13.24746" lon="99.74983"><ele>49</ele><time>2018-06-16T06:15:49Z</time></trkpt>
<trkpt lat="13.24747" lon="99.74977"><ele>49</ele><time>2018-06-16T06:15:50Z</time></trkpt>
<trkpt lat="13.24748" lon="99.74971"><ele>48</ele><time>2018-06-16T06:15:51Z</time></trkpt>
<trkpt lat="13.24749" lon="99.74966"><ele>49</ele><time>2018-06-16T06:15:52Z</time></trkpt>
<trkpt lat="13.24751" lon="99.74960"><ele>49</ele><time>2018-06-16T06:15:53Z</time></trkpt>
<trkpt lat="13.24752" lon="99.74955"><ele>48</ele><time>2018-06-16T06:15:54Z</time></trkpt>
<trkpt lat="13.24754" lon="99.74951"><ele>48</ele><time>2018-06-16T06:15:55Z</time></trkpt>
<trkpt lat="13.24755" lon="99.74946"><ele>48</ele><time>2018-06-16T06:15:56Z</time></trkpt>
<trkpt lat="13.24756" lon="99.74942"><ele>48</ele><time>2018-06-16T06:15:57Z</time></trkpt>
<trkpt lat="13.24758" lon="99.74937"><ele>47</ele><time>2018-06-16T06:15:58Z</time></trkpt>
<trkpt lat="13.24760" lon="99.74933"><ele>48</ele><time>2018-06-16T06:15:59Z</time></trkpt>
<trkpt lat="13.24763" lon="99.74927"><ele>47</ele><time>2018-06-16T06:16:00Z</time></trkpt>
<trkpt lat="13.24767" lon="99.74921"><ele>47</ele><time>2018-06-16T06:16:01Z</time></trkpt>
<trkpt lat="13.24769" lon="99.74917"><ele>48</ele><time>2018-06-16T06:16:02Z</time></trkpt>
<trkpt lat="13.24772" lon="99.74911"><ele>49</ele><time>2018-06-16T06:16:03Z</time></trkpt>
<trkpt lat="13.24775" lon="99.74906"><ele>50</ele><time>2018-06-16T06:16:04Z</time></trkpt>
<trkpt lat="13.24778" lon="99.74902"><ele>50</ele><time>2018-06-16T06:16:05Z</time></trkpt>
<trkpt lat="13.24782" lon="99.74896"><ele>51</ele><time>2018-06-16T06:16:06Z</time></trkpt>
<trkpt lat="13.24787" lon="99.74890"><ele>53</ele><time>2018-06-16T06:16:08Z</time></trkpt>
<trkpt lat="13.24790" lon="99.74885"><ele>54</ele><time>2018-06-16T06:16:10Z</time></trkpt>
<trkpt lat="13.24793" lon="99.74880"><ele>55</ele><time>2018-06-16T06:16:12Z</time></trkpt>
<trkpt lat="13.24797" lon="99.74875"><ele>55</ele><time>2018-06-16T06:16:14Z</time></trkpt>
<trkpt lat="13.24800" lon="99.74869"><ele>56</ele><time>2018-06-16T06:16:16Z</time></trkpt>
<trkpt lat="13.24801" lon="99.74863"><ele>56</ele><time>2018-06-16T06:16:18Z</time></trkpt>
<trkpt lat="13.24802" lon="99.74856"><ele>57</ele><time>2018-06-16T06:16:20Z</time></trkpt>
<trkpt lat="13.24802" lon="99.74850"><ele>57</ele><time>2018-06-16T06:16:22Z</time></trkpt>
<trkpt lat="13.24801" lon="99.74842"><ele>58</ele><time>2018-06-16T06:16:24Z</time></trkpt>
<trkpt lat="13.24800" lon="99.74834"><ele>58</ele><time>2018-06-16T06:16:26Z</time></trkpt>
<trkpt lat="13.24799" lon="99.74827"><ele>59</ele><time>2018-06-16T06:16:28Z</time></trkpt>
<trkpt lat="13.24798" lon="99.74820"><ele>59</ele><time>2018-06-16T06:16:30Z</time></trkpt>
<trkpt lat="13.24798" lon="99.74813"><ele>59</ele><time>2018-06-16T06:16:32Z</time></trkpt>
<trkpt lat="13.24797" lon="99.74806"><ele>60</ele><time>2018-06-16T06:16:34Z</time></trkpt>
<trkpt lat="13.24798" lon="99.74798"><ele>60</ele><time>2018-06-16T06:16:36Z</time></trkpt>
<trkpt lat="13.24801" lon="99.74792"><ele>61</ele><time>2018-06-16T06:16:38Z</time></trkpt>
<trkpt lat="13.24805" lon="99.74786"><ele>61</ele><time>2018-06-16T06:16:40Z</time></trkpt>
<trkpt lat="13.24810" lon="99.74782"><ele>61</ele><time>2018-06-16T06:16:42Z</time></trkpt>
<trkpt lat="13.24814" lon="99.74776"><ele>62</ele><time>2018-06-16T06:16:44Z</time></trkpt>
<trkpt lat="13.24816" lon="99.74770"><ele>62</ele><time>2018-06-16T06:16:46Z</time></trkpt>
<trkpt lat="13.24815" lon="99.74763"><ele>62</ele><time>2018-06-16T06:16:48Z</time></trkpt>
<trkpt lat="13.24815" lon="99.74756"><ele>62</ele><time>2018-06-16T06:16:50Z</time></trkpt>
<trkpt lat="13.24814" lon="99.74750"><ele>62</ele><time>2018-06-16T06:16:52Z</time></trkpt>
<trkpt lat="13.24814" lon="99.74744"><ele>62</ele><time>2018-06-16T06:16:54Z</time></trkpt>
<trkpt lat="13.24811" lon="99.74740"><ele>61</ele><time>2018-06-16T06:16:57Z</time></trkpt>
<trkpt lat="13.24806" lon="99.74740"><ele>62</ele><time>2018-06-16T06:17:01Z</time></trkpt>
<trkpt lat="13.24801" lon="99.74740"><ele>64</ele><time>2018-06-16T06:18:57Z</time></trkpt>
<trkpt lat="13.24795" lon="99.74737"><ele>64</ele><time>2018-06-16T06:19:00Z</time></trkpt>
<trkpt lat="13.24790" lon="99.74733"><ele>64</ele><time>2018-06-16T06:19:03Z</time></trkpt>
<trkpt lat="13.24788" lon="99.74727"><ele>64</ele><time>2018-06-16T06:19:06Z</time></trkpt>
<trkpt lat="13.24786" lon="99.74722"><ele>64</ele><time>2018-06-16T06:19:08Z</time></trkpt>
<trkpt lat="13.24785" lon="99.74716"><ele>64</ele><time>2018-06-16T06:19:10Z</time></trkpt>
<trkpt lat="13.24784" lon="99.74711"><ele>64</ele><time>2018-06-16T06:19:12Z</time></trkpt>
<trkpt lat="13.24783" lon="99.74705"><ele>64</ele><time>2018-06-16T06:19:14Z</time></trkpt>
<trkpt lat="13.24781" lon="99.74700"><ele>64</ele><time>2018-06-16T06:19:16Z</time></trkpt>
<trkpt lat="13.24780" lon="99.74694"><ele>64</ele><time>2018-06-16T06:19:18Z</time></trkpt>
<trkpt lat="13.24778" lon="99.74689"><ele>64</ele><time>2018-06-16T06:19:20Z</time></trkpt>
<trkpt lat="13.24775" lon="99.74683"><ele>64</ele><time>2018-06-16T06:19:22Z</time></trkpt>
<trkpt lat="13.24773" lon="99.74678"><ele>65</ele><time>2018-06-16T06:19:24Z</time></trkpt>
<trkpt lat="13.24772" lon="99.74672"><ele>64</ele><time>2018-06-16T06:19:26Z</time></trkpt>
<trkpt lat="13.24770" lon="99.74666"><ele>65</ele><time>2018-06-16T06:19:28Z</time></trkpt>
<trkpt lat="13.24768" lon="99.74660"><ele>65</ele><time>2018-06-16T06:19:30Z</time></trkpt>
<trkpt lat="13.24766" lon="99.74653"><ele>65</ele><time>2018-06-16T06:19:32Z</time></trkpt>
<trkpt lat="13.24765" lon="99.74646"><ele>65</ele><time>2018-06-16T06:19:34Z</time></trkpt>
<trkpt lat="13.24762" lon="99.74640"><ele>65</ele><time>2018-06-16T06:19:36Z</time></trkpt>
<trkpt lat="13.24760" lon="99.74635"><ele>66</ele><time>2018-06-16T06:19:38Z</time></trkpt>
<trkpt lat="13.24757" lon="99.74629"><ele>66</ele><time>2018-06-16T06:19:40Z</time></trkpt>
<trkpt lat="13.24753" lon="99.74624"><ele>66</ele><time>2018-06-16T06:19:42Z</time></trkpt>
<trkpt lat="13.24748" lon="99.74620"><ele>65</ele><time>2018-06-16T06:19:44Z</time></trkpt>
<trkpt lat="13.24743" lon="99.74617"><ele>66</ele><time>2018-06-16T06:19:46Z</time></trkpt>
<trkpt lat="13.24737" lon="99.74613"><ele>66</ele><time>2018-06-16T06:19:48Z</time></trkpt>
<trkpt lat="13.24730" lon="99.74610"><ele>66</ele><time>2018-06-16T06:19:50Z</time></trkpt>
<trkpt lat="13.24724" lon="99.74606"><ele>66</ele><time>2018-06-16T06:19:52Z</time></trkpt>
<trkpt lat="13.24717" lon="99.74603"><ele>66</ele><time>2018-06-16T06:19:54Z</time></trkpt>
<trkpt lat="13.24710" lon="99.74599"><ele>66</ele><time>2018-06-16T06:19:56Z</time></trkpt>
<trkpt lat="13.24702" lon="99.74594"><ele>67</ele><time>2018-06-16T06:19:58Z</time></trkpt>
<trkpt lat="13.24698" lon="99.74591"><ele>67</ele><time>2018-06-16T06:19:59Z</time></trkpt>
<trkpt lat="13.24695" lon="99.74588"><ele>67</ele><time>2018-06-16T06:20:00Z</time></trkpt>
<trkpt lat="13.24691" lon="99.74586"><ele>68</ele><time>2018-06-16T06:20:01Z</time></trkpt>
<trkpt lat="13.24686" lon="99.74583"><ele>68</ele><time>2018-06-16T06:20:02Z</time></trkpt>
<trkpt lat="13.24682" lon="99.74582"><ele>67</ele><time>2018-06-16T06:20:03Z</time></trkpt>
<trkpt lat="13.24677" lon="99.74582"><ele>67</ele><time>2018-06-16T06:20:04Z</time></trkpt>
<trkpt lat="13.24672" lon="99.74583"><ele>68</ele><time>2018-06-16T06:20:05Z</time></trkpt>
<trkpt lat="13.24667" lon="99.74584"><ele>68</ele><time>2018-06-16T06:20:06Z</time></trkpt>
<trkpt lat="13.24662" lon="99.74584"><ele>68</ele><time>2018-06-16T06:20:07Z</time></trkpt>
<trkpt lat="13.24657" lon="99.74583"><ele>68</ele><time>2018-06-16T06:20:08Z</time></trkpt>
<trkpt lat="13.24653" lon="99.74582"><ele>68</ele><time>2018-06-16T06:20:09Z</time></trkpt>
<trkpt lat="13.24648" lon="99.74581"><ele>68</ele><time>2018-06-16T06:20:10Z</time></trkpt>
<trkpt lat="13.24644" lon="99.74579"><ele>68</ele><time>2018-06-16T06:20:11Z</time></trkpt>
<trkpt lat="13.24636" lon="99.74577"><ele>68</ele><time>2018-06-16T06:20:13Z</time></trkpt>
<trkpt lat="13.24630" lon="99.74574"><ele>69</ele><time>2018-06-16T06:20:15Z</time></trkpt>
<trkpt lat="13.24624" lon="99.74571"><ele>70</ele><time>2018-06-16T06:20:17Z</time></trkpt>
<trkpt lat="13.24619" lon="99.74567"><ele>70</ele><time>2018-06-16T06:20:19Z</time></trkpt>
<trkpt lat="13.24615" lon="99.74563"><ele>70</ele><time>2018-06-16T06:20:21Z</time></trkpt>
<trkpt lat="13.24610" lon="99.74559"><ele>70</ele><time>2018-06-16T06:20:23Z</time></trkpt>
<trkpt lat="13.24602" lon="99.74558"><ele>71</ele><time>2018-06-16T06:20:25Z</time></trkpt>
<trkpt lat="13.24593" lon="99.74561"><ele>71</ele><time>2018-06-16T06:20:27Z</time></trkpt>
<trkpt lat="13.24588" lon="99.74562"><ele>71</ele><time>2018-06-16T06:20:28Z</time></trkpt>
<trkpt lat="13.24584" lon="99.74564"><ele>71</ele><time>2018-06-16T06:20:29Z</time></trkpt>
<trkpt lat="13.24579" lon="99.74565"><ele>72</ele><time>2018-06-16T06:20:30Z</time></trkpt>
<trkpt lat="13.24574" lon="99.74567"><ele>72</ele><time>2018-06-16T06:20:31Z</time></trkpt>
<trkpt lat="13.24569" lon="99.74567"><ele>72</ele><time>2018-06-16T06:20:32Z</time></trkpt>
<trkpt lat="13.24564" lon="99.74568"><ele>72</ele><time>2018-06-16T06:20:33Z</time></trkpt>
<trkpt lat="13.24559" lon="99.74568"><ele>72</ele><time>2018-06-16T06:20:34Z</time></trkpt>
<trkpt lat="13.24555" lon="99.74568"><ele>72</ele><time>2018-06-16T06:20:35Z</time></trkpt>
<trkpt lat="13.24550" lon="99.74568"><ele>72</ele><time>2018-06-16T06:20:36Z</time></trkpt>
<trkpt lat="13.24545" lon="99.74568"><ele>72</ele><time>2018-06-16T06:20:37Z</time></trkpt>
<trkpt lat="13.24539" lon="99.74568"><ele>73</ele><time>2018-06-16T06:20:38Z</time></trkpt>
<trkpt lat="13.24534" lon="99.74567"><ele>73</ele><time>2018-06-16T06:20:39Z</time></trkpt>
<trkpt lat="13.24526" lon="99.74568"><ele>73</ele><time>2018-06-16T06:20:41Z</time></trkpt>
<trkpt lat="13.24518" lon="99.74568"><ele>73</ele><time>2018-06-16T06:20:43Z</time></trkpt>
<trkpt lat="13.24510" lon="99.74570"><ele>74</ele><time>2018-06-16T06:20:45Z</time></trkpt>
<trkpt lat="13.24502" lon="99.74571"><ele>74</ele><time>2018-06-16T06:20:47Z</time></trkpt>
<trkpt lat="13.24495" lon="99.74572"><ele>74</ele><time>2018-06-16T06:20:49Z</time></trkpt>
<trkpt lat="13.24488" lon="99.74573"><ele>74</ele><time>2018-06-16T06:20:51Z</time></trkpt>
<trkpt lat="13.24481" lon="99.74574"><ele>75</ele><time>2018-06-16T06:20:53Z</time></trkpt>
<trkpt lat="13.24475" lon="99.74575"><ele>75</ele><time>2018-06-16T06:20:55Z</time></trkpt>
<trkpt lat="13.24468" lon="99.74576"><ele>75</ele><time>2018-06-16T06:20:57Z</time></trkpt>
<trkpt lat="13.24463" lon="99.74577"><ele>76</ele><time>2018-06-16T06:20:59Z</time></trkpt>
<trkpt lat="13.24457" lon="99.74578"><ele>76</ele><time>2018-06-16T06:21:02Z</time></trkpt>
<trkpt lat="13.24452" lon="99.74578"><ele>77</ele><time>2018-06-16T06:21:06Z</time></trkpt>
<trkpt lat="13.24446" lon="99.74580"><ele>79</ele><time>2018-06-16T06:21:23Z</time></trkpt>
<trkpt lat="13.24439" lon="99.74583"><ele>79</ele><time>2018-06-16T06:21:25Z</time></trkpt>
<trkpt lat="13.24431" lon="99.74585"><ele>79</ele><time>2018-06-16T06:21:27Z</time></trkpt>
<trkpt lat="13.24423" lon="99.74587"><ele>79</ele><time>2018-06-16T06:21:29Z</time></trkpt>
<trkpt lat="13.24415" lon="99.74589"><ele>79</ele><time>2018-06-16T06:21:31Z</time></trkpt>
<trkpt lat="13.24409" lon="99.74587"><ele>79</ele><time>2018-06-16T06:21:33Z</time></trkpt>
<trkpt lat="13.24407" lon="99.74581"><ele>78</ele><time>2018-06-16T06:21:35Z</time></trkpt>
<trkpt lat="13.24405" lon="99.74572"><ele>78</ele><time>2018-06-16T06:21:37Z</time></trkpt>
<trkpt lat="13.24404" lon="99.74567"><ele>78</ele><time>2018-06-16T06:21:38Z</time></trkpt>
<trkpt lat="13.24403" lon="99.74561"><ele>78</ele><time>2018-06-16T06:21:39Z</time></trkpt>
<trkpt lat="13.24402" lon="99.74556"><ele>78</ele><time>2018-06-16T06:21:40Z</time></trkpt>
<trkpt lat="13.24401" lon="99.74550"><ele>78</ele><time>2018-06-16T06:21:41Z</time></trkpt>
<trkpt lat="13.24400" lon="99.74545"><ele>78</ele><time>2018-06-16T06:21:42Z</time></trkpt>
<trkpt lat="13.24400" lon="99.74540"><ele>78</ele><time>2018-06-16T06:21:43Z</time></trkpt>
<trkpt lat="13.24399" lon="99.74535"><ele>78</ele><time>2018-06-16T06:21:44Z</time></trkpt>
<trkpt lat="13.24399" lon="99.74526"><ele>78</ele><time>2018-06-16T06:21:46Z</time></trkpt>
<trkpt lat="13.24399" lon="99.74518"><ele>78</ele><time>2018-06-16T06:21:48Z</time></trkpt>
<trkpt lat="13.24399" lon="99.74512"><ele>78</ele><time>2018-06-16T06:21:50Z</time></trkpt>
<trkpt lat="13.24398" lon="99.74507"><ele>78</ele><time>2018-06-16T06:21:52Z</time></trkpt>
<trkpt lat="13.24397" lon="99.74501"><ele>78</ele><time>2018-06-16T06:21:55Z</time></trkpt>
<trkpt lat="13.24397" lon="99.74494"><ele>78</ele><time>2018-06-16T06:21:58Z</time></trkpt>
<trkpt lat="13.24397" lon="99.74489"><ele>78</ele><time>2018-06-16T06:22:01Z</time></trkpt>
<trkpt lat="13.24396" lon="99.74483"><ele>79</ele><time>2018-06-16T06:22:04Z</time></trkpt>
<trkpt lat="13.24396" lon="99.74478"><ele>78</ele><time>2018-06-16T06:24:27Z</time></trkpt>
<trkpt lat="13.24396" lon="99.74472"><ele>78</ele><time>2018-06-16T06:24:30Z</time></trkpt>
<trkpt lat="13.24395" lon="99.74467"><ele>78</ele><time>2018-06-16T06:24:32Z</time></trkpt>
<trkpt lat="13.24397" lon="99.74461"><ele>78</ele><time>2018-06-16T06:24:34Z</time></trkpt>
<trkpt lat="13.24400" lon="99.74457"><ele>77</ele><time>2018-06-16T06:24:36Z</time></trkpt>
<trkpt lat="13.24403" lon="99.74454"><ele>77</ele><time>2018-06-16T06:24:38Z</time></trkpt>
<trkpt lat="13.24407" lon="99.74453"><ele>77</ele><time>2018-06-16T06:24:40Z</time></trkpt>
<trkpt lat="13.24411" lon="99.74451"><ele>77</ele><time>2018-06-16T06:24:43Z</time></trkpt>
<trkpt lat="13.24415" lon="99.74448"><ele>76</ele><time>2018-06-16T06:24:51Z</time></trkpt>
<trkpt lat="13.24416" lon="99.74442"><ele>75</ele><time>2018-06-16T06:24:56Z</time></trkpt>
<trkpt lat="13.24416" lon="99.74435"><ele>76</ele><time>2018-06-16T06:25:00Z</time></trkpt>
<trkpt lat="13.24417" lon="99.74430"><ele>76</ele><time>2018-06-16T06:25:04Z</time></trkpt>
<trkpt lat="13.24413" lon="99.74429"><ele>77</ele><time>2018-06-16T06:27:48Z</time></trkpt>
<trkpt lat="13.24410" lon="99.74425"><ele>78</ele><time>2018-06-16T06:32:52Z</time></trkpt>
<trkpt lat="13.24408" lon="99.74420"><ele>80</ele><time>2018-06-16T06:33:00Z</time></trkpt>
<trkpt lat="13.24405" lon="99.74415"><ele>81</ele><time>2018-06-16T06:33:07Z</time></trkpt>
<trkpt lat="13.24401" lon="99.74412"><ele>82</ele><time>2018-06-16T06:33:14Z</time></trkpt>
<trkpt lat="13.24398" lon="99.74409"><ele>83</ele><time>2018-06-16T06:33:26Z</time></trkpt>
<trkpt lat="13.24394" lon="99.74406"><ele>85</ele><time>2018-06-16T06:33:41Z</time></trkpt>
<trkpt lat="13.24390" lon="99.74403"><ele>88</ele><time>2018-06-16T06:34:15Z</time></trkpt>
<trkpt lat="13.24387" lon="99.74399"><ele>88</ele><time>2018-06-16T06:34:19Z</time></trkpt>
<trkpt lat="13.24383" lon="99.74396"><ele>89</ele><time>2018-06-16T06:34:25Z</time></trkpt>
<trkpt lat="13.24380" lon="99.74392"><ele>90</ele><time>2018-06-16T06:34:31Z</time></trkpt>
<trkpt lat="13.24377" lon="99.74389"><ele>94</ele><time>2018-06-16T06:35:22Z</time></trkpt>
<trkpt lat="13.24372" lon="99.74387"><ele>94</ele><time>2018-06-16T06:35:29Z</time></trkpt>
<trkpt lat="13.24368" lon="99.74384"><ele>95</ele><time>2018-06-16T06:35:32Z</time></trkpt>
<trkpt lat="13.24365" lon="99.74380"><ele>95</ele><time>2018-06-16T06:35:34Z</time></trkpt>
<trkpt lat="13.24360" lon="99.74375"><ele>95</ele><time>2018-06-16T06:35:36Z</time></trkpt>
<trkpt lat="13.24357" lon="99.74372"><ele>96</ele><time>2018-06-16T06:35:38Z</time></trkpt>
<trkpt lat="13.24353" lon="99.74369"><ele>96</ele><time>2018-06-16T06:35:41Z</time></trkpt>
<trkpt lat="13.24348" lon="99.74366"><ele>96</ele><time>2018-06-16T06:35:43Z</time></trkpt>
<trkpt lat="13.24343" lon="99.74362"><ele>96</ele><time>2018-06-16T06:35:46Z</time></trkpt>
<trkpt lat="13.24339" lon="99.74358"><ele>97</ele><time>2018-06-16T06:35:49Z</time></trkpt>
<trkpt lat="13.24334" lon="99.74354"><ele>98</ele><time>2018-06-16T06:35:53Z</time></trkpt>
<trkpt lat="13.24329" lon="99.74351"><ele>99</ele><time>2018-06-16T06:35:57Z</time></trkpt>
<trkpt lat="13.24325" lon="99.74349"><ele>99</ele><time>2018-06-16T06:36:00Z</time></trkpt>
<trkpt lat="13.24321" lon="99.74346"><ele>100</ele><time>2018-06-16T06:36:03Z</time></trkpt>
<trkpt lat="13.24317" lon="99.74343"><ele>100</ele><time>2018-06-16T06:36:06Z</time></trkpt>
<trkpt lat="13.24313" lon="99.74340"><ele>104</ele><time>2018-06-16T06:36:25Z</time></trkpt>
<trkpt lat="13.24309" lon="99.74337"><ele>105</ele><time>2018-06-16T06:36:31Z</time></trkpt>
<trkpt lat="13.24305" lon="99.74334"><ele>106</ele><time>2018-06-16T06:36:35Z</time></trkpt>
<trkpt lat="13.24301" lon="99.74332"><ele>108</ele><time>2018-06-16T06:36:42Z</time></trkpt>
<trkpt lat="13.24297" lon="99.74329"><ele>109</ele><time>2018-06-16T06:36:54Z</time></trkpt>
<trkpt lat="13.24293" lon="99.74327"><ele>110</ele><time>2018-06-16T06:37:00Z</time></trkpt>
<trkpt lat="13.24289" lon="99.74324"><ele>111</ele><time>2018-06-16T06:37:05Z</time></trkpt>
<trkpt lat="13.24284" lon="99.74323"><ele>112</ele><time>2018-06-16T06:37:12Z</time></trkpt>
<trkpt lat="13.24281" lon="99.74320"><ele>116</ele><time>2018-06-16T06:38:16Z</time></trkpt>
<trkpt lat="13.24276" lon="99.74320"><ele>116</ele><time>2018-06-16T06:40:22Z</time></trkpt>
<trkpt lat="13.24271" lon="99.74321"><ele>116</ele><time>2018-06-16T06:40:29Z</time></trkpt>
<trkpt lat="13.24266" lon="99.74323"><ele>116</ele><time>2018-06-16T06:40:35Z</time></trkpt>
<trkpt lat="13.24260" lon="99.74326"><ele>116</ele><time>2018-06-16T06:40:38Z</time></trkpt>
<trkpt lat="13.24255" lon="99.74328"><ele>116</ele><time>2018-06-16T06:40:40Z</time></trkpt>
<trkpt lat="13.24250" lon="99.74329"><ele>116</ele><time>2018-06-16T06:40:42Z</time></trkpt>
<trkpt lat="13.24244" lon="99.74330"><ele>116</ele><time>2018-06-16T06:40:44Z</time></trkpt>
<trkpt lat="13.24238" lon="99.74331"><ele>117</ele><time>2018-06-16T06:40:47Z</time></trkpt>
<trkpt lat="13.24234" lon="99.74330"><ele>118</ele><time>2018-06-16T06:40:50Z</time></trkpt>
<trkpt lat="13.24229" lon="99.74327"><ele>118</ele><time>2018-06-16T06:40:53Z</time></trkpt>
<trkpt lat="13.24225" lon="99.74322"><ele>118</ele><time>2018-06-16T06:40:56Z</time></trkpt>
<trkpt lat="13.24222" lon="99.74318"><ele>118</ele><time>2018-06-16T06:40:58Z</time></trkpt>
<trkpt lat="13.24218" lon="99.74313"><ele>118</ele><time>2018-06-16T06:41:01Z</time></trkpt>
<trkpt lat="13.24215" lon="99.74309"><ele>119</ele><time>2018-06-16T06:41:04Z</time></trkpt>
<trkpt lat="13.24212" lon="99.74304"><ele>120</ele><time>2018-06-16T06:41:07Z</time></trkpt>
<trkpt lat="13.24208" lon="99.74300"><ele>120</ele><time>2018-06-16T06:41:11Z</time></trkpt>
<trkpt lat="13.24204" lon="99.74297"><ele>121</ele><time>2018-06-16T06:41:14Z</time></trkpt>
<trkpt lat="13.24199" lon="99.74296"><ele>122</ele><time>2018-06-16T06:41:19Z</time></trkpt>
<trkpt lat="13.24193" lon="99.74295"><ele>123</ele><time>2018-06-16T06:41:23Z</time></trkpt>
<trkpt lat="13.24189" lon="99.74296"><ele>123</ele><time>2018-06-16T06:41:26Z</time></trkpt>
<trkpt lat="13.24183" lon="99.74297"><ele>123</ele><time>2018-06-16T06:41:29Z</time></trkpt>
<trkpt lat="13.24177" lon="99.74298"><ele>124</ele><time>2018-06-16T06:41:32Z</time></trkpt>
<trkpt lat="13.24172" lon="99.74298"><ele>125</ele><time>2018-06-16T06:41:35Z</time></trkpt>
<trkpt lat="13.24167" lon="99.74299"><ele>126</ele><time>2018-06-16T06:41:38Z</time></trkpt>
<trkpt lat="13.24162" lon="99.74300"><ele>126</ele><time>2018-06-16T06:41:41Z</time></trkpt>
<trkpt lat="13.24157" lon="99.74301"><ele>127</ele><time>2018-06-16T06:41:44Z</time></trkpt>
<trkpt lat="13.24153" lon="99.74302"><ele>128</ele><time>2018-06-16T06:41:47Z</time></trkpt>
<trkpt lat="13.24147" lon="99.74303"><ele>128</ele><time>2018-06-16T06:41:50Z</time></trkpt>
<trkpt lat="13.24143" lon="99.74305"><ele>129</ele><time>2018-06-16T06:41:53Z</time></trkpt>
<trkpt lat="13.24138" lon="99.74305"><ele>129</ele><time>2018-06-16T06:41:56Z</time></trkpt>
<trkpt lat="13.24132" lon="99.74306"><ele>130</ele><time>2018-06-16T06:41:59Z</time></trkpt>
<trkpt lat="13.24127" lon="99.74307"><ele>132</ele><time>2018-06-16T06:42:03Z</time></trkpt>
<trkpt lat="13.24122" lon="99.74308"><ele>133</ele><time>2018-06-16T06:42:08Z</time></trkpt>
<trkpt lat="13.24116" lon="99.74308"><ele>135</ele><time>2018-06-16T06:42:12Z</time></trkpt>
<trkpt lat="13.24111" lon="99.74307"><ele>135</ele><time>2018-06-16T06:42:15Z</time></trkpt>
<trkpt lat="13.24106" lon="99.74308"><ele>136</ele><time>2018-06-16T06:42:18Z</time></trkpt>
<trkpt lat="13.24101" lon="99.74308"><ele>137</ele><time>2018-06-16T06:42:21Z</time></trkpt>
<trkpt lat="13.24096" lon="99.74309"><ele>138</ele><time>2018-06-16T06:42:25Z</time></trkpt>
<trkpt lat="13.24091" lon="99.74308"><ele>139</ele><time>2018-06-16T06:42:29Z</time></trkpt>
<trkpt lat="13.24085" lon="99.74308"><ele>140</ele><time>2018-06-16T06:42:33Z</time></trkpt>
<trkpt lat="13.24079" lon="99.74308"><ele>141</ele><time>2018-06-16T06:42:37Z</time></trkpt>
<trkpt lat="13.24074" lon="99.74308"><ele>141</ele><time>2018-06-16T06:42:40Z</time></trkpt>
<trkpt lat="13.24069" lon="99.74307"><ele>142</ele><time>2018-06-16T06:42:43Z</time></trkpt>
<trkpt lat="13.24064" lon="99.74307"><ele>143</ele><time>2018-06-16T06:42:47Z</time></trkpt>
<trkpt lat="13.24059" lon="99.74307"><ele>145</ele><time>2018-06-16T06:42:59Z</time></trkpt>
<trkpt lat="13.24056" lon="99.74303"><ele>146</ele><time>2018-06-16T06:48:46Z</time></trkpt>
<trkpt lat="13.24050" lon="99.74303"><ele>145</ele><time>2018-06-16T06:49:45Z</time></trkpt>
<trkpt lat="13.24044" lon="99.74300"><ele>144</ele><time>2018-06-16T06:49:47Z</time></trkpt>
<trkpt lat="13.24038" lon="99.74295"><ele>144</ele><time>2018-06-16T06:49:49Z</time></trkpt>
<trkpt lat="13.24032" lon="99.74289"><ele>144</ele><time>2018-06-16T06:49:51Z</time></trkpt>
<trkpt lat="13.24028" lon="99.74284"><ele>144</ele><time>2018-06-16T06:49:53Z</time></trkpt>
<trkpt lat="13.24027" lon="99.74278"><ele>144</ele><time>2018-06-16T06:49:56Z</time></trkpt>
<trkpt lat="13.24029" lon="99.74274"><ele>143</ele><time>2018-06-16T06:50:00Z</time></trkpt>
<trkpt lat="13.24032" lon="99.74268"><ele>143</ele><time>2018-06-16T06:50:03Z</time></trkpt>
<trkpt lat="13.24035" lon="99.74262"><ele>143</ele><time>2018-06-16T06:50:06Z</time></trkpt>
<trkpt lat="13.24037" lon="99.74257"><ele>143</ele><time>2018-06-16T06:50:09Z</time></trkpt>
<trkpt lat="13.24039" lon="99.74251"><ele>142</ele><time>2018-06-16T06:50:13Z</time></trkpt>
<trkpt lat="13.24041" lon="99.74247"><ele>142</ele><time>2018-06-16T06:50:16Z</time></trkpt>
<trkpt lat="13.24043" lon="99.74241"><ele>143</ele><time>2018-06-16T06:50:19Z</time></trkpt>
<trkpt lat="13.24045" lon="99.74236"><ele>142</ele><time>2018-06-16T06:50:22Z</time></trkpt>
<trkpt lat="13.24047" lon="99.74230"><ele>142</ele><time>2018-06-16T06:50:25Z</time></trkpt>
<trkpt lat="13.24049" lon="99.74224"><ele>142</ele><time>2018-06-16T06:50:28Z</time></trkpt>
<trkpt lat="13.24048" lon="99.74219"><ele>142</ele><time>2018-06-16T06:50:32Z</time></trkpt>
<trkpt lat="13.24044" lon="99.74215"><ele>141</ele><time>2018-06-16T06:50:35Z</time></trkpt>
<trkpt lat="13.24040" lon="99.74213"><ele>141</ele><time>2018-06-16T06:50:37Z</time></trkpt>
<trkpt lat="13.24033" lon="99.74211"><ele>141</ele><time>2018-06-16T06:50:39Z</time></trkpt>
<trkpt lat="13.24025" lon="99.74208"><ele>141</ele><time>2018-06-16T06:50:41Z</time></trkpt>
<trkpt lat="13.24021" lon="99.74206"><ele>140</ele><time>2018-06-16T06:50:42Z</time></trkpt>
<trkpt lat="13.24016" lon="99.74205"><ele>140</ele><time>2018-06-16T06:50:43Z</time></trkpt>
<trkpt lat="13.24012" lon="99.74203"><ele>139</ele><time>2018-06-16T06:50:44Z</time></trkpt>
<trkpt lat="13.24008" lon="99.74201"><ele>139</ele><time>2018-06-16T06:50:45Z</time></trkpt>
<trkpt lat="13.24001" lon="99.74196"><ele>139</ele><time>2018-06-16T06:50:47Z</time></trkpt>
<trkpt lat="13.23996" lon="99.74189"><ele>139</ele><time>2018-06-16T06:50:49Z</time></trkpt>
<trkpt lat="13.23992" lon="99.74181"><ele>138</ele><time>2018-06-16T06:50:51Z</time></trkpt>
<trkpt lat="13.23990" lon="99.74176"><ele>138</ele><time>2018-06-16T06:50:52Z</time></trkpt>
<trkpt lat="13.23989" lon="99.74171"><ele>138</ele><time>2018-06-16T06:50:53Z</time></trkpt>
<trkpt lat="13.23988" lon="99.74165"><ele>137</ele><time>2018-06-16T06:50:54Z</time></trkpt>
<trkpt lat="13.23986" lon="99.74159"><ele>137</ele><time>2018-06-16T06:50:55Z</time></trkpt>
<trkpt lat="13.23984" lon="99.74153"><ele>137</ele><time>2018-06-16T06:50:56Z</time></trkpt>
<trkpt lat="13.23983" lon="99.74147"><ele>136</ele><time>2018-06-16T06:50:57Z</time></trkpt>
<trkpt lat="13.23982" lon="99.74141"><ele>135</ele><time>2018-06-16T06:50:58Z</time></trkpt>
<trkpt lat="13.23982" lon="99.74136"><ele>134</ele><time>2018-06-16T06:50:59Z</time></trkpt>
<trkpt lat="13.23982" lon="99.74130"><ele>135</ele><time>2018-06-16T06:51:00Z</time></trkpt>
<trkpt lat="13.23983" lon="99.74124"><ele>134</ele><time>2018-06-16T06:51:01Z</time></trkpt>
<trkpt lat="13.23983" lon="99.74119"><ele>134</ele><time>2018-06-16T06:51:02Z</time></trkpt>
<trkpt lat="13.23984" lon="99.74113"><ele>134</ele><time>2018-06-16T06:51:03Z</time></trkpt>
<trkpt lat="13.23984" lon="99.74106"><ele>133</ele><time>2018-06-16T06:51:04Z</time></trkpt>
<trkpt lat="13.23985" lon="99.74100"><ele>134</ele><time>2018-06-16T06:51:05Z</time></trkpt>
<trkpt lat="13.23985" lon="99.74093"><ele>133</ele><time>2018-06-16T06:51:06Z</time></trkpt>
<trkpt lat="13.23986" lon="99.74086"><ele>132</ele><time>2018-06-16T06:51:07Z</time></trkpt>
<trkpt lat="13.23988" lon="99.74078"><ele>132</ele><time>2018-06-16T06:51:08Z</time></trkpt>
<trkpt lat="13.23989" lon="99.74071"><ele>132</ele><time>2018-06-16T06:51:09Z</time></trkpt>
<trkpt lat="13.23991" lon="99.74063"><ele>131</ele><time>2018-06-16T06:51:10Z</time></trkpt>
<trkpt lat="13.23994" lon="99.74055"><ele>131</ele><time>2018-06-16T06:51:11Z</time></trkpt>
<trkpt lat="13.23996" lon="99.74048"><ele>129</ele><time>2018-06-16T06:51:12Z</time></trkpt>
<trkpt lat="13.23999" lon="99.74040"><ele>130</ele><time>2018-06-16T06:51:13Z</time></trkpt>
<trkpt lat="13.24002" lon="99.74033"><ele>130</ele><time>2018-06-16T06:51:14Z</time></trkpt>
<trkpt lat="13.24008" lon="99.74024"><ele>131</ele><time>2018-06-16T06:51:15Z</time></trkpt>
<trkpt lat="13.24012" lon="99.74017"><ele>129</ele><time>2018-06-16T06:51:16Z</time></trkpt>
<trkpt lat="13.24016" lon="99.74012"><ele>128</ele><time>2018-06-16T06:51:17Z</time></trkpt>
<trkpt lat="13.24021" lon="99.74007"><ele>128</ele><time>2018-06-16T06:51:18Z</time></trkpt>
<trkpt lat="13.24025" lon="99.74002"><ele>129</ele><time>2018-06-16T06:51:19Z</time></trkpt>
<trkpt lat="13.24029" lon="99.73998"><ele>129</ele><time>2018-06-16T06:51:20Z</time></trkpt>
<trkpt lat="13.24034" lon="99.73994"><ele>128</ele><time>2018-06-16T06:51:21Z</time></trkpt>
<trkpt lat="13.24038" lon="99.73989"><ele>128</ele><time>2018-06-16T06:51:22Z</time></trkpt>
<trkpt lat="13.24043" lon="99.73985"><ele>128</ele><time>2018-06-16T06:51:23Z</time></trkpt>
<trkpt lat="13.24047" lon="99.73980"><ele>128</ele><time>2018-06-16T06:51:24Z</time></trkpt>
<trkpt lat="13.24051" lon="99.73975"><ele>130</ele><time>2018-06-16T06:51:25Z</time></trkpt>
<trkpt lat="13.24055" lon="99.73971"><ele>129</ele><time>2018-06-16T06:51:26Z</time></trkpt>
<trkpt lat="13.24059" lon="99.73966"><ele>129</ele><time>2018-06-16T06:51:27Z</time></trkpt>
<trkpt lat="13.24063" lon="99.73962"><ele>129</ele><time>2018-06-16T06:51:28Z</time></trkpt>
<trkpt lat="13.24067" lon="99.73958"><ele>130</ele><time>2018-06-16T06:51:29Z</time></trkpt>
<trkpt lat="13.24071" lon="99.73953"><ele>129</ele><time>2018-06-16T06:51:30Z</time></trkpt>
<trkpt lat="13.24075" lon="99.73949"><ele>129</ele><time>2018-06-16T06:51:31Z</time></trkpt>
<trkpt lat="13.24079" lon="99.73945"><ele>128</ele><time>2018-06-16T06:51:32Z</time></trkpt>
<trkpt lat="13.24083" lon="99.73941"><ele>129</ele><time>2018-06-16T06:51:33Z</time></trkpt>
<trkpt lat="13.24086" lon="99.73938"><ele>130</ele><time>2018-06-16T06:51:34Z</time></trkpt>
<trkpt lat="13.24091" lon="99.73934"><ele>129</ele><time>2018-06-16T06:51:36Z</time></trkpt>
<trkpt lat="13.24095" lon="99.73930"><ele>130</ele><time>2018-06-16T06:51:38Z</time></trkpt>
<trkpt lat="13.24099" lon="99.73926"><ele>131</ele><time>2018-06-16T06:51:40Z</time></trkpt>
<trkpt lat="13.24103" lon="99.73921"><ele>133</ele><time>2018-06-16T06:51:43Z</time></trkpt>
<trkpt lat="13.24103" lon="99.73917"><ele>134</ele><time>2018-06-16T06:52:11Z</time></trkpt>
<trkpt lat="13.24107" lon="99.73913"><ele>134</ele><time>2018-06-16T06:52:21Z</time></trkpt>
<trkpt lat="13.24111" lon="99.73911"><ele>135</ele><time>2018-06-16T06:53:17Z</time></trkpt>
<trkpt lat="13.24114" lon="99.73908"><ele>134</ele><time>2018-06-16T06:53:27Z</time></trkpt>
<trkpt lat="13.24120" lon="99.73905"><ele>133</ele><time>2018-06-16T06:53:30Z</time></trkpt>
<trkpt lat="13.24125" lon="99.73904"><ele>132</ele><time>2018-06-16T06:53:32Z</time></trkpt>
<trkpt lat="13.24131" lon="99.73902"><ele>132</ele><time>2018-06-16T06:53:35Z</time></trkpt>
<trkpt lat="13.24135" lon="99.73899"><ele>132</ele><time>2018-06-16T06:53:38Z</time></trkpt>
<trkpt lat="13.24139" lon="99.73895"><ele>133</ele><time>2018-06-16T06:53:41Z</time></trkpt>
<trkpt lat="13.24142" lon="99.73890"><ele>133</ele><time>2018-06-16T06:53:45Z</time></trkpt>
<trkpt lat="13.24145" lon="99.73885"><ele>133</ele><time>2018-06-16T06:53:48Z</time></trkpt>
<trkpt lat="13.24146" lon="99.73880"><ele>133</ele><time>2018-06-16T06:53:52Z</time></trkpt>
<trkpt lat="13.24147" lon="99.73875"><ele>134</ele><time>2018-06-16T06:53:56Z</time></trkpt>
<trkpt lat="13.24146" lon="99.73870"><ele>134</ele><time>2018-06-16T06:54:01Z</time></trkpt>
<trkpt lat="13.24144" lon="99.73865"><ele>134</ele><time>2018-06-16T06:54:06Z</time></trkpt>
<trkpt lat="13.24141" lon="99.73861"><ele>134</ele><time>2018-06-16T06:54:12Z</time></trkpt>
<trkpt lat="13.24136" lon="99.73860"><ele>134</ele><time>2018-06-16T06:54:18Z</time></trkpt>
<trkpt lat="13.24131" lon="99.73862"><ele>133</ele><time>2018-06-16T06:54:24Z</time></trkpt>
<trkpt lat="13.24127" lon="99.73864"><ele>132</ele><time>2018-06-16T06:55:05Z</time></trkpt>
<trkpt lat="13.24122" lon="99.73864"><ele>131</ele><time>2018-06-16T06:55:14Z</time></trkpt>
<trkpt lat="13.24116" lon="99.73865"><ele>130</ele><time>2018-06-16T06:55:19Z</time></trkpt>
<trkpt lat="13.24110" lon="99.73866"><ele>130</ele><time>2018-06-16T06:55:23Z</time></trkpt>
<trkpt lat="13.24105" lon="99.73867"><ele>131</ele><time>2018-06-16T06:55:26Z</time></trkpt>
<trkpt lat="13.24099" lon="99.73868"><ele>131</ele><time>2018-06-16T06:55:30Z</time></trkpt>
<trkpt lat="13.24093" lon="99.73869"><ele>130</ele><time>2018-06-16T06:55:32Z</time></trkpt>
<trkpt lat="13.24087" lon="99.73869"><ele>130</ele><time>2018-06-16T06:55:35Z</time></trkpt>
<trkpt lat="13.24082" lon="99.73869"><ele>131</ele><time>2018-06-16T06:55:37Z</time></trkpt>
<trkpt lat="13.24076" lon="99.73869"><ele>130</ele><time>2018-06-16T06:55:40Z</time></trkpt>
<trkpt lat="13.24069" lon="99.73869"><ele>130</ele><time>2018-06-16T06:55:42Z</time></trkpt>
<trkpt lat="13.24063" lon="99.73869"><ele>129</ele><time>2018-06-16T06:55:44Z</time></trkpt>
<trkpt lat="13.24055" lon="99.73868"><ele>129</ele><time>2018-06-16T06:55:46Z</time></trkpt>
<trkpt lat="13.24047" lon="99.73867"><ele>128</ele><time>2018-06-16T06:55:48Z</time></trkpt>
<trkpt lat="13.24042" lon="99.73866"><ele>127</ele><time>2018-06-16T06:55:49Z</time></trkpt>
<trkpt lat="13.24038" lon="99.73865"><ele>127</ele><time>2018-06-16T06:55:50Z</time></trkpt>
<trkpt lat="13.24030" lon="99.73864"><ele>127</ele><time>2018-06-16T06:55:51Z</time></trkpt>
<trkpt lat="13.24026" lon="99.73864"><ele>126</ele><time>2018-06-16T06:55:52Z</time></trkpt>
<trkpt lat="13.24021" lon="99.73864"><ele>127</ele><time>2018-06-16T06:55:54Z</time></trkpt>
<trkpt lat="13.24016" lon="99.73865"><ele>128</ele><time>2018-06-16T06:56:00Z</time></trkpt>
<trkpt lat="13.24011" lon="99.73865"><ele>127</ele><time>2018-06-16T06:56:04Z</time></trkpt>
<trkpt lat="13.24006" lon="99.73866"><ele>127</ele><time>2018-06-16T06:56:07Z</time></trkpt>
<trkpt lat="13.23999" lon="99.73868"><ele>126</ele><time>2018-06-16T06:56:10Z</time></trkpt>
<trkpt lat="13.23994" lon="99.73868"><ele>126</ele><time>2018-06-16T06:56:12Z</time></trkpt>
<trkpt lat="13.23988" lon="99.73869"><ele>126</ele><time>2018-06-16T06:56:14Z</time></trkpt>
<trkpt lat="13.23984" lon="99.73865"><ele>126</ele><time>2018-06-16T06:56:16Z</time></trkpt>
<trkpt lat="13.23981" lon="99.73861"><ele>126</ele><time>2018-06-16T06:56:18Z</time></trkpt>
<trkpt lat="13.23979" lon="99.73857"><ele>127</ele><time>2018-06-16T06:56:20Z</time></trkpt>
<trkpt lat="13.23976" lon="99.73853"><ele>126</ele><time>2018-06-16T06:56:22Z</time></trkpt>
<trkpt lat="13.23972" lon="99.73847"><ele>126</ele><time>2018-06-16T06:56:25Z</time></trkpt>
<trkpt lat="13.23967" lon="99.73842"><ele>125</ele><time>2018-06-16T06:56:28Z</time></trkpt>
<trkpt lat="13.23964" lon="99.73838"><ele>124</ele><time>2018-06-16T06:56:30Z</time></trkpt>
<trkpt lat="13.23961" lon="99.73831"><ele>123</ele><time>2018-06-16T06:56:32Z</time></trkpt>
<trkpt lat="13.23961" lon="99.73825"><ele>123</ele><time>2018-06-16T06:56:34Z</time></trkpt>
<trkpt lat="13.23960" lon="99.73818"><ele>123</ele><time>2018-06-16T06:56:36Z</time></trkpt>
<trkpt lat="13.23959" lon="99.73812"><ele>123</ele><time>2018-06-16T06:56:38Z</time></trkpt>
<trkpt lat="13.23957" lon="99.73806"><ele>123</ele><time>2018-06-16T06:56:40Z</time></trkpt>
<trkpt lat="13.23955" lon="99.73802"><ele>123</ele><time>2018-06-16T06:56:42Z</time></trkpt>
<trkpt lat="13.23950" lon="99.73799"><ele>123</ele><time>2018-06-16T06:56:46Z</time></trkpt>
<trkpt lat="13.23945" lon="99.73800"><ele>122</ele><time>2018-06-16T06:56:49Z</time></trkpt>
<trkpt lat="13.23940" lon="99.73803"><ele>122</ele><time>2018-06-16T06:56:51Z</time></trkpt>
<trkpt lat="13.23936" lon="99.73805"><ele>121</ele><time>2018-06-16T06:56:53Z</time></trkpt>
<trkpt lat="13.23931" lon="99.73807"><ele>122</ele><time>2018-06-16T06:56:55Z</time></trkpt>
<trkpt lat="13.23925" lon="99.73809"><ele>122</ele><time>2018-06-16T06:56:57Z</time></trkpt>
<trkpt lat="13.23917" lon="99.73810"><ele>121</ele><time>2018-06-16T06:56:59Z</time></trkpt>
<trkpt lat="13.23909" lon="99.73811"><ele>121</ele><time>2018-06-16T06:57:01Z</time></trkpt>
<trkpt lat="13.23903" lon="99.73812"><ele>121</ele><time>2018-06-16T06:57:03Z</time></trkpt>
<trkpt lat="13.23897" lon="99.73812"><ele>121</ele><time>2018-06-16T06:57:05Z</time></trkpt>
<trkpt lat="13.23892" lon="99.73811"><ele>121</ele><time>2018-06-16T06:57:07Z</time></trkpt>
<trkpt lat="13.23887" lon="99.73810"><ele>121</ele><time>2018-06-16T06:57:09Z</time></trkpt>
<trkpt lat="13.23880" lon="99.73809"><ele>121</ele><time>2018-06-16T06:57:11Z</time></trkpt>
<trkpt lat="13.23873" lon="99.73807"><ele>120</ele><time>2018-06-16T06:57:13Z</time></trkpt>
<trkpt lat="13.23866" lon="99.73805"><ele>119</ele><time>2018-06-16T06:57:15Z</time></trkpt>
<trkpt lat="13.23860" lon="99.73802"><ele>119</ele><time>2018-06-16T06:57:17Z</time></trkpt>
<trkpt lat="13.23854" lon="99.73800"><ele>119</ele><time>2018-06-16T06:57:19Z</time></trkpt>
<trkpt lat="13.23847" lon="99.73799"><ele>120</ele><time>2018-06-16T06:57:21Z</time></trkpt>
<trkpt lat="13.23839" lon="99.73800"><ele>119</ele><time>2018-06-16T06:57:23Z</time></trkpt>
<trkpt lat="13.23835" lon="99.73803"><ele>118</ele><time>2018-06-16T06:57:25Z</time></trkpt>
<trkpt lat="13.23831" lon="99.73806"><ele>117</ele><time>2018-06-16T06:57:28Z</time></trkpt>
<trkpt lat="13.23826" lon="99.73809"><ele>117</ele><time>2018-06-16T06:57:31Z</time></trkpt>
<trkpt lat="13.23821" lon="99.73812"><ele>116</ele><time>2018-06-16T06:57:34Z</time></trkpt>
<trkpt lat="13.23817" lon="99.73817"><ele>116</ele><time>2018-06-16T06:57:37Z</time></trkpt>
<trkpt lat="13.23814" lon="99.73823"><ele>117</ele><time>2018-06-16T06:57:40Z</time></trkpt>
<trkpt lat="13.23811" lon="99.73833"><ele>116</ele><time>2018-06-16T06:57:42Z</time></trkpt>
<trkpt lat="13.23808" lon="99.73839"><ele>116</ele><time>2018-06-16T06:57:43Z</time></trkpt>
<trkpt lat="13.23806" lon="99.73843"><ele>116</ele><time>2018-06-16T06:57:44Z</time></trkpt>
<trkpt lat="13.23804" lon="99.73849"><ele>116</ele><time>2018-06-16T06:57:46Z</time></trkpt>
<trkpt lat="13.23802" lon="99.73853"><ele>116</ele><time>2018-06-16T06:57:51Z</time></trkpt>
<trkpt lat="13.23801" lon="99.73859"><ele>115</ele><time>2018-06-16T06:58:10Z</time></trkpt>
<trkpt lat="13.23798" lon="99.73865"><ele>115</ele><time>2018-06-16T06:58:13Z</time></trkpt>
<trkpt lat="13.23795" lon="99.73868"><ele>116</ele><time>2018-06-16T06:58:34Z</time></trkpt>
<trkpt lat="13.23790" lon="99.73869"><ele>116</ele><time>2018-06-16T06:58:38Z</time></trkpt>
<trkpt lat="13.23785" lon="99.73870"><ele>116</ele><time>2018-06-16T06:58:41Z</time></trkpt>
<trkpt lat="13.23780" lon="99.73871"><ele>116</ele><time>2018-06-16T06:58:46Z</time></trkpt>
<trkpt lat="13.23777" lon="99.73874"><ele>116</ele><time>2018-06-16T06:59:23Z</time></trkpt>
<trkpt lat="13.23774" lon="99.73878"><ele>116</ele><time>2018-06-16T07:00:01Z</time></trkpt>
<trkpt lat="13.23772" lon="99.73882"><ele>116</ele><time>2018-06-16T07:00:29Z</time></trkpt>
<trkpt lat="13.23770" lon="99.73887"><ele>116</ele><time>2018-06-16T07:01:15Z</time></trkpt>
<trkpt lat="13.23768" lon="99.73891"><ele>114</ele><time>2018-06-16T07:03:05Z</time></trkpt>
<trkpt lat="13.23765" lon="99.73896"><ele>115</ele><time>2018-06-16T07:03:11Z</time></trkpt>
<trkpt lat="13.23762" lon="99.73899"><ele>116</ele><time>2018-06-16T07:03:16Z</time></trkpt>
<trkpt lat="13.23759" lon="99.73903"><ele>117</ele><time>2018-06-16T07:03:24Z</time></trkpt>
<trkpt lat="13.23754" lon="99.73905"><ele>117</ele><time>2018-06-16T07:03:27Z</time></trkpt>
<trkpt lat="13.23749" lon="99.73906"><ele>117</ele><time>2018-06-16T07:03:30Z</time></trkpt>
<trkpt lat="13.23744" lon="99.73907"><ele>118</ele><time>2018-06-16T07:03:34Z</time></trkpt>
<trkpt lat="13.23740" lon="99.73909"><ele>118</ele><time>2018-06-16T07:03:39Z</time></trkpt>
<trkpt lat="13.23735" lon="99.73912"><ele>119</ele><time>2018-06-16T07:03:43Z</time></trkpt>
<trkpt lat="13.23730" lon="99.73915"><ele>118</ele><time>2018-06-16T07:03:47Z</time></trkpt>
<trkpt lat="13.23726" lon="99.73918"><ele>118</ele><time>2018-06-16T07:03:50Z</time></trkpt>
<trkpt lat="13.23722" lon="99.73921"><ele>118</ele><time>2018-06-16T07:03:53Z</time></trkpt>
<trkpt lat="13.23719" lon="99.73924"><ele>118</ele><time>2018-06-16T07:03:56Z</time></trkpt>
<trkpt lat="13.23715" lon="99.73927"><ele>118</ele><time>2018-06-16T07:03:59Z</time></trkpt>
<trkpt lat="13.23710" lon="99.73929"><ele>118</ele><time>2018-06-16T07:04:02Z</time></trkpt>
<trkpt lat="13.23705" lon="99.73930"><ele>118</ele><time>2018-06-16T07:04:05Z</time></trkpt>
<trkpt lat="13.23699" lon="99.73931"><ele>118</ele><time>2018-06-16T07:04:08Z</time></trkpt>
<trkpt lat="13.23693" lon="99.73932"><ele>118</ele><time>2018-06-16T07:04:11Z</time></trkpt>
<trkpt lat="13.23687" lon="99.73933"><ele>118</ele><time>2018-06-16T07:04:14Z</time></trkpt>
<trkpt lat="13.23681" lon="99.73932"><ele>119</ele><time>2018-06-16T07:04:17Z</time></trkpt>
<trkpt lat="13.23676" lon="99.73932"><ele>119</ele><time>2018-06-16T07:04:19Z</time></trkpt>
<trkpt lat="13.23670" lon="99.73931"><ele>119</ele><time>2018-06-16T07:04:22Z</time></trkpt>
<trkpt lat="13.23664" lon="99.73930"><ele>121</ele><time>2018-06-16T07:04:25Z</time></trkpt>
<trkpt lat="13.23658" lon="99.73930"><ele>121</ele><time>2018-06-16T07:04:27Z</time></trkpt>
<trkpt lat="13.23654" lon="99.73931"><ele>121</ele><time>2018-06-16T07:04:29Z</time></trkpt>
<trkpt lat="13.23648" lon="99.73933"><ele>121</ele><time>2018-06-16T07:04:32Z</time></trkpt>
<trkpt lat="13.23643" lon="99.73936"><ele>121</ele><time>2018-06-16T07:04:35Z</time></trkpt>
<trkpt lat="13.23637" lon="99.73938"><ele>120</ele><time>2018-06-16T07:04:38Z</time></trkpt>
<trkpt lat="13.23631" lon="99.73941"><ele>120</ele><time>2018-06-16T07:04:41Z</time></trkpt>
<trkpt lat="13.23625" lon="99.73943"><ele>120</ele><time>2018-06-16T07:04:44Z</time></trkpt>
<trkpt lat="13.23618" lon="99.73944"><ele>120</ele><time>2018-06-16T07:04:47Z</time></trkpt>
<trkpt lat="13.23613" lon="99.73944"><ele>120</ele><time>2018-06-16T07:04:49Z</time></trkpt>
<trkpt lat="13.23608" lon="99.73944"><ele>120</ele><time>2018-06-16T07:04:51Z</time></trkpt>
<trkpt lat="13.23603" lon="99.73944"><ele>121</ele><time>2018-06-16T07:04:54Z</time></trkpt>
<trkpt lat="13.23598" lon="99.73946"><ele>122</ele><time>2018-06-16T07:05:17Z</time></trkpt>
<trkpt lat="13.23594" lon="99.73950"><ele>123</ele><time>2018-06-16T07:05:39Z</time></trkpt>
<trkpt lat="13.23591" lon="99.73953"><ele>125</ele><time>2018-06-16T07:06:38Z</time></trkpt>
<trkpt lat="13.23588" lon="99.73956"><ele>124</ele><time>2018-06-16T07:08:03Z</time></trkpt>
<trkpt lat="13.23584" lon="99.73959"><ele>124</ele><time>2018-06-16T07:09:57Z</time></trkpt>
<trkpt lat="13.23580" lon="99.73960"><ele>124</ele><time>2018-06-16T07:10:02Z</time></trkpt>
<trkpt lat="13.23575" lon="99.73962"><ele>124</ele><time>2018-06-16T07:10:06Z</time></trkpt>
<trkpt lat="13.23570" lon="99.73964"><ele>124</ele><time>2018-06-16T07:10:10Z</time></trkpt>
<trkpt lat="13.23566" lon="99.73966"><ele>124</ele><time>2018-06-16T07:10:13Z</time></trkpt>
<trkpt lat="13.23561" lon="99.73968"><ele>124</ele><time>2018-06-16T07:10:16Z</time></trkpt>
<trkpt lat="13.23555" lon="99.73970"><ele>124</ele><time>2018-06-16T07:10:20Z</time></trkpt>
<trkpt lat="13.23551" lon="99.73972"><ele>124</ele><time>2018-06-16T07:10:26Z</time></trkpt>
<trkpt lat="13.23546" lon="99.73975"><ele>124</ele><time>2018-06-16T07:10:30Z</time></trkpt>
<trkpt lat="13.23542" lon="99.73977"><ele>125</ele><time>2018-06-16T07:10:33Z</time></trkpt>
<trkpt lat="13.23538" lon="99.73978"><ele>124</ele><time>2018-06-16T07:10:36Z</time></trkpt>
<trkpt lat="13.23532" lon="99.73980"><ele>124</ele><time>2018-06-16T07:10:40Z</time></trkpt>
<trkpt lat="13.23527" lon="99.73982"><ele>124</ele><time>2018-06-16T07:10:43Z</time></trkpt>
<trkpt lat="13.23522" lon="99.73983"><ele>124</ele><time>2018-06-16T07:10:45Z</time></trkpt>
<trkpt lat="13.23517" lon="99.73984"><ele>124</ele><time>2018-06-16T07:10:47Z</time></trkpt>
<trkpt lat="13.23512" lon="99.73986"><ele>124</ele><time>2018-06-16T07:10:49Z</time></trkpt>
<trkpt lat="13.23507" lon="99.73988"><ele>124</ele><time>2018-06-16T07:10:51Z</time></trkpt>
<trkpt lat="13.23502" lon="99.73990"><ele>124</ele><time>2018-06-16T07:10:53Z</time></trkpt>
<trkpt lat="13.23496" lon="99.73992"><ele>124</ele><time>2018-06-16T07:10:55Z</time></trkpt>
<trkpt lat="13.23490" lon="99.73994"><ele>124</ele><time>2018-06-16T07:10:57Z</time></trkpt>
<trkpt lat="13.23484" lon="99.73996"><ele>124</ele><time>2018-06-16T07:10:59Z</time></trkpt>
<trkpt lat="13.23478" lon="99.73998"><ele>124</ele><time>2018-06-16T07:11:01Z</time></trkpt>
<trkpt lat="13.23472" lon="99.74000"><ele>124</ele><time>2018-06-16T07:11:03Z</time></trkpt>
<trkpt lat="13.23467" lon="99.74002"><ele>123</ele><time>2018-06-16T07:11:05Z</time></trkpt>
<trkpt lat="13.23462" lon="99.73999"><ele>124</ele><time>2018-06-16T07:11:08Z</time></trkpt>
<trkpt lat="13.23460" lon="99.73993"><ele>123</ele><time>2018-06-16T07:11:11Z</time></trkpt>
<trkpt lat="13.23458" lon="99.73988"><ele>123</ele><time>2018-06-16T07:11:13Z</time></trkpt>
<trkpt lat="13.23456" lon="99.73984"><ele>122</ele><time>2018-06-16T07:11:51Z</time></trkpt>
<trkpt lat="13.23454" lon="99.73979"><ele>123</ele><time>2018-06-16T07:12:02Z</time></trkpt>
<trkpt lat="13.23451" lon="99.73975"><ele>122</ele><time>2018-06-16T07:12:04Z</time></trkpt>
<trkpt lat="13.23446" lon="99.73971"><ele>123</ele><time>2018-06-16T07:12:06Z</time></trkpt>
<trkpt lat="13.23441" lon="99.73965"><ele>122</ele><time>2018-06-16T07:12:08Z</time></trkpt>
<trkpt lat="13.23436" lon="99.73960"><ele>123</ele><time>2018-06-16T07:12:10Z</time></trkpt>
<trkpt lat="13.23430" lon="99.73954"><ele>122</ele><time>2018-06-16T07:12:12Z</time></trkpt>
<trkpt lat="13.23425" lon="99.73948"><ele>122</ele><time>2018-06-16T07:12:14Z</time></trkpt>
<trkpt lat="13.23419" lon="99.73943"><ele>122</ele><time>2018-06-16T07:12:16Z</time></trkpt>
<trkpt lat="13.23412" lon="99.73939"><ele>122</ele><time>2018-06-16T07:12:18Z</time></trkpt>
<trkpt lat="13.23408" lon="99.73937"><ele>122</ele><time>2018-06-16T07:12:19Z</time></trkpt>
<trkpt lat="13.23403" lon="99.73937"><ele>122</ele><time>2018-06-16T07:12:20Z</time></trkpt>
<trkpt lat="13.23398" lon="99.73937"><ele>122</ele><time>2018-06-16T07:12:21Z</time></trkpt>
<trkpt lat="13.23390" lon="99.73937"><ele>121</ele><time>2018-06-16T07:12:23Z</time></trkpt>
<trkpt lat="13.23383" lon="99.73938"><ele>121</ele><time>2018-06-16T07:12:25Z</time></trkpt>
<trkpt lat="13.23376" lon="99.73941"><ele>121</ele><time>2018-06-16T07:12:27Z</time></trkpt>
<trkpt lat="13.23370" lon="99.73945"><ele>120</ele><time>2018-06-16T07:12:29Z</time></trkpt>
<trkpt lat="13.23366" lon="99.73950"><ele>120</ele><time>2018-06-16T07:12:31Z</time></trkpt>
<trkpt lat="13.23361" lon="99.73955"><ele>120</ele><time>2018-06-16T07:12:33Z</time></trkpt>
<trkpt lat="13.23357" lon="99.73961"><ele>120</ele><time>2018-06-16T07:12:35Z</time></trkpt>
<trkpt lat="13.23350" lon="99.73967"><ele>120</ele><time>2018-06-16T07:12:37Z</time></trkpt>
<trkpt lat="13.23346" lon="99.73971"><ele>120</ele><time>2018-06-16T07:12:38Z</time></trkpt>
<trkpt lat="13.23342" lon="99.73975"><ele>120</ele><time>2018-06-16T07:12:39Z</time></trkpt>
<trkpt lat="13.23338" lon="99.73978"><ele>120</ele><time>2018-06-16T07:12:40Z</time></trkpt>
<trkpt lat="13.23335" lon="99.73982"><ele>120</ele><time>2018-06-16T07:12:41Z</time></trkpt>
<trkpt lat="13.23331" lon="99.73986"><ele>120</ele><time>2018-06-16T07:12:42Z</time></trkpt>
<trkpt lat="13.23327" lon="99.73990"><ele>121</ele><time>2018-06-16T07:12:43Z</time></trkpt>
<trkpt lat="13.23324" lon="99.73993"><ele>121</ele><time>2018-06-16T07:12:44Z</time></trkpt>
<trkpt lat="13.23322" lon="99.73998"><ele>121</ele><time>2018-06-16T07:12:45Z</time></trkpt>
<trkpt lat="13.23320" lon="99.74002"><ele>121</ele><time>2018-06-16T07:12:46Z</time></trkpt>
<trkpt lat="13.23318" lon="99.74012"><ele>121</ele><time>2018-06-16T07:12:48Z</time></trkpt>
<trkpt lat="13.23317" lon="99.74016"><ele>121</ele><time>2018-06-16T07:12:49Z</time></trkpt>
<trkpt lat="13.23316" lon="99.74021"><ele>121</ele><time>2018-06-16T07:12:50Z</time></trkpt>
<trkpt lat="13.23315" lon="99.74025"><ele>121</ele><time>2018-06-16T07:12:51Z</time></trkpt>
<trkpt lat="13.23313" lon="99.74034"><ele>121</ele><time>2018-06-16T07:12:53Z</time></trkpt>
<trkpt lat="13.23310" lon="99.74041"><ele>122</ele><time>2018-06-16T07:12:55Z</time></trkpt>
<trkpt lat="13.23307" lon="99.74047"><ele>122</ele><time>2018-06-16T07:12:57Z</time></trkpt>
<trkpt lat="13.23302" lon="99.74052"><ele>122</ele><time>2018-06-16T07:12:59Z</time></trkpt>
<trkpt lat="13.23295" lon="99.74056"><ele>122</ele><time>2018-06-16T07:13:01Z</time></trkpt>
<trkpt lat="13.23288" lon="99.74059"><ele>122</ele><time>2018-06-16T07:13:03Z</time></trkpt>
<trkpt lat="13.23281" lon="99.74063"><ele>122</ele><time>2018-06-16T07:13:05Z</time></trkpt>
<trkpt lat="13.23274" lon="99.74066"><ele>122</ele><time>2018-06-16T07:13:07Z</time></trkpt>
<trkpt lat="13.23267" lon="99.74070"><ele>123</ele><time>2018-06-16T07:13:09Z</time></trkpt>
<trkpt lat="13.23259" lon="99.74074"><ele>123</ele><time>2018-06-16T07:13:11Z</time></trkpt>
<trkpt lat="13.23252" lon="99.74077"><ele>123</ele><time>2018-06-16T07:13:13Z</time></trkpt>
<trkpt lat="13.23246" lon="99.74080"><ele>123</ele><time>2018-06-16T07:13:15Z</time></trkpt>
<trkpt lat="13.23239" lon="99.74083"><ele>124</ele><time>2018-06-16T07:13:17Z</time></trkpt>
<trkpt lat="13.23233" lon="99.74086"><ele>124</ele><time>2018-06-16T07:13:19Z</time></trkpt>
<trkpt lat="13.23227" lon="99.74090"><ele>124</ele><time>2018-06-16T07:13:21Z</time></trkpt>
<trkpt lat="13.23221" lon="99.74093"><ele>124</ele><time>2018-06-16T07:13:23Z</time></trkpt>
<trkpt lat="13.23216" lon="99.74096"><ele>125</ele><time>2018-06-16T07:13:25Z</time></trkpt>
<trkpt lat="13.23212" lon="99.74098"><ele>125</ele><time>2018-06-16T07:13:27Z</time></trkpt>
<trkpt lat="13.23206" lon="99.74101"><ele>125</ele><time>2018-06-16T07:13:29Z</time></trkpt>
<trkpt lat="13.23201" lon="99.74102"><ele>125</ele><time>2018-06-16T07:13:31Z</time></trkpt>
<trkpt lat="13.23196" lon="99.74105"><ele>126</ele><time>2018-06-16T07:13:33Z</time></trkpt>
<trkpt lat="13.23192" lon="99.74107"><ele>127</ele><time>2018-06-16T07:13:35Z</time></trkpt>
<trkpt lat="13.23187" lon="99.74111"><ele>127</ele><time>2018-06-16T07:13:38Z</time></trkpt>
<trkpt lat="13.23182" lon="99.74114"><ele>128</ele><time>2018-06-16T07:13:41Z</time></trkpt>
<trkpt lat="13.23177" lon="99.74117"><ele>128</ele><time>2018-06-16T07:13:44Z</time></trkpt>
<trkpt lat="13.23171" lon="99.74120"><ele>129</ele><time>2018-06-16T07:13:47Z</time></trkpt>
<trkpt lat="13.23165" lon="99.74123"><ele>129</ele><time>2018-06-16T07:13:50Z</time></trkpt>
<trkpt lat="13.23159" lon="99.74126"><ele>130</ele><time>2018-06-16T07:13:53Z</time></trkpt>
<trkpt lat="13.23155" lon="99.74128"><ele>130</ele><time>2018-06-16T07:13:55Z</time></trkpt>
<trkpt lat="13.23148" lon="99.74130"><ele>131</ele><time>2018-06-16T07:13:58Z</time></trkpt>
<trkpt lat="13.23142" lon="99.74133"><ele>132</ele><time>2018-06-16T07:14:01Z</time></trkpt>
<trkpt lat="13.23137" lon="99.74137"><ele>132</ele><time>2018-06-16T07:14:04Z</time></trkpt>
<trkpt lat="13.23132" lon="99.74140"><ele>133</ele><time>2018-06-16T07:14:07Z</time></trkpt>
<trkpt lat="13.23127" lon="99.74144"><ele>133</ele><time>2018-06-16T07:14:10Z</time></trkpt>
<trkpt lat="13.23122" lon="99.74147"><ele>133</ele><time>2018-06-16T07:14:13Z</time></trkpt>
<trkpt lat="13.23118" lon="99.74149"><ele>133</ele><time>2018-06-16T07:14:16Z</time></trkpt>
<trkpt lat="13.23112" lon="99.74150"><ele>134</ele><time>2018-06-16T07:14:19Z</time></trkpt>
<trkpt lat="13.23106" lon="99.74153"><ele>135</ele><time>2018-06-16T07:14:22Z</time></trkpt>
<trkpt lat="13.23101" lon="99.74156"><ele>135</ele><time>2018-06-16T07:14:25Z</time></trkpt>
<trkpt lat="13.23096" lon="99.74159"><ele>135</ele><time>2018-06-16T07:14:28Z</time></trkpt>
<trkpt lat="13.23091" lon="99.74162"><ele>136</ele><time>2018-06-16T07:14:31Z</time></trkpt>
<trkpt lat="13.23086" lon="99.74165"><ele>137</ele><time>2018-06-16T07:14:34Z</time></trkpt>
<trkpt lat="13.23080" lon="99.74167"><ele>137</ele><time>2018-06-16T07:14:37Z</time></trkpt>
<trkpt lat="13.23074" lon="99.74169"><ele>137</ele><time>2018-06-16T07:14:40Z</time></trkpt>
<trkpt lat="13.23068" lon="99.74172"><ele>138</ele><time>2018-06-16T07:14:43Z</time></trkpt>
<trkpt lat="13.23062" lon="99.74176"><ele>139</ele><time>2018-06-16T07:14:46Z</time></trkpt>
<trkpt lat="13.23056" lon="99.74179"><ele>139</ele><time>2018-06-16T07:14:49Z</time></trkpt>
<trkpt lat="13.23052" lon="99.74181"><ele>140</ele><time>2018-06-16T07:14:51Z</time></trkpt>
<trkpt lat="13.23048" lon="99.74184"><ele>140</ele><time>2018-06-16T07:14:53Z</time></trkpt>
<trkpt lat="13.23044" lon="99.74186"><ele>141</ele><time>2018-06-16T07:14:55Z</time></trkpt>
<trkpt lat="13.23039" lon="99.74188"><ele>142</ele><time>2018-06-16T07:14:58Z</time></trkpt>
<trkpt lat="13.23033" lon="99.74189"><ele>142</ele><time>2018-06-16T07:15:01Z</time></trkpt>
<trkpt lat="13.23029" lon="99.74190"><ele>142</ele><time>2018-06-16T07:15:04Z</time></trkpt>
<trkpt lat="13.23024" lon="99.74193"><ele>144</ele><time>2018-06-16T07:15:07Z</time></trkpt>
<trkpt lat="13.23020" lon="99.74195"><ele>144</ele><time>2018-06-16T07:15:10Z</time></trkpt>
<trkpt lat="13.23016" lon="99.74197"><ele>145</ele><time>2018-06-16T07:15:13Z</time></trkpt>
<trkpt lat="13.23011" lon="99.74199"><ele>146</ele><time>2018-06-16T07:15:16Z</time></trkpt>
<trkpt lat="13.23009" lon="99.74203"><ele>147</ele><time>2018-06-16T07:15:22Z</time></trkpt>
<trkpt lat="13.23008" lon="99.74208"><ele>152</ele><time>2018-06-16T07:17:53Z</time></trkpt>
<trkpt lat="13.23010" lon="99.74214"><ele>152</ele><time>2018-06-16T07:17:56Z</time></trkpt>
<trkpt lat="13.23012" lon="99.74220"><ele>152</ele><time>2018-06-16T07:17:58Z</time></trkpt>
<trkpt lat="13.23013" lon="99.74226"><ele>152</ele><time>2018-06-16T07:18:00Z</time></trkpt>
<trkpt lat="13.23016" lon="99.74232"><ele>151</ele><time>2018-06-16T07:18:02Z</time></trkpt>
<trkpt lat="13.23018" lon="99.74239"><ele>152</ele><time>2018-06-16T07:18:04Z</time></trkpt>
<trkpt lat="13.23020" lon="99.74246"><ele>152</ele><time>2018-06-16T07:18:06Z</time></trkpt>
<trkpt lat="13.23022" lon="99.74252"><ele>152</ele><time>2018-06-16T07:18:08Z</time></trkpt>
<trkpt lat="13.23023" lon="99.74258"><ele>151</ele><time>2018-06-16T07:18:10Z</time></trkpt>
<trkpt lat="13.23023" lon="99.74264"><ele>151</ele><time>2018-06-16T07:18:12Z</time></trkpt>
<trkpt lat="13.23023" lon="99.74271"><ele>151</ele><time>2018-06-16T07:18:14Z</time></trkpt>
<trkpt lat="13.23023" lon="99.74276"><ele>151</ele><time>2018-06-16T07:18:16Z</time></trkpt>
<trkpt lat="13.23021" lon="99.74282"><ele>151</ele><time>2018-06-16T07:18:18Z</time></trkpt>
<trkpt lat="13.23020" lon="99.74288"><ele>151</ele><time>2018-06-16T07:18:20Z</time></trkpt>
<trkpt lat="13.23019" lon="99.74293"><ele>151</ele><time>2018-06-16T07:18:22Z</time></trkpt>
<trkpt lat="13.23016" lon="99.74300"><ele>153</ele><time>2018-06-16T07:18:24Z</time></trkpt>
<trkpt lat="13.23013" lon="99.74307"><ele>153</ele><time>2018-06-16T07:18:26Z</time></trkpt>
<trkpt lat="13.23012" lon="99.74316"><ele>154</ele><time>2018-06-16T07:18:28Z</time></trkpt>
<trkpt lat="13.23009" lon="99.74323"><ele>153</ele><time>2018-06-16T07:18:30Z</time></trkpt>
<trkpt lat="13.23006" lon="99.74329"><ele>153</ele><time>2018-06-16T07:18:32Z</time></trkpt>
<trkpt lat="13.23003" lon="99.74336"><ele>154</ele><time>2018-06-16T07:18:34Z</time></trkpt>
<trkpt lat="13.22999" lon="99.74343"><ele>154</ele><time>2018-06-16T07:18:36Z</time></trkpt>
<trkpt lat="13.22994" lon="99.74350"><ele>155</ele><time>2018-06-16T07:18:38Z</time></trkpt>
<trkpt lat="13.22990" lon="99.74357"><ele>156</ele><time>2018-06-16T07:18:40Z</time></trkpt>
<trkpt lat="13.22986" lon="99.74364"><ele>156</ele><time>2018-06-16T07:18:42Z</time></trkpt>
<trkpt lat="13.22983" lon="99.74372"><ele>156</ele><time>2018-06-16T07:18:44Z</time></trkpt>
<trkpt lat="13.22980" lon="99.74379"><ele>156</ele><time>2018-06-16T07:18:46Z</time></trkpt>
<trkpt lat="13.22977" lon="99.74385"><ele>156</ele><time>2018-06-16T07:18:48Z</time></trkpt>
<trkpt lat="13.22973" lon="99.74391"><ele>157</ele><time>2018-06-16T07:18:50Z</time></trkpt>
<trkpt lat="13.22970" lon="99.74397"><ele>157</ele><time>2018-06-16T07:18:52Z</time></trkpt>
<trkpt lat="13.22967" lon="99.74403"><ele>158</ele><time>2018-06-16T07:18:54Z</time></trkpt>
<trkpt lat="13.22964" lon="99.74408"><ele>158</ele><time>2018-06-16T07:18:56Z</time></trkpt>
<trkpt lat="13.22960" lon="99.74413"><ele>159</ele><time>2018-06-16T07:18:58Z</time></trkpt>
<trkpt lat="13.22956" lon="99.74417"><ele>159</ele><time>2018-06-16T07:19:00Z</time></trkpt>
<trkpt lat="13.22951" lon="99.74421"><ele>159</ele><time>2018-06-16T07:19:02Z</time></trkpt>
<trkpt lat="13.22946" lon="99.74424"><ele>159</ele><time>2018-06-16T07:19:04Z</time></trkpt>
<trkpt lat="13.22941" lon="99.74428"><ele>160</ele><time>2018-06-16T07:19:06Z</time></trkpt>
<trkpt lat="13.22938" lon="99.74432"><ele>161</ele><time>2018-06-16T07:19:08Z</time></trkpt>
<trkpt lat="13.22935" lon="99.74436"><ele>162</ele><time>2018-06-16T07:19:11Z</time></trkpt>
<trkpt lat="13.22932" lon="99.74442"><ele>162</ele><time>2018-06-16T07:19:14Z</time></trkpt>
<trkpt lat="13.22930" lon="99.74447"><ele>162</ele><time>2018-06-16T07:19:17Z</time></trkpt>
<trkpt lat="13.22927" lon="99.74451"><ele>162</ele><time>2018-06-16T07:19:20Z</time></trkpt>
<trkpt lat="13.22923" lon="99.74454"><ele>163</ele><time>2018-06-16T07:19:23Z</time></trkpt>
<trkpt lat="13.22919" lon="99.74457"><ele>165</ele><time>2018-06-16T07:19:40Z</time></trkpt>
<trkpt lat="13.22915" lon="99.74459"><ele>166</ele><time>2018-06-16T07:20:12Z</time></trkpt>
<trkpt lat="13.22910" lon="99.74463"><ele>166</ele><time>2018-06-16T07:21:42Z</time></trkpt>
<trkpt lat="13.22905" lon="99.74467"><ele>165</ele><time>2018-06-16T07:21:44Z</time></trkpt>
<trkpt lat="13.22899" lon="99.74470"><ele>160</ele><time>2018-06-16T07:21:46Z</time></trkpt>
<trkpt lat="13.22890" lon="99.74475"><ele>161</ele><time>2018-06-16T07:21:48Z</time></trkpt>
<trkpt lat="13.22886" lon="99.74478"><ele>162</ele><time>2018-06-16T07:21:49Z</time></trkpt>
<trkpt lat="13.22877" lon="99.74483"><ele>164</ele><time>2018-06-16T07:21:51Z</time></trkpt>
<trkpt lat="13.22871" lon="99.74486"><ele>163</ele><time>2018-06-16T07:21:52Z</time></trkpt>
<trkpt lat="13.22866" lon="99.74490"><ele>161</ele><time>2018-06-16T07:21:53Z</time></trkpt>
<trkpt lat="13.22858" lon="99.74494"><ele>156</ele><time>2018-06-16T07:21:54Z</time></trkpt>
<trkpt lat="13.22849" lon="99.74499"><ele>151</ele><time>2018-06-16T07:21:55Z</time></trkpt>
<trkpt lat="13.22845" lon="99.74502"><ele>146</ele><time>2018-06-16T07:21:56Z</time></trkpt>
<trkpt lat="13.22839" lon="99.74504"><ele>142</ele><time>2018-06-16T07:21:57Z</time></trkpt>
<trkpt lat="13.22833" lon="99.74506"><ele>137</ele><time>2018-06-16T07:21:58Z</time></trkpt>
<trkpt lat="13.22827" lon="99.74507"><ele>134</ele><time>2018-06-16T07:21:59Z</time></trkpt>
<trkpt lat="13.22820" lon="99.74507"><ele>132</ele><time>2018-06-16T07:22:00Z</time></trkpt>
<trkpt lat="13.22814" lon="99.74507"><ele>130</ele><time>2018-06-16T07:22:01Z</time></trkpt>
<trkpt lat="13.22808" lon="99.74507"><ele>127</ele><time>2018-06-16T07:22:02Z</time></trkpt>
<trkpt lat="13.22802" lon="99.74507"><ele>127</ele><time>2018-06-16T07:22:03Z</time></trkpt>
<trkpt lat="13.22796" lon="99.74507"><ele>125</ele><time>2018-06-16T07:22:04Z</time></trkpt>
<trkpt lat="13.22782" lon="99.74509"><ele>124</ele><time>2018-06-16T07:22:05Z</time></trkpt>
<trkpt lat="13.22776" lon="99.74511"><ele>122</ele><time>2018-06-16T07:22:07Z</time></trkpt>
<trkpt lat="13.22772" lon="99.74513"><ele>121</ele><time>2018-06-16T07:22:08Z</time></trkpt>
<trkpt lat="13.22767" lon="99.74514"><ele>121</ele><time>2018-06-16T07:22:09Z</time></trkpt>
<trkpt lat="13.22761" lon="99.74516"><ele>122</ele><time>2018-06-16T07:22:10Z</time></trkpt>
<trkpt lat="13.22751" lon="99.74521"><ele>122</ele><time>2018-06-16T07:22:11Z</time></trkpt>
<trkpt lat="13.22744" lon="99.74526"><ele>122</ele><time>2018-06-16T07:22:12Z</time></trkpt>
<trkpt lat="13.22738" lon="99.74530"><ele>123</ele><time>2018-06-16T07:22:13Z</time></trkpt>
<trkpt lat="13.22732" lon="99.74535"><ele>123</ele><time>2018-06-16T07:22:14Z</time></trkpt>
<trkpt lat="13.22726" lon="99.74540"><ele>123</ele><time>2018-06-16T07:22:15Z</time></trkpt>
<trkpt lat="13.22720" lon="99.74546"><ele>124</ele><time>2018-06-16T07:22:17Z</time></trkpt>
<trkpt lat="13.22716" lon="99.74550"><ele>124</ele><time>2018-06-16T07:22:18Z</time></trkpt>
<trkpt lat="13.22711" lon="99.74553"><ele>123</ele><time>2018-06-16T07:22:19Z</time></trkpt>
<trkpt lat="13.22706" lon="99.74557"><ele>123</ele><time>2018-06-16T07:22:20Z</time></trkpt>
<trkpt lat="13.22700" lon="99.74561"><ele>122</ele><time>2018-06-16T07:22:21Z</time></trkpt>
<trkpt lat="13.22695" lon="99.74565"><ele>122</ele><time>2018-06-16T07:22:22Z</time></trkpt>
<trkpt lat="13.22689" lon="99.74569"><ele>121</ele><time>2018-06-16T07:22:23Z</time></trkpt>
<trkpt lat="13.22682" lon="99.74573"><ele>120</ele><time>2018-06-16T07:22:24Z</time></trkpt>
<trkpt lat="13.22676" lon="99.74577"><ele>119</ele><time>2018-06-16T07:22:25Z</time></trkpt>
<trkpt lat="13.22670" lon="99.74581"><ele>119</ele><time>2018-06-16T07:22:26Z</time></trkpt>
<trkpt lat="13.22663" lon="99.74584"><ele>119</ele><time>2018-06-16T07:22:27Z</time></trkpt>
<trkpt lat="13.22656" lon="99.74586"><ele>118</ele><time>2018-06-16T07:22:28Z</time></trkpt>
<trkpt lat="13.22650" lon="99.74587"><ele>118</ele><time>2018-06-16T07:22:29Z</time></trkpt>
<trkpt lat="13.22644" lon="99.74588"><ele>118</ele><time>2018-06-16T07:22:30Z</time></trkpt>
<trkpt lat="13.22639" lon="99.74588"><ele>118</ele><time>2018-06-16T07:22:31Z</time></trkpt>
<trkpt lat="13.22634" lon="99.74589"><ele>118</ele><time>2018-06-16T07:22:32Z</time></trkpt>
<trkpt lat="13.22629" lon="99.74589"><ele>117</ele><time>2018-06-16T07:22:33Z</time></trkpt>
<trkpt lat="13.22622" lon="99.74590"><ele>118</ele><time>2018-06-16T07:22:35Z</time></trkpt>
<trkpt lat="13.22616" lon="99.74591"><ele>118</ele><time>2018-06-16T07:22:38Z</time></trkpt>
<trkpt lat="13.22612" lon="99.74591"><ele>120</ele><time>2018-06-16T07:22:46Z</time></trkpt>
<trkpt lat="13.22608" lon="99.74594"><ele>142</ele><time>2018-06-16T07:23:02Z</time></trkpt>
<trkpt lat="13.22602" lon="99.74598"><ele>143</ele><time>2018-06-16T07:23:03Z</time></trkpt>
<trkpt lat="13.22596" lon="99.74602"><ele>143</ele><time>2018-06-16T07:23:05Z</time></trkpt>
<trkpt lat="13.22589" lon="99.74608"><ele>145</ele><time>2018-06-16T07:23:07Z</time></trkpt>
<trkpt lat="13.22584" lon="99.74612"><ele>145</ele><time>2018-06-16T07:23:08Z</time></trkpt>
<trkpt lat="13.22579" lon="99.74615"><ele>145</ele><time>2018-06-16T07:23:09Z</time></trkpt>
<trkpt lat="13.22574" lon="99.74620"><ele>146</ele><time>2018-06-16T07:23:10Z</time></trkpt>
<trkpt lat="13.22569" lon="99.74624"><ele>147</ele><time>2018-06-16T07:23:11Z</time></trkpt>
<trkpt lat="13.22564" lon="99.74629"><ele>147</ele><time>2018-06-16T07:23:12Z</time></trkpt>
<trkpt lat="13.22560" lon="99.74635"><ele>147</ele><time>2018-06-16T07:23:13Z</time></trkpt>
<trkpt lat="13.22555" lon="99.74640"><ele>147</ele><time>2018-06-16T07:23:14Z</time></trkpt>
<trkpt lat="13.22547" lon="99.74648"><ele>148</ele><time>2018-06-16T07:23:16Z</time></trkpt>
<trkpt lat="13.22541" lon="99.74652"><ele>147</ele><time>2018-06-16T07:23:19Z</time></trkpt>
<trkpt lat="13.22535" lon="99.74657"><ele>147</ele><time>2018-06-16T07:23:20Z</time></trkpt>
<trkpt lat="13.22531" lon="99.74659"><ele>147</ele><time>2018-06-16T07:23:21Z</time></trkpt>
<trkpt lat="13.22527" lon="99.74662"><ele>146</ele><time>2018-06-16T07:23:22Z</time></trkpt>
<trkpt lat="13.22522" lon="99.74665"><ele>146</ele><time>2018-06-16T07:23:23Z</time></trkpt>
<trkpt lat="13.22516" lon="99.74667"><ele>146</ele><time>2018-06-16T07:23:24Z</time></trkpt>
<trkpt lat="13.22510" lon="99.74668"><ele>145</ele><time>2018-06-16T07:23:25Z</time></trkpt>
<trkpt lat="13.22501" lon="99.74670"><ele>145</ele><time>2018-06-16T07:23:26Z</time></trkpt>
<trkpt lat="13.22494" lon="99.74671"><ele>146</ele><time>2018-06-16T07:23:27Z</time></trkpt>
<trkpt lat="13.22487" lon="99.74671"><ele>144</ele><time>2018-06-16T07:23:29Z</time></trkpt>
<trkpt lat="13.22473" lon="99.74669"><ele>145</ele><time>2018-06-16T07:23:31Z</time></trkpt>
<trkpt lat="13.22469" lon="99.74667"><ele>146</ele><time>2018-06-16T07:23:32Z</time></trkpt>
<trkpt lat="13.22465" lon="99.74663"><ele>146</ele><time>2018-06-16T07:23:35Z</time></trkpt>
<trkpt lat="13.22461" lon="99.74659"><ele>146</ele><time>2018-06-16T07:23:36Z</time></trkpt>
<trkpt lat="13.22456" lon="99.74653"><ele>147</ele><time>2018-06-16T07:23:38Z</time></trkpt>
<trkpt lat="13.22452" lon="99.74649"><ele>148</ele><time>2018-06-16T07:23:40Z</time></trkpt>
<trkpt lat="13.22447" lon="99.74642"><ele>149</ele><time>2018-06-16T07:23:42Z</time></trkpt>
<trkpt lat="13.22444" lon="99.74637"><ele>150</ele><time>2018-06-16T07:23:44Z</time></trkpt>
<trkpt lat="13.22441" lon="99.74633"><ele>151</ele><time>2018-06-16T07:23:48Z</time></trkpt>
<trkpt lat="13.22439" lon="99.74628"><ele>154</ele><time>2018-06-16T07:24:49Z</time></trkpt>
<trkpt lat="13.22434" lon="99.74625"><ele>153</ele><time>2018-06-16T07:24:53Z</time></trkpt>
<trkpt lat="13.22429" lon="99.74624"><ele>153</ele><time>2018-06-16T07:24:58Z</time></trkpt>
<trkpt lat="13.22424" lon="99.74626"><ele>154</ele><time>2018-06-16T07:25:01Z</time></trkpt>
<trkpt lat="13.22420" lon="99.74628"><ele>154</ele><time>2018-06-16T07:25:11Z</time></trkpt>
<trkpt lat="13.22415" lon="99.74631"><ele>153</ele><time>2018-06-16T07:25:48Z</time></trkpt>
<trkpt lat="13.22409" lon="99.74633"><ele>153</ele><time>2018-06-16T07:25:50Z</time></trkpt>
<trkpt lat="13.22403" lon="99.74635"><ele>153</ele><time>2018-06-16T07:25:52Z</time></trkpt>
<trkpt lat="13.22396" lon="99.74637"><ele>152</ele><time>2018-06-16T07:25:54Z</time></trkpt>
<trkpt lat="13.22387" lon="99.74640"><ele>152</ele><time>2018-06-16T07:25:56Z</time></trkpt>
<trkpt lat="13.22383" lon="99.74641"><ele>152</ele><time>2018-06-16T07:25:57Z</time></trkpt>
<trkpt lat="13.22378" lon="99.74643"><ele>152</ele><time>2018-06-16T07:25:58Z</time></trkpt>
<trkpt lat="13.22374" lon="99.74644"><ele>152</ele><time>2018-06-16T07:25:59Z</time></trkpt>
<trkpt lat="13.22369" lon="99.74646"><ele>151</ele><time>2018-06-16T07:26:00Z</time></trkpt>
<trkpt lat="13.22365" lon="99.74647"><ele>151</ele><time>2018-06-16T07:26:01Z</time></trkpt>
<trkpt lat="13.22360" lon="99.74648"><ele>151</ele><time>2018-06-16T07:26:02Z</time></trkpt>
<trkpt lat="13.22354" lon="99.74650"><ele>151</ele><time>2018-06-16T07:26:03Z</time></trkpt>
<trkpt lat="13.22349" lon="99.74652"><ele>151</ele><time>2018-06-16T07:26:04Z</time></trkpt>
<trkpt lat="13.22344" lon="99.74654"><ele>151</ele><time>2018-06-16T07:26:05Z</time></trkpt>
<trkpt lat="13.22338" lon="99.74656"><ele>151</ele><time>2018-06-16T07:26:06Z</time></trkpt>
<trkpt lat="13.22332" lon="99.74658"><ele>151</ele><time>2018-06-16T07:26:07Z</time></trkpt>
<trkpt lat="13.22327" lon="99.74661"><ele>151</ele><time>2018-06-16T07:26:08Z</time></trkpt>
<trkpt lat="13.22320" lon="99.74663"><ele>151</ele><time>2018-06-16T07:26:09Z</time></trkpt>
<trkpt lat="13.22314" lon="99.74665"><ele>150</ele><time>2018-06-16T07:26:10Z</time></trkpt>
<trkpt lat="13.22308" lon="99.74667"><ele>149</ele><time>2018-06-16T07:26:11Z</time></trkpt>
<trkpt lat="13.22298" lon="99.74669"><ele>148</ele><time>2018-06-16T07:26:13Z</time></trkpt>
<trkpt lat="13.22288" lon="99.74673"><ele>148</ele><time>2018-06-16T07:26:14Z</time></trkpt>
<trkpt lat="13.22281" lon="99.74675"><ele>147</ele><time>2018-06-16T07:26:15Z</time></trkpt>
<trkpt lat="13.22273" lon="99.74678"><ele>147</ele><time>2018-06-16T07:26:16Z</time></trkpt>
<trkpt lat="13.22266" lon="99.74681"><ele>146</ele><time>2018-06-16T07:26:17Z</time></trkpt>
<trkpt lat="13.22259" lon="99.74683"><ele>145</ele><time>2018-06-16T07:26:18Z</time></trkpt>
<trkpt lat="13.22252" lon="99.74687"><ele>145</ele><time>2018-06-16T07:26:19Z</time></trkpt>
<trkpt lat="13.22244" lon="99.74690"><ele>144</ele><time>2018-06-16T07:26:20Z</time></trkpt>
<trkpt lat="13.22236" lon="99.74693"><ele>143</ele><time>2018-06-16T07:26:21Z</time></trkpt>
<trkpt lat="13.22231" lon="99.74695"><ele>142</ele><time>2018-06-16T07:26:22Z</time></trkpt>
<trkpt lat="13.22221" lon="99.74698"><ele>141</ele><time>2018-06-16T07:26:23Z</time></trkpt>
<trkpt lat="13.22215" lon="99.74698"><ele>140</ele><time>2018-06-16T07:26:24Z</time></trkpt>
<trkpt lat="13.22204" lon="99.74697"><ele>140</ele><time>2018-06-16T07:26:25Z</time></trkpt>
<trkpt lat="13.22195" lon="99.74696"><ele>139</ele><time>2018-06-16T07:26:26Z</time></trkpt>
<trkpt lat="13.22187" lon="99.74695"><ele>139</ele><time>2018-06-16T07:26:27Z</time></trkpt>
<trkpt lat="13.22180" lon="99.74695"><ele>139</ele><time>2018-06-16T07:26:28Z</time></trkpt>
<trkpt lat="13.22173" lon="99.74696"><ele>139</ele><time>2018-06-16T07:26:29Z</time></trkpt>
<trkpt lat="13.22166" lon="99.74696"><ele>138</ele><time>2018-06-16T07:26:30Z</time></trkpt>
<trkpt lat="13.22160" lon="99.74696"><ele>138</ele><time>2018-06-16T07:26:31Z</time></trkpt>
<trkpt lat="13.22155" lon="99.74696"><ele>137</ele><time>2018-06-16T07:26:33Z</time></trkpt>
<trkpt lat="13.22150" lon="99.74694"><ele>138</ele><time>2018-06-16T07:26:36Z</time></trkpt>
<trkpt lat="13.22149" lon="99.74689"><ele>139</ele><time>2018-06-16T07:26:56Z</time></trkpt>
<trkpt lat="13.22150" lon="99.74683"><ele>140</ele><time>2018-06-16T07:26:59Z</time></trkpt>
<trkpt lat="13.22150" lon="99.74677"><ele>140</ele><time>2018-06-16T07:27:01Z</time></trkpt>
<trkpt lat="13.22150" lon="99.74671"><ele>141</ele><time>2018-06-16T07:27:03Z</time></trkpt>
<trkpt lat="13.22149" lon="99.74665"><ele>140</ele><time>2018-06-16T07:27:05Z</time></trkpt>
<trkpt lat="13.22144" lon="99.74662"><ele>140</ele><time>2018-06-16T07:27:07Z</time></trkpt>
<trkpt lat="13.22138" lon="99.74660"><ele>140</ele><time>2018-06-16T07:27:09Z</time></trkpt>
<trkpt lat="13.22132" lon="99.74659"><ele>140</ele><time>2018-06-16T07:27:11Z</time></trkpt>
<trkpt lat="13.22124" lon="99.74658"><ele>141</ele><time>2018-06-16T07:27:13Z</time></trkpt>
<trkpt lat="13.22116" lon="99.74658"><ele>141</ele><time>2018-06-16T07:27:15Z</time></trkpt>
<trkpt lat="13.22109" lon="99.74657"><ele>141</ele><time>2018-06-16T07:27:17Z</time></trkpt>
<trkpt lat="13.22101" lon="99.74657"><ele>141</ele><time>2018-06-16T07:27:19Z</time></trkpt>
<trkpt lat="13.22093" lon="99.74656"><ele>141</ele><time>2018-06-16T07:27:21Z</time></trkpt>
<trkpt lat="13.22084" lon="99.74656"><ele>141</ele><time>2018-06-16T07:27:23Z</time></trkpt>
<trkpt lat="13.22076" lon="99.74655"><ele>142</ele><time>2018-06-16T07:27:25Z</time></trkpt>
<trkpt lat="13.22068" lon="99.74651"><ele>142</ele><time>2018-06-16T07:27:27Z</time></trkpt>
<trkpt lat="13.22061" lon="99.74648"><ele>142</ele><time>2018-06-16T07:27:29Z</time></trkpt>
<trkpt lat="13.22055" lon="99.74644"><ele>143</ele><time>2018-06-16T07:27:31Z</time></trkpt>
<trkpt lat="13.22049" lon="99.74641"><ele>142</ele><time>2018-06-16T07:27:33Z</time></trkpt>
<trkpt lat="13.22042" lon="99.74637"><ele>143</ele><time>2018-06-16T07:27:35Z</time></trkpt>
<trkpt lat="13.22034" lon="99.74634"><ele>143</ele><time>2018-06-16T07:27:37Z</time></trkpt>
<trkpt lat="13.22026" lon="99.74630"><ele>144</ele><time>2018-06-16T07:27:39Z</time></trkpt>
<trkpt lat="13.22020" lon="99.74628"><ele>144</ele><time>2018-06-16T07:27:41Z</time></trkpt>
<trkpt lat="13.22014" lon="99.74626"><ele>144</ele><time>2018-06-16T07:27:43Z</time></trkpt>
<trkpt lat="13.22009" lon="99.74625"><ele>144</ele><time>2018-06-16T07:27:45Z</time></trkpt>
<trkpt lat="13.22003" lon="99.74624"><ele>144</ele><time>2018-06-16T07:27:47Z</time></trkpt>
<trkpt lat="13.21998" lon="99.74625"><ele>144</ele><time>2018-06-16T07:27:49Z</time></trkpt>
<trkpt lat="13.21992" lon="99.74628"><ele>144</ele><time>2018-06-16T07:27:52Z</time></trkpt>
<trkpt lat="13.21987" lon="99.74631"><ele>144</ele><time>2018-06-16T07:27:55Z</time></trkpt>
<trkpt lat="13.21982" lon="99.74634"><ele>144</ele><time>2018-06-16T07:27:58Z</time></trkpt>
<trkpt lat="13.21977" lon="99.74638"><ele>144</ele><time>2018-06-16T07:28:02Z</time></trkpt>
<trkpt lat="13.21973" lon="99.74644"><ele>144</ele><time>2018-06-16T07:28:05Z</time></trkpt>
<trkpt lat="13.21970" lon="99.74647"><ele>144</ele><time>2018-06-16T07:28:08Z</time></trkpt>
<trkpt lat="13.21966" lon="99.74651"><ele>144</ele><time>2018-06-16T07:28:11Z</time></trkpt>
<trkpt lat="13.21963" lon="99.74655"><ele>144</ele><time>2018-06-16T07:28:14Z</time></trkpt>
<trkpt lat="13.21959" lon="99.74659"><ele>144</ele><time>2018-06-16T07:28:18Z</time></trkpt>
<trkpt lat="13.21958" lon="99.74664"><ele>144</ele><time>2018-06-16T07:28:31Z</time></trkpt>
<trkpt lat="13.21955" lon="99.74667"><ele>142</ele><time>2018-06-16T07:29:31Z</time></trkpt>
<trkpt lat="13.21952" lon="99.74672"><ele>143</ele><time>2018-06-16T07:30:19Z</time></trkpt>
<trkpt lat="13.21950" lon="99.74675"><ele>142</ele><time>2018-06-16T07:30:21Z</time></trkpt>
<trkpt lat="13.21947" lon="99.74680"><ele>141</ele><time>2018-06-16T07:30:23Z</time></trkpt>
<trkpt lat="13.21943" lon="99.74686"><ele>141</ele><time>2018-06-16T07:30:25Z</time></trkpt>
<trkpt lat="13.21939" lon="99.74694"><ele>139</ele><time>2018-06-16T07:30:27Z</time></trkpt>
<trkpt lat="13.21936" lon="99.74699"><ele>139</ele><time>2018-06-16T07:30:28Z</time></trkpt>
<trkpt lat="13.21934" lon="99.74704"><ele>139</ele><time>2018-06-16T07:30:29Z</time></trkpt>
<trkpt lat="13.21931" lon="99.74709"><ele>140</ele><time>2018-06-16T07:30:30Z</time></trkpt>
<trkpt lat="13.21928" lon="99.74713"><ele>140</ele><time>2018-06-16T07:30:31Z</time></trkpt>
<trkpt lat="13.21924" lon="99.74719"><ele>139</ele><time>2018-06-16T07:30:32Z</time></trkpt>
<trkpt lat="13.21921" lon="99.74724"><ele>139</ele><time>2018-06-16T07:30:33Z</time></trkpt>
<trkpt lat="13.21918" lon="99.74730"><ele>139</ele><time>2018-06-16T07:30:34Z</time></trkpt>
<trkpt lat="13.21917" lon="99.74738"><ele>139</ele><time>2018-06-16T07:30:36Z</time></trkpt>
<trkpt lat="13.21915" lon="99.74746"><ele>138</ele><time>2018-06-16T07:30:38Z</time></trkpt>
<trkpt lat="13.21914" lon="99.74750"><ele>137</ele><time>2018-06-16T07:30:39Z</time></trkpt>
<trkpt lat="13.21912" lon="99.74755"><ele>134</ele><time>2018-06-16T07:30:58Z</time></trkpt>
<trkpt lat="13.21908" lon="99.74759"><ele>134</ele><time>2018-06-16T07:31:01Z</time></trkpt>
<trkpt lat="13.21903" lon="99.74764"><ele>133</ele><time>2018-06-16T07:31:03Z</time></trkpt>
<trkpt lat="13.21897" lon="99.74769"><ele>133</ele><time>2018-06-16T07:31:05Z</time></trkpt>
<trkpt lat="13.21892" lon="99.74770"><ele>133</ele><time>2018-06-16T07:31:07Z</time></trkpt>
<trkpt lat="13.21886" lon="99.74772"><ele>132</ele><time>2018-06-16T07:31:09Z</time></trkpt>
<trkpt lat="13.21880" lon="99.74771"><ele>132</ele><time>2018-06-16T07:31:11Z</time></trkpt>
<trkpt lat="13.21875" lon="99.74766"><ele>132</ele><time>2018-06-16T07:31:13Z</time></trkpt>
<trkpt lat="13.21869" lon="99.74761"><ele>132</ele><time>2018-06-16T07:31:15Z</time></trkpt>
<trkpt lat="13.21863" lon="99.74754"><ele>131</ele><time>2018-06-16T07:31:17Z</time></trkpt>
<trkpt lat="13.21859" lon="99.74751"><ele>131</ele><time>2018-06-16T07:31:18Z</time></trkpt>
<trkpt lat="13.21856" lon="99.74748"><ele>131</ele><time>2018-06-16T07:31:19Z</time></trkpt>
<trkpt lat="13.21853" lon="99.74744"><ele>131</ele><time>2018-06-16T07:31:20Z</time></trkpt>
<trkpt lat="13.21850" lon="99.74740"><ele>131</ele><time>2018-06-16T07:31:21Z</time></trkpt>
<trkpt lat="13.21847" lon="99.74737"><ele>131</ele><time>2018-06-16T07:31:22Z</time></trkpt>
<trkpt lat="13.21844" lon="99.74733"><ele>131</ele><time>2018-06-16T07:31:23Z</time></trkpt>
<trkpt lat="13.21841" lon="99.74729"><ele>131</ele><time>2018-06-16T07:31:24Z</time></trkpt>
<trkpt lat="13.21837" lon="99.74722"><ele>131</ele><time>2018-06-16T07:31:26Z</time></trkpt>
<trkpt lat="13.21833" lon="99.74714"><ele>131</ele><time>2018-06-16T07:31:28Z</time></trkpt>
<trkpt lat="13.21828" lon="99.74706"><ele>131</ele><time>2018-06-16T07:31:30Z</time></trkpt>
<trkpt lat="13.21826" lon="99.74701"><ele>131</ele><time>2018-06-16T07:31:31Z</time></trkpt>
<trkpt lat="13.21824" lon="99.74697"><ele>131</ele><time>2018-06-16T07:31:32Z</time></trkpt>
<trkpt lat="13.21821" lon="99.74691"><ele>131</ele><time>2018-06-16T07:31:33Z</time></trkpt>
<trkpt lat="13.21818" lon="99.74686"><ele>131</ele><time>2018-06-16T07:31:34Z</time></trkpt>
<trkpt lat="13.21816" lon="99.74681"><ele>131</ele><time>2018-06-16T07:31:35Z</time></trkpt>
<trkpt lat="13.21813" lon="99.74676"><ele>130</ele><time>2018-06-16T07:31:36Z</time></trkpt>
<trkpt lat="13.21811" lon="99.74671"><ele>130</ele><time>2018-06-16T07:31:37Z</time></trkpt>
<trkpt lat="13.21809" lon="99.74665"><ele>130</ele><time>2018-06-16T07:31:38Z</time></trkpt>
<trkpt lat="13.21806" lon="99.74660"><ele>130</ele><time>2018-06-16T07:31:39Z</time></trkpt>
<trkpt lat="13.21804" lon="99.74654"><ele>130</ele><time>2018-06-16T07:31:40Z</time></trkpt>
<trkpt lat="13.21801" lon="99.74648"><ele>130</ele><time>2018-06-16T07:31:41Z</time></trkpt>
<trkpt lat="13.21799" lon="99.74642"><ele>130</ele><time>2018-06-16T07:31:42Z</time></trkpt>
<trkpt lat="13.21797" lon="99.74636"><ele>130</ele><time>2018-06-16T07:31:43Z</time></trkpt>
<trkpt lat="13.21794" lon="99.74631"><ele>130</ele><time>2018-06-16T07:31:44Z</time></trkpt>
<trkpt lat="13.21792" lon="99.74626"><ele>130</ele><time>2018-06-16T07:31:45Z</time></trkpt>
<trkpt lat="13.21788" lon="99.74621"><ele>130</ele><time>2018-06-16T07:31:46Z</time></trkpt>
<trkpt lat="13.21785" lon="99.74616"><ele>130</ele><time>2018-06-16T07:31:47Z</time></trkpt>
<trkpt lat="13.21781" lon="99.74611"><ele>129</ele><time>2018-06-16T07:31:48Z</time></trkpt>
<trkpt lat="13.21778" lon="99.74606"><ele>129</ele><time>2018-06-16T07:31:49Z</time></trkpt>
<trkpt lat="13.21774" lon="99.74602"><ele>129</ele><time>2018-06-16T07:31:50Z</time></trkpt>
<trkpt lat="13.21771" lon="99.74598"><ele>129</ele><time>2018-06-16T07:31:51Z</time></trkpt>
<trkpt lat="13.21767" lon="99.74594"><ele>129</ele><time>2018-06-16T07:31:52Z</time></trkpt>
<trkpt lat="13.21763" lon="99.74589"><ele>129</ele><time>2018-06-16T07:31:53Z</time></trkpt>
<trkpt lat="13.21759" lon="99.74585"><ele>129</ele><time>2018-06-16T07:31:54Z</time></trkpt>
<trkpt lat="13.21755" lon="99.74581"><ele>129</ele><time>2018-06-16T07:31:55Z</time></trkpt>
<trkpt lat="13.21751" lon="99.74577"><ele>129</ele><time>2018-06-16T07:31:56Z</time></trkpt>
<trkpt lat="13.21747" lon="99.74573"><ele>129</ele><time>2018-06-16T07:31:57Z</time></trkpt>
<trkpt lat="13.21743" lon="99.74569"><ele>128</ele><time>2018-06-16T07:31:58Z</time></trkpt>
<trkpt lat="13.21740" lon="99.74564"><ele>128</ele><time>2018-06-16T07:31:59Z</time></trkpt>
<trkpt lat="13.21736" lon="99.74560"><ele>128</ele><time>2018-06-16T07:32:00Z</time></trkpt>
<trkpt lat="13.21733" lon="99.74555"><ele>128</ele><time>2018-06-16T07:32:01Z</time></trkpt>
<trkpt lat="13.21730" lon="99.74551"><ele>128</ele><time>2018-06-16T07:32:02Z</time></trkpt>
<trkpt lat="13.21727" lon="99.74546"><ele>128</ele><time>2018-06-16T07:32:03Z</time></trkpt>
<trkpt lat="13.21724" lon="99.74541"><ele>128</ele><time>2018-06-16T07:32:04Z</time></trkpt>
<trkpt lat="13.21722" lon="99.74536"><ele>128</ele><time>2018-06-16T07:32:05Z</time></trkpt>
<trkpt lat="13.21719" lon="99.74531"><ele>128</ele><time>2018-06-16T07:32:06Z</time></trkpt>
<trkpt lat="13.21717" lon="99.74525"><ele>128</ele><time>2018-06-16T07:32:07Z</time></trkpt>
<trkpt lat="13.21715" lon="99.74520"><ele>128</ele><time>2018-06-16T07:32:08Z</time></trkpt>
<trkpt lat="13.21713" lon="99.74515"><ele>128</ele><time>2018-06-16T07:32:09Z</time></trkpt>
<trkpt lat="13.21711" lon="99.74509"><ele>128</ele><time>2018-06-16T07:32:10Z</time></trkpt>
<trkpt lat="13.21709" lon="99.74504"><ele>128</ele><time>2018-06-16T07:32:11Z</time></trkpt>
<trkpt lat="13.21707" lon="99.74498"><ele>128</ele><time>2018-06-16T07:32:12Z</time></trkpt>
<trkpt lat="13.21705" lon="99.74492"><ele>128</ele><time>2018-06-16T07:32:13Z</time></trkpt>
<trkpt lat="13.21703" lon="99.74487"><ele>128</ele><time>2018-06-16T07:32:14Z</time></trkpt>
<trkpt lat="13.21701" lon="99.74481"><ele>128</ele><time>2018-06-16T07:32:15Z</time></trkpt>
<trkpt lat="13.21699" lon="99.74476"><ele>128</ele><time>2018-06-16T07:32:16Z</time></trkpt>
<trkpt lat="13.21697" lon="99.74470"><ele>128</ele><time>2018-06-16T07:32:17Z</time></trkpt>
<trkpt lat="13.21695" lon="99.74465"><ele>127</ele><time>2018-06-16T07:32:18Z</time></trkpt>
<trkpt lat="13.21693" lon="99.74460"><ele>127</ele><time>2018-06-16T07:32:19Z</time></trkpt>
<trkpt lat="13.21692" lon="99.74454"><ele>127</ele><time>2018-06-16T07:32:20Z</time></trkpt>
<trkpt lat="13.21690" lon="99.74449"><ele>127</ele><time>2018-06-16T07:32:21Z</time></trkpt>
<trkpt lat="13.21688" lon="99.74444"><ele>127</ele><time>2018-06-16T07:32:22Z</time></trkpt>
<trkpt lat="13.21686" lon="99.74438"><ele>127</ele><time>2018-06-16T07:32:23Z</time></trkpt>
<trkpt lat="13.21684" lon="99.74433"><ele>127</ele><time>2018-06-16T07:32:24Z</time></trkpt>
<trkpt lat="13.21682" lon="99.74428"><ele>127</ele><time>2018-06-16T07:32:25Z</time></trkpt>
<trkpt lat="13.21680" lon="99.74422"><ele>127</ele><time>2018-06-16T07:32:26Z</time></trkpt>
<trkpt lat="13.21678" lon="99.74417"><ele>127</ele><time>2018-06-16T07:32:27Z</time></trkpt>
<trkpt lat="13.21676" lon="99.74411"><ele>127</ele><time>2018-06-16T07:32:28Z</time></trkpt>
<trkpt lat="13.21674" lon="99.74406"><ele>127</ele><time>2018-06-16T07:32:29Z</time></trkpt>
<trkpt lat="13.21672" lon="99.74400"><ele>127</ele><time>2018-06-16T07:32:30Z</time></trkpt>
<trkpt lat="13.21670" lon="99.74394"><ele>127</ele><time>2018-06-16T07:32:31Z</time></trkpt>
<trkpt lat="13.21668" lon="99.74389"><ele>127</ele><time>2018-06-16T07:32:32Z</time></trkpt>
<trkpt lat="13.21666" lon="99.74383"><ele>127</ele><time>2018-06-16T07:32:33Z</time></trkpt>
<trkpt lat="13.21664" lon="99.74378"><ele>127</ele><time>2018-06-16T07:32:34Z</time></trkpt>
<trkpt lat="13.21663" lon="99.74372"><ele>127</ele><time>2018-06-16T07:32:35Z</time></trkpt>
<trkpt lat="13.21661" lon="99.74367"><ele>127</ele><time>2018-06-16T07:32:36Z</time></trkpt>
<trkpt lat="13.21658" lon="99.74361"><ele>127</ele><time>2018-06-16T07:32:37Z</time></trkpt>
<trkpt lat="13.21656" lon="99.74356"><ele>127</ele><time>2018-06-16T07:32:38Z</time></trkpt>
<trkpt lat="13.21654" lon="99.74350"><ele>127</ele><time>2018-06-16T07:32:39Z</time></trkpt>
<trkpt lat="13.21652" lon="99.74345"><ele>127</ele><time>2018-06-16T07:32:40Z</time></trkpt>
<trkpt lat="13.21650" lon="99.74340"><ele>127</ele><time>2018-06-16T07:32:41Z</time></trkpt>
<trkpt lat="13.21649" lon="99.74335"><ele>127</ele><time>2018-06-16T07:32:42Z</time></trkpt>
<trkpt lat="13.21647" lon="99.74330"><ele>127</ele><time>2018-06-16T07:32:43Z</time></trkpt>
<trkpt lat="13.21645" lon="99.74325"><ele>127</ele><time>2018-06-16T07:32:44Z</time></trkpt>
<trkpt lat="13.21644" lon="99.74321"><ele>127</ele><time>2018-06-16T07:32:45Z</time></trkpt>
<trkpt lat="13.21642" lon="99.74316"><ele>127</ele><time>2018-06-16T07:32:46Z</time></trkpt>
<trkpt lat="13.21641" lon="99.74311"><ele>127</ele><time>2018-06-16T07:32:47Z</time></trkpt>
<trkpt lat="13.21639" lon="99.74307"><ele>127</ele><time>2018-06-16T07:32:48Z</time></trkpt>
<trkpt lat="13.21638" lon="99.74303"><ele>127</ele><time>2018-06-16T07:32:49Z</time></trkpt>
<trkpt lat="13.21636" lon="99.74298"><ele>127</ele><time>2018-06-16T07:32:50Z</time></trkpt>
<trkpt lat="13.21633" lon="99.74290"><ele>127</ele><time>2018-06-16T07:32:52Z</time></trkpt>
<trkpt lat="13.21632" lon="99.74281"><ele>128</ele><time>2018-06-16T07:32:54Z</time></trkpt>
<trkpt lat="13.21630" lon="99.74272"><ele>128</ele><time>2018-06-16T07:32:56Z</time></trkpt>
<trkpt lat="13.21629" lon="99.74263"><ele>128</ele><time>2018-06-16T07:32:58Z</time></trkpt>
<trkpt lat="13.21629" lon="99.74254"><ele>128</ele><time>2018-06-16T07:33:00Z</time></trkpt>
<trkpt lat="13.21628" lon="99.74245"><ele>128</ele><time>2018-06-16T07:33:02Z</time></trkpt>
<trkpt lat="13.21628" lon="99.74236"><ele>128</ele><time>2018-06-16T07:33:04Z</time></trkpt>
<trkpt lat="13.21629" lon="99.74227"><ele>128</ele><time>2018-06-16T07:33:06Z</time></trkpt>
<trkpt lat="13.21629" lon="99.74218"><ele>128</ele><time>2018-06-16T07:33:08Z</time></trkpt>
<trkpt lat="13.21629" lon="99.74210"><ele>129</ele><time>2018-06-16T07:33:10Z</time></trkpt>
<trkpt lat="13.21629" lon="99.74201"><ele>129</ele><time>2018-06-16T07:33:12Z</time></trkpt>
<trkpt lat="13.21629" lon="99.74192"><ele>129</ele><time>2018-06-16T07:33:14Z</time></trkpt>
<trkpt lat="13.21629" lon="99.74183"><ele>129</ele><time>2018-06-16T07:33:16Z</time></trkpt>
<trkpt lat="13.21629" lon="99.74174"><ele>129</ele><time>2018-06-16T07:33:18Z</time></trkpt>
<trkpt lat="13.21630" lon="99.74165"><ele>129</ele><time>2018-06-16T07:33:20Z</time></trkpt>
<trkpt lat="13.21630" lon="99.74161"><ele>129</ele><time>2018-06-16T07:33:21Z</time></trkpt>
<trkpt lat="13.21630" lon="99.74156"><ele>129</ele><time>2018-06-16T07:33:22Z</time></trkpt>
<trkpt lat="13.21630" lon="99.74151"><ele>129</ele><time>2018-06-16T07:33:23Z</time></trkpt>
<trkpt lat="13.21630" lon="99.74146"><ele>129</ele><time>2018-06-16T07:33:24Z</time></trkpt>
<trkpt lat="13.21631" lon="99.74137"><ele>129</ele><time>2018-06-16T07:33:26Z</time></trkpt>
<trkpt lat="13.21631" lon="99.74128"><ele>129</ele><time>2018-06-16T07:33:28Z</time></trkpt>
<trkpt lat="13.21631" lon="99.74119"><ele>129</ele><time>2018-06-16T07:33:30Z</time></trkpt>
<trkpt lat="13.21631" lon="99.74111"><ele>130</ele><time>2018-06-16T07:33:32Z</time></trkpt>
<trkpt lat="13.21632" lon="99.74102"><ele>130</ele><time>2018-06-16T07:33:34Z</time></trkpt>
<trkpt lat="13.21631" lon="99.74093"><ele>130</ele><time>2018-06-16T07:33:36Z</time></trkpt>
<trkpt lat="13.21632" lon="99.74084"><ele>130</ele><time>2018-06-16T07:33:38Z</time></trkpt>
<trkpt lat="13.21632" lon="99.74079"><ele>130</ele><time>2018-06-16T07:33:39Z</time></trkpt>
<trkpt lat="13.21632" lon="99.74074"><ele>130</ele><time>2018-06-16T07:33:40Z</time></trkpt>
<trkpt lat="13.21632" lon="99.74069"><ele>130</ele><time>2018-06-16T07:33:41Z</time></trkpt>
<trkpt lat="13.21633" lon="99.74064"><ele>130</ele><time>2018-06-16T07:33:42Z</time></trkpt>
<trkpt lat="13.21633" lon="99.74059"><ele>130</ele><time>2018-06-16T07:33:43Z</time></trkpt>
<trkpt lat="13.21633" lon="99.74054"><ele>130</ele><time>2018-06-16T07:33:44Z</time></trkpt>
<trkpt lat="13.21634" lon="99.74050"><ele>130</ele><time>2018-06-16T07:33:45Z</time></trkpt>
<trkpt lat="13.21635" lon="99.74045"><ele>130</ele><time>2018-06-16T07:33:46Z</time></trkpt>
<trkpt lat="13.21635" lon="99.74040"><ele>130</ele><time>2018-06-16T07:33:47Z</time></trkpt>
<trkpt lat="13.21636" lon="99.74035"><ele>130</ele><time>2018-06-16T07:33:48Z</time></trkpt>
<trkpt lat="13.21637" lon="99.74030"><ele>130</ele><time>2018-06-16T07:33:49Z</time></trkpt>
<trkpt lat="13.21637" lon="99.74025"><ele>131</ele><time>2018-06-16T07:33:50Z</time></trkpt>
<trkpt lat="13.21638" lon="99.74021"><ele>130</ele><time>2018-06-16T07:33:51Z</time></trkpt>
<trkpt lat="13.21641" lon="99.74012"><ele>130</ele><time>2018-06-16T07:33:53Z</time></trkpt>
<trkpt lat="13.21643" lon="99.74003"><ele>130</ele><time>2018-06-16T07:33:55Z</time></trkpt>
<trkpt lat="13.21645" lon="99.73999"><ele>130</ele><time>2018-06-16T07:33:56Z</time></trkpt>
<trkpt lat="13.21647" lon="99.73994"><ele>130</ele><time>2018-06-16T07:33:57Z</time></trkpt>
<trkpt lat="13.21648" lon="99.73990"><ele>130</ele><time>2018-06-16T07:33:58Z</time></trkpt>
<trkpt lat="13.21650" lon="99.73985"><ele>130</ele><time>2018-06-16T07:33:59Z</time></trkpt>
<trkpt lat="13.21653" lon="99.73977"><ele>130</ele><time>2018-06-16T07:34:01Z</time></trkpt>
<trkpt lat="13.21656" lon="99.73970"><ele>130</ele><time>2018-06-16T07:34:03Z</time></trkpt>
<trkpt lat="13.21659" lon="99.73963"><ele>130</ele><time>2018-06-16T07:34:05Z</time></trkpt>
<trkpt lat="13.21661" lon="99.73958"><ele>131</ele><time>2018-06-16T07:34:07Z</time></trkpt>
<trkpt lat="13.21663" lon="99.73952"><ele>132</ele><time>2018-06-16T07:34:38Z</time></trkpt>
<trkpt lat="13.21664" lon="99.73947"><ele>131</ele><time>2018-06-16T07:34:42Z</time></trkpt>
<trkpt lat="13.21659" lon="99.73944"><ele>131</ele><time>2018-06-16T07:34:53Z</time></trkpt>
<trkpt lat="13.21655" lon="99.73944"><ele>131</ele><time>2018-06-16T07:34:59Z</time></trkpt>
<trkpt lat="13.21649" lon="99.73941"><ele>131</ele><time>2018-06-16T07:35:02Z</time></trkpt>
<trkpt lat="13.21642" lon="99.73938"><ele>130</ele><time>2018-06-16T07:35:04Z</time></trkpt>
<trkpt lat="13.21637" lon="99.73937"><ele>130</ele><time>2018-06-16T07:35:05Z</time></trkpt>
<trkpt lat="13.21632" lon="99.73936"><ele>130</ele><time>2018-06-16T07:35:06Z</time></trkpt>
<trkpt lat="13.21627" lon="99.73934"><ele>130</ele><time>2018-06-16T07:35:07Z</time></trkpt>
<trkpt lat="13.21621" lon="99.73933"><ele>130</ele><time>2018-06-16T07:35:08Z</time></trkpt>
<trkpt lat="13.21615" lon="99.73933"><ele>130</ele><time>2018-06-16T07:35:09Z</time></trkpt>
<trkpt lat="13.21609" lon="99.73932"><ele>131</ele><time>2018-06-16T07:35:10Z</time></trkpt>
<trkpt lat="13.21602" lon="99.73931"><ele>130</ele><time>2018-06-16T07:35:11Z</time></trkpt>
<trkpt lat="13.21595" lon="99.73930"><ele>130</ele><time>2018-06-16T07:35:12Z</time></trkpt>
<trkpt lat="13.21588" lon="99.73931"><ele>132</ele><time>2018-06-16T07:35:13Z</time></trkpt>
<trkpt lat="13.21581" lon="99.73932"><ele>133</ele><time>2018-06-16T07:35:14Z</time></trkpt>
<trkpt lat="13.21572" lon="99.73934"><ele>137</ele><time>2018-06-16T07:35:16Z</time></trkpt>
<trkpt lat="13.21566" lon="99.73936"><ele>139</ele><time>2018-06-16T07:35:17Z</time></trkpt>
<trkpt lat="13.21559" lon="99.73937"><ele>140</ele><time>2018-06-16T07:35:18Z</time></trkpt>
<trkpt lat="13.21549" lon="99.73941"><ele>141</ele><time>2018-06-16T07:35:19Z</time></trkpt>
<trkpt lat="13.21541" lon="99.73943"><ele>142</ele><time>2018-06-16T07:35:20Z</time></trkpt>
<trkpt lat="13.21534" lon="99.73945"><ele>142</ele><time>2018-06-16T07:35:21Z</time></trkpt>
<trkpt lat="13.21528" lon="99.73946"><ele>142</ele><time>2018-06-16T07:35:22Z</time></trkpt>
<trkpt lat="13.21522" lon="99.73947"><ele>143</ele><time>2018-06-16T07:35:23Z</time></trkpt>
<trkpt lat="13.21517" lon="99.73949"><ele>143</ele><time>2018-06-16T07:35:24Z</time></trkpt>
<trkpt lat="13.21513" lon="99.73951"><ele>143</ele><time>2018-06-16T07:35:25Z</time></trkpt>
<trkpt lat="13.21508" lon="99.73953"><ele>143</ele><time>2018-06-16T07:35:26Z</time></trkpt>
<trkpt lat="13.21504" lon="99.73954"><ele>144</ele><time>2018-06-16T07:35:27Z</time></trkpt>
<trkpt lat="13.21498" lon="99.73956"><ele>144</ele><time>2018-06-16T07:35:28Z</time></trkpt>
<trkpt lat="13.21493" lon="99.73957"><ele>144</ele><time>2018-06-16T07:35:29Z</time></trkpt>
<trkpt lat="13.21487" lon="99.73958"><ele>144</ele><time>2018-06-16T07:35:30Z</time></trkpt>
<trkpt lat="13.21481" lon="99.73959"><ele>144</ele><time>2018-06-16T07:35:31Z</time></trkpt>
<trkpt lat="13.21475" lon="99.73960"><ele>145</ele><time>2018-06-16T07:35:32Z</time></trkpt>
<trkpt lat="13.21469" lon="99.73961"><ele>144</ele><time>2018-06-16T07:35:33Z</time></trkpt>
<trkpt lat="13.21462" lon="99.73962"><ele>144</ele><time>2018-06-16T07:35:34Z</time></trkpt>
<trkpt lat="13.21453" lon="99.73964"><ele>144</ele><time>2018-06-16T07:35:36Z</time></trkpt>
<trkpt lat="13.21448" lon="99.73965"><ele>144</ele><time>2018-06-16T07:35:37Z</time></trkpt>
<trkpt lat="13.21439" lon="99.73967"><ele>144</ele><time>2018-06-16T07:35:38Z</time></trkpt>
<trkpt lat="13.21432" lon="99.73967"><ele>143</ele><time>2018-06-16T07:35:39Z</time></trkpt>
<trkpt lat="13.21427" lon="99.73966"><ele>143</ele><time>2018-06-16T07:35:40Z</time></trkpt>
<trkpt lat="13.21423" lon="99.73962"><ele>143</ele><time>2018-06-16T07:35:41Z</time></trkpt>
<trkpt lat="13.21419" lon="99.73957"><ele>143</ele><time>2018-06-16T07:35:42Z</time></trkpt>
<trkpt lat="13.21416" lon="99.73952"><ele>143</ele><time>2018-06-16T07:35:43Z</time></trkpt>
<trkpt lat="13.21413" lon="99.73947"><ele>143</ele><time>2018-06-16T07:35:44Z</time></trkpt>
<trkpt lat="13.21409" lon="99.73943"><ele>144</ele><time>2018-06-16T07:35:45Z</time></trkpt>
<trkpt lat="13.21406" lon="99.73938"><ele>143</ele><time>2018-06-16T07:35:46Z</time></trkpt>
<trkpt lat="13.21402" lon="99.73934"><ele>143</ele><time>2018-06-16T07:35:47Z</time></trkpt>
<trkpt lat="13.21399" lon="99.73930"><ele>143</ele><time>2018-06-16T07:35:48Z</time></trkpt>
<trkpt lat="13.21394" lon="99.73928"><ele>143</ele><time>2018-06-16T07:35:49Z</time></trkpt>
<trkpt lat="13.21385" lon="99.73930"><ele>143</ele><time>2018-06-16T07:35:51Z</time></trkpt>
<trkpt lat="13.21381" lon="99.73932"><ele>143</ele><time>2018-06-16T07:35:52Z</time></trkpt>
<trkpt lat="13.21376" lon="99.73934"><ele>144</ele><time>2018-06-16T07:35:53Z</time></trkpt>
<trkpt lat="13.21371" lon="99.73936"><ele>144</ele><time>2018-06-16T07:35:54Z</time></trkpt>
<trkpt lat="13.21367" lon="99.73938"><ele>144</ele><time>2018-06-16T07:35:55Z</time></trkpt>
<trkpt lat="13.21362" lon="99.73940"><ele>144</ele><time>2018-06-16T07:35:56Z</time></trkpt>
<trkpt lat="13.21357" lon="99.73941"><ele>144</ele><time>2018-06-16T07:35:57Z</time></trkpt>
<trkpt lat="13.21351" lon="99.73942"><ele>145</ele><time>2018-06-16T07:35:58Z</time></trkpt>
<trkpt lat="13.21346" lon="99.73943"><ele>145</ele><time>2018-06-16T07:35:59Z</time></trkpt>
<trkpt lat="13.21341" lon="99.73944"><ele>144</ele><time>2018-06-16T07:36:00Z</time></trkpt>
<trkpt lat="13.21335" lon="99.73945"><ele>144</ele><time>2018-06-16T07:36:01Z</time></trkpt>
<trkpt lat="13.21330" lon="99.73946"><ele>144</ele><time>2018-06-16T07:36:02Z</time></trkpt>
<trkpt lat="13.21325" lon="99.73946"><ele>144</ele><time>2018-06-16T07:36:03Z</time></trkpt>
<trkpt lat="13.21319" lon="99.73946"><ele>145</ele><time>2018-06-16T07:36:04Z</time></trkpt>
<trkpt lat="13.21315" lon="99.73946"><ele>145</ele><time>2018-06-16T07:36:05Z</time></trkpt>
<trkpt lat="13.21310" lon="99.73946"><ele>145</ele><time>2018-06-16T07:36:06Z</time></trkpt>
<trkpt lat="13.21305" lon="99.73947"><ele>145</ele><time>2018-06-16T07:36:07Z</time></trkpt>
<trkpt lat="13.21301" lon="99.73947"><ele>145</ele><time>2018-06-16T07:36:08Z</time></trkpt>
<trkpt lat="13.21292" lon="99.73947"><ele>145</ele><time>2018-06-16T07:36:10Z</time></trkpt>
<trkpt lat="13.21283" lon="99.73947"><ele>145</ele><time>2018-06-16T07:36:12Z</time></trkpt>
<trkpt lat="13.21278" lon="99.73947"><ele>145</ele><time>2018-06-16T07:36:13Z</time></trkpt>
<trkpt lat="13.21269" lon="99.73947"><ele>145</ele><time>2018-06-16T07:36:15Z</time></trkpt>
<trkpt lat="13.21264" lon="99.73948"><ele>146</ele><time>2018-06-16T07:36:16Z</time></trkpt>
<trkpt lat="13.21260" lon="99.73948"><ele>146</ele><time>2018-06-16T07:36:17Z</time></trkpt>
<trkpt lat="13.21251" lon="99.73948"><ele>146</ele><time>2018-06-16T07:36:19Z</time></trkpt>
<trkpt lat="13.21246" lon="99.73948"><ele>147</ele><time>2018-06-16T07:36:20Z</time></trkpt>
<trkpt lat="13.21237" lon="99.73948"><ele>147</ele><time>2018-06-16T07:36:22Z</time></trkpt>
<trkpt lat="13.21233" lon="99.73949"><ele>147</ele><time>2018-06-16T07:36:23Z</time></trkpt>
<trkpt lat="13.21228" lon="99.73949"><ele>147</ele><time>2018-06-16T07:36:24Z</time></trkpt>
<trkpt lat="13.21223" lon="99.73950"><ele>148</ele><time>2018-06-16T07:36:25Z</time></trkpt>
<trkpt lat="13.21219" lon="99.73950"><ele>148</ele><time>2018-06-16T07:36:26Z</time></trkpt>
<trkpt lat="13.21214" lon="99.73950"><ele>148</ele><time>2018-06-16T07:36:27Z</time></trkpt>
<trkpt lat="13.21209" lon="99.73951"><ele>148</ele><time>2018-06-16T07:36:28Z</time></trkpt>
<trkpt lat="13.21205" lon="99.73951"><ele>149</ele><time>2018-06-16T07:36:29Z</time></trkpt>
<trkpt lat="13.21200" lon="99.73951"><ele>149</ele><time>2018-06-16T07:36:30Z</time></trkpt>
<trkpt lat="13.21191" lon="99.73952"><ele>149</ele><time>2018-06-16T07:36:32Z</time></trkpt>
<trkpt lat="13.21183" lon="99.73952"><ele>150</ele><time>2018-06-16T07:36:34Z</time></trkpt>
<trkpt lat="13.21175" lon="99.73951"><ele>150</ele><time>2018-06-16T07:36:36Z</time></trkpt>
<trkpt lat="13.21167" lon="99.73950"><ele>151</ele><time>2018-06-16T07:36:38Z</time></trkpt>
<trkpt lat="13.21160" lon="99.73949"><ele>151</ele><time>2018-06-16T07:36:40Z</time></trkpt>
<trkpt lat="13.21152" lon="99.73949"><ele>151</ele><time>2018-06-16T07:36:42Z</time></trkpt>
<trkpt lat="13.21145" lon="99.73948"><ele>152</ele><time>2018-06-16T07:36:44Z</time></trkpt>
<trkpt lat="13.21138" lon="99.73948"><ele>152</ele><time>2018-06-16T07:36:46Z</time></trkpt>
<trkpt lat="13.21131" lon="99.73948"><ele>153</ele><time>2018-06-16T07:36:48Z</time></trkpt>
<trkpt lat="13.21125" lon="99.73948"><ele>153</ele><time>2018-06-16T07:36:50Z</time></trkpt>
<trkpt lat="13.21120" lon="99.73946"><ele>153</ele><time>2018-06-16T07:36:52Z</time></trkpt>
<trkpt lat="13.21116" lon="99.73943"><ele>154</ele><time>2018-06-16T07:36:54Z</time></trkpt>
<trkpt lat="13.21113" lon="99.73939"><ele>154</ele><time>2018-06-16T07:36:57Z</time></trkpt>
<trkpt lat="13.21111" lon="99.73934"><ele>155</ele><time>2018-06-16T07:37:00Z</time></trkpt>
<trkpt lat="13.21109" lon="99.73929"><ele>155</ele><time>2018-06-16T07:37:03Z</time></trkpt>
<trkpt lat="13.21109" lon="99.73924"><ele>155</ele><time>2018-06-16T07:37:07Z</time></trkpt>
<trkpt lat="13.21110" lon="99.73919"><ele>156</ele><time>2018-06-16T07:37:11Z</time></trkpt>
<trkpt lat="13.21111" lon="99.73912"><ele>157</ele><time>2018-06-16T07:38:58Z</time></trkpt>
<trkpt lat="13.21113" lon="99.73907"><ele>158</ele><time>2018-06-16T07:39:00Z</time></trkpt>
<trkpt lat="13.21115" lon="99.73901"><ele>157</ele><time>2018-06-16T07:39:02Z</time></trkpt>
<trkpt lat="13.21119" lon="99.73894"><ele>157</ele><time>2018-06-16T07:39:04Z</time></trkpt>
<trkpt lat="13.21123" lon="99.73887"><ele>157</ele><time>2018-06-16T07:39:06Z</time></trkpt>
<trkpt lat="13.21128" lon="99.73881"><ele>157</ele><time>2018-06-16T07:39:08Z</time></trkpt>
<trkpt lat="13.21132" lon="99.73875"><ele>157</ele><time>2018-06-16T07:39:10Z</time></trkpt>
<trkpt lat="13.21137" lon="99.73867"><ele>156</ele><time>2018-06-16T07:39:12Z</time></trkpt>
<trkpt lat="13.21139" lon="99.73862"><ele>156</ele><time>2018-06-16T07:39:13Z</time></trkpt>
<trkpt lat="13.21142" lon="99.73856"><ele>156</ele><time>2018-06-16T07:39:14Z</time></trkpt>
<trkpt lat="13.21143" lon="99.73850"><ele>156</ele><time>2018-06-16T07:39:15Z</time></trkpt>
<trkpt lat="13.21144" lon="99.73844"><ele>156</ele><time>2018-06-16T07:39:16Z</time></trkpt>
<trkpt lat="13.21144" lon="99.73838"><ele>156</ele><time>2018-06-16T07:39:17Z</time></trkpt>
<trkpt lat="13.21142" lon="99.73828"><ele>155</ele><time>2018-06-16T07:39:19Z</time></trkpt>
<trkpt lat="13.21141" lon="99.73822"><ele>155</ele><time>2018-06-16T07:39:20Z</time></trkpt>
<trkpt lat="13.21138" lon="99.73816"><ele>155</ele><time>2018-06-16T07:39:21Z</time></trkpt>
<trkpt lat="13.21135" lon="99.73811"><ele>155</ele><time>2018-06-16T07:39:22Z</time></trkpt>
<trkpt lat="13.21132" lon="99.73805"><ele>154</ele><time>2018-06-16T07:39:23Z</time></trkpt>
<trkpt lat="13.21129" lon="99.73800"><ele>154</ele><time>2018-06-16T07:39:24Z</time></trkpt>
<trkpt lat="13.21125" lon="99.73794"><ele>154</ele><time>2018-06-16T07:39:25Z</time></trkpt>
<trkpt lat="13.21122" lon="99.73789"><ele>154</ele><time>2018-06-16T07:39:26Z</time></trkpt>
<trkpt lat="13.21117" lon="99.73785"><ele>154</ele><time>2018-06-16T07:39:27Z</time></trkpt>
<trkpt lat="13.21113" lon="99.73780"><ele>153</ele><time>2018-06-16T07:39:28Z</time></trkpt>
<trkpt lat="13.21108" lon="99.73776"><ele>153</ele><time>2018-06-16T07:39:29Z</time></trkpt>
<trkpt lat="13.21101" lon="99.73771"><ele>152</ele><time>2018-06-16T07:39:31Z</time></trkpt>
<trkpt lat="13.21098" lon="99.73768"><ele>152</ele><time>2018-06-16T07:39:32Z</time></trkpt>
<trkpt lat="13.21094" lon="99.73765"><ele>152</ele><time>2018-06-16T07:39:33Z</time></trkpt>
<trkpt lat="13.21091" lon="99.73761"><ele>152</ele><time>2018-06-16T07:39:34Z</time></trkpt>
<trkpt lat="13.21088" lon="99.73757"><ele>152</ele><time>2018-06-16T07:39:35Z</time></trkpt>
<trkpt lat="13.21086" lon="99.73752"><ele>151</ele><time>2018-06-16T07:39:36Z</time></trkpt>
<trkpt lat="13.21085" lon="99.73748"><ele>152</ele><time>2018-06-16T07:39:37Z</time></trkpt>
<trkpt lat="13.21083" lon="99.73743"><ele>152</ele><time>2018-06-16T07:39:38Z</time></trkpt>
<trkpt lat="13.21082" lon="99.73737"><ele>151</ele><time>2018-06-16T07:39:39Z</time></trkpt>
<trkpt lat="13.21081" lon="99.73732"><ele>152</ele><time>2018-06-16T07:39:40Z</time></trkpt>
<trkpt lat="13.21080" lon="99.73727"><ele>151</ele><time>2018-06-16T07:39:41Z</time></trkpt>
<trkpt lat="13.21079" lon="99.73722"><ele>151</ele><time>2018-06-16T07:39:42Z</time></trkpt>
<trkpt lat="13.21078" lon="99.73717"><ele>150</ele><time>2018-06-16T07:39:43Z</time></trkpt>
<trkpt lat="13.21077" lon="99.73712"><ele>150</ele><time>2018-06-16T07:39:44Z</time></trkpt>
<trkpt lat="13.21076" lon="99.73707"><ele>150</ele><time>2018-06-16T07:39:45Z</time></trkpt>
<trkpt lat="13.21075" lon="99.73702"><ele>150</ele><time>2018-06-16T07:39:46Z</time></trkpt>
<trkpt lat="13.21075" lon="99.73697"><ele>149</ele><time>2018-06-16T07:39:47Z</time></trkpt>
<trkpt lat="13.21074" lon="99.73692"><ele>149</ele><time>2018-06-16T07:39:48Z</time></trkpt>
<trkpt lat="13.21073" lon="99.73687"><ele>149</ele><time>2018-06-16T07:39:49Z</time></trkpt>
<trkpt lat="13.21075" lon="99.73679"><ele>148</ele><time>2018-06-16T07:39:51Z</time></trkpt>
<trkpt lat="13.21079" lon="99.73676"><ele>148</ele><time>2018-06-16T07:39:53Z</time></trkpt>
<trkpt lat="13.21086" lon="99.73675"><ele>148</ele><time>2018-06-16T07:39:55Z</time></trkpt>
<trkpt lat="13.21093" lon="99.73673"><ele>148</ele><time>2018-06-16T07:39:57Z</time></trkpt>
<trkpt lat="13.21098" lon="99.73670"><ele>147</ele><time>2018-06-16T07:39:58Z</time></trkpt>
<trkpt lat="13.21101" lon="99.73664"><ele>148</ele><time>2018-06-16T07:40:00Z</time></trkpt>
<trkpt lat="13.21100" lon="99.73656"><ele>148</ele><time>2018-06-16T07:40:02Z</time></trkpt>
<trkpt lat="13.21098" lon="99.73648"><ele>148</ele><time>2018-06-16T07:40:04Z</time></trkpt>
<trkpt lat="13.21097" lon="99.73643"><ele>148</ele><time>2018-06-16T07:40:05Z</time></trkpt>
<trkpt lat="13.21095" lon="99.73638"><ele>148</ele><time>2018-06-16T07:40:06Z</time></trkpt>
<trkpt lat="13.21094" lon="99.73634"><ele>148</ele><time>2018-06-16T07:40:07Z</time></trkpt>
<trkpt lat="13.21093" lon="99.73629"><ele>148</ele><time>2018-06-16T07:40:08Z</time></trkpt>
<trkpt lat="13.21092" lon="99.73625"><ele>148</ele><time>2018-06-16T07:40:09Z</time></trkpt>
<trkpt lat="13.21092" lon="99.73620"><ele>148</ele><time>2018-06-16T07:40:10Z</time></trkpt>
<trkpt lat="13.21091" lon="99.73615"><ele>148</ele><time>2018-06-16T07:40:11Z</time></trkpt>
<trkpt lat="13.21089" lon="99.73609"><ele>149</ele><time>2018-06-16T07:40:12Z</time></trkpt>
<trkpt lat="13.21089" lon="99.73604"><ele>149</ele><time>2018-06-16T07:40:13Z</time></trkpt>
<trkpt lat="13.21088" lon="99.73599"><ele>149</ele><time>2018-06-16T07:40:14Z</time></trkpt>
<trkpt lat="13.21088" lon="99.73594"><ele>149</ele><time>2018-06-16T07:40:15Z</time></trkpt>
<trkpt lat="13.21087" lon="99.73590"><ele>149</ele><time>2018-06-16T07:40:16Z</time></trkpt>
<trkpt lat="13.21086" lon="99.73585"><ele>148</ele><time>2018-06-16T07:40:17Z</time></trkpt>
<trkpt lat="13.21085" lon="99.73580"><ele>148</ele><time>2018-06-16T07:40:18Z</time></trkpt>
<trkpt lat="13.21084" lon="99.73575"><ele>149</ele><time>2018-06-16T07:40:19Z</time></trkpt>
<trkpt lat="13.21083" lon="99.73567"><ele>149</ele><time>2018-06-16T07:40:21Z</time></trkpt>
<trkpt lat="13.21083" lon="99.73562"><ele>149</ele><time>2018-06-16T07:40:23Z</time></trkpt>
<trkpt lat="13.21083" lon="99.73557"><ele>149</ele><time>2018-06-16T07:40:26Z</time></trkpt>
<trkpt lat="13.21083" lon="99.73552"><ele>150</ele><time>2018-06-16T07:40:41Z</time></trkpt>
<trkpt lat="13.21083" lon="99.73546"><ele>150</ele><time>2018-06-16T07:40:43Z</time></trkpt>
<trkpt lat="13.21082" lon="99.73537"><ele>150</ele><time>2018-06-16T07:40:45Z</time></trkpt>
<trkpt lat="13.21081" lon="99.73532"><ele>149</ele><time>2018-06-16T07:40:46Z</time></trkpt>
<trkpt lat="13.21081" lon="99.73527"><ele>150</ele><time>2018-06-16T07:40:47Z</time></trkpt>
<trkpt lat="13.21080" lon="99.73522"><ele>150</ele><time>2018-06-16T07:40:48Z</time></trkpt>
<trkpt lat="13.21079" lon="99.73516"><ele>150</ele><time>2018-06-16T07:40:49Z</time></trkpt>
<trkpt lat="13.21079" lon="99.73510"><ele>149</ele><time>2018-06-16T07:40:50Z</time></trkpt>
<trkpt lat="13.21078" lon="99.73503"><ele>149</ele><time>2018-06-16T07:40:51Z</time></trkpt>
<trkpt lat="13.21077" lon="99.73497"><ele>149</ele><time>2018-06-16T07:40:52Z</time></trkpt>
<trkpt lat="13.21077" lon="99.73491"><ele>149</ele><time>2018-06-16T07:40:53Z</time></trkpt>
<trkpt lat="13.21076" lon="99.73486"><ele>150</ele><time>2018-06-16T07:40:54Z</time></trkpt>
<trkpt lat="13.21075" lon="99.73481"><ele>150</ele><time>2018-06-16T07:40:55Z</time></trkpt>
<trkpt lat="13.21070" lon="99.73475"><ele>148</ele><time>2018-06-16T07:40:57Z</time></trkpt>
<trkpt lat="13.21062" lon="99.73471"><ele>147</ele><time>2018-06-16T07:40:59Z</time></trkpt>
<trkpt lat="13.21058" lon="99.73469"><ele>147</ele><time>2018-06-16T07:41:00Z</time></trkpt>
<trkpt lat="13.21053" lon="99.73468"><ele>147</ele><time>2018-06-16T07:41:01Z</time></trkpt>
<trkpt lat="13.21049" lon="99.73467"><ele>147</ele><time>2018-06-16T07:41:02Z</time></trkpt>
<trkpt lat="13.21044" lon="99.73466"><ele>148</ele><time>2018-06-16T07:41:03Z</time></trkpt>
<trkpt lat="13.21037" lon="99.73465"><ele>147</ele><time>2018-06-16T07:41:05Z</time></trkpt>
<trkpt lat="13.21036" lon="99.73460"><ele>147</ele><time>2018-06-16T07:41:10Z</time></trkpt>
<trkpt lat="13.21038" lon="99.73455"><ele>147</ele><time>2018-06-16T07:41:14Z</time></trkpt>
<trkpt lat="13.21039" lon="99.73450"><ele>147</ele><time>2018-06-16T07:41:19Z</time></trkpt>
<trkpt lat="13.21037" lon="99.73445"><ele>147</ele><time>2018-06-16T07:41:24Z</time></trkpt>
<trkpt lat="13.21038" lon="99.73440"><ele>147</ele><time>2018-06-16T07:41:28Z</time></trkpt>
<trkpt lat="13.21038" lon="99.73435"><ele>147</ele><time>2018-06-16T07:41:31Z</time></trkpt>
<trkpt lat="13.21038" lon="99.73430"><ele>147</ele><time>2018-06-16T07:41:37Z</time></trkpt>
<trkpt lat="13.21039" lon="99.73424"><ele>148</ele><time>2018-06-16T07:41:43Z</time></trkpt>
<trkpt lat="13.21039" lon="99.73419"><ele>148</ele><time>2018-06-16T07:41:45Z</time></trkpt>
<trkpt lat="13.21039" lon="99.73414"><ele>148</ele><time>2018-06-16T07:41:47Z</time></trkpt>
<trkpt lat="13.21039" lon="99.73409"><ele>147</ele><time>2018-06-16T07:41:49Z</time></trkpt>
<trkpt lat="13.21039" lon="99.73403"><ele>148</ele><time>2018-06-16T07:41:51Z</time></trkpt>
<trkpt lat="13.21039" lon="99.73397"><ele>148</ele><time>2018-06-16T07:41:53Z</time></trkpt>
<trkpt lat="13.21039" lon="99.73391"><ele>148</ele><time>2018-06-16T07:41:55Z</time></trkpt>
<trkpt lat="13.21039" lon="99.73385"><ele>148</ele><time>2018-06-16T07:41:57Z</time></trkpt>
<trkpt lat="13.21039" lon="99.73377"><ele>148</ele><time>2018-06-16T07:41:59Z</time></trkpt>
<trkpt lat="13.21041" lon="99.73369"><ele>148</ele><time>2018-06-16T07:42:01Z</time></trkpt>
<trkpt lat="13.21042" lon="99.73361"><ele>147</ele><time>2018-06-16T07:42:03Z</time></trkpt>
<trkpt lat="13.21043" lon="99.73353"><ele>147</ele><time>2018-06-16T07:42:05Z</time></trkpt>
<trkpt lat="13.21044" lon="99.73344"><ele>147</ele><time>2018-06-16T07:42:07Z</time></trkpt>
<trkpt lat="13.21045" lon="99.73336"><ele>146</ele><time>2018-06-16T07:42:09Z</time></trkpt>
<trkpt lat="13.21046" lon="99.73327"><ele>147</ele><time>2018-06-16T07:42:11Z</time></trkpt>
<trkpt lat="13.21047" lon="99.73318"><ele>146</ele><time>2018-06-16T07:42:13Z</time></trkpt>
<trkpt lat="13.21048" lon="99.73313"><ele>146</ele><time>2018-06-16T07:42:14Z</time></trkpt>
<trkpt lat="13.21048" lon="99.73308"><ele>146</ele><time>2018-06-16T07:42:15Z</time></trkpt>
<trkpt lat="13.21049" lon="99.73303"><ele>146</ele><time>2018-06-16T07:42:16Z</time></trkpt>
<trkpt lat="13.21050" lon="99.73297"><ele>145</ele><time>2018-06-16T07:42:17Z</time></trkpt>
<trkpt lat="13.21051" lon="99.73292"><ele>146</ele><time>2018-06-16T07:42:18Z</time></trkpt>
<trkpt lat="13.21051" lon="99.73286"><ele>145</ele><time>2018-06-16T07:42:19Z</time></trkpt>
<trkpt lat="13.21051" lon="99.73280"><ele>145</ele><time>2018-06-16T07:42:20Z</time></trkpt>
<trkpt lat="13.21051" lon="99.73275"><ele>145</ele><time>2018-06-16T07:42:21Z</time></trkpt>
<trkpt lat="13.21053" lon="99.73270"><ele>144</ele><time>2018-06-16T07:42:22Z</time></trkpt>
<trkpt lat="13.21060" lon="99.73265"><ele>144</ele><time>2018-06-16T07:42:24Z</time></trkpt>
<trkpt lat="13.21070" lon="99.73267"><ele>143</ele><time>2018-06-16T07:42:26Z</time></trkpt>
<trkpt lat="13.21076" lon="99.73267"><ele>143</ele><time>2018-06-16T07:42:27Z</time></trkpt>
<trkpt lat="13.21082" lon="99.73266"><ele>143</ele><time>2018-06-16T07:42:28Z</time></trkpt>
<trkpt lat="13.21086" lon="99.73263"><ele>143</ele><time>2018-06-16T07:42:29Z</time></trkpt>
<trkpt lat="13.21090" lon="99.73255"><ele>143</ele><time>2018-06-16T07:42:31Z</time></trkpt>
<trkpt lat="13.21091" lon="99.73251"><ele>143</ele><time>2018-06-16T07:42:32Z</time></trkpt>
<trkpt lat="13.21093" lon="99.73246"><ele>143</ele><time>2018-06-16T07:42:33Z</time></trkpt>
<trkpt lat="13.21094" lon="99.73240"><ele>143</ele><time>2018-06-16T07:42:34Z</time></trkpt>
<trkpt lat="13.21096" lon="99.73235"><ele>143</ele><time>2018-06-16T07:42:35Z</time></trkpt>
<trkpt lat="13.21097" lon="99.73230"><ele>142</ele><time>2018-06-16T07:42:36Z</time></trkpt>
<trkpt lat="13.21098" lon="99.73225"><ele>142</ele><time>2018-06-16T07:42:37Z</time></trkpt>
<trkpt lat="13.21099" lon="99.73220"><ele>142</ele><time>2018-06-16T07:42:38Z</time></trkpt>
<trkpt lat="13.21100" lon="99.73215"><ele>142</ele><time>2018-06-16T07:42:39Z</time></trkpt>
<trkpt lat="13.21103" lon="99.73206"><ele>142</ele><time>2018-06-16T07:42:41Z</time></trkpt>
<trkpt lat="13.21105" lon="99.73202"><ele>142</ele><time>2018-06-16T07:42:42Z</time></trkpt>
<trkpt lat="13.21106" lon="99.73197"><ele>141</ele><time>2018-06-16T07:42:43Z</time></trkpt>
<trkpt lat="13.21106" lon="99.73193"><ele>141</ele><time>2018-06-16T07:42:44Z</time></trkpt>
<trkpt lat="13.21107" lon="99.73188"><ele>141</ele><time>2018-06-16T07:42:45Z</time></trkpt>
<trkpt lat="13.21108" lon="99.73183"><ele>141</ele><time>2018-06-16T07:42:46Z</time></trkpt>
<trkpt lat="13.21110" lon="99.73178"><ele>141</ele><time>2018-06-16T07:42:47Z</time></trkpt>
<trkpt lat="13.21111" lon="99.73174"><ele>140</ele><time>2018-06-16T07:42:48Z</time></trkpt>
<trkpt lat="13.21117" lon="99.73169"><ele>140</ele><time>2018-06-16T07:42:50Z</time></trkpt>
<trkpt lat="13.21124" lon="99.73169"><ele>140</ele><time>2018-06-16T07:42:52Z</time></trkpt>
<trkpt lat="13.21129" lon="99.73170"><ele>140</ele><time>2018-06-16T07:42:54Z</time></trkpt>
<trkpt lat="13.21133" lon="99.73172"><ele>140</ele><time>2018-06-16T07:43:13Z</time></trkpt>
<trkpt lat="13.21140" lon="99.73175"><ele>139</ele><time>2018-06-16T07:43:16Z</time></trkpt>
<trkpt lat="13.21147" lon="99.73176"><ele>139</ele><time>2018-06-16T07:43:18Z</time></trkpt>
<trkpt lat="13.21155" lon="99.73179"><ele>139</ele><time>2018-06-16T07:43:20Z</time></trkpt>
<trkpt lat="13.21160" lon="99.73181"><ele>139</ele><time>2018-06-16T07:43:21Z</time></trkpt>
<trkpt lat="13.21165" lon="99.73183"><ele>139</ele><time>2018-06-16T07:43:22Z</time></trkpt>
<trkpt lat="13.21170" lon="99.73187"><ele>139</ele><time>2018-06-16T07:43:23Z</time></trkpt>
<trkpt lat="13.21175" lon="99.73191"><ele>138</ele><time>2018-06-16T07:43:24Z</time></trkpt>
<trkpt lat="13.21179" lon="99.73195"><ele>139</ele><time>2018-06-16T07:43:25Z</time></trkpt>
<trkpt lat="13.21183" lon="99.73199"><ele>139</ele><time>2018-06-16T07:43:26Z</time></trkpt>
<trkpt lat="13.21186" lon="99.73203"><ele>139</ele><time>2018-06-16T07:43:27Z</time></trkpt>
<trkpt lat="13.21190" lon="99.73205"><ele>139</ele><time>2018-06-16T07:43:28Z</time></trkpt>
<trkpt lat="13.21194" lon="99.73207"><ele>139</ele><time>2018-06-16T07:43:29Z</time></trkpt>
<trkpt lat="13.21199" lon="99.73209"><ele>139</ele><time>2018-06-16T07:43:30Z</time></trkpt>
<trkpt lat="13.21204" lon="99.73211"><ele>139</ele><time>2018-06-16T07:43:31Z</time></trkpt>
<trkpt lat="13.21208" lon="99.73213"><ele>139</ele><time>2018-06-16T07:43:32Z</time></trkpt>
<trkpt lat="13.21215" lon="99.73217"><ele>139</ele><time>2018-06-16T07:43:34Z</time></trkpt>
<trkpt lat="13.21222" lon="99.73222"><ele>139</ele><time>2018-06-16T07:43:36Z</time></trkpt>
<trkpt lat="13.21229" lon="99.73227"><ele>138</ele><time>2018-06-16T07:43:38Z</time></trkpt>
<trkpt lat="13.21233" lon="99.73230"><ele>138</ele><time>2018-06-16T07:43:39Z</time></trkpt>
<trkpt lat="13.21237" lon="99.73232"><ele>138</ele><time>2018-06-16T07:43:40Z</time></trkpt>
<trkpt lat="13.21240" lon="99.73235"><ele>138</ele><time>2018-06-16T07:43:41Z</time></trkpt>
<trkpt lat="13.21244" lon="99.73238"><ele>138</ele><time>2018-06-16T07:43:42Z</time></trkpt>
<trkpt lat="13.21248" lon="99.73241"><ele>138</ele><time>2018-06-16T07:43:43Z</time></trkpt>
<trkpt lat="13.21252" lon="99.73243"><ele>138</ele><time>2018-06-16T07:43:44Z</time></trkpt>
<trkpt lat="13.21256" lon="99.73246"><ele>138</ele><time>2018-06-16T07:43:45Z</time></trkpt>
<trkpt lat="13.21260" lon="99.73248"><ele>138</ele><time>2018-06-16T07:43:46Z</time></trkpt>
<trkpt lat="13.21265" lon="99.73249"><ele>138</ele><time>2018-06-16T07:43:47Z</time></trkpt>
<trkpt lat="13.21269" lon="99.73251"><ele>137</ele><time>2018-06-16T07:43:48Z</time></trkpt>
<trkpt lat="13.21278" lon="99.73252"><ele>138</ele><time>2018-06-16T07:43:50Z</time></trkpt>
<trkpt lat="13.21286" lon="99.73254"><ele>139</ele><time>2018-06-16T07:43:52Z</time></trkpt>
<trkpt lat="13.21293" lon="99.73256"><ele>138</ele><time>2018-06-16T07:43:54Z</time></trkpt>
<trkpt lat="13.21300" lon="99.73258"><ele>139</ele><time>2018-06-16T07:43:56Z</time></trkpt>
<trkpt lat="13.21306" lon="99.73259"><ele>139</ele><time>2018-06-16T07:43:58Z</time></trkpt>
<trkpt lat="13.21312" lon="99.73260"><ele>139</ele><time>2018-06-16T07:44:00Z</time></trkpt>
<trkpt lat="13.21317" lon="99.73261"><ele>139</ele><time>2018-06-16T07:44:02Z</time></trkpt>
<trkpt lat="13.21322" lon="99.73263"><ele>139</ele><time>2018-06-16T07:44:04Z</time></trkpt>
<trkpt lat="13.21327" lon="99.73265"><ele>139</ele><time>2018-06-16T07:44:07Z</time></trkpt>
<trkpt lat="13.21331" lon="99.73267"><ele>140</ele><time>2018-06-16T07:44:12Z</time></trkpt>
<trkpt lat="13.21335" lon="99.73271"><ele>141</ele><time>2018-06-16T07:44:16Z</time></trkpt>
<trkpt lat="13.21341" lon="99.73271"><ele>141</ele><time>2018-06-16T07:44:19Z</time></trkpt>
<trkpt lat="13.21345" lon="99.73270"><ele>141</ele><time>2018-06-16T07:44:21Z</time></trkpt>
<trkpt lat="13.21350" lon="99.73270"><ele>141</ele><time>2018-06-16T07:44:23Z</time></trkpt>
<trkpt lat="13.21355" lon="99.73268"><ele>141</ele><time>2018-06-16T07:44:25Z</time></trkpt>
<trkpt lat="13.21360" lon="99.73266"><ele>141</ele><time>2018-06-16T07:44:27Z</time></trkpt>
<trkpt lat="13.21366" lon="99.73264"><ele>142</ele><time>2018-06-16T07:44:30Z</time></trkpt>
<trkpt lat="13.21372" lon="99.73263"><ele>142</ele><time>2018-06-16T07:44:33Z</time></trkpt>
<trkpt lat="13.21378" lon="99.73263"><ele>143</ele><time>2018-06-16T07:44:35Z</time></trkpt>
<trkpt lat="13.21384" lon="99.73262"><ele>143</ele><time>2018-06-16T07:44:37Z</time></trkpt>
<trkpt lat="13.21390" lon="99.73261"><ele>143</ele><time>2018-06-16T07:44:39Z</time></trkpt>
<trkpt lat="13.21399" lon="99.73260"><ele>143</ele><time>2018-06-16T07:44:41Z</time></trkpt>
<trkpt lat="13.21405" lon="99.73260"><ele>142</ele><time>2018-06-16T07:44:43Z</time></trkpt>
<trkpt lat="13.21412" lon="99.73258"><ele>142</ele><time>2018-06-16T07:44:45Z</time></trkpt>
<trkpt lat="13.21418" lon="99.73256"><ele>142</ele><time>2018-06-16T07:44:47Z</time></trkpt>
<trkpt lat="13.21423" lon="99.73254"><ele>142</ele><time>2018-06-16T07:44:49Z</time></trkpt>
<trkpt lat="13.21427" lon="99.73249"><ele>143</ele><time>2018-06-16T07:45:01Z</time></trkpt>
<trkpt lat="13.21430" lon="99.73245"><ele>144</ele><time>2018-06-16T07:45:27Z</time></trkpt>
<trkpt lat="13.21434" lon="99.73244"><ele>144</ele><time>2018-06-16T07:45:33Z</time></trkpt>
<trkpt lat="13.21440" lon="99.73241"><ele>145</ele><time>2018-06-16T07:45:36Z</time></trkpt>
<trkpt lat="13.21444" lon="99.73239"><ele>144</ele><time>2018-06-16T07:45:38Z</time></trkpt>
<trkpt lat="13.21448" lon="99.73236"><ele>144</ele><time>2018-06-16T07:45:40Z</time></trkpt>
<trkpt lat="13.21452" lon="99.73234"><ele>144</ele><time>2018-06-16T07:45:42Z</time></trkpt>
<trkpt lat="13.21456" lon="99.73231"><ele>144</ele><time>2018-06-16T07:45:44Z</time></trkpt>
<trkpt lat="13.21460" lon="99.73228"><ele>145</ele><time>2018-06-16T07:45:46Z</time></trkpt>
<trkpt lat="13.21466" lon="99.73225"><ele>144</ele><time>2018-06-16T07:45:48Z</time></trkpt>
<trkpt lat="13.21472" lon="99.73223"><ele>145</ele><time>2018-06-16T07:45:50Z</time></trkpt>
<trkpt lat="13.21479" lon="99.73221"><ele>145</ele><time>2018-06-16T07:45:52Z</time></trkpt>
<trkpt lat="13.21485" lon="99.73220"><ele>145</ele><time>2018-06-16T07:45:54Z</time></trkpt>
<trkpt lat="13.21490" lon="99.73219"><ele>146</ele><time>2018-06-16T07:45:57Z</time></trkpt>
<trkpt lat="13.21496" lon="99.73218"><ele>145</ele><time>2018-06-16T07:46:01Z</time></trkpt>
<trkpt lat="13.21500" lon="99.73217"><ele>145</ele><time>2018-06-16T07:46:03Z</time></trkpt>
<trkpt lat="13.21505" lon="99.73215"><ele>145</ele><time>2018-06-16T07:46:05Z</time></trkpt>
<trkpt lat="13.21509" lon="99.73211"><ele>145</ele><time>2018-06-16T07:46:08Z</time></trkpt>
<trkpt lat="13.21510" lon="99.73206"><ele>145</ele><time>2018-06-16T07:46:11Z</time></trkpt>
<trkpt lat="13.21509" lon="99.73202"><ele>148</ele><time>2018-06-16T07:47:00Z</time></trkpt>
<trkpt lat="13.21510" lon="99.73197"><ele>132</ele><time>2018-06-16T07:52:40Z</time></trkpt>
<trkpt lat="13.21508" lon="99.73202"><ele>122</ele><time>2018-06-16T07:58:10Z</time></trkpt>
<trkpt lat="13.21513" lon="99.73202"><ele>119</ele><time>2018-06-16T08:06:17Z</time></trkpt>
<trkpt lat="13.21515" lon="99.73198"><ele>122</ele><time>2018-06-16T08:10:02Z</time></trkpt>
<trkpt lat="13.21511" lon="99.73196"><ele>118</ele><time>2018-06-16T08:16:07Z</time></trkpt>
<trkpt lat="13.21515" lon="99.73198"><ele>118</ele><time>2018-06-16T08:19:44Z</time></trkpt>
<trkpt lat="13.21514" lon="99.73203"><ele>142</ele><time>2018-06-16T08:20:15Z</time></trkpt>
<trkpt lat="13.21510" lon="99.73202"><ele>149</ele><time>2018-06-16T08:20:52Z</time></trkpt>
<trkpt lat="13.21507" lon="99.73207"><ele>153</ele><time>2018-06-16T08:25:39Z</time></trkpt>
<trkpt lat="13.21507" lon="99.73211"><ele>151</ele><time>2018-06-16T08:25:51Z</time></trkpt>
<trkpt lat="13.21502" lon="99.73211"><ele>151</ele><time>2018-06-16T08:25:57Z</time></trkpt>
<trkpt lat="13.21499" lon="99.73205"><ele>151</ele><time>2018-06-16T08:26:00Z</time></trkpt>
<trkpt lat="13.21500" lon="99.73199"><ele>151</ele><time>2018-06-16T08:26:02Z</time></trkpt>
<trkpt lat="13.21501" lon="99.73192"><ele>151</ele><time>2018-06-16T08:26:04Z</time></trkpt>
<trkpt lat="13.21503" lon="99.73185"><ele>152</ele><time>2018-06-16T08:26:06Z</time></trkpt>
<trkpt lat="13.21506" lon="99.73178"><ele>152</ele><time>2018-06-16T08:26:08Z</time></trkpt>
<trkpt lat="13.21508" lon="99.73170"><ele>152</ele><time>2018-06-16T08:26:10Z</time></trkpt>
<trkpt lat="13.21512" lon="99.73162"><ele>152</ele><time>2018-06-16T08:26:12Z</time></trkpt>
<trkpt lat="13.21516" lon="99.73154"><ele>152</ele><time>2018-06-16T08:26:14Z</time></trkpt>
<trkpt lat="13.21520" lon="99.73146"><ele>152</ele><time>2018-06-16T08:26:16Z</time></trkpt>
<trkpt lat="13.21523" lon="99.73142"><ele>152</ele><time>2018-06-16T08:26:17Z</time></trkpt>
<trkpt lat="13.21525" lon="99.73138"><ele>152</ele><time>2018-06-16T08:26:18Z</time></trkpt>
<trkpt lat="13.21528" lon="99.73134"><ele>152</ele><time>2018-06-16T08:26:19Z</time></trkpt>
<trkpt lat="13.21530" lon="99.73129"><ele>152</ele><time>2018-06-16T08:26:20Z</time></trkpt>
<trkpt lat="13.21533" lon="99.73125"><ele>152</ele><time>2018-06-16T08:26:21Z</time></trkpt>
<trkpt lat="13.21536" lon="99.73121"><ele>152</ele><time>2018-06-16T08:26:22Z</time></trkpt>
<trkpt lat="13.21538" lon="99.73116"><ele>152</ele><time>2018-06-16T08:26:23Z</time></trkpt>
<trkpt lat="13.21541" lon="99.73112"><ele>153</ele><time>2018-06-16T08:26:24Z</time></trkpt>
<trkpt lat="13.21544" lon="99.73107"><ele>153</ele><time>2018-06-16T08:26:25Z</time></trkpt>
<trkpt lat="13.21546" lon="99.73102"><ele>153</ele><time>2018-06-16T08:26:26Z</time></trkpt>
<trkpt lat="13.21549" lon="99.73097"><ele>153</ele><time>2018-06-16T08:26:27Z</time></trkpt>
<trkpt lat="13.21552" lon="99.73092"><ele>153</ele><time>2018-06-16T08:26:28Z</time></trkpt>
<trkpt lat="13.21555" lon="99.73088"><ele>153</ele><time>2018-06-16T08:26:29Z</time></trkpt>
<trkpt lat="13.21558" lon="99.73084"><ele>153</ele><time>2018-06-16T08:26:30Z</time></trkpt>
<trkpt lat="13.21561" lon="99.73079"><ele>153</ele><time>2018-06-16T08:26:31Z</time></trkpt>
<trkpt lat="13.21564" lon="99.73075"><ele>153</ele><time>2018-06-16T08:26:32Z</time></trkpt>
<trkpt lat="13.21567" lon="99.73071"><ele>153</ele><time>2018-06-16T08:26:33Z</time></trkpt>
<trkpt lat="13.21570" lon="99.73066"><ele>153</ele><time>2018-06-16T08:26:34Z</time></trkpt>
<trkpt lat="13.21573" lon="99.73062"><ele>153</ele><time>2018-06-16T08:26:35Z</time></trkpt>
<trkpt lat="13.21576" lon="99.73057"><ele>153</ele><time>2018-06-16T08:26:36Z</time></trkpt>
<trkpt lat="13.21578" lon="99.73052"><ele>153</ele><time>2018-06-16T08:26:37Z</time></trkpt>
<trkpt lat="13.21581" lon="99.73048"><ele>153</ele><time>2018-06-16T08:26:38Z</time></trkpt>
<trkpt lat="13.21584" lon="99.73043"><ele>153</ele><time>2018-06-16T08:26:39Z</time></trkpt>
<trkpt lat="13.21587" lon="99.73038"><ele>154</ele><time>2018-06-16T08:26:40Z</time></trkpt>
<trkpt lat="13.21590" lon="99.73034"><ele>154</ele><time>2018-06-16T08:26:41Z</time></trkpt>
<trkpt lat="13.21593" lon="99.73029"><ele>154</ele><time>2018-06-16T08:26:42Z</time></trkpt>
<trkpt lat="13.21595" lon="99.73025"><ele>154</ele><time>2018-06-16T08:26:43Z</time></trkpt>
<trkpt lat="13.21598" lon="99.73020"><ele>154</ele><time>2018-06-16T08:26:44Z</time></trkpt>
<trkpt lat="13.21601" lon="99.73016"><ele>154</ele><time>2018-06-16T08:26:45Z</time></trkpt>
<trkpt lat="13.21603" lon="99.73012"><ele>154</ele><time>2018-06-16T08:26:46Z</time></trkpt>
<trkpt lat="13.21606" lon="99.73007"><ele>154</ele><time>2018-06-16T08:26:47Z</time></trkpt>
<trkpt lat="13.21609" lon="99.73003"><ele>154</ele><time>2018-06-16T08:26:48Z</time></trkpt>
<trkpt lat="13.21612" lon="99.72998"><ele>154</ele><time>2018-06-16T08:26:49Z</time></trkpt>
<trkpt lat="13.21614" lon="99.72994"><ele>154</ele><time>2018-06-16T08:26:50Z</time></trkpt>
<trkpt lat="13.21617" lon="99.72990"><ele>154</ele><time>2018-06-16T08:26:51Z</time></trkpt>
<trkpt lat="13.21622" lon="99.72983"><ele>154</ele><time>2018-06-16T08:26:53Z</time></trkpt>
<trkpt lat="13.21626" lon="99.72979"><ele>155</ele><time>2018-06-16T08:26:55Z</time></trkpt>
<trkpt lat="13.21630" lon="99.72981"><ele>155</ele><time>2018-06-16T08:27:13Z</time></trkpt>
<trkpt lat="13.21635" lon="99.72983"><ele>156</ele><time>2018-06-16T08:27:16Z</time></trkpt>
<trkpt lat="13.21639" lon="99.72986"><ele>156</ele><time>2018-06-16T08:27:18Z</time></trkpt>
<trkpt lat="13.21644" lon="99.72989"><ele>156</ele><time>2018-06-16T08:27:20Z</time></trkpt>
<trkpt lat="13.21649" lon="99.72991"><ele>156</ele><time>2018-06-16T08:27:22Z</time></trkpt>
<trkpt lat="13.21654" lon="99.72994"><ele>156</ele><time>2018-06-16T08:27:24Z</time></trkpt>
<trkpt lat="13.21659" lon="99.72997"><ele>156</ele><time>2018-06-16T08:27:26Z</time></trkpt>
<trkpt lat="13.21665" lon="99.73000"><ele>156</ele><time>2018-06-16T08:27:28Z</time></trkpt>
<trkpt lat="13.21670" lon="99.73004"><ele>156</ele><time>2018-06-16T08:27:30Z</time></trkpt>
<trkpt lat="13.21677" lon="99.73008"><ele>156</ele><time>2018-06-16T08:27:32Z</time></trkpt>
<trkpt lat="13.21683" lon="99.73011"><ele>156</ele><time>2018-06-16T08:27:34Z</time></trkpt>
<trkpt lat="13.21690" lon="99.73015"><ele>157</ele><time>2018-06-16T08:27:36Z</time></trkpt>
<trkpt lat="13.21697" lon="99.73019"><ele>157</ele><time>2018-06-16T08:27:38Z</time></trkpt>
<trkpt lat="13.21704" lon="99.73022"><ele>157</ele><time>2018-06-16T08:27:40Z</time></trkpt>
<trkpt lat="13.21711" lon="99.73026"><ele>158</ele><time>2018-06-16T08:27:42Z</time></trkpt>
<trkpt lat="13.21719" lon="99.73030"><ele>158</ele><time>2018-06-16T08:27:44Z</time></trkpt>
<trkpt lat="13.21727" lon="99.73034"><ele>158</ele><time>2018-06-16T08:27:46Z</time></trkpt>
<trkpt lat="13.21734" lon="99.73038"><ele>159</ele><time>2018-06-16T08:27:48Z</time></trkpt>
<trkpt lat="13.21740" lon="99.73041"><ele>159</ele><time>2018-06-16T08:27:50Z</time></trkpt>
<trkpt lat="13.21744" lon="99.73043"><ele>159</ele><time>2018-06-16T08:27:52Z</time></trkpt>
<trkpt lat="13.21749" lon="99.73045"><ele>160</ele><time>2018-06-16T08:28:10Z</time></trkpt>
<trkpt lat="13.21754" lon="99.73046"><ele>161</ele><time>2018-06-16T08:28:14Z</time></trkpt>
<trkpt lat="13.21759" lon="99.73047"><ele>161</ele><time>2018-06-16T08:28:17Z</time></trkpt>
<trkpt lat="13.21766" lon="99.73047"><ele>161</ele><time>2018-06-16T08:28:20Z</time></trkpt>
<trkpt lat="13.21772" lon="99.73049"><ele>161</ele><time>2018-06-16T08:28:22Z</time></trkpt>
<trkpt lat="13.21780" lon="99.73053"><ele>161</ele><time>2018-06-16T08:28:24Z</time></trkpt>
<trkpt lat="13.21784" lon="99.73055"><ele>161</ele><time>2018-06-16T08:28:25Z</time></trkpt>
<trkpt lat="13.21788" lon="99.73058"><ele>161</ele><time>2018-06-16T08:28:26Z</time></trkpt>
<trkpt lat="13.21793" lon="99.73060"><ele>161</ele><time>2018-06-16T08:28:27Z</time></trkpt>
<trkpt lat="13.21797" lon="99.73063"><ele>160</ele><time>2018-06-16T08:28:28Z</time></trkpt>
<trkpt lat="13.21802" lon="99.73066"><ele>160</ele><time>2018-06-16T08:28:29Z</time></trkpt>
<trkpt lat="13.21807" lon="99.73069"><ele>160</ele><time>2018-06-16T08:28:30Z</time></trkpt>
<trkpt lat="13.21813" lon="99.73072"><ele>160</ele><time>2018-06-16T08:28:31Z</time></trkpt>
<trkpt lat="13.21818" lon="99.73076"><ele>160</ele><time>2018-06-16T08:28:32Z</time></trkpt>
<trkpt lat="13.21824" lon="99.73079"><ele>160</ele><time>2018-06-16T08:28:33Z</time></trkpt>
<trkpt lat="13.21833" lon="99.73085"><ele>159</ele><time>2018-06-16T08:28:35Z</time></trkpt>
<trkpt lat="13.21839" lon="99.73089"><ele>158</ele><time>2018-06-16T08:28:36Z</time></trkpt>
<trkpt lat="13.21845" lon="99.73093"><ele>157</ele><time>2018-06-16T08:28:37Z</time></trkpt>
<trkpt lat="13.21855" lon="99.73099"><ele>157</ele><time>2018-06-16T08:28:38Z</time></trkpt>
<trkpt lat="13.21862" lon="99.73103"><ele>156</ele><time>2018-06-16T08:28:39Z</time></trkpt>
<trkpt lat="13.21869" lon="99.73108"><ele>155</ele><time>2018-06-16T08:28:40Z</time></trkpt>
<trkpt lat="13.21874" lon="99.73112"><ele>154</ele><time>2018-06-16T08:28:41Z</time></trkpt>
<trkpt lat="13.21879" lon="99.73117"><ele>154</ele><time>2018-06-16T08:28:42Z</time></trkpt>
<trkpt lat="13.21882" lon="99.73123"><ele>154</ele><time>2018-06-16T08:28:43Z</time></trkpt>
<trkpt lat="13.21886" lon="99.73128"><ele>154</ele><time>2018-06-16T08:28:44Z</time></trkpt>
<trkpt lat="13.21892" lon="99.73134"><ele>154</ele><time>2018-06-16T08:28:46Z</time></trkpt>
<trkpt lat="13.21896" lon="99.73138"><ele>154</ele><time>2018-06-16T08:28:47Z</time></trkpt>
<trkpt lat="13.21900" lon="99.73141"><ele>153</ele><time>2018-06-16T08:28:48Z</time></trkpt>
<trkpt lat="13.21904" lon="99.73144"><ele>153</ele><time>2018-06-16T08:28:49Z</time></trkpt>
<trkpt lat="13.21909" lon="99.73147"><ele>154</ele><time>2018-06-16T08:28:50Z</time></trkpt>
<trkpt lat="13.21917" lon="99.73148"><ele>153</ele><time>2018-06-16T08:28:52Z</time></trkpt>
<trkpt lat="13.21924" lon="99.73146"><ele>153</ele><time>2018-06-16T08:28:54Z</time></trkpt>
<trkpt lat="13.21931" lon="99.73143"><ele>153</ele><time>2018-06-16T08:28:56Z</time></trkpt>
<trkpt lat="13.21935" lon="99.73141"><ele>153</ele><time>2018-06-16T08:28:58Z</time></trkpt>
<trkpt lat="13.21940" lon="99.73138"><ele>153</ele><time>2018-06-16T08:29:00Z</time></trkpt>
<trkpt lat="13.21944" lon="99.73135"><ele>153</ele><time>2018-06-16T08:29:02Z</time></trkpt>
<trkpt lat="13.21948" lon="99.73133"><ele>153</ele><time>2018-06-16T08:29:08Z</time></trkpt>
<trkpt lat="13.21952" lon="99.73130"><ele>154</ele><time>2018-06-16T08:29:23Z</time></trkpt>
<trkpt lat="13.21956" lon="99.73126"><ele>152</ele><time>2018-06-16T08:29:25Z</time></trkpt>
<trkpt lat="13.21961" lon="99.73124"><ele>151</ele><time>2018-06-16T08:29:27Z</time></trkpt>
<trkpt lat="13.21965" lon="99.73121"><ele>151</ele><time>2018-06-16T08:29:29Z</time></trkpt>
<trkpt lat="13.21971" lon="99.73117"><ele>150</ele><time>2018-06-16T08:29:31Z</time></trkpt>
<trkpt lat="13.21978" lon="99.73113"><ele>150</ele><time>2018-06-16T08:29:33Z</time></trkpt>
<trkpt lat="13.21986" lon="99.73109"><ele>149</ele><time>2018-06-16T08:29:35Z</time></trkpt>
<trkpt lat="13.21990" lon="99.73106"><ele>149</ele><time>2018-06-16T08:29:36Z</time></trkpt>
<trkpt lat="13.21996" lon="99.73102"><ele>149</ele><time>2018-06-16T08:29:38Z</time></trkpt>
<trkpt lat="13.22001" lon="99.73100"><ele>149</ele><time>2018-06-16T08:29:39Z</time></trkpt>
<trkpt lat="13.22006" lon="99.73098"><ele>149</ele><time>2018-06-16T08:29:40Z</time></trkpt>
<trkpt lat="13.22014" lon="99.73095"><ele>148</ele><time>2018-06-16T08:29:41Z</time></trkpt>
<trkpt lat="13.22021" lon="99.73094"><ele>149</ele><time>2018-06-16T08:29:42Z</time></trkpt>
<trkpt lat="13.22028" lon="99.73091"><ele>149</ele><time>2018-06-16T08:29:43Z</time></trkpt>
<trkpt lat="13.22035" lon="99.73088"><ele>149</ele><time>2018-06-16T08:29:44Z</time></trkpt>
<trkpt lat="13.22042" lon="99.73086"><ele>149</ele><time>2018-06-16T08:29:45Z</time></trkpt>
<trkpt lat="13.22049" lon="99.73084"><ele>148</ele><time>2018-06-16T08:29:46Z</time></trkpt>
<trkpt lat="13.22055" lon="99.73081"><ele>147</ele><time>2018-06-16T08:29:47Z</time></trkpt>
<trkpt lat="13.22061" lon="99.73078"><ele>147</ele><time>2018-06-16T08:29:48Z</time></trkpt>
<trkpt lat="13.22067" lon="99.73076"><ele>146</ele><time>2018-06-16T08:29:49Z</time></trkpt>
<trkpt lat="13.22072" lon="99.73075"><ele>146</ele><time>2018-06-16T08:29:50Z</time></trkpt>
<trkpt lat="13.22078" lon="99.73073"><ele>146</ele><time>2018-06-16T08:29:51Z</time></trkpt>
<trkpt lat="13.22084" lon="99.73070"><ele>145</ele><time>2018-06-16T08:29:52Z</time></trkpt>
<trkpt lat="13.22089" lon="99.73068"><ele>146</ele><time>2018-06-16T08:29:53Z</time></trkpt>
<trkpt lat="13.22093" lon="99.73067"><ele>146</ele><time>2018-06-16T08:29:54Z</time></trkpt>
<trkpt lat="13.22097" lon="99.73065"><ele>146</ele><time>2018-06-16T08:29:55Z</time></trkpt>
<trkpt lat="13.22102" lon="99.73063"><ele>146</ele><time>2018-06-16T08:29:56Z</time></trkpt>
<trkpt lat="13.22108" lon="99.73060"><ele>148</ele><time>2018-06-16T08:29:58Z</time></trkpt>
<trkpt lat="13.22116" lon="99.73056"><ele>147</ele><time>2018-06-16T08:30:00Z</time></trkpt>
<trkpt lat="13.22123" lon="99.73053"><ele>145</ele><time>2018-06-16T08:30:01Z</time></trkpt>
<trkpt lat="13.22128" lon="99.73051"><ele>145</ele><time>2018-06-16T08:30:02Z</time></trkpt>
<trkpt lat="13.22132" lon="99.73049"><ele>146</ele><time>2018-06-16T08:30:03Z</time></trkpt>
<trkpt lat="13.22138" lon="99.73048"><ele>146</ele><time>2018-06-16T08:30:04Z</time></trkpt>
<trkpt lat="13.22143" lon="99.73047"><ele>146</ele><time>2018-06-16T08:30:05Z</time></trkpt>
<trkpt lat="13.22148" lon="99.73046"><ele>146</ele><time>2018-06-16T08:30:06Z</time></trkpt>
<trkpt lat="13.22152" lon="99.73045"><ele>146</ele><time>2018-06-16T08:30:07Z</time></trkpt>
<trkpt lat="13.22157" lon="99.73044"><ele>146</ele><time>2018-06-16T08:30:08Z</time></trkpt>
<trkpt lat="13.22162" lon="99.73042"><ele>146</ele><time>2018-06-16T08:30:09Z</time></trkpt>
<trkpt lat="13.22167" lon="99.73041"><ele>147</ele><time>2018-06-16T08:30:10Z</time></trkpt>
<trkpt lat="13.22171" lon="99.73040"><ele>147</ele><time>2018-06-16T08:30:11Z</time></trkpt>
<trkpt lat="13.22176" lon="99.73039"><ele>147</ele><time>2018-06-16T08:30:12Z</time></trkpt>
<trkpt lat="13.22181" lon="99.73039"><ele>147</ele><time>2018-06-16T08:30:13Z</time></trkpt>
<trkpt lat="13.22186" lon="99.73039"><ele>147</ele><time>2018-06-16T08:30:14Z</time></trkpt>
<trkpt lat="13.22191" lon="99.73039"><ele>148</ele><time>2018-06-16T08:30:15Z</time></trkpt>
<trkpt lat="13.22195" lon="99.73039"><ele>148</ele><time>2018-06-16T08:30:19Z</time></trkpt>
<trkpt lat="13.22200" lon="99.73038"><ele>146</ele><time>2018-06-16T08:30:31Z</time></trkpt>
<trkpt lat="13.22205" lon="99.73037"><ele>147</ele><time>2018-06-16T08:30:33Z</time></trkpt>
<trkpt lat="13.22211" lon="99.73035"><ele>146</ele><time>2018-06-16T08:30:35Z</time></trkpt>
<trkpt lat="13.22217" lon="99.73034"><ele>147</ele><time>2018-06-16T08:30:37Z</time></trkpt>
<trkpt lat="13.22223" lon="99.73034"><ele>147</ele><time>2018-06-16T08:30:39Z</time></trkpt>
<trkpt lat="13.22229" lon="99.73034"><ele>147</ele><time>2018-06-16T08:30:41Z</time></trkpt>
<trkpt lat="13.22234" lon="99.73035"><ele>147</ele><time>2018-06-16T08:30:44Z</time></trkpt>
<trkpt lat="13.22240" lon="99.73036"><ele>148</ele><time>2018-06-16T08:30:47Z</time></trkpt>
<trkpt lat="13.22245" lon="99.73037"><ele>148</ele><time>2018-06-16T08:30:49Z</time></trkpt>
<trkpt lat="13.22250" lon="99.73037"><ele>148</ele><time>2018-06-16T08:30:51Z</time></trkpt>
<trkpt lat="13.22255" lon="99.73037"><ele>149</ele><time>2018-06-16T08:30:53Z</time></trkpt>
<trkpt lat="13.22260" lon="99.73038"><ele>149</ele><time>2018-06-16T08:30:55Z</time></trkpt>
<trkpt lat="13.22264" lon="99.73038"><ele>149</ele><time>2018-06-16T08:30:58Z</time></trkpt>
<trkpt lat="13.22269" lon="99.73040"><ele>150</ele><time>2018-06-16T08:31:04Z</time></trkpt>
<trkpt lat="13.22274" lon="99.73040"><ele>151</ele><time>2018-06-16T08:31:10Z</time></trkpt>
<trkpt lat="13.22279" lon="99.73043"><ele>151</ele><time>2018-06-16T08:31:14Z</time></trkpt>
<trkpt lat="13.22284" lon="99.73045"><ele>150</ele><time>2018-06-16T08:31:18Z</time></trkpt>
<trkpt lat="13.22291" lon="99.73047"><ele>150</ele><time>2018-06-16T08:31:21Z</time></trkpt>
<trkpt lat="13.22295" lon="99.73048"><ele>150</ele><time>2018-06-16T08:31:23Z</time></trkpt>
<trkpt lat="13.22300" lon="99.73049"><ele>151</ele><time>2018-06-16T08:31:25Z</time></trkpt>
<trkpt lat="13.22304" lon="99.73050"><ele>151</ele><time>2018-06-16T08:31:27Z</time></trkpt>
<trkpt lat="13.22310" lon="99.73051"><ele>152</ele><time>2018-06-16T08:31:30Z</time></trkpt>
<trkpt lat="13.22313" lon="99.73055"><ele>153</ele><time>2018-06-16T08:31:37Z</time></trkpt>
<trkpt lat="13.22315" lon="99.73060"><ele>155</ele><time>2018-06-16T08:31:58Z</time></trkpt>
<trkpt lat="13.22317" lon="99.73064"><ele>156</ele><time>2018-06-16T08:32:11Z</time></trkpt>
<trkpt lat="13.22322" lon="99.73068"><ele>156</ele><time>2018-06-16T08:32:20Z</time></trkpt>
<trkpt lat="13.22327" lon="99.73070"><ele>156</ele><time>2018-06-16T08:32:23Z</time></trkpt>
<trkpt lat="13.22333" lon="99.73072"><ele>157</ele><time>2018-06-16T08:32:26Z</time></trkpt>
<trkpt lat="13.22338" lon="99.73073"><ele>157</ele><time>2018-06-16T08:32:28Z</time></trkpt>
<trkpt lat="13.22344" lon="99.73075"><ele>157</ele><time>2018-06-16T08:32:31Z</time></trkpt>
<trkpt lat="13.22348" lon="99.73075"><ele>156</ele><time>2018-06-16T08:32:42Z</time></trkpt>
<trkpt lat="13.22353" lon="99.73076"><ele>156</ele><time>2018-06-16T08:33:00Z</time></trkpt>
<trkpt lat="13.22357" lon="99.73077"><ele>157</ele><time>2018-06-16T08:34:54Z</time></trkpt>
<trkpt lat="13.22362" lon="99.73079"><ele>158</ele><time>2018-06-16T08:35:00Z</time></trkpt>
<trkpt lat="13.22367" lon="99.73081"><ele>157</ele><time>2018-06-16T08:35:04Z</time></trkpt>
<trkpt lat="13.22372" lon="99.73083"><ele>156</ele><time>2018-06-16T08:35:07Z</time></trkpt>
<trkpt lat="13.22376" lon="99.73085"><ele>156</ele><time>2018-06-16T08:35:14Z</time></trkpt>
<trkpt lat="13.22380" lon="99.73087"><ele>156</ele><time>2018-06-16T08:35:56Z</time></trkpt>
<trkpt lat="13.22384" lon="99.73091"><ele>155</ele><time>2018-06-16T08:36:00Z</time></trkpt>
<trkpt lat="13.22389" lon="99.73093"><ele>155</ele><time>2018-06-16T08:36:14Z</time></trkpt>
<trkpt lat="13.22393" lon="99.73096"><ele>155</ele><time>2018-06-16T08:36:30Z</time></trkpt>
<trkpt lat="13.22397" lon="99.73098"><ele>155</ele><time>2018-06-16T08:36:43Z</time></trkpt>
<trkpt lat="13.22402" lon="99.73099"><ele>156</ele><time>2018-06-16T08:36:48Z</time></trkpt>
<trkpt lat="13.22407" lon="99.73101"><ele>156</ele><time>2018-06-16T08:36:52Z</time></trkpt>
<trkpt lat="13.22412" lon="99.73102"><ele>156</ele><time>2018-06-16T08:36:54Z</time></trkpt>
<trkpt lat="13.22415" lon="99.73106"><ele>156</ele><time>2018-06-16T08:36:57Z</time></trkpt>
<trkpt lat="13.22419" lon="99.73109"><ele>155</ele><time>2018-06-16T08:37:00Z</time></trkpt>
<trkpt lat="13.22422" lon="99.73112"><ele>156</ele><time>2018-06-16T08:37:29Z</time></trkpt>
<trkpt lat="13.22426" lon="99.73114"><ele>157</ele><time>2018-06-16T08:37:41Z</time></trkpt>
<trkpt lat="13.22431" lon="99.73116"><ele>157</ele><time>2018-06-16T08:37:48Z</time></trkpt>
<trkpt lat="13.22435" lon="99.73120"><ele>156</ele><time>2018-06-16T08:37:52Z</time></trkpt>
<trkpt lat="13.22439" lon="99.73125"><ele>156</ele><time>2018-06-16T08:37:55Z</time></trkpt>
<trkpt lat="13.22442" lon="99.73129"><ele>157</ele><time>2018-06-16T08:37:58Z</time></trkpt>
<trkpt lat="13.22447" lon="99.73129"><ele>156</ele><time>2018-06-16T08:38:35Z</time></trkpt>
<trkpt lat="13.22447" lon="99.73123"><ele>156</ele><time>2018-06-16T08:38:42Z</time></trkpt>
<trkpt lat="13.22448" lon="99.73116"><ele>156</ele><time>2018-06-16T08:38:44Z</time></trkpt>
<trkpt lat="13.22449" lon="99.73108"><ele>156</ele><time>2018-06-16T08:38:46Z</time></trkpt>
<trkpt lat="13.22450" lon="99.73101"><ele>156</ele><time>2018-06-16T08:38:48Z</time></trkpt>
<trkpt lat="13.22452" lon="99.73094"><ele>155</ele><time>2018-06-16T08:38:50Z</time></trkpt>
<trkpt lat="13.22454" lon="99.73088"><ele>154</ele><time>2018-06-16T08:38:52Z</time></trkpt>
<trkpt lat="13.22459" lon="99.73086"><ele>153</ele><time>2018-06-16T08:38:55Z</time></trkpt>
<trkpt lat="13.22465" lon="99.73086"><ele>153</ele><time>2018-06-16T08:38:58Z</time></trkpt>
<trkpt lat="13.22471" lon="99.73087"><ele>153</ele><time>2018-06-16T08:39:01Z</time></trkpt>
<trkpt lat="13.22476" lon="99.73087"><ele>152</ele><time>2018-06-16T08:39:04Z</time></trkpt>
<trkpt lat="13.22483" lon="99.73086"><ele>152</ele><time>2018-06-16T08:39:07Z</time></trkpt>
<trkpt lat="13.22488" lon="99.73085"><ele>152</ele><time>2018-06-16T08:39:09Z</time></trkpt>
<trkpt lat="13.22492" lon="99.73083"><ele>151</ele><time>2018-06-16T08:39:13Z</time></trkpt>
<trkpt lat="13.22495" lon="99.73078"><ele>150</ele><time>2018-06-16T08:39:29Z</time></trkpt>
<trkpt lat="13.22494" lon="99.73073"><ele>149</ele><time>2018-06-16T08:40:31Z</time></trkpt>
<trkpt lat="13.22498" lon="99.73068"><ele>149</ele><time>2018-06-16T08:40:39Z</time></trkpt>
<trkpt lat="13.22501" lon="99.73063"><ele>149</ele><time>2018-06-16T08:40:41Z</time></trkpt>
<trkpt lat="13.22505" lon="99.73058"><ele>149</ele><time>2018-06-16T08:40:43Z</time></trkpt>
<trkpt lat="13.22509" lon="99.73052"><ele>149</ele><time>2018-06-16T08:40:45Z</time></trkpt>
<trkpt lat="13.22515" lon="99.73048"><ele>149</ele><time>2018-06-16T08:40:47Z</time></trkpt>
<trkpt lat="13.22521" lon="99.73045"><ele>147</ele><time>2018-06-16T08:40:49Z</time></trkpt>
<trkpt lat="13.22529" lon="99.73045"><ele>148</ele><time>2018-06-16T08:40:51Z</time></trkpt>
<trkpt lat="13.22539" lon="99.73045"><ele>147</ele><time>2018-06-16T08:40:53Z</time></trkpt>
<trkpt lat="13.22543" lon="99.73046"><ele>147</ele><time>2018-06-16T08:40:54Z</time></trkpt>
<trkpt lat="13.22548" lon="99.73047"><ele>147</ele><time>2018-06-16T08:40:55Z</time></trkpt>
<trkpt lat="13.22556" lon="99.73049"><ele>147</ele><time>2018-06-16T08:40:57Z</time></trkpt>
<trkpt lat="13.22565" lon="99.73052"><ele>147</ele><time>2018-06-16T08:40:59Z</time></trkpt>
<trkpt lat="13.22570" lon="99.73053"><ele>147</ele><time>2018-06-16T08:41:00Z</time></trkpt>
<trkpt lat="13.22574" lon="99.73054"><ele>147</ele><time>2018-06-16T08:41:01Z</time></trkpt>
<trkpt lat="13.22579" lon="99.73054"><ele>147</ele><time>2018-06-16T08:41:02Z</time></trkpt>
<trkpt lat="13.22584" lon="99.73054"><ele>147</ele><time>2018-06-16T08:41:03Z</time></trkpt>
<trkpt lat="13.22589" lon="99.73054"><ele>146</ele><time>2018-06-16T08:41:04Z</time></trkpt>
<trkpt lat="13.22598" lon="99.73052"><ele>146</ele><time>2018-06-16T08:41:06Z</time></trkpt>
<trkpt lat="13.22603" lon="99.73051"><ele>146</ele><time>2018-06-16T08:41:07Z</time></trkpt>
<trkpt lat="13.22607" lon="99.73048"><ele>145</ele><time>2018-06-16T08:41:08Z</time></trkpt>
<trkpt lat="13.22611" lon="99.73045"><ele>145</ele><time>2018-06-16T08:41:09Z</time></trkpt>
<trkpt lat="13.22615" lon="99.73042"><ele>145</ele><time>2018-06-16T08:41:10Z</time></trkpt>
<trkpt lat="13.22619" lon="99.73039"><ele>145</ele><time>2018-06-16T08:41:11Z</time></trkpt>
<trkpt lat="13.22622" lon="99.73036"><ele>146</ele><time>2018-06-16T08:41:12Z</time></trkpt>
<trkpt lat="13.22626" lon="99.73032"><ele>146</ele><time>2018-06-16T08:41:13Z</time></trkpt>
<trkpt lat="13.22631" lon="99.73026"><ele>145</ele><time>2018-06-16T08:41:15Z</time></trkpt>
<trkpt lat="13.22637" lon="99.73020"><ele>145</ele><time>2018-06-16T08:41:17Z</time></trkpt>
<trkpt lat="13.22640" lon="99.73015"><ele>145</ele><time>2018-06-16T08:41:19Z</time></trkpt>
<trkpt lat="13.22642" lon="99.73011"><ele>146</ele><time>2018-06-16T08:41:22Z</time></trkpt>
<trkpt lat="13.22644" lon="99.73006"><ele>147</ele><time>2018-06-16T08:42:03Z</time></trkpt>
<trkpt lat="13.22646" lon="99.72999"><ele>147</ele><time>2018-06-16T08:42:06Z</time></trkpt>
<trkpt lat="13.22647" lon="99.72994"><ele>147</ele><time>2018-06-16T08:42:08Z</time></trkpt>
<trkpt lat="13.22647" lon="99.72988"><ele>147</ele><time>2018-06-16T08:42:10Z</time></trkpt>
<trkpt lat="13.22645" lon="99.72981"><ele>147</ele><time>2018-06-16T08:42:12Z</time></trkpt>
<trkpt lat="13.22644" lon="99.72974"><ele>147</ele><time>2018-06-16T08:42:14Z</time></trkpt>
<trkpt lat="13.22643" lon="99.72967"><ele>146</ele><time>2018-06-16T08:42:16Z</time></trkpt>
<trkpt lat="13.22644" lon="99.72960"><ele>146</ele><time>2018-06-16T08:42:18Z</time></trkpt>
<trkpt lat="13.22645" lon="99.72951"><ele>146</ele><time>2018-06-16T08:42:20Z</time></trkpt>
<trkpt lat="13.22645" lon="99.72946"><ele>146</ele><time>2018-06-16T08:42:21Z</time></trkpt>
<trkpt lat="13.22646" lon="99.72941"><ele>146</ele><time>2018-06-16T08:42:22Z</time></trkpt>
<trkpt lat="13.22647" lon="99.72937"><ele>146</ele><time>2018-06-16T08:42:23Z</time></trkpt>
<trkpt lat="13.22649" lon="99.72929"><ele>146</ele><time>2018-06-16T08:42:25Z</time></trkpt>
<trkpt lat="13.22652" lon="99.72923"><ele>145</ele><time>2018-06-16T08:42:27Z</time></trkpt>
<trkpt lat="13.22654" lon="99.72919"><ele>145</ele><time>2018-06-16T08:42:29Z</time></trkpt>
<trkpt lat="13.22657" lon="99.72915"><ele>145</ele><time>2018-06-16T08:42:32Z</time></trkpt>
<trkpt lat="13.22660" lon="99.72910"><ele>145</ele><time>2018-06-16T08:42:47Z</time></trkpt>
<trkpt lat="13.22664" lon="99.72906"><ele>145</ele><time>2018-06-16T08:42:49Z</time></trkpt>
<trkpt lat="13.22670" lon="99.72900"><ele>144</ele><time>2018-06-16T08:42:51Z</time></trkpt>
<trkpt lat="13.22674" lon="99.72897"><ele>144</ele><time>2018-06-16T08:42:52Z</time></trkpt>
<trkpt lat="13.22678" lon="99.72893"><ele>144</ele><time>2018-06-16T08:42:53Z</time></trkpt>
<trkpt lat="13.22682" lon="99.72890"><ele>144</ele><time>2018-06-16T08:42:54Z</time></trkpt>
<trkpt lat="13.22687" lon="99.72886"><ele>144</ele><time>2018-06-16T08:42:55Z</time></trkpt>
<trkpt lat="13.22691" lon="99.72883"><ele>144</ele><time>2018-06-16T08:42:56Z</time></trkpt>
<trkpt lat="13.22696" lon="99.72879"><ele>144</ele><time>2018-06-16T08:42:57Z</time></trkpt>
<trkpt lat="13.22700" lon="99.72876"><ele>144</ele><time>2018-06-16T08:42:58Z</time></trkpt>
<trkpt lat="13.22704" lon="99.72872"><ele>144</ele><time>2018-06-16T08:42:59Z</time></trkpt>
<trkpt lat="13.22709" lon="99.72869"><ele>144</ele><time>2018-06-16T08:43:00Z</time></trkpt>
<trkpt lat="13.22713" lon="99.72866"><ele>143</ele><time>2018-06-16T08:43:01Z</time></trkpt>
<trkpt lat="13.22717" lon="99.72862"><ele>144</ele><time>2018-06-16T08:43:02Z</time></trkpt>
<trkpt lat="13.22721" lon="99.72858"><ele>144</ele><time>2018-06-16T08:43:03Z</time></trkpt>
<trkpt lat="13.22725" lon="99.72854"><ele>144</ele><time>2018-06-16T08:43:04Z</time></trkpt>
<trkpt lat="13.22729" lon="99.72849"><ele>144</ele><time>2018-06-16T08:43:05Z</time></trkpt>
<trkpt lat="13.22733" lon="99.72845"><ele>143</ele><time>2018-06-16T08:43:06Z</time></trkpt>
<trkpt lat="13.22737" lon="99.72840"><ele>142</ele><time>2018-06-16T08:43:07Z</time></trkpt>
<trkpt lat="13.22741" lon="99.72836"><ele>143</ele><time>2018-06-16T08:43:08Z</time></trkpt>
<trkpt lat="13.22746" lon="99.72832"><ele>143</ele><time>2018-06-16T08:43:10Z</time></trkpt>
<trkpt lat="13.22751" lon="99.72837"><ele>142</ele><time>2018-06-16T08:43:13Z</time></trkpt>
<trkpt lat="13.22755" lon="99.72843"><ele>142</ele><time>2018-06-16T08:43:15Z</time></trkpt>
<trkpt lat="13.22759" lon="99.72848"><ele>142</ele><time>2018-06-16T08:43:17Z</time></trkpt>
<trkpt lat="13.22764" lon="99.72855"><ele>142</ele><time>2018-06-16T08:43:19Z</time></trkpt>
<trkpt lat="13.22767" lon="99.72858"><ele>141</ele><time>2018-06-16T08:43:20Z</time></trkpt>
<trkpt lat="13.22770" lon="99.72862"><ele>141</ele><time>2018-06-16T08:43:21Z</time></trkpt>
<trkpt lat="13.22773" lon="99.72866"><ele>141</ele><time>2018-06-16T08:43:22Z</time></trkpt>
<trkpt lat="13.22776" lon="99.72869"><ele>142</ele><time>2018-06-16T08:43:23Z</time></trkpt>
<trkpt lat="13.22779" lon="99.72873"><ele>141</ele><time>2018-06-16T08:43:24Z</time></trkpt>
<trkpt lat="13.22786" lon="99.72879"><ele>141</ele><time>2018-06-16T08:43:26Z</time></trkpt>
<trkpt lat="13.22789" lon="99.72883"><ele>142</ele><time>2018-06-16T08:43:27Z</time></trkpt>
<trkpt lat="13.22792" lon="99.72886"><ele>142</ele><time>2018-06-16T08:43:28Z</time></trkpt>
<trkpt lat="13.22796" lon="99.72891"><ele>142</ele><time>2018-06-16T08:43:29Z</time></trkpt>
<trkpt lat="13.22799" lon="99.72895"><ele>142</ele><time>2018-06-16T08:43:30Z</time></trkpt>
<trkpt lat="13.22802" lon="99.72899"><ele>142</ele><time>2018-06-16T08:43:31Z</time></trkpt>
<trkpt lat="13.22805" lon="99.72903"><ele>142</ele><time>2018-06-16T08:43:32Z</time></trkpt>
<trkpt lat="13.22809" lon="99.72911"><ele>142</ele><time>2018-06-16T08:43:34Z</time></trkpt>
<trkpt lat="13.22814" lon="99.72918"><ele>142</ele><time>2018-06-16T08:43:36Z</time></trkpt>
<trkpt lat="13.22818" lon="99.72925"><ele>142</ele><time>2018-06-16T08:43:38Z</time></trkpt>
<trkpt lat="13.22822" lon="99.72932"><ele>142</ele><time>2018-06-16T08:43:40Z</time></trkpt>
<trkpt lat="13.22824" lon="99.72938"><ele>142</ele><time>2018-06-16T08:43:42Z</time></trkpt>
<trkpt lat="13.22826" lon="99.72946"><ele>142</ele><time>2018-06-16T08:43:44Z</time></trkpt>
<trkpt lat="13.22829" lon="99.72953"><ele>143</ele><time>2018-06-16T08:43:46Z</time></trkpt>
<trkpt lat="13.22833" lon="99.72960"><ele>142</ele><time>2018-06-16T08:43:48Z</time></trkpt>
<trkpt lat="13.22837" lon="99.72967"><ele>143</ele><time>2018-06-16T08:43:50Z</time></trkpt>
<trkpt lat="13.22840" lon="99.72972"><ele>143</ele><time>2018-06-16T08:43:52Z</time></trkpt>
<trkpt lat="13.22844" lon="99.72977"><ele>142</ele><time>2018-06-16T08:43:54Z</time></trkpt>
<trkpt lat="13.22847" lon="99.72981"><ele>142</ele><time>2018-06-16T08:43:56Z</time></trkpt>
<trkpt lat="13.22850" lon="99.72985"><ele>143</ele><time>2018-06-16T08:43:58Z</time></trkpt>
<trkpt lat="13.22854" lon="99.72990"><ele>143</ele><time>2018-06-16T08:44:00Z</time></trkpt>
<trkpt lat="13.22858" lon="99.72996"><ele>143</ele><time>2018-06-16T08:44:02Z</time></trkpt>
<trkpt lat="13.22862" lon="99.73001"><ele>143</ele><time>2018-06-16T08:44:04Z</time></trkpt>
<trkpt lat="13.22865" lon="99.73006"><ele>143</ele><time>2018-06-16T08:44:07Z</time></trkpt>
<trkpt lat="13.22868" lon="99.73011"><ele>143</ele><time>2018-06-16T08:44:09Z</time></trkpt>
<trkpt lat="13.22871" lon="99.73016"><ele>143</ele><time>2018-06-16T08:44:11Z</time></trkpt>
<trkpt lat="13.22874" lon="99.73020"><ele>143</ele><time>2018-06-16T08:44:13Z</time></trkpt>
<trkpt lat="13.22881" lon="99.73021"><ele>144</ele><time>2018-06-16T08:44:16Z</time></trkpt>
<trkpt lat="13.22886" lon="99.73020"><ele>143</ele><time>2018-06-16T08:44:17Z</time></trkpt>
<trkpt lat="13.22892" lon="99.73019"><ele>144</ele><time>2018-06-16T08:44:18Z</time></trkpt>
<trkpt lat="13.22898" lon="99.73019"><ele>144</ele><time>2018-06-16T08:44:19Z</time></trkpt>
<trkpt lat="13.22904" lon="99.73018"><ele>144</ele><time>2018-06-16T08:44:20Z</time></trkpt>
<trkpt lat="13.22910" lon="99.73018"><ele>144</ele><time>2018-06-16T08:44:21Z</time></trkpt>
<trkpt lat="13.22916" lon="99.73018"><ele>144</ele><time>2018-06-16T08:44:22Z</time></trkpt>
<trkpt lat="13.22923" lon="99.73017"><ele>143</ele><time>2018-06-16T08:44:23Z</time></trkpt>
<trkpt lat="13.22929" lon="99.73017"><ele>143</ele><time>2018-06-16T08:44:24Z</time></trkpt>
<trkpt lat="13.22935" lon="99.73016"><ele>143</ele><time>2018-06-16T08:44:25Z</time></trkpt>
<trkpt lat="13.22941" lon="99.73016"><ele>143</ele><time>2018-06-16T08:44:26Z</time></trkpt>
<trkpt lat="13.22947" lon="99.73016"><ele>143</ele><time>2018-06-16T08:44:27Z</time></trkpt>
<trkpt lat="13.22954" lon="99.73015"><ele>143</ele><time>2018-06-16T08:44:28Z</time></trkpt>
<trkpt lat="13.22960" lon="99.73015"><ele>142</ele><time>2018-06-16T08:44:29Z</time></trkpt>
<trkpt lat="13.22966" lon="99.73015"><ele>142</ele><time>2018-06-16T08:44:30Z</time></trkpt>
<trkpt lat="13.22976" lon="99.73014"><ele>142</ele><time>2018-06-16T08:44:31Z</time></trkpt>
<trkpt lat="13.22983" lon="99.73014"><ele>141</ele><time>2018-06-16T08:44:32Z</time></trkpt>
<trkpt lat="13.22989" lon="99.73013"><ele>141</ele><time>2018-06-16T08:44:33Z</time></trkpt>
<trkpt lat="13.22995" lon="99.73013"><ele>141</ele><time>2018-06-16T08:44:34Z</time></trkpt>
<trkpt lat="13.23001" lon="99.73013"><ele>141</ele><time>2018-06-16T08:44:35Z</time></trkpt>
<trkpt lat="13.23007" lon="99.73013"><ele>141</ele><time>2018-06-16T08:44:36Z</time></trkpt>
<trkpt lat="13.23013" lon="99.73013"><ele>141</ele><time>2018-06-16T08:44:37Z</time></trkpt>
<trkpt lat="13.23019" lon="99.73014"><ele>141</ele><time>2018-06-16T08:44:38Z</time></trkpt>
<trkpt lat="13.23025" lon="99.73014"><ele>140</ele><time>2018-06-16T08:44:39Z</time></trkpt>
<trkpt lat="13.23031" lon="99.73014"><ele>140</ele><time>2018-06-16T08:44:40Z</time></trkpt>
<trkpt lat="13.23037" lon="99.73013"><ele>140</ele><time>2018-06-16T08:44:41Z</time></trkpt>
<trkpt lat="13.23043" lon="99.73013"><ele>140</ele><time>2018-06-16T08:44:42Z</time></trkpt>
<trkpt lat="13.23049" lon="99.73013"><ele>140</ele><time>2018-06-16T08:44:43Z</time></trkpt>
<trkpt lat="13.23056" lon="99.73012"><ele>139</ele><time>2018-06-16T08:44:44Z</time></trkpt>
<trkpt lat="13.23062" lon="99.73012"><ele>139</ele><time>2018-06-16T08:44:45Z</time></trkpt>
<trkpt lat="13.23068" lon="99.73011"><ele>140</ele><time>2018-06-16T08:44:46Z</time></trkpt>
<trkpt lat="13.23074" lon="99.73011"><ele>140</ele><time>2018-06-16T08:44:47Z</time></trkpt>
<trkpt lat="13.23078" lon="99.73010"><ele>139</ele><time>2018-06-16T08:44:48Z</time></trkpt>
<trkpt lat="13.23084" lon="99.73008"><ele>139</ele><time>2018-06-16T08:44:50Z</time></trkpt>
<trkpt lat="13.23086" lon="99.73002"><ele>138</ele><time>2018-06-16T08:44:54Z</time></trkpt>
<trkpt lat="13.23086" lon="99.72995"><ele>138</ele><time>2018-06-16T08:44:57Z</time></trkpt>
<trkpt lat="13.23087" lon="99.72989"><ele>138</ele><time>2018-06-16T08:44:59Z</time></trkpt>
<trkpt lat="13.23088" lon="99.72982"><ele>137</ele><time>2018-06-16T08:45:01Z</time></trkpt>
<trkpt lat="13.23089" lon="99.72975"><ele>137</ele><time>2018-06-16T08:45:03Z</time></trkpt>
<trkpt lat="13.23090" lon="99.72969"><ele>137</ele><time>2018-06-16T08:45:05Z</time></trkpt>
<trkpt lat="13.23091" lon="99.72962"><ele>137</ele><time>2018-06-16T08:45:07Z</time></trkpt>
<trkpt lat="13.23093" lon="99.72955"><ele>137</ele><time>2018-06-16T08:45:09Z</time></trkpt>
<trkpt lat="13.23095" lon="99.72948"><ele>137</ele><time>2018-06-16T08:45:11Z</time></trkpt>
<trkpt lat="13.23099" lon="99.72943"><ele>136</ele><time>2018-06-16T08:45:13Z</time></trkpt>
<trkpt lat="13.23105" lon="99.72940"><ele>136</ele><time>2018-06-16T08:45:15Z</time></trkpt>
<trkpt lat="13.23111" lon="99.72938"><ele>136</ele><time>2018-06-16T08:45:17Z</time></trkpt>
<trkpt lat="13.23117" lon="99.72936"><ele>136</ele><time>2018-06-16T08:45:19Z</time></trkpt>
<trkpt lat="13.23122" lon="99.72935"><ele>136</ele><time>2018-06-16T08:45:21Z</time></trkpt>
<trkpt lat="13.23127" lon="99.72933"><ele>136</ele><time>2018-06-16T08:45:23Z</time></trkpt>
<trkpt lat="13.23131" lon="99.72932"><ele>136</ele><time>2018-06-16T08:45:25Z</time></trkpt>
<trkpt lat="13.23136" lon="99.72930"><ele>136</ele><time>2018-06-16T08:45:27Z</time></trkpt>
<trkpt lat="13.23140" lon="99.72929"><ele>136</ele><time>2018-06-16T08:45:29Z</time></trkpt>
<trkpt lat="13.23144" lon="99.72928"><ele>136</ele><time>2018-06-16T08:45:31Z</time></trkpt>
<trkpt lat="13.23149" lon="99.72926"><ele>136</ele><time>2018-06-16T08:45:34Z</time></trkpt>
<trkpt lat="13.23153" lon="99.72923"><ele>136</ele><time>2018-06-16T08:45:37Z</time></trkpt>
<trkpt lat="13.23156" lon="99.72920"><ele>135</ele><time>2018-06-16T08:45:49Z</time></trkpt>
<trkpt lat="13.23162" lon="99.72919"><ele>135</ele><time>2018-06-16T08:46:03Z</time></trkpt>
<trkpt lat="13.23167" lon="99.72917"><ele>134</ele><time>2018-06-16T08:46:08Z</time></trkpt>
<trkpt lat="13.23172" lon="99.72915"><ele>134</ele><time>2018-06-16T08:46:12Z</time></trkpt>
<trkpt lat="13.23178" lon="99.72913"><ele>135</ele><time>2018-06-16T08:46:16Z</time></trkpt>
<trkpt lat="13.23183" lon="99.72912"><ele>134</ele><time>2018-06-16T08:46:19Z</time></trkpt>
<trkpt lat="13.23188" lon="99.72910"><ele>134</ele><time>2018-06-16T08:46:22Z</time></trkpt>
<trkpt lat="13.23192" lon="99.72907"><ele>134</ele><time>2018-06-16T08:46:25Z</time></trkpt>
<trkpt lat="13.23197" lon="99.72904"><ele>134</ele><time>2018-06-16T08:46:28Z</time></trkpt>
<trkpt lat="13.23201" lon="99.72903"><ele>134</ele><time>2018-06-16T08:46:34Z</time></trkpt>
<trkpt lat="13.23207" lon="99.72902"><ele>134</ele><time>2018-06-16T08:46:38Z</time></trkpt>
<trkpt lat="13.23212" lon="99.72900"><ele>134</ele><time>2018-06-16T08:46:41Z</time></trkpt>
<trkpt lat="13.23218" lon="99.72898"><ele>134</ele><time>2018-06-16T08:46:44Z</time></trkpt>
<trkpt lat="13.23224" lon="99.72896"><ele>134</ele><time>2018-06-16T08:46:47Z</time></trkpt>
<trkpt lat="13.23231" lon="99.72894"><ele>134</ele><time>2018-06-16T08:46:50Z</time></trkpt>
<trkpt lat="13.23236" lon="99.72895"><ele>134</ele><time>2018-06-16T08:46:52Z</time></trkpt>
<trkpt lat="13.23241" lon="99.72897"><ele>133</ele><time>2018-06-16T08:46:54Z</time></trkpt>
<trkpt lat="13.23246" lon="99.72902"><ele>133</ele><time>2018-06-16T08:46:56Z</time></trkpt>
<trkpt lat="13.23251" lon="99.72908"><ele>133</ele><time>2018-06-16T08:46:58Z</time></trkpt>
<trkpt lat="13.23256" lon="99.72914"><ele>134</ele><time>2018-06-16T08:47:00Z</time></trkpt>
<trkpt lat="13.23262" lon="99.72919"><ele>134</ele><time>2018-06-16T08:47:02Z</time></trkpt>
<trkpt lat="13.23268" lon="99.72922"><ele>134</ele><time>2018-06-16T08:47:04Z</time></trkpt>
<trkpt lat="13.23276" lon="99.72924"><ele>134</ele><time>2018-06-16T08:47:06Z</time></trkpt>
<trkpt lat="13.23285" lon="99.72924"><ele>134</ele><time>2018-06-16T08:47:08Z</time></trkpt>
<trkpt lat="13.23289" lon="99.72924"><ele>134</ele><time>2018-06-16T08:47:09Z</time></trkpt>
<trkpt lat="13.23294" lon="99.72923"><ele>134</ele><time>2018-06-16T08:47:10Z</time></trkpt>
<trkpt lat="13.23298" lon="99.72923"><ele>135</ele><time>2018-06-16T08:47:11Z</time></trkpt>
<trkpt lat="13.23303" lon="99.72923"><ele>135</ele><time>2018-06-16T08:47:12Z</time></trkpt>
<trkpt lat="13.23308" lon="99.72923"><ele>134</ele><time>2018-06-16T08:47:13Z</time></trkpt>
<trkpt lat="13.23313" lon="99.72923"><ele>135</ele><time>2018-06-16T08:47:14Z</time></trkpt>
<trkpt lat="13.23317" lon="99.72923"><ele>134</ele><time>2018-06-16T08:47:15Z</time></trkpt>
<trkpt lat="13.23322" lon="99.72922"><ele>134</ele><time>2018-06-16T08:47:16Z</time></trkpt>
<trkpt lat="13.23327" lon="99.72922"><ele>134</ele><time>2018-06-16T08:47:17Z</time></trkpt>
<trkpt lat="13.23332" lon="99.72922"><ele>134</ele><time>2018-06-16T08:47:18Z</time></trkpt>
<trkpt lat="13.23336" lon="99.72922"><ele>134</ele><time>2018-06-16T08:47:19Z</time></trkpt>
<trkpt lat="13.23341" lon="99.72922"><ele>134</ele><time>2018-06-16T08:47:20Z</time></trkpt>
<trkpt lat="13.23346" lon="99.72922"><ele>135</ele><time>2018-06-16T08:47:21Z</time></trkpt>
<trkpt lat="13.23353" lon="99.72922"><ele>135</ele><time>2018-06-16T08:47:22Z</time></trkpt>
<trkpt lat="13.23358" lon="99.72922"><ele>135</ele><time>2018-06-16T08:47:23Z</time></trkpt>
<trkpt lat="13.23367" lon="99.72922"><ele>135</ele><time>2018-06-16T08:47:25Z</time></trkpt>
<trkpt lat="13.23376" lon="99.72922"><ele>135</ele><time>2018-06-16T08:47:27Z</time></trkpt>
<trkpt lat="13.23380" lon="99.72922"><ele>135</ele><time>2018-06-16T08:47:28Z</time></trkpt>
<trkpt lat="13.23389" lon="99.72922"><ele>135</ele><time>2018-06-16T08:47:30Z</time></trkpt>
<trkpt lat="13.23397" lon="99.72922"><ele>135</ele><time>2018-06-16T08:47:32Z</time></trkpt>
<trkpt lat="13.23404" lon="99.72922"><ele>135</ele><time>2018-06-16T08:47:34Z</time></trkpt>
<trkpt lat="13.23412" lon="99.72922"><ele>136</ele><time>2018-06-16T08:47:36Z</time></trkpt>
<trkpt lat="13.23420" lon="99.72922"><ele>136</ele><time>2018-06-16T08:47:38Z</time></trkpt>
<trkpt lat="13.23428" lon="99.72922"><ele>136</ele><time>2018-06-16T08:47:40Z</time></trkpt>
<trkpt lat="13.23436" lon="99.72923"><ele>136</ele><time>2018-06-16T08:47:42Z</time></trkpt>
<trkpt lat="13.23444" lon="99.72922"><ele>136</ele><time>2018-06-16T08:47:44Z</time></trkpt>
<trkpt lat="13.23452" lon="99.72922"><ele>136</ele><time>2018-06-16T08:47:46Z</time></trkpt>
<trkpt lat="13.23460" lon="99.72922"><ele>136</ele><time>2018-06-16T08:47:48Z</time></trkpt>
<trkpt lat="13.23466" lon="99.72919"><ele>137</ele><time>2018-06-16T08:47:50Z</time></trkpt>
<trkpt lat="13.23469" lon="99.72913"><ele>137</ele><time>2018-06-16T08:47:52Z</time></trkpt>
<trkpt lat="13.23471" lon="99.72906"><ele>137</ele><time>2018-06-16T08:47:54Z</time></trkpt>
<trkpt lat="13.23473" lon="99.72899"><ele>137</ele><time>2018-06-16T08:47:56Z</time></trkpt>
<trkpt lat="13.23475" lon="99.72891"><ele>138</ele><time>2018-06-16T08:47:58Z</time></trkpt>
<trkpt lat="13.23476" lon="99.72883"><ele>138</ele><time>2018-06-16T08:48:00Z</time></trkpt>
<trkpt lat="13.23477" lon="99.72876"><ele>138</ele><time>2018-06-16T08:48:02Z</time></trkpt>
<trkpt lat="13.23478" lon="99.72868"><ele>138</ele><time>2018-06-16T08:48:04Z</time></trkpt>
<trkpt lat="13.23479" lon="99.72862"><ele>138</ele><time>2018-06-16T08:48:06Z</time></trkpt>
<trkpt lat="13.23480" lon="99.72855"><ele>139</ele><time>2018-06-16T08:48:08Z</time></trkpt>
<trkpt lat="13.23481" lon="99.72848"><ele>139</ele><time>2018-06-16T08:48:10Z</time></trkpt>
<trkpt lat="13.23482" lon="99.72841"><ele>139</ele><time>2018-06-16T08:48:12Z</time></trkpt>
<trkpt lat="13.23483" lon="99.72834"><ele>139</ele><time>2018-06-16T08:48:14Z</time></trkpt>
<trkpt lat="13.23483" lon="99.72826"><ele>139</ele><time>2018-06-16T08:48:16Z</time></trkpt>
<trkpt lat="13.23484" lon="99.72818"><ele>139</ele><time>2018-06-16T08:48:18Z</time></trkpt>
<trkpt lat="13.23484" lon="99.72811"><ele>139</ele><time>2018-06-16T08:48:20Z</time></trkpt>
<trkpt lat="13.23484" lon="99.72804"><ele>139</ele><time>2018-06-16T08:48:22Z</time></trkpt>
<trkpt lat="13.23484" lon="99.72797"><ele>139</ele><time>2018-06-16T08:48:24Z</time></trkpt>
<trkpt lat="13.23483" lon="99.72789"><ele>139</ele><time>2018-06-16T08:48:26Z</time></trkpt>
<trkpt lat="13.23482" lon="99.72782"><ele>139</ele><time>2018-06-16T08:48:28Z</time></trkpt>
<trkpt lat="13.23481" lon="99.72774"><ele>139</ele><time>2018-06-16T08:48:30Z</time></trkpt>
<trkpt lat="13.23480" lon="99.72765"><ele>139</ele><time>2018-06-16T08:48:32Z</time></trkpt>
<trkpt lat="13.23479" lon="99.72757"><ele>139</ele><time>2018-06-16T08:48:34Z</time></trkpt>
<trkpt lat="13.23478" lon="99.72752"><ele>139</ele><time>2018-06-16T08:48:35Z</time></trkpt>
<trkpt lat="13.23478" lon="99.72747"><ele>138</ele><time>2018-06-16T08:48:36Z</time></trkpt>
<trkpt lat="13.23477" lon="99.72742"><ele>138</ele><time>2018-06-16T08:48:37Z</time></trkpt>
<trkpt lat="13.23475" lon="99.72735"><ele>138</ele><time>2018-06-16T08:48:38Z</time></trkpt>
<trkpt lat="13.23474" lon="99.72730"><ele>138</ele><time>2018-06-16T08:48:39Z</time></trkpt>
<trkpt lat="13.23473" lon="99.72725"><ele>138</ele><time>2018-06-16T08:48:40Z</time></trkpt>
<trkpt lat="13.23471" lon="99.72720"><ele>138</ele><time>2018-06-16T08:48:41Z</time></trkpt>
<trkpt lat="13.23468" lon="99.72716"><ele>138</ele><time>2018-06-16T08:48:42Z</time></trkpt>
<trkpt lat="13.23465" lon="99.72711"><ele>138</ele><time>2018-06-16T08:48:43Z</time></trkpt>
<trkpt lat="13.23461" lon="99.72708"><ele>138</ele><time>2018-06-16T08:48:44Z</time></trkpt>
<trkpt lat="13.23457" lon="99.72704"><ele>137</ele><time>2018-06-16T08:48:45Z</time></trkpt>
<trkpt lat="13.23453" lon="99.72701"><ele>137</ele><time>2018-06-16T08:48:46Z</time></trkpt>
<trkpt lat="13.23449" lon="99.72696"><ele>137</ele><time>2018-06-16T08:48:47Z</time></trkpt>
<trkpt lat="13.23444" lon="99.72692"><ele>137</ele><time>2018-06-16T08:48:48Z</time></trkpt>
<trkpt lat="13.23440" lon="99.72689"><ele>137</ele><time>2018-06-16T08:48:49Z</time></trkpt>
<trkpt lat="13.23435" lon="99.72686"><ele>136</ele><time>2018-06-16T08:48:50Z</time></trkpt>
<trkpt lat="13.23431" lon="99.72683"><ele>136</ele><time>2018-06-16T08:48:51Z</time></trkpt>
<trkpt lat="13.23426" lon="99.72680"><ele>136</ele><time>2018-06-16T08:48:52Z</time></trkpt>
<trkpt lat="13.23421" lon="99.72678"><ele>136</ele><time>2018-06-16T08:48:53Z</time></trkpt>
<trkpt lat="13.23415" lon="99.72676"><ele>136</ele><time>2018-06-16T08:48:55Z</time></trkpt>
<trkpt lat="13.23411" lon="99.72674"><ele>136</ele><time>2018-06-16T08:48:56Z</time></trkpt>
<trkpt lat="13.23406" lon="99.72672"><ele>136</ele><time>2018-06-16T08:48:57Z</time></trkpt>
<trkpt lat="13.23402" lon="99.72671"><ele>135</ele><time>2018-06-16T08:48:58Z</time></trkpt>
<trkpt lat="13.23398" lon="99.72669"><ele>135</ele><time>2018-06-16T08:48:59Z</time></trkpt>
<trkpt lat="13.23391" lon="99.72664"><ele>135</ele><time>2018-06-16T08:49:01Z</time></trkpt>
<trkpt lat="13.23390" lon="99.72657"><ele>135</ele><time>2018-06-16T08:49:03Z</time></trkpt>
<trkpt lat="13.23392" lon="99.72651"><ele>135</ele><time>2018-06-16T08:49:05Z</time></trkpt>
<trkpt lat="13.23398" lon="99.72646"><ele>135</ele><time>2018-06-16T08:49:07Z</time></trkpt>
<trkpt lat="13.23401" lon="99.72642"><ele>136</ele><time>2018-06-16T08:49:08Z</time></trkpt>
<trkpt lat="13.23403" lon="99.72638"><ele>135</ele><time>2018-06-16T08:49:09Z</time></trkpt>
<trkpt lat="13.23405" lon="99.72630"><ele>135</ele><time>2018-06-16T08:49:10Z</time></trkpt>
<trkpt lat="13.23407" lon="99.72619"><ele>131</ele><time>2018-06-16T08:49:12Z</time></trkpt>
<trkpt lat="13.23408" lon="99.72613"><ele>126</ele><time>2018-06-16T08:49:13Z</time></trkpt>
<trkpt lat="13.23409" lon="99.72607"><ele>122</ele><time>2018-06-16T08:49:14Z</time></trkpt>
<trkpt lat="13.23411" lon="99.72601"><ele>118</ele><time>2018-06-16T08:49:15Z</time></trkpt>
<trkpt lat="13.23413" lon="99.72595"><ele>113</ele><time>2018-06-16T08:49:16Z</time></trkpt>
<trkpt lat="13.23416" lon="99.72589"><ele>110</ele><time>2018-06-16T08:49:17Z</time></trkpt>
<trkpt lat="13.23419" lon="99.72584"><ele>107</ele><time>2018-06-16T08:49:18Z</time></trkpt>
<trkpt lat="13.23423" lon="99.72575"><ele>105</ele><time>2018-06-16T08:49:19Z</time></trkpt>
<trkpt lat="13.23425" lon="99.72568"><ele>103</ele><time>2018-06-16T08:49:20Z</time></trkpt>
<trkpt lat="13.23426" lon="99.72562"><ele>101</ele><time>2018-06-16T08:49:21Z</time></trkpt>
<trkpt lat="13.23427" lon="99.72555"><ele>100</ele><time>2018-06-16T08:49:22Z</time></trkpt>
<trkpt lat="13.23427" lon="99.72549"><ele>98</ele><time>2018-06-16T08:49:23Z</time></trkpt>
<trkpt lat="13.23427" lon="99.72543"><ele>97</ele><time>2018-06-16T08:49:24Z</time></trkpt>
<trkpt lat="13.23425" lon="99.72537"><ele>97</ele><time>2018-06-16T08:49:25Z</time></trkpt>
<trkpt lat="13.23424" lon="99.72532"><ele>96</ele><time>2018-06-16T08:49:26Z</time></trkpt>
<trkpt lat="13.23422" lon="99.72526"><ele>95</ele><time>2018-06-16T08:49:27Z</time></trkpt>
<trkpt lat="13.23421" lon="99.72521"><ele>95</ele><time>2018-06-16T08:49:28Z</time></trkpt>
<trkpt lat="13.23420" lon="99.72517"><ele>95</ele><time>2018-06-16T08:49:29Z</time></trkpt>
<trkpt lat="13.23417" lon="99.72509"><ele>95</ele><time>2018-06-16T08:49:31Z</time></trkpt>
<trkpt lat="13.23416" lon="99.72503"><ele>94</ele><time>2018-06-16T08:49:33Z</time></trkpt>
<trkpt lat="13.23416" lon="99.72499"><ele>94</ele><time>2018-06-16T08:49:35Z</time></trkpt>
<trkpt lat="13.23417" lon="99.72493"><ele>94</ele><time>2018-06-16T08:49:38Z</time></trkpt>
<trkpt lat="13.23422" lon="99.72492"><ele>93</ele><time>2018-06-16T08:49:41Z</time></trkpt>
<trkpt lat="13.23429" lon="99.72491"><ele>94</ele><time>2018-06-16T08:49:44Z</time></trkpt>
<trkpt lat="13.23434" lon="99.72491"><ele>94</ele><time>2018-06-16T08:49:46Z</time></trkpt>
<trkpt lat="13.23440" lon="99.72490"><ele>94</ele><time>2018-06-16T08:49:48Z</time></trkpt>
<trkpt lat="13.23446" lon="99.72489"><ele>95</ele><time>2018-06-16T08:49:50Z</time></trkpt>
<trkpt lat="13.23451" lon="99.72488"><ele>95</ele><time>2018-06-16T08:49:51Z</time></trkpt>
<trkpt lat="13.23458" lon="99.72489"><ele>95</ele><time>2018-06-16T08:49:53Z</time></trkpt>
<trkpt lat="13.23465" lon="99.72489"><ele>95</ele><time>2018-06-16T08:49:55Z</time></trkpt>
<trkpt lat="13.23472" lon="99.72490"><ele>94</ele><time>2018-06-16T08:49:57Z</time></trkpt>
<trkpt lat="13.23479" lon="99.72491"><ele>94</ele><time>2018-06-16T08:49:59Z</time></trkpt>
<trkpt lat="13.23486" lon="99.72491"><ele>95</ele><time>2018-06-16T08:50:01Z</time></trkpt>
<trkpt lat="13.23493" lon="99.72491"><ele>95</ele><time>2018-06-16T08:50:03Z</time></trkpt>
<trkpt lat="13.23499" lon="99.72492"><ele>95</ele><time>2018-06-16T08:50:05Z</time></trkpt>
<trkpt lat="13.23505" lon="99.72492"><ele>95</ele><time>2018-06-16T08:50:07Z</time></trkpt>
<trkpt lat="13.23511" lon="99.72492"><ele>95</ele><time>2018-06-16T08:50:08Z</time></trkpt>
<trkpt lat="13.23517" lon="99.72491"><ele>95</ele><time>2018-06-16T08:50:10Z</time></trkpt>
<trkpt lat="13.23522" lon="99.72490"><ele>95</ele><time>2018-06-16T08:50:12Z</time></trkpt>
<trkpt lat="13.23526" lon="99.72487"><ele>95</ele><time>2018-06-16T08:50:14Z</time></trkpt>
<trkpt lat="13.23530" lon="99.72484"><ele>96</ele><time>2018-06-16T08:50:17Z</time></trkpt>
<trkpt lat="13.23534" lon="99.72480"><ele>96</ele><time>2018-06-16T08:50:22Z</time></trkpt>
<trkpt lat="13.23536" lon="99.72476"><ele>97</ele><time>2018-06-16T08:50:31Z</time></trkpt>
<trkpt lat="13.23539" lon="99.72470"><ele>97</ele><time>2018-06-16T08:50:34Z</time></trkpt>
<trkpt lat="13.23541" lon="99.72466"><ele>97</ele><time>2018-06-16T08:50:36Z</time></trkpt>
<trkpt lat="13.23543" lon="99.72459"><ele>96</ele><time>2018-06-16T08:50:39Z</time></trkpt>
<trkpt lat="13.23546" lon="99.72453"><ele>96</ele><time>2018-06-16T08:50:42Z</time></trkpt>
<trkpt lat="13.23549" lon="99.72448"><ele>96</ele><time>2018-06-16T08:50:44Z</time></trkpt>
<trkpt lat="13.23552" lon="99.72443"><ele>96</ele><time>2018-06-16T08:50:46Z</time></trkpt>
<trkpt lat="13.23557" lon="99.72438"><ele>96</ele><time>2018-06-16T08:50:48Z</time></trkpt>
<trkpt lat="13.23561" lon="99.72433"><ele>96</ele><time>2018-06-16T08:50:50Z</time></trkpt>
<trkpt lat="13.23566" lon="99.72429"><ele>96</ele><time>2018-06-16T08:50:52Z</time></trkpt>
<trkpt lat="13.23570" lon="99.72424"><ele>96</ele><time>2018-06-16T08:50:54Z</time></trkpt>
<trkpt lat="13.23574" lon="99.72420"><ele>97</ele><time>2018-06-16T08:50:56Z</time></trkpt>
<trkpt lat="13.23579" lon="99.72415"><ele>97</ele><time>2018-06-16T08:50:58Z</time></trkpt>
<trkpt lat="13.23584" lon="99.72411"><ele>97</ele><time>2018-06-16T08:51:00Z</time></trkpt>
<trkpt lat="13.23588" lon="99.72408"><ele>97</ele><time>2018-06-16T08:51:02Z</time></trkpt>
<trkpt lat="13.23592" lon="99.72404"><ele>98</ele><time>2018-06-16T08:51:04Z</time></trkpt>
<trkpt lat="13.23596" lon="99.72401"><ele>98</ele><time>2018-06-16T08:51:06Z</time></trkpt>
<trkpt lat="13.23600" lon="99.72397"><ele>98</ele><time>2018-06-16T08:51:08Z</time></trkpt>
<trkpt lat="13.23602" lon="99.72393"><ele>98</ele><time>2018-06-16T08:51:10Z</time></trkpt>
<trkpt lat="13.23606" lon="99.72388"><ele>99</ele><time>2018-06-16T08:51:13Z</time></trkpt>
<trkpt lat="13.23611" lon="99.72384"><ele>99</ele><time>2018-06-16T08:51:16Z</time></trkpt>
<trkpt lat="13.23617" lon="99.72380"><ele>99</ele><time>2018-06-16T08:51:19Z</time></trkpt>
<trkpt lat="13.23622" lon="99.72379"><ele>99</ele><time>2018-06-16T08:51:21Z</time></trkpt>
<trkpt lat="13.23627" lon="99.72376"><ele>100</ele><time>2018-06-16T08:51:24Z</time></trkpt>
<trkpt lat="13.23632" lon="99.72374"><ele>100</ele><time>2018-06-16T08:51:26Z</time></trkpt>
<trkpt lat="13.23638" lon="99.72373"><ele>101</ele><time>2018-06-16T08:51:28Z</time></trkpt>
<trkpt lat="13.23646" lon="99.72371"><ele>101</ele><time>2018-06-16T08:51:30Z</time></trkpt>
<trkpt lat="13.23653" lon="99.72369"><ele>101</ele><time>2018-06-16T08:51:32Z</time></trkpt>
<trkpt lat="13.23659" lon="99.72368"><ele>101</ele><time>2018-06-16T08:51:34Z</time></trkpt>
<trkpt lat="13.23665" lon="99.72366"><ele>101</ele><time>2018-06-16T08:51:36Z</time></trkpt>
<trkpt lat="13.23670" lon="99.72364"><ele>101</ele><time>2018-06-16T08:51:38Z</time></trkpt>
<trkpt lat="13.23675" lon="99.72362"><ele>101</ele><time>2018-06-16T08:51:40Z</time></trkpt>
<trkpt lat="13.23680" lon="99.72360"><ele>101</ele><time>2018-06-16T08:51:42Z</time></trkpt>
<trkpt lat="13.23685" lon="99.72358"><ele>101</ele><time>2018-06-16T08:51:44Z</time></trkpt>
<trkpt lat="13.23690" lon="99.72357"><ele>102</ele><time>2018-06-16T08:51:46Z</time></trkpt>
<trkpt lat="13.23695" lon="99.72355"><ele>102</ele><time>2018-06-16T08:51:48Z</time></trkpt>
<trkpt lat="13.23700" lon="99.72353"><ele>102</ele><time>2018-06-16T08:51:50Z</time></trkpt>
<trkpt lat="13.23704" lon="99.72351"><ele>102</ele><time>2018-06-16T08:51:52Z</time></trkpt>
<trkpt lat="13.23709" lon="99.72349"><ele>103</ele><time>2018-06-16T08:51:54Z</time></trkpt>
<trkpt lat="13.23714" lon="99.72347"><ele>103</ele><time>2018-06-16T08:51:56Z</time></trkpt>
<trkpt lat="13.23720" lon="99.72344"><ele>104</ele><time>2018-06-16T08:51:59Z</time></trkpt>
<trkpt lat="13.23724" lon="99.72343"><ele>104</ele><time>2018-06-16T08:52:01Z</time></trkpt>
<trkpt lat="13.23729" lon="99.72341"><ele>104</ele><time>2018-06-16T08:52:03Z</time></trkpt>
<trkpt lat="13.23733" lon="99.72339"><ele>105</ele><time>2018-06-16T08:52:05Z</time></trkpt>
<trkpt lat="13.23738" lon="99.72337"><ele>105</ele><time>2018-06-16T08:52:07Z</time></trkpt>
<trkpt lat="13.23742" lon="99.72335"><ele>106</ele><time>2018-06-16T08:52:09Z</time></trkpt>
<trkpt lat="13.23747" lon="99.72333"><ele>106</ele><time>2018-06-16T08:52:11Z</time></trkpt>
<trkpt lat="13.23752" lon="99.72332"><ele>106</ele><time>2018-06-16T08:52:13Z</time></trkpt>
<trkpt lat="13.23758" lon="99.72331"><ele>107</ele><time>2018-06-16T08:52:15Z</time></trkpt>
<trkpt lat="13.23763" lon="99.72331"><ele>107</ele><time>2018-06-16T08:52:17Z</time></trkpt>
<trkpt lat="13.23769" lon="99.72330"><ele>107</ele><time>2018-06-16T08:52:19Z</time></trkpt>
<trkpt lat="13.23776" lon="99.72330"><ele>108</ele><time>2018-06-16T08:52:21Z</time></trkpt>
<trkpt lat="13.23781" lon="99.72329"><ele>108</ele><time>2018-06-16T08:52:22Z</time></trkpt>
<trkpt lat="13.23789" lon="99.72328"><ele>108</ele><time>2018-06-16T08:52:24Z</time></trkpt>
<trkpt lat="13.23796" lon="99.72328"><ele>108</ele><time>2018-06-16T08:52:26Z</time></trkpt>
<trkpt lat="13.23802" lon="99.72327"><ele>109</ele><time>2018-06-16T08:52:28Z</time></trkpt>
<trkpt lat="13.23808" lon="99.72326"><ele>109</ele><time>2018-06-16T08:52:30Z</time></trkpt>
<trkpt lat="13.23813" lon="99.72324"><ele>109</ele><time>2018-06-16T08:52:32Z</time></trkpt>
<trkpt lat="13.23819" lon="99.72323"><ele>109</ele><time>2018-06-16T08:52:34Z</time></trkpt>
<trkpt lat="13.23824" lon="99.72322"><ele>110</ele><time>2018-06-16T08:52:36Z</time></trkpt>
<trkpt lat="13.23829" lon="99.72321"><ele>110</ele><time>2018-06-16T08:52:38Z</time></trkpt>
<trkpt lat="13.23834" lon="99.72320"><ele>110</ele><time>2018-06-16T08:52:40Z</time></trkpt>
<trkpt lat="13.23839" lon="99.72318"><ele>111</ele><time>2018-06-16T08:52:43Z</time></trkpt>
<trkpt lat="13.23844" lon="99.72317"><ele>111</ele><time>2018-06-16T08:52:48Z</time></trkpt>
<trkpt lat="13.23847" lon="99.72313"><ele>113</ele><time>2018-06-16T08:54:30Z</time></trkpt>
<trkpt lat="13.23848" lon="99.72307"><ele>113</ele><time>2018-06-16T08:54:33Z</time></trkpt>
<trkpt lat="13.23849" lon="99.72300"><ele>113</ele><time>2018-06-16T08:54:35Z</time></trkpt>
<trkpt lat="13.23848" lon="99.72295"><ele>113</ele><time>2018-06-16T08:54:37Z</time></trkpt>
<trkpt lat="13.23846" lon="99.72291"><ele>113</ele><time>2018-06-16T08:54:40Z</time></trkpt>
<trkpt lat="13.23840" lon="99.72288"><ele>112</ele><time>2018-06-16T08:54:43Z</time></trkpt>
<trkpt lat="13.23835" lon="99.72284"><ele>112</ele><time>2018-06-16T08:54:45Z</time></trkpt>
<trkpt lat="13.23828" lon="99.72280"><ele>112</ele><time>2018-06-16T08:54:47Z</time></trkpt>
<trkpt lat="13.23822" lon="99.72274"><ele>112</ele><time>2018-06-16T08:54:49Z</time></trkpt>
<trkpt lat="13.23818" lon="99.72268"><ele>112</ele><time>2018-06-16T08:54:51Z</time></trkpt>
<trkpt lat="13.23816" lon="99.72261"><ele>112</ele><time>2018-06-16T08:54:53Z</time></trkpt>
<trkpt lat="13.23814" lon="99.72255"><ele>112</ele><time>2018-06-16T08:54:55Z</time></trkpt>
<trkpt lat="13.23813" lon="99.72249"><ele>112</ele><time>2018-06-16T08:54:57Z</time></trkpt>
<trkpt lat="13.23813" lon="99.72242"><ele>111</ele><time>2018-06-16T08:54:59Z</time></trkpt>
<trkpt lat="13.23816" lon="99.72235"><ele>110</ele><time>2018-06-16T08:55:01Z</time></trkpt>
<trkpt lat="13.23820" lon="99.72232"><ele>110</ele><time>2018-06-16T08:55:03Z</time></trkpt>
<trkpt lat="13.23825" lon="99.72230"><ele>110</ele><time>2018-06-16T08:55:05Z</time></trkpt>
<trkpt lat="13.23830" lon="99.72228"><ele>110</ele><time>2018-06-16T08:55:07Z</time></trkpt>
<trkpt lat="13.23835" lon="99.72225"><ele>110</ele><time>2018-06-16T08:55:09Z</time></trkpt>
<trkpt lat="13.23839" lon="99.72220"><ele>110</ele><time>2018-06-16T08:55:11Z</time></trkpt>
<trkpt lat="13.23843" lon="99.72215"><ele>110</ele><time>2018-06-16T08:55:13Z</time></trkpt>
<trkpt lat="13.23847" lon="99.72210"><ele>110</ele><time>2018-06-16T08:55:16Z</time></trkpt>
<trkpt lat="13.23849" lon="99.72206"><ele>110</ele><time>2018-06-16T08:55:18Z</time></trkpt>
<trkpt lat="13.23852" lon="99.72201"><ele>111</ele><time>2018-06-16T08:55:20Z</time></trkpt>
<trkpt lat="13.23856" lon="99.72192"><ele>111</ele><time>2018-06-16T08:55:22Z</time></trkpt>
<trkpt lat="13.23859" lon="99.72185"><ele>111</ele><time>2018-06-16T08:55:24Z</time></trkpt>
<trkpt lat="13.23862" lon="99.72181"><ele>111</ele><time>2018-06-16T08:55:26Z</time></trkpt>
<trkpt lat="13.23865" lon="99.72177"><ele>111</ele><time>2018-06-16T08:55:28Z</time></trkpt>
<trkpt lat="13.23869" lon="99.72174"><ele>112</ele><time>2018-06-16T08:55:30Z</time></trkpt>
<trkpt lat="13.23875" lon="99.72171"><ele>112</ele><time>2018-06-16T08:55:32Z</time></trkpt>
<trkpt lat="13.23881" lon="99.72169"><ele>113</ele><time>2018-06-16T08:55:34Z</time></trkpt>
<trkpt lat="13.23887" lon="99.72166"><ele>112</ele><time>2018-06-16T08:55:36Z</time></trkpt>
<trkpt lat="13.23892" lon="99.72164"><ele>113</ele><time>2018-06-16T08:55:38Z</time></trkpt>
<trkpt lat="13.23897" lon="99.72161"><ele>112</ele><time>2018-06-16T08:55:40Z</time></trkpt>
<trkpt lat="13.23902" lon="99.72157"><ele>112</ele><time>2018-06-16T08:55:42Z</time></trkpt>
<trkpt lat="13.23907" lon="99.72154"><ele>112</ele><time>2018-06-16T08:55:44Z</time></trkpt>
<trkpt lat="13.23911" lon="99.72150"><ele>113</ele><time>2018-06-16T08:55:46Z</time></trkpt>
<trkpt lat="13.23916" lon="99.72147"><ele>113</ele><time>2018-06-16T08:55:48Z</time></trkpt>
<trkpt lat="13.23919" lon="99.72143"><ele>112</ele><time>2018-06-16T08:55:50Z</time></trkpt>
<trkpt lat="13.23924" lon="99.72138"><ele>112</ele><time>2018-06-16T08:55:52Z</time></trkpt>
<trkpt lat="13.23928" lon="99.72134"><ele>113</ele><time>2018-06-16T08:55:54Z</time></trkpt>
<trkpt lat="13.23931" lon="99.72129"><ele>114</ele><time>2018-06-16T08:55:56Z</time></trkpt>
<trkpt lat="13.23934" lon="99.72124"><ele>113</ele><time>2018-06-16T08:55:58Z</time></trkpt>
<trkpt lat="13.23938" lon="99.72120"><ele>112</ele><time>2018-06-16T08:56:01Z</time></trkpt>
<trkpt lat="13.23944" lon="99.72116"><ele>113</ele><time>2018-06-16T08:56:04Z</time></trkpt>
<trkpt lat="13.23949" lon="99.72112"><ele>114</ele><time>2018-06-16T08:56:06Z</time></trkpt>
<trkpt lat="13.23954" lon="99.72110"><ele>115</ele><time>2018-06-16T08:56:09Z</time></trkpt>
<trkpt lat="13.23959" lon="99.72108"><ele>115</ele><time>2018-06-16T08:56:13Z</time></trkpt>
<trkpt lat="13.23964" lon="99.72107"><ele>118</ele><time>2018-06-16T08:56:24Z</time></trkpt>
<trkpt lat="13.23969" lon="99.72105"><ele>117</ele><time>2018-06-16T08:56:27Z</time></trkpt>
<trkpt lat="13.23974" lon="99.72103"><ele>117</ele><time>2018-06-16T08:56:30Z</time></trkpt>
<trkpt lat="13.23979" lon="99.72099"><ele>117</ele><time>2018-06-16T08:56:33Z</time></trkpt>
<trkpt lat="13.23984" lon="99.72096"><ele>118</ele><time>2018-06-16T08:56:36Z</time></trkpt>
<trkpt lat="13.23989" lon="99.72094"><ele>118</ele><time>2018-06-16T08:56:38Z</time></trkpt>
<trkpt lat="13.23995" lon="99.72093"><ele>119</ele><time>2018-06-16T08:56:40Z</time></trkpt>
<trkpt lat="13.24000" lon="99.72090"><ele>119</ele><time>2018-06-16T08:56:42Z</time></trkpt>
<trkpt lat="13.24005" lon="99.72088"><ele>119</ele><time>2018-06-16T08:56:44Z</time></trkpt>
<trkpt lat="13.24009" lon="99.72086"><ele>119</ele><time>2018-06-16T08:56:46Z</time></trkpt>
<trkpt lat="13.24014" lon="99.72084"><ele>120</ele><time>2018-06-16T08:56:48Z</time></trkpt>
<trkpt lat="13.24019" lon="99.72082"><ele>120</ele><time>2018-06-16T08:56:50Z</time></trkpt>
<trkpt lat="13.24024" lon="99.72080"><ele>120</ele><time>2018-06-16T08:56:52Z</time></trkpt>
<trkpt lat="13.24029" lon="99.72078"><ele>121</ele><time>2018-06-16T08:56:54Z</time></trkpt>
<trkpt lat="13.24034" lon="99.72076"><ele>121</ele><time>2018-06-16T08:56:56Z</time></trkpt>
<trkpt lat="13.24038" lon="99.72074"><ele>121</ele><time>2018-06-16T08:56:58Z</time></trkpt>
<trkpt lat="13.24043" lon="99.72070"><ele>121</ele><time>2018-06-16T08:57:01Z</time></trkpt>
<trkpt lat="13.24047" lon="99.72067"><ele>122</ele><time>2018-06-16T08:57:04Z</time></trkpt>
<trkpt lat="13.24050" lon="99.72063"><ele>123</ele><time>2018-06-16T08:57:07Z</time></trkpt>
<trkpt lat="13.24054" lon="99.72059"><ele>123</ele><time>2018-06-16T08:57:10Z</time></trkpt>
<trkpt lat="13.24058" lon="99.72055"><ele>124</ele><time>2018-06-16T08:57:14Z</time></trkpt>
<trkpt lat="13.24061" lon="99.72052"><ele>124</ele><time>2018-06-16T08:57:18Z</time></trkpt>
<trkpt lat="13.24064" lon="99.72048"><ele>125</ele><time>2018-06-16T08:57:28Z</time></trkpt>
<trkpt lat="13.24067" lon="99.72044"><ele>126</ele><time>2018-06-16T08:58:01Z</time></trkpt>
<trkpt lat="13.24069" lon="99.72039"><ele>126</ele><time>2018-06-16T08:58:04Z</time></trkpt>
<trkpt lat="13.24072" lon="99.72034"><ele>126</ele><time>2018-06-16T08:58:06Z</time></trkpt>
<trkpt lat="13.24075" lon="99.72027"><ele>125</ele><time>2018-06-16T08:58:08Z</time></trkpt>
<trkpt lat="13.24079" lon="99.72023"><ele>124</ele><time>2018-06-16T08:58:10Z</time></trkpt>
<trkpt lat="13.24083" lon="99.72019"><ele>125</ele><time>2018-06-16T08:58:12Z</time></trkpt>
<trkpt lat="13.24085" lon="99.72014"><ele>125</ele><time>2018-06-16T08:58:14Z</time></trkpt>
<trkpt lat="13.24088" lon="99.72010"><ele>124</ele><time>2018-06-16T08:58:17Z</time></trkpt>
<trkpt lat="13.24093" lon="99.72008"><ele>125</ele><time>2018-06-16T08:58:21Z</time></trkpt>
<trkpt lat="13.24097" lon="99.72006"><ele>125</ele><time>2018-06-16T08:58:24Z</time></trkpt>
<trkpt lat="13.24103" lon="99.72004"><ele>126</ele><time>2018-06-16T08:58:28Z</time></trkpt>
<trkpt lat="13.24108" lon="99.72002"><ele>125</ele><time>2018-06-16T08:58:32Z</time></trkpt>
<trkpt lat="13.24113" lon="99.72002"><ele>125</ele><time>2018-06-16T08:58:35Z</time></trkpt>
<trkpt lat="13.24118" lon="99.72001"><ele>125</ele><time>2018-06-16T08:58:38Z</time></trkpt>
<trkpt lat="13.24123" lon="99.72000"><ele>125</ele><time>2018-06-16T08:58:41Z</time></trkpt>
<trkpt lat="13.24128" lon="99.71999"><ele>125</ele><time>2018-06-16T08:58:44Z</time></trkpt>
<trkpt lat="13.24133" lon="99.71998"><ele>126</ele><time>2018-06-16T08:58:50Z</time></trkpt>
<trkpt lat="13.24137" lon="99.71997"><ele>126</ele><time>2018-06-16T08:58:58Z</time></trkpt>
<trkpt lat="13.24142" lon="99.71995"><ele>127</ele><time>2018-06-16T08:59:13Z</time></trkpt>
<trkpt lat="13.24147" lon="99.71995"><ele>128</ele><time>2018-06-16T08:59:46Z</time></trkpt>
<trkpt lat="13.24152" lon="99.71995"><ele>129</ele><time>2018-06-16T08:59:52Z</time></trkpt>
<trkpt lat="13.24157" lon="99.71993"><ele>130</ele><time>2018-06-16T08:59:55Z</time></trkpt>
<trkpt lat="13.24160" lon="99.71988"><ele>129</ele><time>2018-06-16T08:59:58Z</time></trkpt>
<trkpt lat="13.24162" lon="99.71984"><ele>129</ele><time>2018-06-16T09:00:01Z</time></trkpt>
<trkpt lat="13.24165" lon="99.71980"><ele>129</ele><time>2018-06-16T09:00:05Z</time></trkpt>
<trkpt lat="13.24169" lon="99.71976"><ele>129</ele><time>2018-06-16T09:00:09Z</time></trkpt>
<trkpt lat="13.24173" lon="99.71972"><ele>129</ele><time>2018-06-16T09:00:12Z</time></trkpt>
<trkpt lat="13.24176" lon="99.71968"><ele>129</ele><time>2018-06-16T09:00:15Z</time></trkpt>
<trkpt lat="13.24178" lon="99.71964"><ele>129</ele><time>2018-06-16T09:00:18Z</time></trkpt>
<trkpt lat="13.24180" lon="99.71959"><ele>130</ele><time>2018-06-16T09:00:22Z</time></trkpt>
<trkpt lat="13.24182" lon="99.71954"><ele>130</ele><time>2018-06-16T09:00:26Z</time></trkpt>
<trkpt lat="13.24184" lon="99.71949"><ele>132</ele><time>2018-06-16T09:00:31Z</time></trkpt>
<trkpt lat="13.24186" lon="99.71944"><ele>132</ele><time>2018-06-16T09:00:35Z</time></trkpt>
<trkpt lat="13.24189" lon="99.71939"><ele>132</ele><time>2018-06-16T09:00:39Z</time></trkpt>
<trkpt lat="13.24190" lon="99.71934"><ele>132</ele><time>2018-06-16T09:00:44Z</time></trkpt>
<trkpt lat="13.24191" lon="99.71929"><ele>133</ele><time>2018-06-16T09:00:50Z</time></trkpt>
<trkpt lat="13.24194" lon="99.71924"><ele>134</ele><time>2018-06-16T09:00:55Z</time></trkpt>
<trkpt lat="13.24198" lon="99.71920"><ele>133</ele><time>2018-06-16T09:00:58Z</time></trkpt>
<trkpt lat="13.24202" lon="99.71918"><ele>134</ele><time>2018-06-16T09:01:03Z</time></trkpt>
<trkpt lat="13.24206" lon="99.71916"><ele>134</ele><time>2018-06-16T09:02:05Z</time></trkpt>
<trkpt lat="13.24209" lon="99.71911"><ele>134</ele><time>2018-06-16T09:02:08Z</time></trkpt>
<trkpt lat="13.24210" lon="99.71905"><ele>134</ele><time>2018-06-16T09:02:11Z</time></trkpt>
<trkpt lat="13.24213" lon="99.71900"><ele>134</ele><time>2018-06-16T09:02:13Z</time></trkpt>
<trkpt lat="13.24214" lon="99.71894"><ele>134</ele><time>2018-06-16T09:02:15Z</time></trkpt>
<trkpt lat="13.24213" lon="99.71889"><ele>134</ele><time>2018-06-16T09:02:17Z</time></trkpt>
<trkpt lat="13.24213" lon="99.71884"><ele>134</ele><time>2018-06-16T09:02:19Z</time></trkpt>
<trkpt lat="13.24213" lon="99.71878"><ele>133</ele><time>2018-06-16T09:02:21Z</time></trkpt>
<trkpt lat="13.24213" lon="99.71873"><ele>134</ele><time>2018-06-16T09:02:23Z</time></trkpt>
<trkpt lat="13.24213" lon="99.71868"><ele>134</ele><time>2018-06-16T09:02:25Z</time></trkpt>
<trkpt lat="13.24213" lon="99.71863"><ele>133</ele><time>2018-06-16T09:02:30Z</time></trkpt>
<trkpt lat="13.24212" lon="99.71859"><ele>132</ele><time>2018-06-16T09:03:44Z</time></trkpt>
<trkpt lat="13.24211" lon="99.71854"><ele>132</ele><time>2018-06-16T09:04:19Z</time></trkpt>
<trkpt lat="13.24208" lon="99.71850"><ele>132</ele><time>2018-06-16T09:04:26Z</time></trkpt>
<trkpt lat="13.24206" lon="99.71846"><ele>132</ele><time>2018-06-16T09:04:30Z</time></trkpt>
<trkpt lat="13.24204" lon="99.71841"><ele>132</ele><time>2018-06-16T09:04:33Z</time></trkpt>
<trkpt lat="13.24202" lon="99.71836"><ele>132</ele><time>2018-06-16T09:04:36Z</time></trkpt>
<trkpt lat="13.24200" lon="99.71830"><ele>131</ele><time>2018-06-16T09:04:39Z</time></trkpt>
<trkpt lat="13.24200" lon="99.71824"><ele>132</ele><time>2018-06-16T09:04:42Z</time></trkpt>
<trkpt lat="13.24199" lon="99.71817"><ele>132</ele><time>2018-06-16T09:04:45Z</time></trkpt>
<trkpt lat="13.24196" lon="99.71813"><ele>132</ele><time>2018-06-16T09:04:47Z</time></trkpt>
<trkpt lat="13.24193" lon="99.71808"><ele>132</ele><time>2018-06-16T09:04:50Z</time></trkpt>
<trkpt lat="13.24188" lon="99.71803"><ele>132</ele><time>2018-06-16T09:04:53Z</time></trkpt>
<trkpt lat="13.24185" lon="99.71799"><ele>131</ele><time>2018-06-16T09:04:56Z</time></trkpt>
<trkpt lat="13.24183" lon="99.71794"><ele>131</ele><time>2018-06-16T09:04:59Z</time></trkpt>
<trkpt lat="13.24181" lon="99.71788"><ele>131</ele><time>2018-06-16T09:05:02Z</time></trkpt>
<trkpt lat="13.24180" lon="99.71782"><ele>131</ele><time>2018-06-16T09:05:05Z</time></trkpt>
<trkpt lat="13.24179" lon="99.71776"><ele>131</ele><time>2018-06-16T09:05:08Z</time></trkpt>
<trkpt lat="13.24178" lon="99.71770"><ele>131</ele><time>2018-06-16T09:05:11Z</time></trkpt>
<trkpt lat="13.24177" lon="99.71765"><ele>131</ele><time>2018-06-16T09:05:14Z</time></trkpt>
<trkpt lat="13.24175" lon="99.71759"><ele>131</ele><time>2018-06-16T09:05:17Z</time></trkpt>
<trkpt lat="13.24174" lon="99.71754"><ele>132</ele><time>2018-06-16T09:05:19Z</time></trkpt>
<trkpt lat="13.24172" lon="99.71749"><ele>132</ele><time>2018-06-16T09:05:22Z</time></trkpt>
<trkpt lat="13.24169" lon="99.71745"><ele>133</ele><time>2018-06-16T09:05:29Z</time></trkpt>
<trkpt lat="13.24166" lon="99.71741"><ele>133</ele><time>2018-06-16T09:06:39Z</time></trkpt>
<trkpt lat="13.24165" lon="99.71736"><ele>132</ele><time>2018-06-16T09:07:39Z</time></trkpt>
<trkpt lat="13.24163" lon="99.71732"><ele>133</ele><time>2018-06-16T09:11:37Z</time></trkpt>
<trkpt lat="13.24162" lon="99.71727"><ele>132</ele><time>2018-06-16T09:11:40Z</time></trkpt>
<trkpt lat="13.24161" lon="99.71722"><ele>132</ele><time>2018-06-16T09:11:42Z</time></trkpt>
<trkpt lat="13.24161" lon="99.71715"><ele>131</ele><time>2018-06-16T09:11:44Z</time></trkpt>
<trkpt lat="13.24163" lon="99.71709"><ele>129</ele><time>2018-06-16T09:11:46Z</time></trkpt>
<trkpt lat="13.24166" lon="99.71702"><ele>129</ele><time>2018-06-16T09:11:48Z</time></trkpt>
<trkpt lat="13.24171" lon="99.71694"><ele>128</ele><time>2018-06-16T09:11:50Z</time></trkpt>
<trkpt lat="13.24174" lon="99.71689"><ele>127</ele><time>2018-06-16T09:11:51Z</time></trkpt>
<trkpt lat="13.24177" lon="99.71684"><ele>128</ele><time>2018-06-16T09:11:52Z</time></trkpt>
<trkpt lat="13.24179" lon="99.71679"><ele>128</ele><time>2018-06-16T09:11:53Z</time></trkpt>
<trkpt lat="13.24181" lon="99.71673"><ele>127</ele><time>2018-06-16T09:11:54Z</time></trkpt>
<trkpt lat="13.24183" lon="99.71667"><ele>127</ele><time>2018-06-16T09:11:55Z</time></trkpt>
<trkpt lat="13.24184" lon="99.71662"><ele>126</ele><time>2018-06-16T09:11:56Z</time></trkpt>
<trkpt lat="13.24186" lon="99.71656"><ele>126</ele><time>2018-06-16T09:11:57Z</time></trkpt>
<trkpt lat="13.24187" lon="99.71649"><ele>126</ele><time>2018-06-16T09:11:58Z</time></trkpt>
<trkpt lat="13.24187" lon="99.71643"><ele>126</ele><time>2018-06-16T09:11:59Z</time></trkpt>
<trkpt lat="13.24186" lon="99.71637"><ele>125</ele><time>2018-06-16T09:12:00Z</time></trkpt>
<trkpt lat="13.24184" lon="99.71631"><ele>125</ele><time>2018-06-16T09:12:01Z</time></trkpt>
<trkpt lat="13.24182" lon="99.71625"><ele>124</ele><time>2018-06-16T09:12:02Z</time></trkpt>
<trkpt lat="13.24179" lon="99.71618"><ele>124</ele><time>2018-06-16T09:12:03Z</time></trkpt>
<trkpt lat="13.24176" lon="99.71612"><ele>125</ele><time>2018-06-16T09:12:04Z</time></trkpt>
<trkpt lat="13.24174" lon="99.71606"><ele>125</ele><time>2018-06-16T09:12:05Z</time></trkpt>
<trkpt lat="13.24172" lon="99.71600"><ele>125</ele><time>2018-06-16T09:12:06Z</time></trkpt>
<trkpt lat="13.24170" lon="99.71595"><ele>125</ele><time>2018-06-16T09:12:07Z</time></trkpt>
<trkpt lat="13.24168" lon="99.71591"><ele>124</ele><time>2018-06-16T09:12:08Z</time></trkpt>
<trkpt lat="13.24165" lon="99.71583"><ele>123</ele><time>2018-06-16T09:12:10Z</time></trkpt>
<trkpt lat="13.24163" lon="99.71576"><ele>124</ele><time>2018-06-16T09:12:12Z</time></trkpt>
<trkpt lat="13.24162" lon="99.71568"><ele>123</ele><time>2018-06-16T09:12:14Z</time></trkpt>
<trkpt lat="13.24159" lon="99.71558"><ele>122</ele><time>2018-06-16T09:12:16Z</time></trkpt>
<trkpt lat="13.24158" lon="99.71552"><ele>121</ele><time>2018-06-16T09:12:17Z</time></trkpt>
<trkpt lat="13.24155" lon="99.71544"><ele>121</ele><time>2018-06-16T09:12:18Z</time></trkpt>
<trkpt lat="13.24153" lon="99.71538"><ele>121</ele><time>2018-06-16T09:12:19Z</time></trkpt>
<trkpt lat="13.24149" lon="99.71533"><ele>121</ele><time>2018-06-16T09:12:20Z</time></trkpt>
<trkpt lat="13.24146" lon="99.71526"><ele>120</ele><time>2018-06-16T09:12:21Z</time></trkpt>
<trkpt lat="13.24142" lon="99.71520"><ele>120</ele><time>2018-06-16T09:12:22Z</time></trkpt>
<trkpt lat="13.24139" lon="99.71514"><ele>121</ele><time>2018-06-16T09:12:23Z</time></trkpt>
<trkpt lat="13.24137" lon="99.71508"><ele>120</ele><time>2018-06-16T09:12:24Z</time></trkpt>
<trkpt lat="13.24136" lon="99.71503"><ele>119</ele><time>2018-06-16T09:12:25Z</time></trkpt>
<trkpt lat="13.24136" lon="99.71498"><ele>118</ele><time>2018-06-16T09:12:26Z</time></trkpt>
<trkpt lat="13.24136" lon="99.71494"><ele>118</ele><time>2018-06-16T09:12:27Z</time></trkpt>
<trkpt lat="13.24134" lon="99.71485"><ele>118</ele><time>2018-06-16T09:12:29Z</time></trkpt>
<trkpt lat="13.24131" lon="99.71481"><ele>118</ele><time>2018-06-16T09:12:30Z</time></trkpt>
<trkpt lat="13.24128" lon="99.71477"><ele>117</ele><time>2018-06-16T09:12:31Z</time></trkpt>
<trkpt lat="13.24124" lon="99.71474"><ele>117</ele><time>2018-06-16T09:12:32Z</time></trkpt>
<trkpt lat="13.24118" lon="99.71470"><ele>116</ele><time>2018-06-16T09:12:34Z</time></trkpt>
<trkpt lat="13.24114" lon="99.71467"><ele>116</ele><time>2018-06-16T09:12:37Z</time></trkpt>
<trkpt lat="13.24109" lon="99.71465"><ele>116</ele><time>2018-06-16T09:12:43Z</time></trkpt>
<trkpt lat="13.24105" lon="99.71462"><ele>114</ele><time>2018-06-16T09:12:58Z</time></trkpt>
<trkpt lat="13.24100" lon="99.71458"><ele>114</ele><time>2018-06-16T09:13:02Z</time></trkpt>
<trkpt lat="13.24097" lon="99.71455"><ele>114</ele><time>2018-06-16T09:13:05Z</time></trkpt>
<trkpt lat="13.24094" lon="99.71451"><ele>112</ele><time>2018-06-16T09:13:28Z</time></trkpt>
<trkpt lat="13.24091" lon="99.71448"><ele>112</ele><time>2018-06-16T09:14:28Z</time></trkpt>
<trkpt lat="13.24088" lon="99.71444"><ele>112</ele><time>2018-06-16T09:14:31Z</time></trkpt>
<trkpt lat="13.24083" lon="99.71441"><ele>112</ele><time>2018-06-16T09:14:33Z</time></trkpt>
<trkpt lat="13.24078" lon="99.71436"><ele>112</ele><time>2018-06-16T09:14:35Z</time></trkpt>
<trkpt lat="13.24075" lon="99.71429"><ele>113</ele><time>2018-06-16T09:14:37Z</time></trkpt>
<trkpt lat="13.24071" lon="99.71423"><ele>112</ele><time>2018-06-16T09:14:39Z</time></trkpt>
<trkpt lat="13.24069" lon="99.71416"><ele>112</ele><time>2018-06-16T09:14:41Z</time></trkpt>
<trkpt lat="13.24068" lon="99.71409"><ele>112</ele><time>2018-06-16T09:14:43Z</time></trkpt>
<trkpt lat="13.24066" lon="99.71402"><ele>111</ele><time>2018-06-16T09:14:45Z</time></trkpt>
<trkpt lat="13.24065" lon="99.71397"><ele>111</ele><time>2018-06-16T09:14:46Z</time></trkpt>
<trkpt lat="13.24064" lon="99.71388"><ele>112</ele><time>2018-06-16T09:14:48Z</time></trkpt>
<trkpt lat="13.24064" lon="99.71379"><ele>111</ele><time>2018-06-16T09:14:50Z</time></trkpt>
<trkpt lat="13.24065" lon="99.71372"><ele>110</ele><time>2018-06-16T09:14:51Z</time></trkpt>
<trkpt lat="13.24066" lon="99.71367"><ele>109</ele><time>2018-06-16T09:14:52Z</time></trkpt>
<trkpt lat="13.24068" lon="99.71362"><ele>110</ele><time>2018-06-16T09:14:53Z</time></trkpt>
<trkpt lat="13.24070" lon="99.71357"><ele>110</ele><time>2018-06-16T09:14:54Z</time></trkpt>
<trkpt lat="13.24071" lon="99.71352"><ele>109</ele><time>2018-06-16T09:14:55Z</time></trkpt>
<trkpt lat="13.24071" lon="99.71347"><ele>109</ele><time>2018-06-16T09:14:56Z</time></trkpt>
<trkpt lat="13.24071" lon="99.71342"><ele>109</ele><time>2018-06-16T09:14:57Z</time></trkpt>
<trkpt lat="13.24072" lon="99.71336"><ele>109</ele><time>2018-06-16T09:14:58Z</time></trkpt>
<trkpt lat="13.24071" lon="99.71331"><ele>109</ele><time>2018-06-16T09:14:59Z</time></trkpt>
<trkpt lat="13.24072" lon="99.71325"><ele>108</ele><time>2018-06-16T09:15:00Z</time></trkpt>
<trkpt lat="13.24074" lon="99.71320"><ele>107</ele><time>2018-06-16T09:15:01Z</time></trkpt>
<trkpt lat="13.24076" lon="99.71314"><ele>108</ele><time>2018-06-16T09:15:02Z</time></trkpt>
<trkpt lat="13.24079" lon="99.71310"><ele>107</ele><time>2018-06-16T09:15:03Z</time></trkpt>
<trkpt lat="13.24084" lon="99.71307"><ele>106</ele><time>2018-06-16T09:15:04Z</time></trkpt>
<trkpt lat="13.24090" lon="99.71304"><ele>107</ele><time>2018-06-16T09:15:05Z</time></trkpt>
<trkpt lat="13.24096" lon="99.71301"><ele>107</ele><time>2018-06-16T09:15:06Z</time></trkpt>
<trkpt lat="13.24103" lon="99.71298"><ele>107</ele><time>2018-06-16T09:15:07Z</time></trkpt>
<trkpt lat="13.24108" lon="99.71296"><ele>107</ele><time>2018-06-16T09:15:08Z</time></trkpt>
<trkpt lat="13.24115" lon="99.71294"><ele>108</ele><time>2018-06-16T09:15:09Z</time></trkpt>
<trkpt lat="13.24123" lon="99.71292"><ele>109</ele><time>2018-06-16T09:15:10Z</time></trkpt>
<trkpt lat="13.24130" lon="99.71289"><ele>111</ele><time>2018-06-16T09:15:11Z</time></trkpt>
<trkpt lat="13.24135" lon="99.71288"><ele>112</ele><time>2018-06-16T09:15:12Z</time></trkpt>
<trkpt lat="13.24144" lon="99.71285"><ele>113</ele><time>2018-06-16T09:15:13Z</time></trkpt>
<trkpt lat="13.24151" lon="99.71283"><ele>114</ele><time>2018-06-16T09:15:14Z</time></trkpt>
<trkpt lat="13.24157" lon="99.71281"><ele>115</ele><time>2018-06-16T09:15:15Z</time></trkpt>
<trkpt lat="13.24163" lon="99.71279"><ele>115</ele><time>2018-06-16T09:15:16Z</time></trkpt>
<trkpt lat="13.24168" lon="99.71278"><ele>115</ele><time>2018-06-16T09:15:17Z</time></trkpt>
<trkpt lat="13.24173" lon="99.71278"><ele>116</ele><time>2018-06-16T09:15:18Z</time></trkpt>
<trkpt lat="13.24180" lon="99.71276"><ele>117</ele><time>2018-06-16T09:15:20Z</time></trkpt>
<trkpt lat="13.24186" lon="99.71275"><ele>117</ele><time>2018-06-16T09:15:22Z</time></trkpt>
<trkpt lat="13.24190" lon="99.71274"><ele>119</ele><time>2018-06-16T09:15:24Z</time></trkpt>
<trkpt lat="13.24194" lon="99.71272"><ele>120</ele><time>2018-06-16T09:15:26Z</time></trkpt>
<trkpt lat="13.24200" lon="99.71271"><ele>121</ele><time>2018-06-16T09:15:29Z</time></trkpt>
<trkpt lat="13.24205" lon="99.71269"><ele>122</ele><time>2018-06-16T09:15:32Z</time></trkpt>
<trkpt lat="13.24210" lon="99.71267"><ele>122</ele><time>2018-06-16T09:15:35Z</time></trkpt>
<trkpt lat="13.24216" lon="99.71266"><ele>122</ele><time>2018-06-16T09:15:38Z</time></trkpt>
<trkpt lat="13.24221" lon="99.71265"><ele>124</ele><time>2018-06-16T09:15:41Z</time></trkpt>
<trkpt lat="13.24227" lon="99.71264"><ele>124</ele><time>2018-06-16T09:15:44Z</time></trkpt>
<trkpt lat="13.24232" lon="99.71263"><ele>124</ele><time>2018-06-16T09:15:46Z</time></trkpt>
<trkpt lat="13.24237" lon="99.71263"><ele>125</ele><time>2018-06-16T09:15:48Z</time></trkpt>
<trkpt lat="13.24243" lon="99.71263"><ele>125</ele><time>2018-06-16T09:15:50Z</time></trkpt>
<trkpt lat="13.24250" lon="99.71262"><ele>126</ele><time>2018-06-16T09:15:52Z</time></trkpt>
<trkpt lat="13.24255" lon="99.71262"><ele>126</ele><time>2018-06-16T09:15:54Z</time></trkpt>
<trkpt lat="13.24261" lon="99.71262"><ele>127</ele><time>2018-06-16T09:15:57Z</time></trkpt>
<trkpt lat="13.24267" lon="99.71261"><ele>128</ele><time>2018-06-16T09:16:00Z</time></trkpt>
<trkpt lat="13.24272" lon="99.71262"><ele>127</ele><time>2018-06-16T09:16:03Z</time></trkpt>
<trkpt lat="13.24277" lon="99.71261"><ele>127</ele><time>2018-06-16T09:16:06Z</time></trkpt>
<trkpt lat="13.24283" lon="99.71262"><ele>128</ele><time>2018-06-16T09:16:09Z</time></trkpt>
<trkpt lat="13.24288" lon="99.71263"><ele>128</ele><time>2018-06-16T09:16:12Z</time></trkpt>
<trkpt lat="13.24293" lon="99.71263"><ele>128</ele><time>2018-06-16T09:16:15Z</time></trkpt>
<trkpt lat="13.24298" lon="99.71263"><ele>129</ele><time>2018-06-16T09:16:18Z</time></trkpt>
<trkpt lat="13.24304" lon="99.71263"><ele>130</ele><time>2018-06-16T09:16:44Z</time></trkpt>
<trkpt lat="13.24310" lon="99.71264"><ele>129</ele><time>2018-06-16T09:16:48Z</time></trkpt>
<trkpt lat="13.24315" lon="99.71264"><ele>130</ele><time>2018-06-16T09:16:51Z</time></trkpt>
<trkpt lat="13.24321" lon="99.71263"><ele>129</ele><time>2018-06-16T09:16:54Z</time></trkpt>
<trkpt lat="13.24327" lon="99.71263"><ele>129</ele><time>2018-06-16T09:16:56Z</time></trkpt>
<trkpt lat="13.24333" lon="99.71263"><ele>129</ele><time>2018-06-16T09:16:58Z</time></trkpt>
<trkpt lat="13.24338" lon="99.71263"><ele>129</ele><time>2018-06-16T09:16:59Z</time></trkpt>
<trkpt lat="13.24346" lon="99.71263"><ele>130</ele><time>2018-06-16T09:17:01Z</time></trkpt>
<trkpt lat="13.24355" lon="99.71264"><ele>130</ele><time>2018-06-16T09:17:03Z</time></trkpt>
<trkpt lat="13.24362" lon="99.71264"><ele>129</ele><time>2018-06-16T09:17:05Z</time></trkpt>
<trkpt lat="13.24367" lon="99.71264"><ele>130</ele><time>2018-06-16T09:17:07Z</time></trkpt>
<trkpt lat="13.24373" lon="99.71263"><ele>130</ele><time>2018-06-16T09:17:09Z</time></trkpt>
<trkpt lat="13.24377" lon="99.71262"><ele>130</ele><time>2018-06-16T09:17:11Z</time></trkpt>
<trkpt lat="13.24384" lon="99.71260"><ele>130</ele><time>2018-06-16T09:17:14Z</time></trkpt>
<trkpt lat="13.24390" lon="99.71258"><ele>130</ele><time>2018-06-16T09:17:16Z</time></trkpt>
<trkpt lat="13.24395" lon="99.71256"><ele>130</ele><time>2018-06-16T09:17:18Z</time></trkpt>
<trkpt lat="13.24399" lon="99.71253"><ele>131</ele><time>2018-06-16T09:17:20Z</time></trkpt>
<trkpt lat="13.24403" lon="99.71250"><ele>131</ele><time>2018-06-16T09:17:22Z</time></trkpt>
<trkpt lat="13.24408" lon="99.71247"><ele>131</ele><time>2018-06-16T09:17:24Z</time></trkpt>
<trkpt lat="13.24412" lon="99.71245"><ele>131</ele><time>2018-06-16T09:17:26Z</time></trkpt>
<trkpt lat="13.24417" lon="99.71242"><ele>131</ele><time>2018-06-16T09:17:28Z</time></trkpt>
<trkpt lat="13.24421" lon="99.71240"><ele>132</ele><time>2018-06-16T09:17:30Z</time></trkpt>
<trkpt lat="13.24425" lon="99.71237"><ele>132</ele><time>2018-06-16T09:17:32Z</time></trkpt>
<trkpt lat="13.24430" lon="99.71234"><ele>133</ele><time>2018-06-16T09:17:35Z</time></trkpt>
<trkpt lat="13.24435" lon="99.71231"><ele>133</ele><time>2018-06-16T09:17:38Z</time></trkpt>
<trkpt lat="13.24441" lon="99.71230"><ele>134</ele><time>2018-06-16T09:17:41Z</time></trkpt>
<trkpt lat="13.24446" lon="99.71230"><ele>134</ele><time>2018-06-16T09:17:45Z</time></trkpt>
<trkpt lat="13.24450" lon="99.71233"><ele>135</ele><time>2018-06-16T09:17:48Z</time></trkpt>
<trkpt lat="13.24455" lon="99.71236"><ele>134</ele><time>2018-06-16T09:17:51Z</time></trkpt>
<trkpt lat="13.24461" lon="99.71238"><ele>135</ele><time>2018-06-16T09:17:54Z</time></trkpt>
<trkpt lat="13.24466" lon="99.71241"><ele>135</ele><time>2018-06-16T09:17:57Z</time></trkpt>
<trkpt lat="13.24471" lon="99.71243"><ele>135</ele><time>2018-06-16T09:18:00Z</time></trkpt>
<trkpt lat="13.24477" lon="99.71245"><ele>136</ele><time>2018-06-16T09:18:03Z</time></trkpt>
<trkpt lat="13.24483" lon="99.71247"><ele>135</ele><time>2018-06-16T09:18:05Z</time></trkpt>
<trkpt lat="13.24489" lon="99.71249"><ele>136</ele><time>2018-06-16T09:18:07Z</time></trkpt>
<trkpt lat="13.24495" lon="99.71250"><ele>136</ele><time>2018-06-16T09:18:09Z</time></trkpt>
<trkpt lat="13.24501" lon="99.71251"><ele>136</ele><time>2018-06-16T09:18:11Z</time></trkpt>
<trkpt lat="13.24507" lon="99.71252"><ele>136</ele><time>2018-06-16T09:18:13Z</time></trkpt>
<trkpt lat="13.24512" lon="99.71253"><ele>136</ele><time>2018-06-16T09:18:15Z</time></trkpt>
<trkpt lat="13.24518" lon="99.71253"><ele>138</ele><time>2018-06-16T09:18:17Z</time></trkpt>
<trkpt lat="13.24524" lon="99.71253"><ele>138</ele><time>2018-06-16T09:18:19Z</time></trkpt>
<trkpt lat="13.24531" lon="99.71252"><ele>138</ele><time>2018-06-16T09:18:23Z</time></trkpt>
<trkpt lat="13.24532" lon="99.71248"><ele>139</ele><time>2018-06-16T09:19:17Z</time></trkpt>
<trkpt lat="13.24532" lon="99.71241"><ele>140</ele><time>2018-06-16T09:19:20Z</time></trkpt>
<trkpt lat="13.24532" lon="99.71230"><ele>138</ele><time>2018-06-16T09:19:22Z</time></trkpt>
<trkpt lat="13.24532" lon="99.71223"><ele>138</ele><time>2018-06-16T09:19:23Z</time></trkpt>
<trkpt lat="13.24533" lon="99.71214"><ele>136</ele><time>2018-06-16T09:19:24Z</time></trkpt>
<trkpt lat="13.24533" lon="99.71201"><ele>134</ele><time>2018-06-16T09:19:26Z</time></trkpt>
<trkpt lat="13.24533" lon="99.71192"><ele>132</ele><time>2018-06-16T09:19:27Z</time></trkpt>
<trkpt lat="13.24533" lon="99.71182"><ele>130</ele><time>2018-06-16T09:19:28Z</time></trkpt>
<trkpt lat="13.24533" lon="99.71173"><ele>129</ele><time>2018-06-16T09:19:29Z</time></trkpt>
<trkpt lat="13.24535" lon="99.71160"><ele>127</ele><time>2018-06-16T09:19:30Z</time></trkpt>
<trkpt lat="13.24536" lon="99.71151"><ele>125</ele><time>2018-06-16T09:19:31Z</time></trkpt>
<trkpt lat="13.24538" lon="99.71144"><ele>124</ele><time>2018-06-16T09:19:32Z</time></trkpt>
<trkpt lat="13.24541" lon="99.71137"><ele>123</ele><time>2018-06-16T09:19:33Z</time></trkpt>
<trkpt lat="13.24544" lon="99.71130"><ele>122</ele><time>2018-06-16T09:19:34Z</time></trkpt>
<trkpt lat="13.24547" lon="99.71123"><ele>121</ele><time>2018-06-16T09:19:35Z</time></trkpt>
<trkpt lat="13.24549" lon="99.71116"><ele>121</ele><time>2018-06-16T09:19:36Z</time></trkpt>
<trkpt lat="13.24551" lon="99.71106"><ele>120</ele><time>2018-06-16T09:19:38Z</time></trkpt>
<trkpt lat="13.24552" lon="99.71100"><ele>120</ele><time>2018-06-16T09:19:39Z</time></trkpt>
<trkpt lat="13.24552" lon="99.71094"><ele>120</ele><time>2018-06-16T09:19:40Z</time></trkpt>
<trkpt lat="13.24553" lon="99.71088"><ele>120</ele><time>2018-06-16T09:19:41Z</time></trkpt>
<trkpt lat="13.24554" lon="99.71082"><ele>120</ele><time>2018-06-16T09:19:42Z</time></trkpt>
<trkpt lat="13.24557" lon="99.71074"><ele>120</ele><time>2018-06-16T09:19:43Z</time></trkpt>
<trkpt lat="13.24559" lon="99.71068"><ele>121</ele><time>2018-06-16T09:19:44Z</time></trkpt>
<trkpt lat="13.24562" lon="99.71064"><ele>120</ele><time>2018-06-16T09:19:45Z</time></trkpt>
<trkpt lat="13.24564" lon="99.71059"><ele>120</ele><time>2018-06-16T09:19:46Z</time></trkpt>
<trkpt lat="13.24567" lon="99.71054"><ele>120</ele><time>2018-06-16T09:19:47Z</time></trkpt>
<trkpt lat="13.24569" lon="99.71050"><ele>121</ele><time>2018-06-16T09:19:48Z</time></trkpt>
<trkpt lat="13.24571" lon="99.71045"><ele>121</ele><time>2018-06-16T09:19:49Z</time></trkpt>
<trkpt lat="13.24572" lon="99.71040"><ele>121</ele><time>2018-06-16T09:19:50Z</time></trkpt>
<trkpt lat="13.24574" lon="99.71035"><ele>120</ele><time>2018-06-16T09:19:51Z</time></trkpt>
<trkpt lat="13.24575" lon="99.71030"><ele>120</ele><time>2018-06-16T09:19:52Z</time></trkpt>
<trkpt lat="13.24577" lon="99.71025"><ele>120</ele><time>2018-06-16T09:19:53Z</time></trkpt>
<trkpt lat="13.24579" lon="99.71019"><ele>120</ele><time>2018-06-16T09:19:54Z</time></trkpt>
<trkpt lat="13.24581" lon="99.71014"><ele>120</ele><time>2018-06-16T09:19:55Z</time></trkpt>
<trkpt lat="13.24583" lon="99.71009"><ele>120</ele><time>2018-06-16T09:19:56Z</time></trkpt>
<trkpt lat="13.24586" lon="99.71003"><ele>120</ele><time>2018-06-16T09:19:57Z</time></trkpt>
<trkpt lat="13.24588" lon="99.70998"><ele>120</ele><time>2018-06-16T09:19:58Z</time></trkpt>
<trkpt lat="13.24589" lon="99.70993"><ele>120</ele><time>2018-06-16T09:19:59Z</time></trkpt>
<trkpt lat="13.24591" lon="99.70988"><ele>119</ele><time>2018-06-16T09:20:00Z</time></trkpt>
<trkpt lat="13.24592" lon="99.70983"><ele>119</ele><time>2018-06-16T09:20:01Z</time></trkpt>
<trkpt lat="13.24593" lon="99.70979"><ele>119</ele><time>2018-06-16T09:20:02Z</time></trkpt>
<trkpt lat="13.24594" lon="99.70974"><ele>119</ele><time>2018-06-16T09:20:03Z</time></trkpt>
<trkpt lat="13.24595" lon="99.70969"><ele>119</ele><time>2018-06-16T09:20:04Z</time></trkpt>
<trkpt lat="13.24595" lon="99.70963"><ele>118</ele><time>2018-06-16T09:20:05Z</time></trkpt>
<trkpt lat="13.24595" lon="99.70958"><ele>117</ele><time>2018-06-16T09:20:06Z</time></trkpt>
<trkpt lat="13.24595" lon="99.70953"><ele>117</ele><time>2018-06-16T09:20:07Z</time></trkpt>
<trkpt lat="13.24594" lon="99.70948"><ele>117</ele><time>2018-06-16T09:20:08Z</time></trkpt>
<trkpt lat="13.24593" lon="99.70942"><ele>117</ele><time>2018-06-16T09:20:09Z</time></trkpt>
<trkpt lat="13.24590" lon="99.70937"><ele>117</ele><time>2018-06-16T09:20:10Z</time></trkpt>
<trkpt lat="13.24587" lon="99.70930"><ele>116</ele><time>2018-06-16T09:20:11Z</time></trkpt>
<trkpt lat="13.24584" lon="99.70925"><ele>116</ele><time>2018-06-16T09:20:12Z</time></trkpt>
<trkpt lat="13.24580" lon="99.70920"><ele>115</ele><time>2018-06-16T09:20:13Z</time></trkpt>
<trkpt lat="13.24575" lon="99.70916"><ele>114</ele><time>2018-06-16T09:20:14Z</time></trkpt>
<trkpt lat="13.24571" lon="99.70913"><ele>115</ele><time>2018-06-16T09:20:15Z</time></trkpt>
<trkpt lat="13.24567" lon="99.70909"><ele>115</ele><time>2018-06-16T09:20:16Z</time></trkpt>
<trkpt lat="13.24563" lon="99.70906"><ele>116</ele><time>2018-06-16T09:20:17Z</time></trkpt>
<trkpt lat="13.24560" lon="99.70903"><ele>116</ele><time>2018-06-16T09:20:18Z</time></trkpt>
<trkpt lat="13.24554" lon="99.70897"><ele>116</ele><time>2018-06-16T09:20:20Z</time></trkpt>
<trkpt lat="13.24550" lon="99.70892"><ele>116</ele><time>2018-06-16T09:20:22Z</time></trkpt>
<trkpt lat="13.24547" lon="99.70886"><ele>116</ele><time>2018-06-16T09:20:24Z</time></trkpt>
<trkpt lat="13.24543" lon="99.70882"><ele>116</ele><time>2018-06-16T09:20:26Z</time></trkpt>
<trkpt lat="13.24541" lon="99.70877"><ele>116</ele><time>2018-06-16T09:20:28Z</time></trkpt>
<trkpt lat="13.24539" lon="99.70873"><ele>116</ele><time>2018-06-16T09:20:31Z</time></trkpt>
<trkpt lat="13.24536" lon="99.70867"><ele>116</ele><time>2018-06-16T09:20:35Z</time></trkpt>
<trkpt lat="13.24535" lon="99.70863"><ele>116</ele><time>2018-06-16T09:20:38Z</time></trkpt>
<trkpt lat="13.24534" lon="99.70857"><ele>117</ele><time>2018-06-16T09:20:41Z</time></trkpt>
<trkpt lat="13.24533" lon="99.70850"><ele>116</ele><time>2018-06-16T09:20:44Z</time></trkpt>
<trkpt lat="13.24533" lon="99.70845"><ele>116</ele><time>2018-06-16T09:20:47Z</time></trkpt>
<trkpt lat="13.24532" lon="99.70840"><ele>116</ele><time>2018-06-16T09:20:50Z</time></trkpt>
<trkpt lat="13.24530" lon="99.70835"><ele>116</ele><time>2018-06-16T09:20:53Z</time></trkpt>
<trkpt lat="13.24529" lon="99.70831"><ele>116</ele><time>2018-06-16T09:20:56Z</time></trkpt>
<trkpt lat="13.24524" lon="99.70827"><ele>117</ele><time>2018-06-16T09:20:59Z</time></trkpt>
<trkpt lat="13.24518" lon="99.70824"><ele>118</ele><time>2018-06-16T09:21:01Z</time></trkpt>
<trkpt lat="13.24513" lon="99.70818"><ele>118</ele><time>2018-06-16T09:21:03Z</time></trkpt>
<trkpt lat="13.24509" lon="99.70811"><ele>117</ele><time>2018-06-16T09:21:05Z</time></trkpt>
<trkpt lat="13.24508" lon="99.70806"><ele>117</ele><time>2018-06-16T09:21:06Z</time></trkpt>
<trkpt lat="13.24507" lon="99.70801"><ele>117</ele><time>2018-06-16T09:21:07Z</time></trkpt>
<trkpt lat="13.24506" lon="99.70796"><ele>117</ele><time>2018-06-16T09:21:08Z</time></trkpt>
<trkpt lat="13.24505" lon="99.70791"><ele>117</ele><time>2018-06-16T09:21:09Z</time></trkpt>
<trkpt lat="13.24504" lon="99.70786"><ele>117</ele><time>2018-06-16T09:21:10Z</time></trkpt>
<trkpt lat="13.24503" lon="99.70781"><ele>117</ele><time>2018-06-16T09:21:11Z</time></trkpt>
<trkpt lat="13.24502" lon="99.70777"><ele>117</ele><time>2018-06-16T09:21:12Z</time></trkpt>
<trkpt lat="13.24501" lon="99.70772"><ele>117</ele><time>2018-06-16T09:21:13Z</time></trkpt>
<trkpt lat="13.24499" lon="99.70764"><ele>117</ele><time>2018-06-16T09:21:15Z</time></trkpt>
<trkpt lat="13.24496" lon="99.70757"><ele>117</ele><time>2018-06-16T09:21:17Z</time></trkpt>
<trkpt lat="13.24492" lon="99.70751"><ele>117</ele><time>2018-06-16T09:21:19Z</time></trkpt>
<trkpt lat="13.24489" lon="99.70745"><ele>117</ele><time>2018-06-16T09:21:21Z</time></trkpt>
<trkpt lat="13.24487" lon="99.70739"><ele>117</ele><time>2018-06-16T09:21:23Z</time></trkpt>
<trkpt lat="13.24485" lon="99.70733"><ele>117</ele><time>2018-06-16T09:21:25Z</time></trkpt>
<trkpt lat="13.24483" lon="99.70726"><ele>117</ele><time>2018-06-16T09:21:27Z</time></trkpt>
<trkpt lat="13.24482" lon="99.70721"><ele>117</ele><time>2018-06-16T09:21:29Z</time></trkpt>
<trkpt lat="13.24480" lon="99.70715"><ele>117</ele><time>2018-06-16T09:21:31Z</time></trkpt>
<trkpt lat="13.24479" lon="99.70709"><ele>117</ele><time>2018-06-16T09:21:33Z</time></trkpt>
<trkpt lat="13.24478" lon="99.70704"><ele>117</ele><time>2018-06-16T09:21:35Z</time></trkpt>
<trkpt lat="13.24479" lon="99.70698"><ele>118</ele><time>2018-06-16T09:21:37Z</time></trkpt>
<trkpt lat="13.24480" lon="99.70692"><ele>118</ele><time>2018-06-16T09:21:39Z</time></trkpt>
<trkpt lat="13.24480" lon="99.70686"><ele>118</ele><time>2018-06-16T09:21:41Z</time></trkpt>
<trkpt lat="13.24480" lon="99.70681"><ele>118</ele><time>2018-06-16T09:21:43Z</time></trkpt>
<trkpt lat="13.24484" lon="99.70677"><ele>118</ele><time>2018-06-16T09:21:47Z</time></trkpt>
<trkpt lat="13.24489" lon="99.70676"><ele>119</ele><time>2018-06-16T09:21:51Z</time></trkpt>
<trkpt lat="13.24493" lon="99.70675"><ele>120</ele><time>2018-06-16T09:21:58Z</time></trkpt>
<trkpt lat="13.24498" lon="99.70673"><ele>122</ele><time>2018-06-16T09:22:30Z</time></trkpt>
<trkpt lat="13.24503" lon="99.70672"><ele>122</ele><time>2018-06-16T09:22:32Z</time></trkpt>
<trkpt lat="13.24509" lon="99.70671"><ele>122</ele><time>2018-06-16T09:22:34Z</time></trkpt>
<trkpt lat="13.24515" lon="99.70670"><ele>121</ele><time>2018-06-16T09:22:36Z</time></trkpt>
<trkpt lat="13.24522" lon="99.70669"><ele>121</ele><time>2018-06-16T09:22:38Z</time></trkpt>
<trkpt lat="13.24530" lon="99.70668"><ele>122</ele><time>2018-06-16T09:22:40Z</time></trkpt>
<trkpt lat="13.24537" lon="99.70667"><ele>122</ele><time>2018-06-16T09:22:42Z</time></trkpt>
<trkpt lat="13.24544" lon="99.70665"><ele>121</ele><time>2018-06-16T09:22:44Z</time></trkpt>
<trkpt lat="13.24550" lon="99.70666"><ele>123</ele><time>2018-06-16T09:22:46Z</time></trkpt>
<trkpt lat="13.24553" lon="99.70671"><ele>122</ele><time>2018-06-16T09:22:48Z</time></trkpt>
<trkpt lat="13.24555" lon="99.70678"><ele>122</ele><time>2018-06-16T09:22:50Z</time></trkpt>
<trkpt lat="13.24556" lon="99.70685"><ele>122</ele><time>2018-06-16T09:22:52Z</time></trkpt>
<trkpt lat="13.24557" lon="99.70692"><ele>122</ele><time>2018-06-16T09:22:54Z</time></trkpt>
<trkpt lat="13.24559" lon="99.70699"><ele>122</ele><time>2018-06-16T09:22:56Z</time></trkpt>
<trkpt lat="13.24560" lon="99.70707"><ele>122</ele><time>2018-06-16T09:22:58Z</time></trkpt>
<trkpt lat="13.24561" lon="99.70714"><ele>122</ele><time>2018-06-16T09:23:00Z</time></trkpt>
<trkpt lat="13.24562" lon="99.70721"><ele>122</ele><time>2018-06-16T09:23:02Z</time></trkpt>
<trkpt lat="13.24564" lon="99.70727"><ele>122</ele><time>2018-06-16T09:23:04Z</time></trkpt>
<trkpt lat="13.24569" lon="99.70731"><ele>123</ele><time>2018-06-16T09:23:06Z</time></trkpt>
<trkpt lat="13.24576" lon="99.70732"><ele>122</ele><time>2018-06-16T09:23:08Z</time></trkpt>
<trkpt lat="13.24585" lon="99.70733"><ele>122</ele><time>2018-06-16T09:23:10Z</time></trkpt>
<trkpt lat="13.24593" lon="99.70732"><ele>122</ele><time>2018-06-16T09:23:12Z</time></trkpt>
<trkpt lat="13.24601" lon="99.70732"><ele>122</ele><time>2018-06-16T09:23:14Z</time></trkpt>
<trkpt lat="13.24607" lon="99.70731"><ele>122</ele><time>2018-06-16T09:23:16Z</time></trkpt>
<trkpt lat="13.24614" lon="99.70732"><ele>122</ele><time>2018-06-16T09:23:18Z</time></trkpt>
<trkpt lat="13.24622" lon="99.70732"><ele>122</ele><time>2018-06-16T09:23:20Z</time></trkpt>
<trkpt lat="13.24629" lon="99.70733"><ele>121</ele><time>2018-06-16T09:23:22Z</time></trkpt>
<trkpt lat="13.24634" lon="99.70735"><ele>122</ele><time>2018-06-16T09:23:23Z</time></trkpt>
<trkpt lat="13.24637" lon="99.70740"><ele>123</ele><time>2018-06-16T09:23:25Z</time></trkpt>
<trkpt lat="13.24639" lon="99.70746"><ele>122</ele><time>2018-06-16T09:23:27Z</time></trkpt>
<trkpt lat="13.24640" lon="99.70752"><ele>122</ele><time>2018-06-16T09:23:29Z</time></trkpt>
<trkpt lat="13.24641" lon="99.70757"><ele>122</ele><time>2018-06-16T09:23:31Z</time></trkpt>
<trkpt lat="13.24641" lon="99.70763"><ele>123</ele><time>2018-06-16T09:23:34Z</time></trkpt>
<trkpt lat="13.24640" lon="99.70767"><ele>123</ele><time>2018-06-16T09:23:37Z</time></trkpt>
<trkpt lat="13.24640" lon="99.70772"><ele>123</ele><time>2018-06-16T09:23:40Z</time></trkpt>
<trkpt lat="13.24639" lon="99.70777"><ele>124</ele><time>2018-06-16T09:23:43Z</time></trkpt>
<trkpt lat="13.24641" lon="99.70782"><ele>124</ele><time>2018-06-16T09:25:12Z</time></trkpt>
<trkpt lat="13.24647" lon="99.70783"><ele>126</ele><time>2018-06-16T09:25:14Z</time></trkpt>
<trkpt lat="13.24656" lon="99.70780"><ele>123</ele><time>2018-06-16T09:25:16Z</time></trkpt>
<trkpt lat="13.24661" lon="99.70779"><ele>123</ele><time>2018-06-16T09:25:17Z</time></trkpt>
<trkpt lat="13.24666" lon="99.70778"><ele>122</ele><time>2018-06-16T09:25:18Z</time></trkpt>
<trkpt lat="13.24670" lon="99.70777"><ele>122</ele><time>2018-06-16T09:25:19Z</time></trkpt>
<trkpt lat="13.24675" lon="99.70776"><ele>123</ele><time>2018-06-16T09:25:20Z</time></trkpt>
<trkpt lat="13.24680" lon="99.70776"><ele>122</ele><time>2018-06-16T09:25:21Z</time></trkpt>
<trkpt lat="13.24685" lon="99.70775"><ele>122</ele><time>2018-06-16T09:25:22Z</time></trkpt>
<trkpt lat="13.24690" lon="99.70774"><ele>123</ele><time>2018-06-16T09:25:23Z</time></trkpt>
<trkpt lat="13.24694" lon="99.70773"><ele>122</ele><time>2018-06-16T09:25:24Z</time></trkpt>
<trkpt lat="13.24698" lon="99.70771"><ele>122</ele><time>2018-06-16T09:25:25Z</time></trkpt>
<trkpt lat="13.24704" lon="99.70768"><ele>122</ele><time>2018-06-16T09:25:27Z</time></trkpt>
<trkpt lat="13.24709" lon="99.70764"><ele>122</ele><time>2018-06-16T09:25:29Z</time></trkpt>
<trkpt lat="13.24715" lon="99.70760"><ele>121</ele><time>2018-06-16T09:25:31Z</time></trkpt>
<trkpt lat="13.24721" lon="99.70755"><ele>120</ele><time>2018-06-16T09:25:33Z</time></trkpt>
<trkpt lat="13.24726" lon="99.70750"><ele>119</ele><time>2018-06-16T09:25:35Z</time></trkpt>
<trkpt lat="13.24730" lon="99.70745"><ele>120</ele><time>2018-06-16T09:25:37Z</time></trkpt>
<trkpt lat="13.24734" lon="99.70740"><ele>120</ele><time>2018-06-16T09:25:39Z</time></trkpt>
<trkpt lat="13.24740" lon="99.70735"><ele>120</ele><time>2018-06-16T09:25:41Z</time></trkpt>
<trkpt lat="13.24745" lon="99.70728"><ele>121</ele><time>2018-06-16T09:25:43Z</time></trkpt>
<trkpt lat="13.24748" lon="99.70722"><ele>121</ele><time>2018-06-16T09:25:45Z</time></trkpt>
<trkpt lat="13.24751" lon="99.70715"><ele>121</ele><time>2018-06-16T09:25:47Z</time></trkpt>
<trkpt lat="13.24754" lon="99.70710"><ele>122</ele><time>2018-06-16T09:25:49Z</time></trkpt>
<trkpt lat="13.24758" lon="99.70708"><ele>122</ele><time>2018-06-16T09:25:51Z</time></trkpt>
<trkpt lat="13.24764" lon="99.70707"><ele>121</ele><time>2018-06-16T09:25:53Z</time></trkpt>
<trkpt lat="13.24771" lon="99.70707"><ele>122</ele><time>2018-06-16T09:25:55Z</time></trkpt>
<trkpt lat="13.24779" lon="99.70707"><ele>122</ele><time>2018-06-16T09:25:57Z</time></trkpt>
<trkpt lat="13.24787" lon="99.70708"><ele>122</ele><time>2018-06-16T09:25:59Z</time></trkpt>
<trkpt lat="13.24796" lon="99.70709"><ele>122</ele><time>2018-06-16T09:26:01Z</time></trkpt>
<trkpt lat="13.24804" lon="99.70709"><ele>122</ele><time>2018-06-16T09:26:03Z</time></trkpt>
<trkpt lat="13.24809" lon="99.70710"><ele>122</ele><time>2018-06-16T09:26:04Z</time></trkpt>
<trkpt lat="13.24814" lon="99.70710"><ele>122</ele><time>2018-06-16T09:26:05Z</time></trkpt>
<trkpt lat="13.24818" lon="99.70711"><ele>122</ele><time>2018-06-16T09:26:06Z</time></trkpt>
<trkpt lat="13.24826" lon="99.70712"><ele>122</ele><time>2018-06-16T09:26:07Z</time></trkpt>
<trkpt lat="13.24830" lon="99.70712"><ele>122</ele><time>2018-06-16T09:26:08Z</time></trkpt>
<trkpt lat="13.24839" lon="99.70713"><ele>122</ele><time>2018-06-16T09:26:10Z</time></trkpt>
<trkpt lat="13.24847" lon="99.70714"><ele>122</ele><time>2018-06-16T09:26:12Z</time></trkpt>
<trkpt lat="13.24855" lon="99.70715"><ele>122</ele><time>2018-06-16T09:26:14Z</time></trkpt>
<trkpt lat="13.24863" lon="99.70715"><ele>122</ele><time>2018-06-16T09:26:16Z</time></trkpt>
<trkpt lat="13.24872" lon="99.70716"><ele>123</ele><time>2018-06-16T09:26:18Z</time></trkpt>
<trkpt lat="13.24880" lon="99.70717"><ele>123</ele><time>2018-06-16T09:26:20Z</time></trkpt>
<trkpt lat="13.24888" lon="99.70718"><ele>122</ele><time>2018-06-16T09:26:22Z</time></trkpt>
<trkpt lat="13.24897" lon="99.70718"><ele>123</ele><time>2018-06-16T09:26:24Z</time></trkpt>
<trkpt lat="13.24905" lon="99.70720"><ele>123</ele><time>2018-06-16T09:26:26Z</time></trkpt>
<trkpt lat="13.24913" lon="99.70721"><ele>122</ele><time>2018-06-16T09:26:28Z</time></trkpt>
<trkpt lat="13.24922" lon="99.70721"><ele>122</ele><time>2018-06-16T09:26:30Z</time></trkpt>
<trkpt lat="13.24930" lon="99.70722"><ele>122</ele><time>2018-06-16T09:26:32Z</time></trkpt>
<trkpt lat="13.24938" lon="99.70723"><ele>122</ele><time>2018-06-16T09:26:34Z</time></trkpt>
<trkpt lat="13.24946" lon="99.70724"><ele>122</ele><time>2018-06-16T09:26:36Z</time></trkpt>
<trkpt lat="13.24954" lon="99.70725"><ele>122</ele><time>2018-06-16T09:26:38Z</time></trkpt>
<trkpt lat="13.24962" lon="99.70726"><ele>122</ele><time>2018-06-16T09:26:40Z</time></trkpt>
<trkpt lat="13.24970" lon="99.70728"><ele>122</ele><time>2018-06-16T09:26:42Z</time></trkpt>
<trkpt lat="13.24979" lon="99.70729"><ele>122</ele><time>2018-06-16T09:26:44Z</time></trkpt>
<trkpt lat="13.24983" lon="99.70729"><ele>122</ele><time>2018-06-16T09:26:45Z</time></trkpt>
<trkpt lat="13.24988" lon="99.70730"><ele>122</ele><time>2018-06-16T09:26:46Z</time></trkpt>
<trkpt lat="13.24992" lon="99.70731"><ele>122</ele><time>2018-06-16T09:26:47Z</time></trkpt>
<trkpt lat="13.24997" lon="99.70731"><ele>122</ele><time>2018-06-16T09:26:48Z</time></trkpt>
<trkpt lat="13.25002" lon="99.70732"><ele>122</ele><time>2018-06-16T09:26:49Z</time></trkpt>
<trkpt lat="13.25006" lon="99.70732"><ele>122</ele><time>2018-06-16T09:26:50Z</time></trkpt>
<trkpt lat="13.25011" lon="99.70733"><ele>121</ele><time>2018-06-16T09:26:51Z</time></trkpt>
<trkpt lat="13.25015" lon="99.70734"><ele>122</ele><time>2018-06-16T09:26:52Z</time></trkpt>
<trkpt lat="13.25020" lon="99.70735"><ele>122</ele><time>2018-06-16T09:26:53Z</time></trkpt>
<trkpt lat="13.25024" lon="99.70735"><ele>122</ele><time>2018-06-16T09:26:54Z</time></trkpt>
<trkpt lat="13.25029" lon="99.70736"><ele>122</ele><time>2018-06-16T09:26:55Z</time></trkpt>
<trkpt lat="13.25034" lon="99.70736"><ele>122</ele><time>2018-06-16T09:26:56Z</time></trkpt>
<trkpt lat="13.25038" lon="99.70737"><ele>122</ele><time>2018-06-16T09:26:57Z</time></trkpt>
<trkpt lat="13.25043" lon="99.70738"><ele>122</ele><time>2018-06-16T09:26:58Z</time></trkpt>
<trkpt lat="13.25050" lon="99.70739"><ele>122</ele><time>2018-06-16T09:27:00Z</time></trkpt>
<trkpt lat="13.25055" lon="99.70739"><ele>122</ele><time>2018-06-16T09:27:01Z</time></trkpt>
<trkpt lat="13.25060" lon="99.70739"><ele>122</ele><time>2018-06-16T09:27:02Z</time></trkpt>
<trkpt lat="13.25065" lon="99.70740"><ele>122</ele><time>2018-06-16T09:27:03Z</time></trkpt>
<trkpt lat="13.25070" lon="99.70740"><ele>123</ele><time>2018-06-16T09:27:04Z</time></trkpt>
<trkpt lat="13.25074" lon="99.70741"><ele>122</ele><time>2018-06-16T09:27:05Z</time></trkpt>
<trkpt lat="13.25079" lon="99.70741"><ele>123</ele><time>2018-06-16T09:27:06Z</time></trkpt>
<trkpt lat="13.25087" lon="99.70741"><ele>123</ele><time>2018-06-16T09:27:07Z</time></trkpt>
<trkpt lat="13.25093" lon="99.70742"><ele>122</ele><time>2018-06-16T09:27:08Z</time></trkpt>
<trkpt lat="13.25098" lon="99.70742"><ele>122</ele><time>2018-06-16T09:27:09Z</time></trkpt>
<trkpt lat="13.25103" lon="99.70743"><ele>122</ele><time>2018-06-16T09:27:10Z</time></trkpt>
<trkpt lat="13.25112" lon="99.70744"><ele>122</ele><time>2018-06-16T09:27:12Z</time></trkpt>
<trkpt lat="13.25121" lon="99.70745"><ele>122</ele><time>2018-06-16T09:27:14Z</time></trkpt>
<trkpt lat="13.25125" lon="99.70746"><ele>122</ele><time>2018-06-16T09:27:15Z</time></trkpt>
<trkpt lat="13.25130" lon="99.70747"><ele>122</ele><time>2018-06-16T09:27:16Z</time></trkpt>
<trkpt lat="13.25134" lon="99.70748"><ele>122</ele><time>2018-06-16T09:27:17Z</time></trkpt>
<trkpt lat="13.25141" lon="99.70749"><ele>122</ele><time>2018-06-16T09:27:19Z</time></trkpt>
<trkpt lat="13.25149" lon="99.70750"><ele>123</ele><time>2018-06-16T09:27:21Z</time></trkpt>
<trkpt lat="13.25159" lon="99.70752"><ele>123</ele><time>2018-06-16T09:27:23Z</time></trkpt>
<trkpt lat="13.25164" lon="99.70753"><ele>123</ele><time>2018-06-16T09:27:24Z</time></trkpt>
<trkpt lat="13.25172" lon="99.70753"><ele>123</ele><time>2018-06-16T09:27:26Z</time></trkpt>
<trkpt lat="13.25178" lon="99.70755"><ele>123</ele><time>2018-06-16T09:27:28Z</time></trkpt>
<trkpt lat="13.25181" lon="99.70761"><ele>124</ele><time>2018-06-16T09:27:30Z</time></trkpt>
<trkpt lat="13.25184" lon="99.70769"><ele>124</ele><time>2018-06-16T09:27:32Z</time></trkpt>
<trkpt lat="13.25186" lon="99.70776"><ele>124</ele><time>2018-06-16T09:27:34Z</time></trkpt>
<trkpt lat="13.25188" lon="99.70783"><ele>125</ele><time>2018-06-16T09:27:36Z</time></trkpt>
<trkpt lat="13.25189" lon="99.70790"><ele>125</ele><time>2018-06-16T09:27:38Z</time></trkpt>
<trkpt lat="13.25191" lon="99.70797"><ele>125</ele><time>2018-06-16T09:27:40Z</time></trkpt>
<trkpt lat="13.25191" lon="99.70803"><ele>125</ele><time>2018-06-16T09:27:42Z</time></trkpt>
<trkpt lat="13.25192" lon="99.70807"><ele>126</ele><time>2018-06-16T09:27:44Z</time></trkpt>
<trkpt lat="13.25192" lon="99.70813"><ele>126</ele><time>2018-06-16T09:27:47Z</time></trkpt>
<trkpt lat="13.25191" lon="99.70819"><ele>127</ele><time>2018-06-16T09:27:50Z</time></trkpt>
<trkpt lat="13.25190" lon="99.70824"><ele>127</ele><time>2018-06-16T09:27:53Z</time></trkpt>
<trkpt lat="13.25188" lon="99.70830"><ele>127</ele><time>2018-06-16T09:27:56Z</time></trkpt>
<trkpt lat="13.25184" lon="99.70835"><ele>127</ele><time>2018-06-16T09:27:59Z</time></trkpt>
<trkpt lat="13.25181" lon="99.70842"><ele>127</ele><time>2018-06-16T09:28:01Z</time></trkpt>
<trkpt lat="13.25179" lon="99.70851"><ele>127</ele><time>2018-06-16T09:28:03Z</time></trkpt>
<trkpt lat="13.25178" lon="99.70856"><ele>127</ele><time>2018-06-16T09:28:04Z</time></trkpt>
<trkpt lat="13.25177" lon="99.70861"><ele>127</ele><time>2018-06-16T09:28:05Z</time></trkpt>
<trkpt lat="13.25176" lon="99.70866"><ele>127</ele><time>2018-06-16T09:28:06Z</time></trkpt>
<trkpt lat="13.25177" lon="99.70874"><ele>127</ele><time>2018-06-16T09:28:08Z</time></trkpt>
<trkpt lat="13.25182" lon="99.70878"><ele>127</ele><time>2018-06-16T09:28:10Z</time></trkpt>
<trkpt lat="13.25186" lon="99.70881"><ele>127</ele><time>2018-06-16T09:28:12Z</time></trkpt>
<trkpt lat="13.25191" lon="99.70884"><ele>126</ele><time>2018-06-16T09:28:15Z</time></trkpt>
<trkpt lat="13.25195" lon="99.70886"><ele>126</ele><time>2018-06-16T09:28:19Z</time></trkpt>
<trkpt lat="13.25199" lon="99.70888"><ele>127</ele><time>2018-06-16T09:28:23Z</time></trkpt>
<trkpt lat="13.25204" lon="99.70889"><ele>127</ele><time>2018-06-16T09:28:26Z</time></trkpt>
<trkpt lat="13.25209" lon="99.70891"><ele>127</ele><time>2018-06-16T09:28:29Z</time></trkpt>
<trkpt lat="13.25214" lon="99.70894"><ele>127</ele><time>2018-06-16T09:28:32Z</time></trkpt>
<trkpt lat="13.25220" lon="99.70897"><ele>128</ele><time>2018-06-16T09:28:35Z</time></trkpt>
<trkpt lat="13.25226" lon="99.70898"><ele>128</ele><time>2018-06-16T09:28:38Z</time></trkpt>
<trkpt lat="13.25233" lon="99.70900"><ele>128</ele><time>2018-06-16T09:28:41Z</time></trkpt>
<trkpt lat="13.25238" lon="99.70901"><ele>128</ele><time>2018-06-16T09:28:45Z</time></trkpt>
<trkpt lat="13.25244" lon="99.70902"><ele>128</ele><time>2018-06-16T09:28:50Z</time></trkpt>
<trkpt lat="13.25249" lon="99.70903"><ele>128</ele><time>2018-06-16T09:28:54Z</time></trkpt>
<trkpt lat="13.25254" lon="99.70904"><ele>129</ele><time>2018-06-16T09:28:57Z</time></trkpt>
<trkpt lat="13.25261" lon="99.70904"><ele>129</ele><time>2018-06-16T09:29:00Z</time></trkpt>
<trkpt lat="13.25266" lon="99.70905"><ele>129</ele><time>2018-06-16T09:29:02Z</time></trkpt>
<trkpt lat="13.25270" lon="99.70905"><ele>129</ele><time>2018-06-16T09:29:04Z</time></trkpt>
<trkpt lat="13.25275" lon="99.70905"><ele>129</ele><time>2018-06-16T09:29:06Z</time></trkpt>
<trkpt lat="13.25281" lon="99.70905"><ele>129</ele><time>2018-06-16T09:29:08Z</time></trkpt>
<trkpt lat="13.25287" lon="99.70904"><ele>130</ele><time>2018-06-16T09:29:10Z</time></trkpt>
<trkpt lat="13.25294" lon="99.70904"><ele>130</ele><time>2018-06-16T09:29:12Z</time></trkpt>
<trkpt lat="13.25301" lon="99.70904"><ele>130</ele><time>2018-06-16T09:29:14Z</time></trkpt>
<trkpt lat="13.25307" lon="99.70905"><ele>130</ele><time>2018-06-16T09:29:16Z</time></trkpt>
<trkpt lat="13.25314" lon="99.70906"><ele>130</ele><time>2018-06-16T09:29:18Z</time></trkpt>
<trkpt lat="13.25319" lon="99.70907"><ele>130</ele><time>2018-06-16T09:29:20Z</time></trkpt>
<trkpt lat="13.25325" lon="99.70907"><ele>130</ele><time>2018-06-16T09:29:22Z</time></trkpt>
<trkpt lat="13.25330" lon="99.70907"><ele>131</ele><time>2018-06-16T09:29:24Z</time></trkpt>
<trkpt lat="13.25336" lon="99.70908"><ele>131</ele><time>2018-06-16T09:29:26Z</time></trkpt>
<trkpt lat="13.25342" lon="99.70909"><ele>131</ele><time>2018-06-16T09:29:28Z</time></trkpt>
<trkpt lat="13.25349" lon="99.70911"><ele>131</ele><time>2018-06-16T09:29:30Z</time></trkpt>
<trkpt lat="13.25357" lon="99.70912"><ele>131</ele><time>2018-06-16T09:29:32Z</time></trkpt>
<trkpt lat="13.25364" lon="99.70913"><ele>131</ele><time>2018-06-16T09:29:34Z</time></trkpt>
<trkpt lat="13.25372" lon="99.70914"><ele>130</ele><time>2018-06-16T09:29:36Z</time></trkpt>
<trkpt lat="13.25378" lon="99.70916"><ele>131</ele><time>2018-06-16T09:29:38Z</time></trkpt>
<trkpt lat="13.25384" lon="99.70917"><ele>131</ele><time>2018-06-16T09:29:40Z</time></trkpt>
<trkpt lat="13.25391" lon="99.70919"><ele>131</ele><time>2018-06-16T09:29:42Z</time></trkpt>
<trkpt lat="13.25398" lon="99.70922"><ele>132</ele><time>2018-06-16T09:29:44Z</time></trkpt>
<trkpt lat="13.25404" lon="99.70925"><ele>132</ele><time>2018-06-16T09:29:46Z</time></trkpt>
<trkpt lat="13.25411" lon="99.70928"><ele>132</ele><time>2018-06-16T09:29:48Z</time></trkpt>
<trkpt lat="13.25417" lon="99.70931"><ele>132</ele><time>2018-06-16T09:29:50Z</time></trkpt>
<trkpt lat="13.25423" lon="99.70935"><ele>132</ele><time>2018-06-16T09:29:52Z</time></trkpt>
<trkpt lat="13.25430" lon="99.70939"><ele>132</ele><time>2018-06-16T09:29:54Z</time></trkpt>
<trkpt lat="13.25436" lon="99.70943"><ele>132</ele><time>2018-06-16T09:29:56Z</time></trkpt>
<trkpt lat="13.25442" lon="99.70947"><ele>132</ele><time>2018-06-16T09:29:58Z</time></trkpt>
<trkpt lat="13.25447" lon="99.70951"><ele>132</ele><time>2018-06-16T09:30:00Z</time></trkpt>
<trkpt lat="13.25453" lon="99.70955"><ele>132</ele><time>2018-06-16T09:30:02Z</time></trkpt>
<trkpt lat="13.25459" lon="99.70959"><ele>133</ele><time>2018-06-16T09:30:04Z</time></trkpt>
<trkpt lat="13.25465" lon="99.70963"><ele>133</ele><time>2018-06-16T09:30:06Z</time></trkpt>
<trkpt lat="13.25471" lon="99.70968"><ele>133</ele><time>2018-06-16T09:30:08Z</time></trkpt>
<trkpt lat="13.25477" lon="99.70972"><ele>134</ele><time>2018-06-16T09:30:10Z</time></trkpt>
<trkpt lat="13.25483" lon="99.70978"><ele>134</ele><time>2018-06-16T09:30:12Z</time></trkpt>
<trkpt lat="13.25489" lon="99.70982"><ele>134</ele><time>2018-06-16T09:30:14Z</time></trkpt>
<trkpt lat="13.25495" lon="99.70986"><ele>134</ele><time>2018-06-16T09:30:16Z</time></trkpt>
<trkpt lat="13.25501" lon="99.70990"><ele>134</ele><time>2018-06-16T09:30:18Z</time></trkpt>
<trkpt lat="13.25508" lon="99.70993"><ele>133</ele><time>2018-06-16T09:30:20Z</time></trkpt>
<trkpt lat="13.25514" lon="99.70995"><ele>133</ele><time>2018-06-16T09:30:22Z</time></trkpt>
<trkpt lat="13.25519" lon="99.70999"><ele>134</ele><time>2018-06-16T09:30:24Z</time></trkpt>
<trkpt lat="13.25525" lon="99.71001"><ele>134</ele><time>2018-06-16T09:30:26Z</time></trkpt>
<trkpt lat="13.25530" lon="99.71004"><ele>134</ele><time>2018-06-16T09:30:28Z</time></trkpt>
<trkpt lat="13.25534" lon="99.71006"><ele>135</ele><time>2018-06-16T09:30:30Z</time></trkpt>
<trkpt lat="13.25539" lon="99.71010"><ele>134</ele><time>2018-06-16T09:30:33Z</time></trkpt>
<trkpt lat="13.25544" lon="99.71013"><ele>134</ele><time>2018-06-16T09:30:35Z</time></trkpt>
<trkpt lat="13.25549" lon="99.71016"><ele>135</ele><time>2018-06-16T09:30:37Z</time></trkpt>
<trkpt lat="13.25555" lon="99.71020"><ele>135</ele><time>2018-06-16T09:30:39Z</time></trkpt>
<trkpt lat="13.25563" lon="99.71023"><ele>135</ele><time>2018-06-16T09:30:41Z</time></trkpt>
<trkpt lat="13.25570" lon="99.71025"><ele>135</ele><time>2018-06-16T09:30:43Z</time></trkpt>
<trkpt lat="13.25577" lon="99.71027"><ele>135</ele><time>2018-06-16T09:30:45Z</time></trkpt>
<trkpt lat="13.25584" lon="99.71028"><ele>135</ele><time>2018-06-16T09:30:47Z</time></trkpt>
<trkpt lat="13.25593" lon="99.71029"><ele>135</ele><time>2018-06-16T09:30:49Z</time></trkpt>
<trkpt lat="13.25597" lon="99.71030"><ele>135</ele><time>2018-06-16T09:30:50Z</time></trkpt>
<trkpt lat="13.25601" lon="99.71032"><ele>135</ele><time>2018-06-16T09:30:51Z</time></trkpt>
<trkpt lat="13.25609" lon="99.71035"><ele>135</ele><time>2018-06-16T09:30:53Z</time></trkpt>
<trkpt lat="13.25615" lon="99.71038"><ele>135</ele><time>2018-06-16T09:30:55Z</time></trkpt>
<trkpt lat="13.25620" lon="99.71042"><ele>136</ele><time>2018-06-16T09:30:57Z</time></trkpt>
<trkpt lat="13.25624" lon="99.71045"><ele>136</ele><time>2018-06-16T09:30:59Z</time></trkpt>
<trkpt lat="13.25627" lon="99.71048"><ele>136</ele><time>2018-06-16T09:31:01Z</time></trkpt>
<trkpt lat="13.25632" lon="99.71051"><ele>136</ele><time>2018-06-16T09:31:04Z</time></trkpt>
<trkpt lat="13.25637" lon="99.71051"><ele>136</ele><time>2018-06-16T09:31:06Z</time></trkpt>
<trkpt lat="13.25642" lon="99.71050"><ele>136</ele><time>2018-06-16T09:31:08Z</time></trkpt>
<trkpt lat="13.25647" lon="99.71047"><ele>136</ele><time>2018-06-16T09:31:11Z</time></trkpt>
<trkpt lat="13.25652" lon="99.71045"><ele>138</ele><time>2018-06-16T09:32:04Z</time></trkpt>
<trkpt lat="13.25656" lon="99.71038"><ele>138</ele><time>2018-06-16T09:32:06Z</time></trkpt>
<trkpt lat="13.25659" lon="99.71034"><ele>138</ele><time>2018-06-16T09:32:07Z</time></trkpt>
<trkpt lat="13.25661" lon="99.71028"><ele>137</ele><time>2018-06-16T09:32:08Z</time></trkpt>
<trkpt lat="13.25662" lon="99.71023"><ele>137</ele><time>2018-06-16T09:32:09Z</time></trkpt>
<trkpt lat="13.25664" lon="99.71016"><ele>137</ele><time>2018-06-16T09:32:10Z</time></trkpt>
<trkpt lat="13.25667" lon="99.71010"><ele>137</ele><time>2018-06-16T09:32:11Z</time></trkpt>
<trkpt lat="13.25670" lon="99.71004"><ele>137</ele><time>2018-06-16T09:32:12Z</time></trkpt>
<trkpt lat="13.25674" lon="99.70998"><ele>135</ele><time>2018-06-16T09:32:13Z</time></trkpt>
<trkpt lat="13.25681" lon="99.70990"><ele>131</ele><time>2018-06-16T09:32:15Z</time></trkpt>
<trkpt lat="13.25688" lon="99.70982"><ele>130</ele><time>2018-06-16T09:32:16Z</time></trkpt>
<trkpt lat="13.25694" lon="99.70977"><ele>129</ele><time>2018-06-16T09:32:17Z</time></trkpt>
<trkpt lat="13.25700" lon="99.70973"><ele>128</ele><time>2018-06-16T09:32:18Z</time></trkpt>
<trkpt lat="13.25706" lon="99.70970"><ele>127</ele><time>2018-06-16T09:32:19Z</time></trkpt>
<trkpt lat="13.25714" lon="99.70967"><ele>126</ele><time>2018-06-16T09:32:20Z</time></trkpt>
<trkpt lat="13.25720" lon="99.70966"><ele>125</ele><time>2018-06-16T09:32:21Z</time></trkpt>
<trkpt lat="13.25725" lon="99.70965"><ele>124</ele><time>2018-06-16T09:32:22Z</time></trkpt>
<trkpt lat="13.25732" lon="99.70964"><ele>123</ele><time>2018-06-16T09:32:23Z</time></trkpt>
<trkpt lat="13.25739" lon="99.70962"><ele>123</ele><time>2018-06-16T09:32:24Z</time></trkpt>
<trkpt lat="13.25746" lon="99.70961"><ele>123</ele><time>2018-06-16T09:32:25Z</time></trkpt>
<trkpt lat="13.25752" lon="99.70959"><ele>122</ele><time>2018-06-16T09:32:26Z</time></trkpt>
<trkpt lat="13.25757" lon="99.70958"><ele>122</ele><time>2018-06-16T09:32:27Z</time></trkpt>
<trkpt lat="13.25763" lon="99.70956"><ele>121</ele><time>2018-06-16T09:32:28Z</time></trkpt>
<trkpt lat="13.25772" lon="99.70954"><ele>121</ele><time>2018-06-16T09:32:30Z</time></trkpt>
<trkpt lat="13.25782" lon="99.70952"><ele>120</ele><time>2018-06-16T09:32:32Z</time></trkpt>
<trkpt lat="13.25787" lon="99.70950"><ele>120</ele><time>2018-06-16T09:32:33Z</time></trkpt>
<trkpt lat="13.25794" lon="99.70948"><ele>120</ele><time>2018-06-16T09:32:34Z</time></trkpt>
<trkpt lat="13.25800" lon="99.70947"><ele>120</ele><time>2018-06-16T09:32:35Z</time></trkpt>
<trkpt lat="13.25810" lon="99.70946"><ele>120</ele><time>2018-06-16T09:32:36Z</time></trkpt>
<trkpt lat="13.25815" lon="99.70946"><ele>120</ele><time>2018-06-16T09:32:37Z</time></trkpt>
<trkpt lat="13.25822" lon="99.70947"><ele>120</ele><time>2018-06-16T09:32:38Z</time></trkpt>
<trkpt lat="13.25828" lon="99.70949"><ele>120</ele><time>2018-06-16T09:32:39Z</time></trkpt>
<trkpt lat="13.25834" lon="99.70951"><ele>120</ele><time>2018-06-16T09:32:40Z</time></trkpt>
<trkpt lat="13.25844" lon="99.70954"><ele>120</ele><time>2018-06-16T09:32:41Z</time></trkpt>
<trkpt lat="13.25851" lon="99.70957"><ele>120</ele><time>2018-06-16T09:32:42Z</time></trkpt>
<trkpt lat="13.25858" lon="99.70961"><ele>121</ele><time>2018-06-16T09:32:43Z</time></trkpt>
<trkpt lat="13.25864" lon="99.70964"><ele>121</ele><time>2018-06-16T09:32:44Z</time></trkpt>
<trkpt lat="13.25867" lon="99.70967"><ele>121</ele><time>2018-06-16T09:32:45Z</time></trkpt>
<trkpt lat="13.25874" lon="99.70971"><ele>121</ele><time>2018-06-16T09:32:46Z</time></trkpt>
<trkpt lat="13.25883" lon="99.70978"><ele>122</ele><time>2018-06-16T09:32:48Z</time></trkpt>
<trkpt lat="13.25891" lon="99.70983"><ele>122</ele><time>2018-06-16T09:32:50Z</time></trkpt>
<trkpt lat="13.25896" lon="99.70985"><ele>122</ele><time>2018-06-16T09:32:51Z</time></trkpt>
<trkpt lat="13.25901" lon="99.70988"><ele>122</ele><time>2018-06-16T09:32:52Z</time></trkpt>
<trkpt lat="13.25909" lon="99.70991"><ele>123</ele><time>2018-06-16T09:32:53Z</time></trkpt>
<trkpt lat="13.25914" lon="99.70993"><ele>123</ele><time>2018-06-16T09:32:54Z</time></trkpt>
<trkpt lat="13.25919" lon="99.70994"><ele>123</ele><time>2018-06-16T09:32:55Z</time></trkpt>
<trkpt lat="13.25925" lon="99.70995"><ele>123</ele><time>2018-06-16T09:32:56Z</time></trkpt>
<trkpt lat="13.25931" lon="99.70996"><ele>123</ele><time>2018-06-16T09:32:57Z</time></trkpt>
<trkpt lat="13.25940" lon="99.70997"><ele>123</ele><time>2018-06-16T09:32:58Z</time></trkpt>
<trkpt lat="13.25947" lon="99.70998"><ele>123</ele><time>2018-06-16T09:32:59Z</time></trkpt>
<trkpt lat="13.25953" lon="99.70999"><ele>123</ele><time>2018-06-16T09:33:00Z</time></trkpt>
<trkpt lat="13.25960" lon="99.70999"><ele>123</ele><time>2018-06-16T09:33:01Z</time></trkpt>
<trkpt lat="13.25966" lon="99.71000"><ele>124</ele><time>2018-06-16T09:33:02Z</time></trkpt>
<trkpt lat="13.25972" lon="99.71000"><ele>124</ele><time>2018-06-16T09:33:03Z</time></trkpt>
<trkpt lat="13.25978" lon="99.71000"><ele>124</ele><time>2018-06-16T09:33:04Z</time></trkpt>
<trkpt lat="13.25983" lon="99.71000"><ele>124</ele><time>2018-06-16T09:33:05Z</time></trkpt>
<trkpt lat="13.25988" lon="99.71001"><ele>124</ele><time>2018-06-16T09:33:06Z</time></trkpt>
<trkpt lat="13.25993" lon="99.71003"><ele>125</ele><time>2018-06-16T09:33:07Z</time></trkpt>
<trkpt lat="13.26000" lon="99.71006"><ele>125</ele><time>2018-06-16T09:33:09Z</time></trkpt>
<trkpt lat="13.26007" lon="99.71010"><ele>126</ele><time>2018-06-16T09:33:11Z</time></trkpt>
<trkpt lat="13.26012" lon="99.71013"><ele>126</ele><time>2018-06-16T09:33:13Z</time></trkpt>
<trkpt lat="13.26019" lon="99.71017"><ele>127</ele><time>2018-06-16T09:33:15Z</time></trkpt>
<trkpt lat="13.26026" lon="99.71021"><ele>127</ele><time>2018-06-16T09:33:17Z</time></trkpt>
<trkpt lat="13.26034" lon="99.71025"><ele>127</ele><time>2018-06-16T09:33:19Z</time></trkpt>
<trkpt lat="13.26041" lon="99.71030"><ele>127</ele><time>2018-06-16T09:33:21Z</time></trkpt>
<trkpt lat="13.26045" lon="99.71033"><ele>128</ele><time>2018-06-16T09:33:22Z</time></trkpt>
<trkpt lat="13.26050" lon="99.71035"><ele>127</ele><time>2018-06-16T09:33:23Z</time></trkpt>
<trkpt lat="13.26054" lon="99.71038"><ele>127</ele><time>2018-06-16T09:33:24Z</time></trkpt>
<trkpt lat="13.26059" lon="99.71040"><ele>128</ele><time>2018-06-16T09:33:25Z</time></trkpt>
<trkpt lat="13.26064" lon="99.71043"><ele>128</ele><time>2018-06-16T09:33:26Z</time></trkpt>
<trkpt lat="13.26071" lon="99.71046"><ele>128</ele><time>2018-06-16T09:33:27Z</time></trkpt>
<trkpt lat="13.26080" lon="99.71049"><ele>128</ele><time>2018-06-16T09:33:29Z</time></trkpt>
<trkpt lat="13.26085" lon="99.71051"><ele>127</ele><time>2018-06-16T09:33:30Z</time></trkpt>
<trkpt lat="13.26090" lon="99.71052"><ele>127</ele><time>2018-06-16T09:33:31Z</time></trkpt>
<trkpt lat="13.26096" lon="99.71054"><ele>127</ele><time>2018-06-16T09:33:32Z</time></trkpt>
<trkpt lat="13.26101" lon="99.71055"><ele>127</ele><time>2018-06-16T09:33:33Z</time></trkpt>
<trkpt lat="13.26107" lon="99.71056"><ele>127</ele><time>2018-06-16T09:33:34Z</time></trkpt>
<trkpt lat="13.26120" lon="99.71056"><ele>128</ele><time>2018-06-16T09:33:35Z</time></trkpt>
<trkpt lat="13.26128" lon="99.71054"><ele>127</ele><time>2018-06-16T09:33:37Z</time></trkpt>
<trkpt lat="13.26132" lon="99.71053"><ele>127</ele><time>2018-06-16T09:33:38Z</time></trkpt>
<trkpt lat="13.26138" lon="99.71051"><ele>126</ele><time>2018-06-16T09:33:39Z</time></trkpt>
<trkpt lat="13.26143" lon="99.71050"><ele>126</ele><time>2018-06-16T09:33:40Z</time></trkpt>
<trkpt lat="13.26149" lon="99.71048"><ele>126</ele><time>2018-06-16T09:33:41Z</time></trkpt>
<trkpt lat="13.26156" lon="99.71047"><ele>126</ele><time>2018-06-16T09:33:42Z</time></trkpt>
<trkpt lat="13.26162" lon="99.71048"><ele>126</ele><time>2018-06-16T09:33:43Z</time></trkpt>
<trkpt lat="13.26176" lon="99.71049"><ele>126</ele><time>2018-06-16T09:33:44Z</time></trkpt>
<trkpt lat="13.26184" lon="99.71052"><ele>126</ele><time>2018-06-16T09:33:45Z</time></trkpt>
<trkpt lat="13.26190" lon="99.71055"><ele>127</ele><time>2018-06-16T09:33:46Z</time></trkpt>
<trkpt lat="13.26196" lon="99.71059"><ele>126</ele><time>2018-06-16T09:33:47Z</time></trkpt>
<trkpt lat="13.26201" lon="99.71063"><ele>127</ele><time>2018-06-16T09:33:49Z</time></trkpt>
<trkpt lat="13.26206" lon="99.71065"><ele>127</ele><time>2018-06-16T09:33:50Z</time></trkpt>
<trkpt lat="13.26211" lon="99.71067"><ele>127</ele><time>2018-06-16T09:33:51Z</time></trkpt>
<trkpt lat="13.26218" lon="99.71067"><ele>126</ele><time>2018-06-16T09:33:52Z</time></trkpt>
<trkpt lat="13.26224" lon="99.71066"><ele>126</ele><time>2018-06-16T09:33:53Z</time></trkpt>
<trkpt lat="13.26230" lon="99.71064"><ele>126</ele><time>2018-06-16T09:33:55Z</time></trkpt>
<trkpt lat="13.26235" lon="99.71062"><ele>126</ele><time>2018-06-16T09:33:58Z</time></trkpt>
<trkpt lat="13.26240" lon="99.71060"><ele>127</ele><time>2018-06-16T09:34:36Z</time></trkpt>
<trkpt lat="13.26245" lon="99.71056"><ele>127</ele><time>2018-06-16T09:34:38Z</time></trkpt>
<trkpt lat="13.26249" lon="99.71054"><ele>127</ele><time>2018-06-16T09:34:39Z</time></trkpt>
<trkpt lat="13.26253" lon="99.71052"><ele>127</ele><time>2018-06-16T09:34:40Z</time></trkpt>
<trkpt lat="13.26258" lon="99.71050"><ele>127</ele><time>2018-06-16T09:34:41Z</time></trkpt>
<trkpt lat="13.26264" lon="99.71049"><ele>126</ele><time>2018-06-16T09:34:42Z</time></trkpt>
<trkpt lat="13.26270" lon="99.71048"><ele>126</ele><time>2018-06-16T09:34:43Z</time></trkpt>
<trkpt lat="13.26276" lon="99.71047"><ele>126</ele><time>2018-06-16T09:34:44Z</time></trkpt>
<trkpt lat="13.26282" lon="99.71046"><ele>126</ele><time>2018-06-16T09:34:45Z</time></trkpt>
<trkpt lat="13.26292" lon="99.71045"><ele>126</ele><time>2018-06-16T09:34:47Z</time></trkpt>
<trkpt lat="13.26299" lon="99.71045"><ele>126</ele><time>2018-06-16T09:34:48Z</time></trkpt>
<trkpt lat="13.26306" lon="99.71047"><ele>126</ele><time>2018-06-16T09:34:49Z</time></trkpt>
<trkpt lat="13.26312" lon="99.71050"><ele>125</ele><time>2018-06-16T09:34:50Z</time></trkpt>
<trkpt lat="13.26318" lon="99.71053"><ele>125</ele><time>2018-06-16T09:34:51Z</time></trkpt>
<trkpt lat="13.26324" lon="99.71057"><ele>125</ele><time>2018-06-16T09:34:52Z</time></trkpt>
<trkpt lat="13.26329" lon="99.71061"><ele>126</ele><time>2018-06-16T09:34:53Z</time></trkpt>
<trkpt lat="13.26334" lon="99.71065"><ele>126</ele><time>2018-06-16T09:34:54Z</time></trkpt>
<trkpt lat="13.26338" lon="99.71068"><ele>126</ele><time>2018-06-16T09:34:55Z</time></trkpt>
<trkpt lat="13.26345" lon="99.71072"><ele>126</ele><time>2018-06-16T09:34:57Z</time></trkpt>
<trkpt lat="13.26354" lon="99.71079"><ele>127</ele><time>2018-06-16T09:34:59Z</time></trkpt>
<trkpt lat="13.26359" lon="99.71083"><ele>127</ele><time>2018-06-16T09:35:00Z</time></trkpt>
<trkpt lat="13.26363" lon="99.71087"><ele>126</ele><time>2018-06-16T09:35:01Z</time></trkpt>
<trkpt lat="13.26366" lon="99.71093"><ele>127</ele><time>2018-06-16T09:35:02Z</time></trkpt>
<trkpt lat="13.26370" lon="99.71101"><ele>127</ele><time>2018-06-16T09:35:03Z</time></trkpt>
<trkpt lat="13.26373" lon="99.71110"><ele>127</ele><time>2018-06-16T09:35:05Z</time></trkpt>
<trkpt lat="13.26377" lon="99.71115"><ele>126</ele><time>2018-06-16T09:35:06Z</time></trkpt>
<trkpt lat="13.26381" lon="99.71118"><ele>126</ele><time>2018-06-16T09:35:07Z</time></trkpt>
<trkpt lat="13.26392" lon="99.71121"><ele>126</ele><time>2018-06-16T09:35:09Z</time></trkpt>
<trkpt lat="13.26406" lon="99.71128"><ele>127</ele><time>2018-06-16T09:35:11Z</time></trkpt>
<trkpt lat="13.26417" lon="99.71136"><ele>126</ele><time>2018-06-16T09:35:13Z</time></trkpt>
<trkpt lat="13.26422" lon="99.71141"><ele>126</ele><time>2018-06-16T09:35:14Z</time></trkpt>
<trkpt lat="13.26426" lon="99.71148"><ele>125</ele><time>2018-06-16T09:35:16Z</time></trkpt>
<trkpt lat="13.26429" lon="99.71153"><ele>125</ele><time>2018-06-16T09:35:17Z</time></trkpt>
<trkpt lat="13.26431" lon="99.71158"><ele>126</ele><time>2018-06-16T09:35:18Z</time></trkpt>
<trkpt lat="13.26436" lon="99.71166"><ele>126</ele><time>2018-06-16T09:35:19Z</time></trkpt>
<trkpt lat="13.26439" lon="99.71172"><ele>126</ele><time>2018-06-16T09:35:20Z</time></trkpt>
<trkpt lat="13.26443" lon="99.71178"><ele>126</ele><time>2018-06-16T09:35:21Z</time></trkpt>
<trkpt lat="13.26445" lon="99.71183"><ele>126</ele><time>2018-06-16T09:35:23Z</time></trkpt>
<trkpt lat="13.26449" lon="99.71191"><ele>126</ele><time>2018-06-16T09:35:25Z</time></trkpt>
<trkpt lat="13.26453" lon="99.71199"><ele>126</ele><time>2018-06-16T09:35:26Z</time></trkpt>
<trkpt lat="13.26457" lon="99.71205"><ele>126</ele><time>2018-06-16T09:35:27Z</time></trkpt>
<trkpt lat="13.26460" lon="99.71210"><ele>126</ele><time>2018-06-16T09:35:28Z</time></trkpt>
<trkpt lat="13.26463" lon="99.71215"><ele>127</ele><time>2018-06-16T09:35:29Z</time></trkpt>
<trkpt lat="13.26467" lon="99.71219"><ele>127</ele><time>2018-06-16T09:35:30Z</time></trkpt>
<trkpt lat="13.26471" lon="99.71224"><ele>127</ele><time>2018-06-16T09:35:31Z</time></trkpt>
<trkpt lat="13.26475" lon="99.71228"><ele>127</ele><time>2018-06-16T09:35:32Z</time></trkpt>
<trkpt lat="13.26479" lon="99.71232"><ele>127</ele><time>2018-06-16T09:35:33Z</time></trkpt>
<trkpt lat="13.26483" lon="99.71236"><ele>127</ele><time>2018-06-16T09:35:34Z</time></trkpt>
<trkpt lat="13.26486" lon="99.71239"><ele>128</ele><time>2018-06-16T09:35:35Z</time></trkpt>
<trkpt lat="13.26490" lon="99.71243"><ele>128</ele><time>2018-06-16T09:35:36Z</time></trkpt>
<trkpt lat="13.26494" lon="99.71247"><ele>128</ele><time>2018-06-16T09:35:37Z</time></trkpt>
<trkpt lat="13.26498" lon="99.71250"><ele>129</ele><time>2018-06-16T09:35:38Z</time></trkpt>
<trkpt lat="13.26501" lon="99.71254"><ele>129</ele><time>2018-06-16T09:35:39Z</time></trkpt>
<trkpt lat="13.26504" lon="99.71257"><ele>129</ele><time>2018-06-16T09:35:40Z</time></trkpt>
<trkpt lat="13.26509" lon="99.71261"><ele>129</ele><time>2018-06-16T09:35:42Z</time></trkpt>
<trkpt lat="13.26513" lon="99.71266"><ele>130</ele><time>2018-06-16T09:35:44Z</time></trkpt>
<trkpt lat="13.26518" lon="99.71272"><ele>130</ele><time>2018-06-16T09:35:46Z</time></trkpt>
<trkpt lat="13.26523" lon="99.71279"><ele>131</ele><time>2018-06-16T09:35:48Z</time></trkpt>
<trkpt lat="13.26528" lon="99.71286"><ele>131</ele><time>2018-06-16T09:35:50Z</time></trkpt>
<trkpt lat="13.26538" lon="99.71299"><ele>131</ele><time>2018-06-16T09:35:51Z</time></trkpt>
<trkpt lat="13.26542" lon="99.71305"><ele>131</ele><time>2018-06-16T09:35:52Z</time></trkpt>
<trkpt lat="13.26545" lon="99.71309"><ele>131</ele><time>2018-06-16T09:35:53Z</time></trkpt>
<trkpt lat="13.26549" lon="99.71314"><ele>131</ele><time>2018-06-16T09:35:54Z</time></trkpt>
<trkpt lat="13.26554" lon="99.71318"><ele>131</ele><time>2018-06-16T09:35:55Z</time></trkpt>
<trkpt lat="13.26559" lon="99.71323"><ele>131</ele><time>2018-06-16T09:35:56Z</time></trkpt>
<trkpt lat="13.26563" lon="99.71326"><ele>130</ele><time>2018-06-16T09:35:58Z</time></trkpt>
<trkpt lat="13.26571" lon="99.71332"><ele>130</ele><time>2018-06-16T09:36:00Z</time></trkpt>
<trkpt lat="13.26580" lon="99.71340"><ele>130</ele><time>2018-06-16T09:36:01Z</time></trkpt>
<trkpt lat="13.26588" lon="99.71345"><ele>129</ele><time>2018-06-16T09:36:02Z</time></trkpt>
<trkpt lat="13.26595" lon="99.71350"><ele>130</ele><time>2018-06-16T09:36:03Z</time></trkpt>
<trkpt lat="13.26602" lon="99.71354"><ele>130</ele><time>2018-06-16T09:36:04Z</time></trkpt>
<trkpt lat="13.26608" lon="99.71358"><ele>130</ele><time>2018-06-16T09:36:05Z</time></trkpt>
<trkpt lat="13.26614" lon="99.71361"><ele>130</ele><time>2018-06-16T09:36:06Z</time></trkpt>
<trkpt lat="13.26619" lon="99.71364"><ele>131</ele><time>2018-06-16T09:36:07Z</time></trkpt>
<trkpt lat="13.26625" lon="99.71367"><ele>131</ele><time>2018-06-16T09:36:08Z</time></trkpt>
<trkpt lat="13.26629" lon="99.71370"><ele>131</ele><time>2018-06-16T09:36:09Z</time></trkpt>
<trkpt lat="13.26634" lon="99.71373"><ele>131</ele><time>2018-06-16T09:36:10Z</time></trkpt>
<trkpt lat="13.26638" lon="99.71375"><ele>131</ele><time>2018-06-16T09:36:11Z</time></trkpt>
<trkpt lat="13.26642" lon="99.71378"><ele>132</ele><time>2018-06-16T09:36:12Z</time></trkpt>
<trkpt lat="13.26648" lon="99.71381"><ele>132</ele><time>2018-06-16T09:36:14Z</time></trkpt>
<trkpt lat="13.26657" lon="99.71388"><ele>132</ele><time>2018-06-16T09:36:15Z</time></trkpt>
<trkpt lat="13.26664" lon="99.71392"><ele>131</ele><time>2018-06-16T09:36:16Z</time></trkpt>
<trkpt lat="13.26668" lon="99.71395"><ele>131</ele><time>2018-06-16T09:36:17Z</time></trkpt>
<trkpt lat="13.26674" lon="99.71397"><ele>130</ele><time>2018-06-16T09:36:18Z</time></trkpt>
<trkpt lat="13.26681" lon="99.71401"><ele>130</ele><time>2018-06-16T09:36:19Z</time></trkpt>
<trkpt lat="13.26689" lon="99.71405"><ele>130</ele><time>2018-06-16T09:36:20Z</time></trkpt>
<trkpt lat="13.26697" lon="99.71410"><ele>129</ele><time>2018-06-16T09:36:21Z</time></trkpt>
<trkpt lat="13.26704" lon="99.71415"><ele>129</ele><time>2018-06-16T09:36:22Z</time></trkpt>
<trkpt lat="13.26711" lon="99.71419"><ele>129</ele><time>2018-06-16T09:36:23Z</time></trkpt>
<trkpt lat="13.26719" lon="99.71425"><ele>126</ele><time>2018-06-16T09:36:24Z</time></trkpt>
<trkpt lat="13.26725" lon="99.71428"><ele>126</ele><time>2018-06-16T09:36:25Z</time></trkpt>
<trkpt lat="13.26733" lon="99.71426"><ele>126</ele><time>2018-06-16T09:36:27Z</time></trkpt>
<trkpt lat="13.26739" lon="99.71423"><ele>126</ele><time>2018-06-16T09:36:28Z</time></trkpt>
<trkpt lat="13.26745" lon="99.71421"><ele>126</ele><time>2018-06-16T09:36:29Z</time></trkpt>
<trkpt lat="13.26751" lon="99.71419"><ele>126</ele><time>2018-06-16T09:36:30Z</time></trkpt>
<trkpt lat="13.26757" lon="99.71416"><ele>126</ele><time>2018-06-16T09:36:31Z</time></trkpt>
<trkpt lat="13.26763" lon="99.71414"><ele>126</ele><time>2018-06-16T09:36:33Z</time></trkpt>
<trkpt lat="13.26770" lon="99.71411"><ele>127</ele><time>2018-06-16T09:36:35Z</time></trkpt>
<trkpt lat="13.26775" lon="99.71410"><ele>127</ele><time>2018-06-16T09:36:38Z</time></trkpt>
<trkpt lat="13.26780" lon="99.71407"><ele>138</ele><time>2018-06-16T09:37:58Z</time></trkpt>
<trkpt lat="13.26784" lon="99.71405"><ele>138</ele><time>2018-06-16T09:38:00Z</time></trkpt>
<trkpt lat="13.26789" lon="99.71403"><ele>138</ele><time>2018-06-16T09:38:02Z</time></trkpt>
<trkpt lat="13.26797" lon="99.71400"><ele>137</ele><time>2018-06-16T09:38:04Z</time></trkpt>
<trkpt lat="13.26804" lon="99.71398"><ele>137</ele><time>2018-06-16T09:38:06Z</time></trkpt>
<trkpt lat="13.26812" lon="99.71395"><ele>137</ele><time>2018-06-16T09:38:08Z</time></trkpt>
<trkpt lat="13.26817" lon="99.71393"><ele>137</ele><time>2018-06-16T09:38:09Z</time></trkpt>
<trkpt lat="13.26822" lon="99.71392"><ele>136</ele><time>2018-06-16T09:38:10Z</time></trkpt>
<trkpt lat="13.26827" lon="99.71390"><ele>136</ele><time>2018-06-16T09:38:11Z</time></trkpt>
<trkpt lat="13.26832" lon="99.71388"><ele>136</ele><time>2018-06-16T09:38:12Z</time></trkpt>
<trkpt lat="13.26838" lon="99.71386"><ele>135</ele><time>2018-06-16T09:38:13Z</time></trkpt>
<trkpt lat="13.26843" lon="99.71384"><ele>135</ele><time>2018-06-16T09:38:14Z</time></trkpt>
<trkpt lat="13.26849" lon="99.71383"><ele>135</ele><time>2018-06-16T09:38:15Z</time></trkpt>
<trkpt lat="13.26855" lon="99.71381"><ele>135</ele><time>2018-06-16T09:38:16Z</time></trkpt>
<trkpt lat="13.26860" lon="99.71379"><ele>135</ele><time>2018-06-16T09:38:17Z</time></trkpt>
<trkpt lat="13.26866" lon="99.71377"><ele>134</ele><time>2018-06-16T09:38:18Z</time></trkpt>
<trkpt lat="13.26872" lon="99.71376"><ele>135</ele><time>2018-06-16T09:38:19Z</time></trkpt>
<trkpt lat="13.26877" lon="99.71374"><ele>134</ele><time>2018-06-16T09:38:20Z</time></trkpt>
<trkpt lat="13.26883" lon="99.71373"><ele>134</ele><time>2018-06-16T09:38:21Z</time></trkpt>
<trkpt lat="13.26888" lon="99.71371"><ele>133</ele><time>2018-06-16T09:38:22Z</time></trkpt>
<trkpt lat="13.26894" lon="99.71369"><ele>133</ele><time>2018-06-16T09:38:23Z</time></trkpt>
<trkpt lat="13.26900" lon="99.71368"><ele>133</ele><time>2018-06-16T09:38:24Z</time></trkpt>
<trkpt lat="13.26906" lon="99.71366"><ele>133</ele><time>2018-06-16T09:38:25Z</time></trkpt>
<trkpt lat="13.26912" lon="99.71364"><ele>133</ele><time>2018-06-16T09:38:26Z</time></trkpt>
<trkpt lat="13.26917" lon="99.71362"><ele>133</ele><time>2018-06-16T09:38:27Z</time></trkpt>
<trkpt lat="13.26923" lon="99.71360"><ele>132</ele><time>2018-06-16T09:38:28Z</time></trkpt>
<trkpt lat="13.26929" lon="99.71358"><ele>132</ele><time>2018-06-16T09:38:29Z</time></trkpt>
<trkpt lat="13.26934" lon="99.71356"><ele>132</ele><time>2018-06-16T09:38:30Z</time></trkpt>
<trkpt lat="13.26940" lon="99.71354"><ele>132</ele><time>2018-06-16T09:38:31Z</time></trkpt>
<trkpt lat="13.26946" lon="99.71352"><ele>132</ele><time>2018-06-16T09:38:33Z</time></trkpt>
<trkpt lat="13.26951" lon="99.71350"><ele>132</ele><time>2018-06-16T09:38:34Z</time></trkpt>
<trkpt lat="13.26956" lon="99.71349"><ele>132</ele><time>2018-06-16T09:38:35Z</time></trkpt>
<trkpt lat="13.26962" lon="99.71347"><ele>132</ele><time>2018-06-16T09:38:36Z</time></trkpt>
<trkpt lat="13.26967" lon="99.71346"><ele>132</ele><time>2018-06-16T09:38:37Z</time></trkpt>
<trkpt lat="13.26972" lon="99.71344"><ele>133</ele><time>2018-06-16T09:38:38Z</time></trkpt>
<trkpt lat="13.26978" lon="99.71343"><ele>133</ele><time>2018-06-16T09:38:39Z</time></trkpt>
<trkpt lat="13.26983" lon="99.71341"><ele>133</ele><time>2018-06-16T09:38:40Z</time></trkpt>
<trkpt lat="13.26988" lon="99.71339"><ele>133</ele><time>2018-06-16T09:38:41Z</time></trkpt>
<trkpt lat="13.26992" lon="99.71338"><ele>133</ele><time>2018-06-16T09:38:42Z</time></trkpt>
<trkpt lat="13.26997" lon="99.71336"><ele>133</ele><time>2018-06-16T09:38:43Z</time></trkpt>
<trkpt lat="13.27002" lon="99.71334"><ele>133</ele><time>2018-06-16T09:38:44Z</time></trkpt>
<trkpt lat="13.27007" lon="99.71332"><ele>133</ele><time>2018-06-16T09:38:45Z</time></trkpt>
<trkpt lat="13.27011" lon="99.71331"><ele>133</ele><time>2018-06-16T09:38:46Z</time></trkpt>
<trkpt lat="13.27016" lon="99.71329"><ele>134</ele><time>2018-06-16T09:38:47Z</time></trkpt>
<trkpt lat="13.27021" lon="99.71327"><ele>134</ele><time>2018-06-16T09:38:48Z</time></trkpt>
<trkpt lat="13.27025" lon="99.71326"><ele>134</ele><time>2018-06-16T09:38:49Z</time></trkpt>
<trkpt lat="13.27033" lon="99.71323"><ele>134</ele><time>2018-06-16T09:38:51Z</time></trkpt>
<trkpt lat="13.27040" lon="99.71319"><ele>134</ele><time>2018-06-16T09:38:53Z</time></trkpt>
<trkpt lat="13.27045" lon="99.71315"><ele>135</ele><time>2018-06-16T09:38:55Z</time></trkpt>
<trkpt lat="13.27050" lon="99.71310"><ele>135</ele><time>2018-06-16T09:38:57Z</time></trkpt>
<trkpt lat="13.27054" lon="99.71306"><ele>135</ele><time>2018-06-16T09:38:59Z</time></trkpt>
<trkpt lat="13.27059" lon="99.71302"><ele>136</ele><time>2018-06-16T09:39:01Z</time></trkpt>
<trkpt lat="13.27063" lon="99.71297"><ele>136</ele><time>2018-06-16T09:39:03Z</time></trkpt>
<trkpt lat="13.27067" lon="99.71292"><ele>136</ele><time>2018-06-16T09:39:05Z</time></trkpt>
<trkpt lat="13.27070" lon="99.71287"><ele>136</ele><time>2018-06-16T09:39:07Z</time></trkpt>
<trkpt lat="13.27074" lon="99.71283"><ele>136</ele><time>2018-06-16T09:39:08Z</time></trkpt>
<trkpt lat="13.27078" lon="99.71279"><ele>136</ele><time>2018-06-16T09:39:10Z</time></trkpt>
<trkpt lat="13.27083" lon="99.71276"><ele>136</ele><time>2018-06-16T09:39:13Z</time></trkpt>
<trkpt lat="13.27090" lon="99.71275"><ele>137</ele><time>2018-06-16T09:39:16Z</time></trkpt>
<trkpt lat="13.27094" lon="99.71273"><ele>137</ele><time>2018-06-16T09:39:18Z</time></trkpt>
<trkpt lat="13.27098" lon="99.71272"><ele>137</ele><time>2018-06-16T09:39:20Z</time></trkpt>
<trkpt lat="13.27103" lon="99.71271"><ele>137</ele><time>2018-06-16T09:39:22Z</time></trkpt>
<trkpt lat="13.27108" lon="99.71269"><ele>138</ele><time>2018-06-16T09:39:24Z</time></trkpt>
<trkpt lat="13.27112" lon="99.71267"><ele>138</ele><time>2018-06-16T09:39:26Z</time></trkpt>
<trkpt lat="13.27117" lon="99.71266"><ele>138</ele><time>2018-06-16T09:39:28Z</time></trkpt>
<trkpt lat="13.27122" lon="99.71264"><ele>138</ele><time>2018-06-16T09:39:31Z</time></trkpt>
<trkpt lat="13.27126" lon="99.71263"><ele>139</ele><time>2018-06-16T09:39:34Z</time></trkpt>
<trkpt lat="13.27131" lon="99.71261"><ele>139</ele><time>2018-06-16T09:39:37Z</time></trkpt>
<trkpt lat="13.27135" lon="99.71259"><ele>139</ele><time>2018-06-16T09:39:40Z</time></trkpt>
<trkpt lat="13.27139" lon="99.71258"><ele>140</ele><time>2018-06-16T09:39:43Z</time></trkpt>
<trkpt lat="13.27144" lon="99.71256"><ele>140</ele><time>2018-06-16T09:39:46Z</time></trkpt>
<trkpt lat="13.27149" lon="99.71254"><ele>141</ele><time>2018-06-16T09:39:49Z</time></trkpt>
<trkpt lat="13.27154" lon="99.71253"><ele>141</ele><time>2018-06-16T09:39:52Z</time></trkpt>
<trkpt lat="13.27160" lon="99.71251"><ele>141</ele><time>2018-06-16T09:39:55Z</time></trkpt>
<trkpt lat="13.27164" lon="99.71250"><ele>141</ele><time>2018-06-16T09:39:58Z</time></trkpt>
<trkpt lat="13.27169" lon="99.71248"><ele>142</ele><time>2018-06-16T09:40:00Z</time></trkpt>
<trkpt lat="13.27174" lon="99.71247"><ele>142</ele><time>2018-06-16T09:40:03Z</time></trkpt>
<trkpt lat="13.27179" lon="99.71246"><ele>142</ele><time>2018-06-16T09:40:07Z</time></trkpt>
<trkpt lat="13.27185" lon="99.71245"><ele>142</ele><time>2018-06-16T09:40:11Z</time></trkpt>
<trkpt lat="13.27190" lon="99.71243"><ele>141</ele><time>2018-06-16T09:40:14Z</time></trkpt>
<trkpt lat="13.27199" lon="99.71239"><ele>141</ele><time>2018-06-16T09:40:16Z</time></trkpt>
<trkpt lat="13.27206" lon="99.71237"><ele>141</ele><time>2018-06-16T09:40:17Z</time></trkpt>
<trkpt lat="13.27210" lon="99.71235"><ele>142</ele><time>2018-06-16T09:40:18Z</time></trkpt>
<trkpt lat="13.27218" lon="99.71232"><ele>142</ele><time>2018-06-16T09:40:19Z</time></trkpt>
<trkpt lat="13.27226" lon="99.71230"><ele>141</ele><time>2018-06-16T09:40:20Z</time></trkpt>
<trkpt lat="13.27234" lon="99.71227"><ele>140</ele><time>2018-06-16T09:40:21Z</time></trkpt>
<trkpt lat="13.27243" lon="99.71224"><ele>140</ele><time>2018-06-16T09:40:22Z</time></trkpt>
<trkpt lat="13.27249" lon="99.71223"><ele>140</ele><time>2018-06-16T09:40:23Z</time></trkpt>
<trkpt lat="13.27253" lon="99.71222"><ele>139</ele><time>2018-06-16T09:40:24Z</time></trkpt>
<trkpt lat="13.27260" lon="99.71222"><ele>139</ele><time>2018-06-16T09:40:26Z</time></trkpt>
<trkpt lat="13.27264" lon="99.71224"><ele>139</ele><time>2018-06-16T09:40:29Z</time></trkpt>
<trkpt lat="13.27268" lon="99.71229"><ele>142</ele><time>2018-06-16T09:41:45Z</time></trkpt>
<trkpt lat="13.27270" lon="99.71233"><ele>141</ele><time>2018-06-16T09:41:49Z</time></trkpt>
<trkpt lat="13.27272" lon="99.71238"><ele>142</ele><time>2018-06-16T09:41:52Z</time></trkpt>
<trkpt lat="13.27274" lon="99.71243"><ele>142</ele><time>2018-06-16T09:41:55Z</time></trkpt>
<trkpt lat="13.27277" lon="99.71249"><ele>142</ele><time>2018-06-16T09:41:58Z</time></trkpt>
<trkpt lat="13.27280" lon="99.71255"><ele>142</ele><time>2018-06-16T09:42:01Z</time></trkpt>
<trkpt lat="13.27282" lon="99.71259"><ele>142</ele><time>2018-06-16T09:42:03Z</time></trkpt>
<trkpt lat="13.27285" lon="99.71265"><ele>142</ele><time>2018-06-16T09:42:05Z</time></trkpt>
<trkpt lat="13.27288" lon="99.71269"><ele>141</ele><time>2018-06-16T09:42:06Z</time></trkpt>
<trkpt lat="13.27291" lon="99.71274"><ele>142</ele><time>2018-06-16T09:42:07Z</time></trkpt>
<trkpt lat="13.27295" lon="99.71281"><ele>142</ele><time>2018-06-16T09:42:08Z</time></trkpt>
<trkpt lat="13.27297" lon="99.71285"><ele>142</ele><time>2018-06-16T09:42:09Z</time></trkpt>
<trkpt lat="13.27301" lon="99.71291"><ele>142</ele><time>2018-06-16T09:42:10Z</time></trkpt>
<trkpt lat="13.27304" lon="99.71298"><ele>142</ele><time>2018-06-16T09:42:11Z</time></trkpt>
<trkpt lat="13.27309" lon="99.71305"><ele>141</ele><time>2018-06-16T09:42:12Z</time></trkpt>
<trkpt lat="13.27314" lon="99.71316"><ele>141</ele><time>2018-06-16T09:42:13Z</time></trkpt>
<trkpt lat="13.27319" lon="99.71323"><ele>141</ele><time>2018-06-16T09:42:14Z</time></trkpt>
<trkpt lat="13.27323" lon="99.71329"><ele>141</ele><time>2018-06-16T09:42:15Z</time></trkpt>
<trkpt lat="13.27328" lon="99.71333"><ele>140</ele><time>2018-06-16T09:42:18Z</time></trkpt>
<trkpt lat="13.27339" lon="99.71335"><ele>140</ele><time>2018-06-16T09:42:19Z</time></trkpt>
<trkpt lat="13.27344" lon="99.71336"><ele>139</ele><time>2018-06-16T09:42:20Z</time></trkpt>
<trkpt lat="13.27350" lon="99.71335"><ele>139</ele><time>2018-06-16T09:42:21Z</time></trkpt>
<trkpt lat="13.27357" lon="99.71335"><ele>139</ele><time>2018-06-16T09:42:22Z</time></trkpt>
<trkpt lat="13.27364" lon="99.71335"><ele>139</ele><time>2018-06-16T09:42:23Z</time></trkpt>
<trkpt lat="13.27372" lon="99.71336"><ele>137</ele><time>2018-06-16T09:42:24Z</time></trkpt>
<trkpt lat="13.27378" lon="99.71336"><ele>136</ele><time>2018-06-16T09:42:25Z</time></trkpt>
<trkpt lat="13.27387" lon="99.71338"><ele>136</ele><time>2018-06-16T09:42:26Z</time></trkpt>
<trkpt lat="13.27394" lon="99.71340"><ele>135</ele><time>2018-06-16T09:42:27Z</time></trkpt>
<trkpt lat="13.27401" lon="99.71342"><ele>136</ele><time>2018-06-16T09:42:28Z</time></trkpt>
<trkpt lat="13.27406" lon="99.71342"><ele>136</ele><time>2018-06-16T09:42:29Z</time></trkpt>
<trkpt lat="13.27413" lon="99.71343"><ele>136</ele><time>2018-06-16T09:42:30Z</time></trkpt>
<trkpt lat="13.27423" lon="99.71345"><ele>136</ele><time>2018-06-16T09:42:31Z</time></trkpt>
<trkpt lat="13.27429" lon="99.71346"><ele>135</ele><time>2018-06-16T09:42:32Z</time></trkpt>
<trkpt lat="13.27438" lon="99.71349"><ele>136</ele><time>2018-06-16T09:42:33Z</time></trkpt>
<trkpt lat="13.27446" lon="99.71352"><ele>135</ele><time>2018-06-16T09:42:34Z</time></trkpt>
<trkpt lat="13.27452" lon="99.71356"><ele>135</ele><time>2018-06-16T09:42:35Z</time></trkpt>
<trkpt lat="13.27456" lon="99.71360"><ele>134</ele><time>2018-06-16T09:42:36Z</time></trkpt>
<trkpt lat="13.27462" lon="99.71369"><ele>134</ele><time>2018-06-16T09:42:37Z</time></trkpt>
<trkpt lat="13.27463" lon="99.71375"><ele>133</ele><time>2018-06-16T09:42:38Z</time></trkpt>
<trkpt lat="13.27463" lon="99.71385"><ele>133</ele><time>2018-06-16T09:42:40Z</time></trkpt>
<trkpt lat="13.27462" lon="99.71395"><ele>133</ele><time>2018-06-16T09:42:41Z</time></trkpt>
<trkpt lat="13.27462" lon="99.71401"><ele>132</ele><time>2018-06-16T09:42:42Z</time></trkpt>
<trkpt lat="13.27462" lon="99.71407"><ele>132</ele><time>2018-06-16T09:42:43Z</time></trkpt>
<trkpt lat="13.27461" lon="99.71412"><ele>132</ele><time>2018-06-16T09:42:44Z</time></trkpt>
<trkpt lat="13.27460" lon="99.71417"><ele>132</ele><time>2018-06-16T09:42:46Z</time></trkpt>
<trkpt lat="13.27460" lon="99.71422"><ele>133</ele><time>2018-06-16T09:42:50Z</time></trkpt>
<trkpt lat="13.27459" lon="99.71427"><ele>133</ele><time>2018-06-16T09:42:52Z</time></trkpt>
<trkpt lat="13.27458" lon="99.71433"><ele>133</ele><time>2018-06-16T09:42:54Z</time></trkpt>
<trkpt lat="13.27462" lon="99.71443"><ele>132</ele><time>2018-06-16T09:42:56Z</time></trkpt>
<trkpt lat="13.27465" lon="99.71446"><ele>132</ele><time>2018-06-16T09:42:57Z</time></trkpt>
<trkpt lat="13.27470" lon="99.71449"><ele>131</ele><time>2018-06-16T09:42:58Z</time></trkpt>
<trkpt lat="13.27475" lon="99.71452"><ele>130</ele><time>2018-06-16T09:42:59Z</time></trkpt>
<trkpt lat="13.27479" lon="99.71456"><ele>130</ele><time>2018-06-16T09:43:00Z</time></trkpt>
<trkpt lat="13.27483" lon="99.71459"><ele>131</ele><time>2018-06-16T09:43:02Z</time></trkpt>
<trkpt lat="13.27487" lon="99.71462"><ele>130</ele><time>2018-06-16T09:43:03Z</time></trkpt>
<trkpt lat="13.27491" lon="99.71467"><ele>130</ele><time>2018-06-16T09:43:05Z</time></trkpt>
<trkpt lat="13.27495" lon="99.71470"><ele>131</ele><time>2018-06-16T09:43:07Z</time></trkpt>
<trkpt lat="13.27500" lon="99.71474"><ele>131</ele><time>2018-06-16T09:43:09Z</time></trkpt>
<trkpt lat="13.27505" lon="99.71476"><ele>131</ele><time>2018-06-16T09:43:11Z</time></trkpt>
<trkpt lat="13.27510" lon="99.71479"><ele>132</ele><time>2018-06-16T09:43:13Z</time></trkpt>
<trkpt lat="13.27515" lon="99.71481"><ele>132</ele><time>2018-06-16T09:43:15Z</time></trkpt>
<trkpt lat="13.27520" lon="99.71483"><ele>132</ele><time>2018-06-16T09:43:17Z</time></trkpt>
<trkpt lat="13.27525" lon="99.71485"><ele>133</ele><time>2018-06-16T09:43:19Z</time></trkpt>
<trkpt lat="13.27530" lon="99.71486"><ele>134</ele><time>2018-06-16T09:43:21Z</time></trkpt>
<trkpt lat="13.27534" lon="99.71489"><ele>136</ele><time>2018-06-16T09:43:23Z</time></trkpt>
<trkpt lat="13.27540" lon="99.71493"><ele>138</ele><time>2018-06-16T09:43:26Z</time></trkpt>
<trkpt lat="13.27543" lon="99.71497"><ele>138</ele><time>2018-06-16T09:43:28Z</time></trkpt>
<trkpt lat="13.27547" lon="99.71500"><ele>138</ele><time>2018-06-16T09:43:29Z</time></trkpt>
<trkpt lat="13.27551" lon="99.71505"><ele>138</ele><time>2018-06-16T09:43:31Z</time></trkpt>
<trkpt lat="13.27555" lon="99.71510"><ele>139</ele><time>2018-06-16T09:43:33Z</time></trkpt>
<trkpt lat="13.27560" lon="99.71515"><ele>139</ele><time>2018-06-16T09:43:35Z</time></trkpt>
<trkpt lat="13.27564" lon="99.71521"><ele>139</ele><time>2018-06-16T09:43:37Z</time></trkpt>
<trkpt lat="13.27568" lon="99.71526"><ele>139</ele><time>2018-06-16T09:43:39Z</time></trkpt>
<trkpt lat="13.27574" lon="99.71532"><ele>140</ele><time>2018-06-16T09:43:41Z</time></trkpt>
<trkpt lat="13.27578" lon="99.71538"><ele>140</ele><time>2018-06-16T09:43:43Z</time></trkpt>
<trkpt lat="13.27581" lon="99.71541"><ele>141</ele><time>2018-06-16T09:43:45Z</time></trkpt>
<trkpt lat="13.27584" lon="99.71546"><ele>141</ele><time>2018-06-16T09:43:47Z</time></trkpt>
<trkpt lat="13.27587" lon="99.71551"><ele>141</ele><time>2018-06-16T09:43:49Z</time></trkpt>
<trkpt lat="13.27590" lon="99.71555"><ele>142</ele><time>2018-06-16T09:43:51Z</time></trkpt>
<trkpt lat="13.27594" lon="99.71560"><ele>142</ele><time>2018-06-16T09:43:53Z</time></trkpt>
<trkpt lat="13.27599" lon="99.71566"><ele>142</ele><time>2018-06-16T09:43:55Z</time></trkpt>
<trkpt lat="13.27603" lon="99.71572"><ele>142</ele><time>2018-06-16T09:43:57Z</time></trkpt>
<trkpt lat="13.27607" lon="99.71577"><ele>142</ele><time>2018-06-16T09:43:59Z</time></trkpt>
<trkpt lat="13.27611" lon="99.71580"><ele>142</ele><time>2018-06-16T09:44:01Z</time></trkpt>
<trkpt lat="13.27614" lon="99.71584"><ele>144</ele><time>2018-06-16T09:44:06Z</time></trkpt>
<trkpt lat="13.27618" lon="99.71587"><ele>144</ele><time>2018-06-16T09:44:14Z</time></trkpt>
<trkpt lat="13.27620" lon="99.71593"><ele>143</ele><time>2018-06-16T09:45:58Z</time></trkpt>
<trkpt lat="13.27623" lon="99.71599"><ele>143</ele><time>2018-06-16T09:46:00Z</time></trkpt>
<trkpt lat="13.27624" lon="99.71607"><ele>142</ele><time>2018-06-16T09:46:02Z</time></trkpt>
<trkpt lat="13.27624" lon="99.71613"><ele>143</ele><time>2018-06-16T09:46:03Z</time></trkpt>
<trkpt lat="13.27623" lon="99.71619"><ele>142</ele><time>2018-06-16T09:46:04Z</time></trkpt>
<trkpt lat="13.27623" lon="99.71625"><ele>142</ele><time>2018-06-16T09:46:05Z</time></trkpt>
<trkpt lat="13.27622" lon="99.71633"><ele>141</ele><time>2018-06-16T09:46:06Z</time></trkpt>
<trkpt lat="13.27622" lon="99.71639"><ele>142</ele><time>2018-06-16T09:46:07Z</time></trkpt>
<trkpt lat="13.27621" lon="99.71645"><ele>142</ele><time>2018-06-16T09:46:08Z</time></trkpt>
<trkpt lat="13.27621" lon="99.71651"><ele>140</ele><time>2018-06-16T09:46:09Z</time></trkpt>
<trkpt lat="13.27621" lon="99.71658"><ele>140</ele><time>2018-06-16T09:46:10Z</time></trkpt>
<trkpt lat="13.27621" lon="99.71663"><ele>140</ele><time>2018-06-16T09:46:11Z</time></trkpt>
<trkpt lat="13.27622" lon="99.71669"><ele>138</ele><time>2018-06-16T09:46:12Z</time></trkpt>
<trkpt lat="13.27621" lon="99.71675"><ele>138</ele><time>2018-06-16T09:46:13Z</time></trkpt>
<trkpt lat="13.27616" lon="99.71681"><ele>136</ele><time>2018-06-16T09:46:15Z</time></trkpt>
<trkpt lat="13.27611" lon="99.71686"><ele>134</ele><time>2018-06-16T09:46:17Z</time></trkpt>
<trkpt lat="13.27605" lon="99.71691"><ele>133</ele><time>2018-06-16T09:46:19Z</time></trkpt>
<trkpt lat="13.27602" lon="99.71696"><ele>132</ele><time>2018-06-16T09:46:21Z</time></trkpt>
<trkpt lat="13.27599" lon="99.71702"><ele>129</ele><time>2018-06-16T09:46:23Z</time></trkpt>
<trkpt lat="13.27598" lon="99.71709"><ele>128</ele><time>2018-06-16T09:46:25Z</time></trkpt>
<trkpt lat="13.27598" lon="99.71718"><ele>126</ele><time>2018-06-16T09:46:27Z</time></trkpt>
<trkpt lat="13.27599" lon="99.71725"><ele>124</ele><time>2018-06-16T09:46:29Z</time></trkpt>
<trkpt lat="13.27600" lon="99.71730"><ele>124</ele><time>2018-06-16T09:46:30Z</time></trkpt>
<trkpt lat="13.27602" lon="99.71736"><ele>123</ele><time>2018-06-16T09:46:31Z</time></trkpt>
<trkpt lat="13.27604" lon="99.71742"><ele>120</ele><time>2018-06-16T09:46:32Z</time></trkpt>
<trkpt lat="13.27606" lon="99.71747"><ele>119</ele><time>2018-06-16T09:46:33Z</time></trkpt>
<trkpt lat="13.27608" lon="99.71752"><ele>118</ele><time>2018-06-16T09:46:34Z</time></trkpt>
<trkpt lat="13.27612" lon="99.71756"><ele>118</ele><time>2018-06-16T09:46:35Z</time></trkpt>
<trkpt lat="13.27617" lon="99.71763"><ele>116</ele><time>2018-06-16T09:46:36Z</time></trkpt>
<trkpt lat="13.27621" lon="99.71767"><ele>115</ele><time>2018-06-16T09:46:37Z</time></trkpt>
<trkpt lat="13.27624" lon="99.71772"><ele>114</ele><time>2018-06-16T09:46:38Z</time></trkpt>
<trkpt lat="13.27627" lon="99.71776"><ele>112</ele><time>2018-06-16T09:46:39Z</time></trkpt>
<trkpt lat="13.27630" lon="99.71780"><ele>112</ele><time>2018-06-16T09:46:40Z</time></trkpt>
<trkpt lat="13.27635" lon="99.71784"><ele>110</ele><time>2018-06-16T09:46:42Z</time></trkpt>
<trkpt lat="13.27639" lon="99.71788"><ele>108</ele><time>2018-06-16T09:46:44Z</time></trkpt>
<trkpt lat="13.27640" lon="99.71793"><ele>107</ele><time>2018-06-16T09:46:46Z</time></trkpt>
<trkpt lat="13.27638" lon="99.71799"><ele>103</ele><time>2018-06-16T09:46:48Z</time></trkpt>
<trkpt lat="13.27633" lon="99.71803"><ele>97</ele><time>2018-06-16T09:46:50Z</time></trkpt>
<trkpt lat="13.27627" lon="99.71806"><ele>96</ele><time>2018-06-16T09:46:52Z</time></trkpt>
<trkpt lat="13.27618" lon="99.71811"><ele>94</ele><time>2018-06-16T09:46:54Z</time></trkpt>
<trkpt lat="13.27612" lon="99.71813"><ele>92</ele><time>2018-06-16T09:46:55Z</time></trkpt>
<trkpt lat="13.27602" lon="99.71817"><ele>92</ele><time>2018-06-16T09:46:56Z</time></trkpt>
<trkpt lat="13.27596" lon="99.71819"><ele>91</ele><time>2018-06-16T09:46:57Z</time></trkpt>
<trkpt lat="13.27591" lon="99.71821"><ele>90</ele><time>2018-06-16T09:46:58Z</time></trkpt>
<trkpt lat="13.27584" lon="99.71823"><ele>88</ele><time>2018-06-16T09:47:00Z</time></trkpt>
<trkpt lat="13.27581" lon="99.71826"><ele>87</ele><time>2018-06-16T09:47:07Z</time></trkpt>
<trkpt lat="13.27577" lon="99.71830"><ele>83</ele><time>2018-06-16T09:47:34Z</time></trkpt>
<trkpt lat="13.27574" lon="99.71834"><ele>83</ele><time>2018-06-16T09:47:39Z</time></trkpt>
<trkpt lat="13.27574" lon="99.71838"><ele>83</ele><time>2018-06-16T09:48:29Z</time></trkpt>
<trkpt lat="13.27570" lon="99.71841"><ele>82</ele><time>2018-06-16T09:49:23Z</time></trkpt>
<trkpt lat="13.27563" lon="99.71844"><ele>82</ele><time>2018-06-16T09:49:26Z</time></trkpt>
<trkpt lat="13.27560" lon="99.71848"><ele>82</ele><time>2018-06-16T09:49:27Z</time></trkpt>
<trkpt lat="13.27557" lon="99.71853"><ele>81</ele><time>2018-06-16T09:49:28Z</time></trkpt>
<trkpt lat="13.27557" lon="99.71858"><ele>81</ele><time>2018-06-16T09:49:29Z</time></trkpt>
<trkpt lat="13.27558" lon="99.71863"><ele>81</ele><time>2018-06-16T09:49:30Z</time></trkpt>
<trkpt lat="13.27559" lon="99.71868"><ele>82</ele><time>2018-06-16T09:49:31Z</time></trkpt>
<trkpt lat="13.27561" lon="99.71874"><ele>82</ele><time>2018-06-16T09:49:32Z</time></trkpt>
<trkpt lat="13.27563" lon="99.71881"><ele>82</ele><time>2018-06-16T09:49:33Z</time></trkpt>
<trkpt lat="13.27566" lon="99.71887"><ele>81</ele><time>2018-06-16T09:49:34Z</time></trkpt>
<trkpt lat="13.27568" lon="99.71892"><ele>81</ele><time>2018-06-16T09:49:35Z</time></trkpt>
<trkpt lat="13.27571" lon="99.71898"><ele>80</ele><time>2018-06-16T09:49:36Z</time></trkpt>
<trkpt lat="13.27573" lon="99.71902"><ele>80</ele><time>2018-06-16T09:49:37Z</time></trkpt>
<trkpt lat="13.27575" lon="99.71911"><ele>80</ele><time>2018-06-16T09:49:39Z</time></trkpt>
<trkpt lat="13.27575" lon="99.71917"><ele>80</ele><time>2018-06-16T09:49:40Z</time></trkpt>
<trkpt lat="13.27574" lon="99.71922"><ele>80</ele><time>2018-06-16T09:49:41Z</time></trkpt>
<trkpt lat="13.27572" lon="99.71928"><ele>81</ele><time>2018-06-16T09:49:42Z</time></trkpt>
<trkpt lat="13.27570" lon="99.71935"><ele>80</ele><time>2018-06-16T09:49:43Z</time></trkpt>
<trkpt lat="13.27568" lon="99.71943"><ele>78</ele><time>2018-06-16T09:49:44Z</time></trkpt>
<trkpt lat="13.27567" lon="99.71949"><ele>78</ele><time>2018-06-16T09:49:45Z</time></trkpt>
<trkpt lat="13.27567" lon="99.71955"><ele>86</ele><time>2018-06-16T09:49:46Z</time></trkpt>
<trkpt lat="13.27568" lon="99.71963"><ele>92</ele><time>2018-06-16T09:49:47Z</time></trkpt>
<trkpt lat="13.27570" lon="99.71972"><ele>101</ele><time>2018-06-16T09:49:48Z</time></trkpt>
<trkpt lat="13.27572" lon="99.71981"><ele>107</ele><time>2018-06-16T09:49:49Z</time></trkpt>
<trkpt lat="13.27574" lon="99.71989"><ele>111</ele><time>2018-06-16T09:49:50Z</time></trkpt>
<trkpt lat="13.27577" lon="99.71998"><ele>115</ele><time>2018-06-16T09:49:51Z</time></trkpt>
<trkpt lat="13.27579" lon="99.72003"><ele>119</ele><time>2018-06-16T09:49:52Z</time></trkpt>
<trkpt lat="13.27582" lon="99.72010"><ele>120</ele><time>2018-06-16T09:49:53Z</time></trkpt>
<trkpt lat="13.27585" lon="99.72017"><ele>121</ele><time>2018-06-16T09:49:54Z</time></trkpt>
<trkpt lat="13.27588" lon="99.72025"><ele>123</ele><time>2018-06-16T09:49:55Z</time></trkpt>
<trkpt lat="13.27590" lon="99.72033"><ele>125</ele><time>2018-06-16T09:49:56Z</time></trkpt>
<trkpt lat="13.27594" lon="99.72041"><ele>124</ele><time>2018-06-16T09:49:57Z</time></trkpt>
<trkpt lat="13.27599" lon="99.72049"><ele>126</ele><time>2018-06-16T09:49:59Z</time></trkpt>
<trkpt lat="13.27604" lon="99.72054"><ele>125</ele><time>2018-06-16T09:50:00Z</time></trkpt>
<trkpt lat="13.27608" lon="99.72059"><ele>125</ele><time>2018-06-16T09:50:01Z</time></trkpt>
<trkpt lat="13.27612" lon="99.72065"><ele>126</ele><time>2018-06-16T09:50:02Z</time></trkpt>
<trkpt lat="13.27616" lon="99.72072"><ele>126</ele><time>2018-06-16T09:50:03Z</time></trkpt>
<trkpt lat="13.27619" lon="99.72079"><ele>125</ele><time>2018-06-16T09:50:04Z</time></trkpt>
<trkpt lat="13.27622" lon="99.72086"><ele>124</ele><time>2018-06-16T09:50:05Z</time></trkpt>
<trkpt lat="13.27625" lon="99.72093"><ele>124</ele><time>2018-06-16T09:50:06Z</time></trkpt>
<trkpt lat="13.27629" lon="99.72099"><ele>124</ele><time>2018-06-16T09:50:07Z</time></trkpt>
<trkpt lat="13.27632" lon="99.72104"><ele>124</ele><time>2018-06-16T09:50:08Z</time></trkpt>
<trkpt lat="13.27635" lon="99.72109"><ele>124</ele><time>2018-06-16T09:50:09Z</time></trkpt>
<trkpt lat="13.27638" lon="99.72112"><ele>124</ele><time>2018-06-16T09:50:10Z</time></trkpt>
<trkpt lat="13.27644" lon="99.72117"><ele>124</ele><time>2018-06-16T09:50:12Z</time></trkpt>
<trkpt lat="13.27648" lon="99.72119"><ele>123</ele><time>2018-06-16T09:50:14Z</time></trkpt>
<trkpt lat="13.27653" lon="99.72122"><ele>124</ele><time>2018-06-16T09:50:17Z</time></trkpt>
<trkpt lat="13.27658" lon="99.72124"><ele>125</ele><time>2018-06-16T09:50:40Z</time></trkpt>
<trkpt lat="13.27664" lon="99.72126"><ele>125</ele><time>2018-06-16T09:50:42Z</time></trkpt>
<trkpt lat="13.27670" lon="99.72126"><ele>125</ele><time>2018-06-16T09:50:44Z</time></trkpt>
<trkpt lat="13.27678" lon="99.72127"><ele>124</ele><time>2018-06-16T09:50:46Z</time></trkpt>
<trkpt lat="13.27686" lon="99.72130"><ele>125</ele><time>2018-06-16T09:50:48Z</time></trkpt>
<trkpt lat="13.27692" lon="99.72136"><ele>124</ele><time>2018-06-16T09:50:50Z</time></trkpt>
<trkpt lat="13.27695" lon="99.72140"><ele>124</ele><time>2018-06-16T09:50:51Z</time></trkpt>
<trkpt lat="13.27698" lon="99.72143"><ele>124</ele><time>2018-06-16T09:50:52Z</time></trkpt>
<trkpt lat="13.27701" lon="99.72147"><ele>124</ele><time>2018-06-16T09:50:53Z</time></trkpt>
<trkpt lat="13.27707" lon="99.72154"><ele>124</ele><time>2018-06-16T09:50:55Z</time></trkpt>
<trkpt lat="13.27709" lon="99.72158"><ele>124</ele><time>2018-06-16T09:50:56Z</time></trkpt>
<trkpt lat="13.27712" lon="99.72162"><ele>124</ele><time>2018-06-16T09:50:57Z</time></trkpt>
<trkpt lat="13.27715" lon="99.72166"><ele>124</ele><time>2018-06-16T09:50:58Z</time></trkpt>
<trkpt lat="13.27718" lon="99.72170"><ele>123</ele><time>2018-06-16T09:50:59Z</time></trkpt>
<trkpt lat="13.27721" lon="99.72175"><ele>123</ele><time>2018-06-16T09:51:00Z</time></trkpt>
<trkpt lat="13.27723" lon="99.72180"><ele>123</ele><time>2018-06-16T09:51:01Z</time></trkpt>
<trkpt lat="13.27726" lon="99.72184"><ele>123</ele><time>2018-06-16T09:51:02Z</time></trkpt>
<trkpt lat="13.27729" lon="99.72189"><ele>123</ele><time>2018-06-16T09:51:03Z</time></trkpt>
<trkpt lat="13.27731" lon="99.72194"><ele>122</ele><time>2018-06-16T09:51:04Z</time></trkpt>
<trkpt lat="13.27733" lon="99.72198"><ele>122</ele><time>2018-06-16T09:51:05Z</time></trkpt>
<trkpt lat="13.27737" lon="99.72204"><ele>123</ele><time>2018-06-16T09:51:07Z</time></trkpt>
<trkpt lat="13.27739" lon="99.72208"><ele>123</ele><time>2018-06-16T09:51:08Z</time></trkpt>
<trkpt lat="13.27742" lon="99.72212"><ele>123</ele><time>2018-06-16T09:51:09Z</time></trkpt>
<trkpt lat="13.27745" lon="99.72217"><ele>123</ele><time>2018-06-16T09:51:10Z</time></trkpt>
<trkpt lat="13.27748" lon="99.72222"><ele>122</ele><time>2018-06-16T09:51:11Z</time></trkpt>
<trkpt lat="13.27751" lon="99.72227"><ele>122</ele><time>2018-06-16T09:51:12Z</time></trkpt>
<trkpt lat="13.27754" lon="99.72232"><ele>122</ele><time>2018-06-16T09:51:13Z</time></trkpt>
<trkpt lat="13.27757" lon="99.72237"><ele>122</ele><time>2018-06-16T09:51:14Z</time></trkpt>
<trkpt lat="13.27760" lon="99.72241"><ele>121</ele><time>2018-06-16T09:51:15Z</time></trkpt>
<trkpt lat="13.27762" lon="99.72246"><ele>121</ele><time>2018-06-16T09:51:16Z</time></trkpt>
<trkpt lat="13.27765" lon="99.72250"><ele>122</ele><time>2018-06-16T09:51:17Z</time></trkpt>
<trkpt lat="13.27767" lon="99.72254"><ele>122</ele><time>2018-06-16T09:51:18Z</time></trkpt>
<trkpt lat="13.27769" lon="99.72259"><ele>122</ele><time>2018-06-16T09:51:19Z</time></trkpt>
<trkpt lat="13.27772" lon="99.72263"><ele>121</ele><time>2018-06-16T09:51:20Z</time></trkpt>
<trkpt lat="13.27774" lon="99.72268"><ele>120</ele><time>2018-06-16T09:51:21Z</time></trkpt>
<trkpt lat="13.27775" lon="99.72273"><ele>121</ele><time>2018-06-16T09:51:22Z</time></trkpt>
<trkpt lat="13.27775" lon="99.72278"><ele>121</ele><time>2018-06-16T09:51:23Z</time></trkpt>
<trkpt lat="13.27773" lon="99.72283"><ele>120</ele><time>2018-06-16T09:51:24Z</time></trkpt>
<trkpt lat="13.27770" lon="99.72287"><ele>120</ele><time>2018-06-16T09:51:25Z</time></trkpt>
<trkpt lat="13.27764" lon="99.72293"><ele>120</ele><time>2018-06-16T09:51:27Z</time></trkpt>
<trkpt lat="13.27760" lon="99.72297"><ele>120</ele><time>2018-06-16T09:51:28Z</time></trkpt>
<trkpt lat="13.27757" lon="99.72302"><ele>120</ele><time>2018-06-16T09:51:29Z</time></trkpt>
<trkpt lat="13.27753" lon="99.72306"><ele>119</ele><time>2018-06-16T09:51:30Z</time></trkpt>
<trkpt lat="13.27748" lon="99.72311"><ele>119</ele><time>2018-06-16T09:51:31Z</time></trkpt>
<trkpt lat="13.27744" lon="99.72315"><ele>119</ele><time>2018-06-16T09:51:32Z</time></trkpt>
<trkpt lat="13.27741" lon="99.72319"><ele>119</ele><time>2018-06-16T09:51:33Z</time></trkpt>
<trkpt lat="13.27737" lon="99.72323"><ele>120</ele><time>2018-06-16T09:51:34Z</time></trkpt>
<trkpt lat="13.27734" lon="99.72327"><ele>119</ele><time>2018-06-16T09:51:35Z</time></trkpt>
<trkpt lat="13.27730" lon="99.72331"><ele>119</ele><time>2018-06-16T09:51:36Z</time></trkpt>
<trkpt lat="13.27727" lon="99.72335"><ele>119</ele><time>2018-06-16T09:51:37Z</time></trkpt>
<trkpt lat="13.27723" lon="99.72338"><ele>119</ele><time>2018-06-16T09:51:38Z</time></trkpt>
<trkpt lat="13.27719" lon="99.72342"><ele>118</ele><time>2018-06-16T09:51:39Z</time></trkpt>
<trkpt lat="13.27715" lon="99.72345"><ele>118</ele><time>2018-06-16T09:51:40Z</time></trkpt>
<trkpt lat="13.27711" lon="99.72347"><ele>118</ele><time>2018-06-16T09:51:41Z</time></trkpt>
<trkpt lat="13.27707" lon="99.72350"><ele>119</ele><time>2018-06-16T09:51:42Z</time></trkpt>
<trkpt lat="13.27702" lon="99.72352"><ele>119</ele><time>2018-06-16T09:51:43Z</time></trkpt>
<trkpt lat="13.27697" lon="99.72354"><ele>119</ele><time>2018-06-16T09:51:44Z</time></trkpt>
<trkpt lat="13.27692" lon="99.72356"><ele>118</ele><time>2018-06-16T09:51:45Z</time></trkpt>
<trkpt lat="13.27687" lon="99.72357"><ele>118</ele><time>2018-06-16T09:51:46Z</time></trkpt>
<trkpt lat="13.27682" lon="99.72358"><ele>119</ele><time>2018-06-16T09:51:47Z</time></trkpt>
<trkpt lat="13.27677" lon="99.72360"><ele>119</ele><time>2018-06-16T09:51:48Z</time></trkpt>
<trkpt lat="13.27672" lon="99.72361"><ele>119</ele><time>2018-06-16T09:51:49Z</time></trkpt>
<trkpt lat="13.27667" lon="99.72362"><ele>119</ele><time>2018-06-16T09:51:50Z</time></trkpt>
<trkpt lat="13.27662" lon="99.72364"><ele>119</ele><time>2018-06-16T09:51:51Z</time></trkpt>
<trkpt lat="13.27657" lon="99.72365"><ele>119</ele><time>2018-06-16T09:51:52Z</time></trkpt>
<trkpt lat="13.27652" lon="99.72366"><ele>119</ele><time>2018-06-16T09:51:53Z</time></trkpt>
<trkpt lat="13.27647" lon="99.72368"><ele>119</ele><time>2018-06-16T09:51:54Z</time></trkpt>
<trkpt lat="13.27642" lon="99.72369"><ele>119</ele><time>2018-06-16T09:51:55Z</time></trkpt>
<trkpt lat="13.27635" lon="99.72371"><ele>119</ele><time>2018-06-16T09:51:56Z</time></trkpt>
<trkpt lat="13.27629" lon="99.72372"><ele>118</ele><time>2018-06-16T09:51:57Z</time></trkpt>
<trkpt lat="13.27624" lon="99.72373"><ele>119</ele><time>2018-06-16T09:51:58Z</time></trkpt>
<trkpt lat="13.27619" lon="99.72374"><ele>119</ele><time>2018-06-16T09:51:59Z</time></trkpt>
<trkpt lat="13.27614" lon="99.72375"><ele>119</ele><time>2018-06-16T09:52:00Z</time></trkpt>
<trkpt lat="13.27609" lon="99.72376"><ele>119</ele><time>2018-06-16T09:52:01Z</time></trkpt>
<trkpt lat="13.27604" lon="99.72377"><ele>119</ele><time>2018-06-16T09:52:02Z</time></trkpt>
<trkpt lat="13.27599" lon="99.72379"><ele>119</ele><time>2018-06-16T09:52:03Z</time></trkpt>
<trkpt lat="13.27594" lon="99.72380"><ele>119</ele><time>2018-06-16T09:52:04Z</time></trkpt>
<trkpt lat="13.27589" lon="99.72382"><ele>119</ele><time>2018-06-16T09:52:05Z</time></trkpt>
<trkpt lat="13.27584" lon="99.72389"><ele>118</ele><time>2018-06-16T09:52:07Z</time></trkpt>
<trkpt lat="13.27578" lon="99.72395"><ele>118</ele><time>2018-06-16T09:52:08Z</time></trkpt>
<trkpt lat="13.27574" lon="99.72398"><ele>118</ele><time>2018-06-16T09:52:09Z</time></trkpt>
<trkpt lat="13.27569" lon="99.72402"><ele>118</ele><time>2018-06-16T09:52:10Z</time></trkpt>
<trkpt lat="13.27563" lon="99.72405"><ele>119</ele><time>2018-06-16T09:52:11Z</time></trkpt>
<trkpt lat="13.27558" lon="99.72407"><ele>119</ele><time>2018-06-16T09:52:12Z</time></trkpt>
<trkpt lat="13.27552" lon="99.72409"><ele>119</ele><time>2018-06-16T09:52:13Z</time></trkpt>
<trkpt lat="13.27546" lon="99.72412"><ele>118</ele><time>2018-06-16T09:52:14Z</time></trkpt>
<trkpt lat="13.27541" lon="99.72414"><ele>119</ele><time>2018-06-16T09:52:15Z</time></trkpt>
<trkpt lat="13.27535" lon="99.72418"><ele>119</ele><time>2018-06-16T09:52:17Z</time></trkpt>
<trkpt lat="13.27528" lon="99.72423"><ele>119</ele><time>2018-06-16T09:52:19Z</time></trkpt>
<trkpt lat="13.27523" lon="99.72429"><ele>119</ele><time>2018-06-16T09:52:21Z</time></trkpt>
<trkpt lat="13.27518" lon="99.72433"><ele>120</ele><time>2018-06-16T09:52:23Z</time></trkpt>
<trkpt lat="13.27513" lon="99.72437"><ele>121</ele><time>2018-06-16T09:52:25Z</time></trkpt>
<trkpt lat="13.27509" lon="99.72441"><ele>123</ele><time>2018-06-16T09:52:27Z</time></trkpt>
<trkpt lat="13.27506" lon="99.72446"><ele>124</ele><time>2018-06-16T09:52:29Z</time></trkpt>
<trkpt lat="13.27504" lon="99.72452"><ele>124</ele><time>2018-06-16T09:52:31Z</time></trkpt>
<trkpt lat="13.27502" lon="99.72459"><ele>124</ele><time>2018-06-16T09:52:33Z</time></trkpt>
<trkpt lat="13.27500" lon="99.72466"><ele>125</ele><time>2018-06-16T09:52:35Z</time></trkpt>
<trkpt lat="13.27498" lon="99.72471"><ele>125</ele><time>2018-06-16T09:52:36Z</time></trkpt>
<trkpt lat="13.27495" lon="99.72479"><ele>125</ele><time>2018-06-16T09:52:38Z</time></trkpt>
<trkpt lat="13.27491" lon="99.72486"><ele>125</ele><time>2018-06-16T09:52:40Z</time></trkpt>
<trkpt lat="13.27488" lon="99.72490"><ele>125</ele><time>2018-06-16T09:52:41Z</time></trkpt>
<trkpt lat="13.27485" lon="99.72495"><ele>125</ele><time>2018-06-16T09:52:42Z</time></trkpt>
<trkpt lat="13.27483" lon="99.72500"><ele>125</ele><time>2018-06-16T09:52:43Z</time></trkpt>
<trkpt lat="13.27478" lon="99.72507"><ele>125</ele><time>2018-06-16T09:52:45Z</time></trkpt>
<trkpt lat="13.27475" lon="99.72512"><ele>125</ele><time>2018-06-16T09:52:46Z</time></trkpt>
<trkpt lat="13.27473" lon="99.72518"><ele>125</ele><time>2018-06-16T09:52:47Z</time></trkpt>
<trkpt lat="13.27470" lon="99.72523"><ele>125</ele><time>2018-06-16T09:52:48Z</time></trkpt>
<trkpt lat="13.27467" lon="99.72529"><ele>125</ele><time>2018-06-16T09:52:49Z</time></trkpt>
<trkpt lat="13.27464" lon="99.72535"><ele>125</ele><time>2018-06-16T09:52:50Z</time></trkpt>
<trkpt lat="13.27461" lon="99.72541"><ele>124</ele><time>2018-06-16T09:52:52Z</time></trkpt>
<trkpt lat="13.27459" lon="99.72545"><ele>124</ele><time>2018-06-16T09:52:53Z</time></trkpt>
<trkpt lat="13.27456" lon="99.72550"><ele>123</ele><time>2018-06-16T09:52:54Z</time></trkpt>
<trkpt lat="13.27453" lon="99.72555"><ele>123</ele><time>2018-06-16T09:52:55Z</time></trkpt>
<trkpt lat="13.27450" lon="99.72561"><ele>122</ele><time>2018-06-16T09:52:56Z</time></trkpt>
<trkpt lat="13.27447" lon="99.72567"><ele>121</ele><time>2018-06-16T09:52:57Z</time></trkpt>
<trkpt lat="13.27444" lon="99.72574"><ele>121</ele><time>2018-06-16T09:52:58Z</time></trkpt>
<trkpt lat="13.27441" lon="99.72580"><ele>121</ele><time>2018-06-16T09:52:59Z</time></trkpt>
<trkpt lat="13.27440" lon="99.72585"><ele>121</ele><time>2018-06-16T09:53:00Z</time></trkpt>
<trkpt lat="13.27441" lon="99.72591"><ele>121</ele><time>2018-06-16T09:53:01Z</time></trkpt>
<trkpt lat="13.27443" lon="99.72596"><ele>120</ele><time>2018-06-16T09:53:02Z</time></trkpt>
<trkpt lat="13.27447" lon="99.72600"><ele>120</ele><time>2018-06-16T09:53:03Z</time></trkpt>
<trkpt lat="13.27451" lon="99.72604"><ele>120</ele><time>2018-06-16T09:53:04Z</time></trkpt>
<trkpt lat="13.27456" lon="99.72607"><ele>118</ele><time>2018-06-16T09:53:05Z</time></trkpt>
<trkpt lat="13.27461" lon="99.72610"><ele>119</ele><time>2018-06-16T09:53:06Z</time></trkpt>
<trkpt lat="13.27467" lon="99.72613"><ele>118</ele><time>2018-06-16T09:53:07Z</time></trkpt>
<trkpt lat="13.27473" lon="99.72615"><ele>118</ele><time>2018-06-16T09:53:08Z</time></trkpt>
<trkpt lat="13.27480" lon="99.72618"><ele>117</ele><time>2018-06-16T09:53:09Z</time></trkpt>
<trkpt lat="13.27486" lon="99.72620"><ele>116</ele><time>2018-06-16T09:53:10Z</time></trkpt>
<trkpt lat="13.27491" lon="99.72622"><ele>116</ele><time>2018-06-16T09:53:11Z</time></trkpt>
<trkpt lat="13.27496" lon="99.72624"><ele>115</ele><time>2018-06-16T09:53:12Z</time></trkpt>
<trkpt lat="13.27502" lon="99.72627"><ele>115</ele><time>2018-06-16T09:53:14Z</time></trkpt>
<trkpt lat="13.27506" lon="99.72632"><ele>114</ele><time>2018-06-16T09:53:17Z</time></trkpt>
<trkpt lat="13.27508" lon="99.72636"><ele>113</ele><time>2018-06-16T09:53:22Z</time></trkpt>
<trkpt lat="13.27504" lon="99.72641"><ele>115</ele><time>2018-06-16T09:53:56Z</time></trkpt>
<trkpt lat="13.27498" lon="99.72647"><ele>115</ele><time>2018-06-16T09:53:57Z</time></trkpt>
<trkpt lat="13.27493" lon="99.72653"><ele>115</ele><time>2018-06-16T09:53:59Z</time></trkpt>
<trkpt lat="13.27487" lon="99.72660"><ele>115</ele><time>2018-06-16T09:54:01Z</time></trkpt>
<trkpt lat="13.27484" lon="99.72663"><ele>115</ele><time>2018-06-16T09:54:02Z</time></trkpt>
<trkpt lat="13.27481" lon="99.72667"><ele>115</ele><time>2018-06-16T09:54:03Z</time></trkpt>
<trkpt lat="13.27477" lon="99.72671"><ele>115</ele><time>2018-06-16T09:54:04Z</time></trkpt>
<trkpt lat="13.27474" lon="99.72675"><ele>114</ele><time>2018-06-16T09:54:05Z</time></trkpt>
<trkpt lat="13.27470" lon="99.72679"><ele>114</ele><time>2018-06-16T09:54:06Z</time></trkpt>
<trkpt lat="13.27466" lon="99.72683"><ele>114</ele><time>2018-06-16T09:54:07Z</time></trkpt>
<trkpt lat="13.27463" lon="99.72687"><ele>113</ele><time>2018-06-16T09:54:08Z</time></trkpt>
<trkpt lat="13.27460" lon="99.72692"><ele>113</ele><time>2018-06-16T09:54:09Z</time></trkpt>
<trkpt lat="13.27459" lon="99.72697"><ele>113</ele><time>2018-06-16T09:54:10Z</time></trkpt>
<trkpt lat="13.27457" lon="99.72703"><ele>113</ele><time>2018-06-16T09:54:11Z</time></trkpt>
<trkpt lat="13.27455" lon="99.72708"><ele>113</ele><time>2018-06-16T09:54:12Z</time></trkpt>
<trkpt lat="13.27451" lon="99.72715"><ele>112</ele><time>2018-06-16T09:54:14Z</time></trkpt>
<trkpt lat="13.27448" lon="99.72719"><ele>112</ele><time>2018-06-16T09:54:15Z</time></trkpt>
<trkpt lat="13.27444" lon="99.72723"><ele>112</ele><time>2018-06-16T09:54:16Z</time></trkpt>
<trkpt lat="13.27441" lon="99.72726"><ele>111</ele><time>2018-06-16T09:54:17Z</time></trkpt>
<trkpt lat="13.27436" lon="99.72730"><ele>112</ele><time>2018-06-16T09:54:18Z</time></trkpt>
<trkpt lat="13.27430" lon="99.72734"><ele>112</ele><time>2018-06-16T09:54:19Z</time></trkpt>
<trkpt lat="13.27424" lon="99.72737"><ele>112</ele><time>2018-06-16T09:54:20Z</time></trkpt>
<trkpt lat="13.27420" lon="99.72739"><ele>111</ele><time>2018-06-16T09:54:21Z</time></trkpt>
<trkpt lat="13.27414" lon="99.72742"><ele>111</ele><time>2018-06-16T09:54:22Z</time></trkpt>
<trkpt lat="13.27408" lon="99.72746"><ele>110</ele><time>2018-06-16T09:54:23Z</time></trkpt>
<trkpt lat="13.27402" lon="99.72749"><ele>109</ele><time>2018-06-16T09:54:24Z</time></trkpt>
<trkpt lat="13.27398" lon="99.72753"><ele>109</ele><time>2018-06-16T09:54:25Z</time></trkpt>
<trkpt lat="13.27393" lon="99.72757"><ele>109</ele><time>2018-06-16T09:54:26Z</time></trkpt>
<trkpt lat="13.27388" lon="99.72761"><ele>109</ele><time>2018-06-16T09:54:27Z</time></trkpt>
<trkpt lat="13.27385" lon="99.72764"><ele>109</ele><time>2018-06-16T09:54:28Z</time></trkpt>
<trkpt lat="13.27382" lon="99.72771"><ele>109</ele><time>2018-06-16T09:54:30Z</time></trkpt>
<trkpt lat="13.27384" lon="99.72775"><ele>109</ele><time>2018-06-16T09:54:33Z</time></trkpt>
<trkpt lat="13.27389" lon="99.72779"><ele>110</ele><time>2018-06-16T09:54:45Z</time></trkpt>
<trkpt lat="13.27393" lon="99.72782"><ele>111</ele><time>2018-06-16T09:54:47Z</time></trkpt>
<trkpt lat="13.27398" lon="99.72787"><ele>110</ele><time>2018-06-16T09:54:49Z</time></trkpt>
<trkpt lat="13.27403" lon="99.72794"><ele>110</ele><time>2018-06-16T09:54:51Z</time></trkpt>
<trkpt lat="13.27406" lon="99.72797"><ele>110</ele><time>2018-06-16T09:54:52Z</time></trkpt>
<trkpt lat="13.27415" lon="99.72806"><ele>110</ele><time>2018-06-16T09:54:53Z</time></trkpt>
<trkpt lat="13.27421" lon="99.72810"><ele>109</ele><time>2018-06-16T09:54:54Z</time></trkpt>
<trkpt lat="13.27426" lon="99.72814"><ele>108</ele><time>2018-06-16T09:54:55Z</time></trkpt>
<trkpt lat="13.27431" lon="99.72817"><ele>108</ele><time>2018-06-16T09:54:56Z</time></trkpt>
<trkpt lat="13.27436" lon="99.72819"><ele>108</ele><time>2018-06-16T09:54:57Z</time></trkpt>
<trkpt lat="13.27440" lon="99.72822"><ele>108</ele><time>2018-06-16T09:54:58Z</time></trkpt>
<trkpt lat="13.27444" lon="99.72826"><ele>108</ele><time>2018-06-16T09:54:59Z</time></trkpt>
<trkpt lat="13.27446" lon="99.72835"><ele>109</ele><time>2018-06-16T09:55:01Z</time></trkpt>
<trkpt lat="13.27447" lon="99.72840"><ele>109</ele><time>2018-06-16T09:55:02Z</time></trkpt>
<trkpt lat="13.27447" lon="99.72846"><ele>109</ele><time>2018-06-16T09:55:03Z</time></trkpt>
<trkpt lat="13.27447" lon="99.72851"><ele>108</ele><time>2018-06-16T09:55:04Z</time></trkpt>
<trkpt lat="13.27446" lon="99.72857"><ele>107</ele><time>2018-06-16T09:55:05Z</time></trkpt>
<trkpt lat="13.27446" lon="99.72863"><ele>107</ele><time>2018-06-16T09:55:06Z</time></trkpt>
<trkpt lat="13.27447" lon="99.72870"><ele>108</ele><time>2018-06-16T09:55:07Z</time></trkpt>
<trkpt lat="13.27448" lon="99.72876"><ele>108</ele><time>2018-06-16T09:55:08Z</time></trkpt>
<trkpt lat="13.27450" lon="99.72883"><ele>108</ele><time>2018-06-16T09:55:09Z</time></trkpt>
<trkpt lat="13.27451" lon="99.72890"><ele>108</ele><time>2018-06-16T09:55:10Z</time></trkpt>
<trkpt lat="13.27453" lon="99.72896"><ele>108</ele><time>2018-06-16T09:55:11Z</time></trkpt>
<trkpt lat="13.27455" lon="99.72901"><ele>108</ele><time>2018-06-16T09:55:12Z</time></trkpt>
<trkpt lat="13.27457" lon="99.72907"><ele>107</ele><time>2018-06-16T09:55:13Z</time></trkpt>
<trkpt lat="13.27458" lon="99.72913"><ele>107</ele><time>2018-06-16T09:55:14Z</time></trkpt>
<trkpt lat="13.27458" lon="99.72919"><ele>107</ele><time>2018-06-16T09:55:15Z</time></trkpt>
<trkpt lat="13.27458" lon="99.72925"><ele>106</ele><time>2018-06-16T09:55:16Z</time></trkpt>
<trkpt lat="13.27458" lon="99.72931"><ele>106</ele><time>2018-06-16T09:55:17Z</time></trkpt>
<trkpt lat="13.27458" lon="99.72938"><ele>106</ele><time>2018-06-16T09:55:18Z</time></trkpt>
<trkpt lat="13.27458" lon="99.72944"><ele>106</ele><time>2018-06-16T09:55:19Z</time></trkpt>
<trkpt lat="13.27460" lon="99.72951"><ele>106</ele><time>2018-06-16T09:55:20Z</time></trkpt>
<trkpt lat="13.27462" lon="99.72959"><ele>105</ele><time>2018-06-16T09:55:21Z</time></trkpt>
<trkpt lat="13.27463" lon="99.72966"><ele>105</ele><time>2018-06-16T09:55:22Z</time></trkpt>
<trkpt lat="13.27463" lon="99.72973"><ele>106</ele><time>2018-06-16T09:55:23Z</time></trkpt>
<trkpt lat="13.27463" lon="99.72980"><ele>106</ele><time>2018-06-16T09:55:24Z</time></trkpt>
<trkpt lat="13.27461" lon="99.72986"><ele>106</ele><time>2018-06-16T09:55:25Z</time></trkpt>
<trkpt lat="13.27460" lon="99.72992"><ele>106</ele><time>2018-06-16T09:55:26Z</time></trkpt>
<trkpt lat="13.27460" lon="99.72998"><ele>105</ele><time>2018-06-16T09:55:27Z</time></trkpt>
<trkpt lat="13.27460" lon="99.73004"><ele>106</ele><time>2018-06-16T09:55:28Z</time></trkpt>
<trkpt lat="13.27460" lon="99.73010"><ele>107</ele><time>2018-06-16T09:55:29Z</time></trkpt>
<trkpt lat="13.27460" lon="99.73016"><ele>106</ele><time>2018-06-16T09:55:30Z</time></trkpt>
<trkpt lat="13.27460" lon="99.73022"><ele>106</ele><time>2018-06-16T09:55:31Z</time></trkpt>
<trkpt lat="13.27460" lon="99.73028"><ele>105</ele><time>2018-06-16T09:55:32Z</time></trkpt>
<trkpt lat="13.27459" lon="99.73037"><ele>106</ele><time>2018-06-16T09:55:34Z</time></trkpt>
<trkpt lat="13.27457" lon="99.73047"><ele>105</ele><time>2018-06-16T09:55:36Z</time></trkpt>
<trkpt lat="13.27457" lon="99.73055"><ele>105</ele><time>2018-06-16T09:55:38Z</time></trkpt>
<trkpt lat="13.27458" lon="99.73062"><ele>106</ele><time>2018-06-16T09:55:40Z</time></trkpt>
<trkpt lat="13.27459" lon="99.73067"><ele>106</ele><time>2018-06-16T09:55:41Z</time></trkpt>
<trkpt lat="13.27459" lon="99.73075"><ele>106</ele><time>2018-06-16T09:55:43Z</time></trkpt>
<trkpt lat="13.27458" lon="99.73083"><ele>106</ele><time>2018-06-16T09:55:45Z</time></trkpt>
<trkpt lat="13.27457" lon="99.73092"><ele>106</ele><time>2018-06-16T09:55:47Z</time></trkpt>
<trkpt lat="13.27456" lon="99.73097"><ele>106</ele><time>2018-06-16T09:55:48Z</time></trkpt>
<trkpt lat="13.27455" lon="99.73102"><ele>106</ele><time>2018-06-16T09:55:49Z</time></trkpt>
<trkpt lat="13.27453" lon="99.73107"><ele>106</ele><time>2018-06-16T09:55:50Z</time></trkpt>
<trkpt lat="13.27452" lon="99.73111"><ele>106</ele><time>2018-06-16T09:55:51Z</time></trkpt>
<trkpt lat="13.27451" lon="99.73117"><ele>106</ele><time>2018-06-16T09:55:53Z</time></trkpt>
<trkpt lat="13.27449" lon="99.73123"><ele>106</ele><time>2018-06-16T09:55:55Z</time></trkpt>
<trkpt lat="13.27447" lon="99.73128"><ele>107</ele><time>2018-06-16T09:55:57Z</time></trkpt>
<trkpt lat="13.27444" lon="99.73133"><ele>107</ele><time>2018-06-16T09:55:59Z</time></trkpt>
<trkpt lat="13.27442" lon="99.73137"><ele>107</ele><time>2018-06-16T09:56:01Z</time></trkpt>
<trkpt lat="13.27441" lon="99.73142"><ele>108</ele><time>2018-06-16T09:56:17Z</time></trkpt>
<trkpt lat="13.27440" lon="99.73149"><ele>107</ele><time>2018-06-16T09:56:25Z</time></trkpt>
<trkpt lat="13.27439" lon="99.73155"><ele>107</ele><time>2018-06-16T09:56:27Z</time></trkpt>
<trkpt lat="13.27438" lon="99.73163"><ele>107</ele><time>2018-06-16T09:56:29Z</time></trkpt>
<trkpt lat="13.27436" lon="99.73171"><ele>107</ele><time>2018-06-16T09:56:31Z</time></trkpt>
<trkpt lat="13.27434" lon="99.73179"><ele>108</ele><time>2018-06-16T09:56:33Z</time></trkpt>
<trkpt lat="13.27431" lon="99.73188"><ele>108</ele><time>2018-06-16T09:56:35Z</time></trkpt>
<trkpt lat="13.27430" lon="99.73192"><ele>108</ele><time>2018-06-16T09:56:36Z</time></trkpt>
<trkpt lat="13.27429" lon="99.73197"><ele>108</ele><time>2018-06-16T09:56:37Z</time></trkpt>
<trkpt lat="13.27426" lon="99.73201"><ele>108</ele><time>2018-06-16T09:56:38Z</time></trkpt>
<trkpt lat="13.27420" lon="99.73207"><ele>107</ele><time>2018-06-16T09:56:40Z</time></trkpt>
<trkpt lat="13.27413" lon="99.73211"><ele>107</ele><time>2018-06-16T09:56:42Z</time></trkpt>
<trkpt lat="13.27405" lon="99.73214"><ele>107</ele><time>2018-06-16T09:56:44Z</time></trkpt>
<trkpt lat="13.27397" lon="99.73216"><ele>107</ele><time>2018-06-16T09:56:46Z</time></trkpt>
<trkpt lat="13.27389" lon="99.73218"><ele>107</ele><time>2018-06-16T09:56:48Z</time></trkpt>
<trkpt lat="13.27382" lon="99.73223"><ele>107</ele><time>2018-06-16T09:56:50Z</time></trkpt>
<trkpt lat="13.27377" lon="99.73228"><ele>108</ele><time>2018-06-16T09:56:52Z</time></trkpt>
<trkpt lat="13.27373" lon="99.73235"><ele>108</ele><time>2018-06-16T09:56:54Z</time></trkpt>
<trkpt lat="13.27370" lon="99.73242"><ele>108</ele><time>2018-06-16T09:56:56Z</time></trkpt>
<trkpt lat="13.27366" lon="99.73248"><ele>108</ele><time>2018-06-16T09:56:58Z</time></trkpt>
<trkpt lat="13.27362" lon="99.73255"><ele>108</ele><time>2018-06-16T09:57:00Z</time></trkpt>
<trkpt lat="13.27359" lon="99.73262"><ele>108</ele><time>2018-06-16T09:57:02Z</time></trkpt>
<trkpt lat="13.27356" lon="99.73269"><ele>108</ele><time>2018-06-16T09:57:04Z</time></trkpt>
<trkpt lat="13.27352" lon="99.73277"><ele>108</ele><time>2018-06-16T09:57:06Z</time></trkpt>
<trkpt lat="13.27348" lon="99.73284"><ele>109</ele><time>2018-06-16T09:57:08Z</time></trkpt>
<trkpt lat="13.27345" lon="99.73291"><ele>109</ele><time>2018-06-16T09:57:10Z</time></trkpt>
<trkpt lat="13.27341" lon="99.73299"><ele>109</ele><time>2018-06-16T09:57:12Z</time></trkpt>
<trkpt lat="13.27337" lon="99.73306"><ele>109</ele><time>2018-06-16T09:57:14Z</time></trkpt>
<trkpt lat="13.27333" lon="99.73314"><ele>109</ele><time>2018-06-16T09:57:16Z</time></trkpt>
<trkpt lat="13.27329" lon="99.73322"><ele>109</ele><time>2018-06-16T09:57:18Z</time></trkpt>
<trkpt lat="13.27324" lon="99.73329"><ele>109</ele><time>2018-06-16T09:57:20Z</time></trkpt>
<trkpt lat="13.27320" lon="99.73337"><ele>109</ele><time>2018-06-16T09:57:22Z</time></trkpt>
<trkpt lat="13.27316" lon="99.73344"><ele>109</ele><time>2018-06-16T09:57:24Z</time></trkpt>
<trkpt lat="13.27313" lon="99.73350"><ele>109</ele><time>2018-06-16T09:57:26Z</time></trkpt>
<trkpt lat="13.27311" lon="99.73355"><ele>109</ele><time>2018-06-16T09:57:29Z</time></trkpt>
<trkpt lat="13.27309" lon="99.73360"><ele>109</ele><time>2018-06-16T09:57:34Z</time></trkpt>
<trkpt lat="13.27307" lon="99.73365"><ele>110</ele><time>2018-06-16T09:57:39Z</time></trkpt>
<trkpt lat="13.27305" lon="99.73370"><ele>110</ele><time>2018-06-16T09:57:42Z</time></trkpt>
<trkpt lat="13.27302" lon="99.73374"><ele>110</ele><time>2018-06-16T09:57:44Z</time></trkpt>
<trkpt lat="13.27301" lon="99.73381"><ele>109</ele><time>2018-06-16T09:57:46Z</time></trkpt>
<trkpt lat="13.27301" lon="99.73388"><ele>110</ele><time>2018-06-16T09:57:48Z</time></trkpt>
<trkpt lat="13.27303" lon="99.73396"><ele>110</ele><time>2018-06-16T09:57:50Z</time></trkpt>
<trkpt lat="13.27302" lon="99.73406"><ele>110</ele><time>2018-06-16T09:57:52Z</time></trkpt>
<trkpt lat="13.27301" lon="99.73410"><ele>110</ele><time>2018-06-16T09:57:53Z</time></trkpt>
<trkpt lat="13.27300" lon="99.73415"><ele>110</ele><time>2018-06-16T09:57:54Z</time></trkpt>
<trkpt lat="13.27298" lon="99.73420"><ele>110</ele><time>2018-06-16T09:57:55Z</time></trkpt>
<trkpt lat="13.27296" lon="99.73425"><ele>110</ele><time>2018-06-16T09:57:56Z</time></trkpt>
<trkpt lat="13.27293" lon="99.73430"><ele>111</ele><time>2018-06-16T09:57:57Z</time></trkpt>
<trkpt lat="13.27291" lon="99.73434"><ele>111</ele><time>2018-06-16T09:57:58Z</time></trkpt>
<trkpt lat="13.27289" lon="99.73439"><ele>111</ele><time>2018-06-16T09:57:59Z</time></trkpt>
<trkpt lat="13.27287" lon="99.73444"><ele>111</ele><time>2018-06-16T09:58:00Z</time></trkpt>
<trkpt lat="13.27284" lon="99.73449"><ele>110</ele><time>2018-06-16T09:58:01Z</time></trkpt>
<trkpt lat="13.27282" lon="99.73453"><ele>110</ele><time>2018-06-16T09:58:02Z</time></trkpt>
<trkpt lat="13.27280" lon="99.73458"><ele>110</ele><time>2018-06-16T09:58:03Z</time></trkpt>
<trkpt lat="13.27278" lon="99.73462"><ele>110</ele><time>2018-06-16T09:58:04Z</time></trkpt>
<trkpt lat="13.27276" lon="99.73467"><ele>110</ele><time>2018-06-16T09:58:05Z</time></trkpt>
<trkpt lat="13.27273" lon="99.73471"><ele>110</ele><time>2018-06-16T09:58:06Z</time></trkpt>
<trkpt lat="13.27271" lon="99.73476"><ele>110</ele><time>2018-06-16T09:58:07Z</time></trkpt>
<trkpt lat="13.27269" lon="99.73481"><ele>110</ele><time>2018-06-16T09:58:08Z</time></trkpt>
<trkpt lat="13.27267" lon="99.73486"><ele>110</ele><time>2018-06-16T09:58:09Z</time></trkpt>
<trkpt lat="13.27264" lon="99.73491"><ele>110</ele><time>2018-06-16T09:58:10Z</time></trkpt>
<trkpt lat="13.27262" lon="99.73495"><ele>110</ele><time>2018-06-16T09:58:11Z</time></trkpt>
<trkpt lat="13.27259" lon="99.73500"><ele>110</ele><time>2018-06-16T09:58:12Z</time></trkpt>
<trkpt lat="13.27256" lon="99.73505"><ele>109</ele><time>2018-06-16T09:58:13Z</time></trkpt>
<trkpt lat="13.27254" lon="99.73510"><ele>109</ele><time>2018-06-16T09:58:14Z</time></trkpt>
<trkpt lat="13.27251" lon="99.73515"><ele>109</ele><time>2018-06-16T09:58:15Z</time></trkpt>
<trkpt lat="13.27248" lon="99.73521"><ele>109</ele><time>2018-06-16T09:58:16Z</time></trkpt>
<trkpt lat="13.27245" lon="99.73526"><ele>109</ele><time>2018-06-16T09:58:17Z</time></trkpt>
<trkpt lat="13.27242" lon="99.73531"><ele>109</ele><time>2018-06-16T09:58:18Z</time></trkpt>
<trkpt lat="13.27239" lon="99.73536"><ele>108</ele><time>2018-06-16T09:58:19Z</time></trkpt>
<trkpt lat="13.27236" lon="99.73541"><ele>108</ele><time>2018-06-16T09:58:20Z</time></trkpt>
<trkpt lat="13.27232" lon="99.73547"><ele>108</ele><time>2018-06-16T09:58:21Z</time></trkpt>
<trkpt lat="13.27229" lon="99.73552"><ele>108</ele><time>2018-06-16T09:58:22Z</time></trkpt>
<trkpt lat="13.27225" lon="99.73558"><ele>108</ele><time>2018-06-16T09:58:23Z</time></trkpt>
<trkpt lat="13.27222" lon="99.73563"><ele>107</ele><time>2018-06-16T09:58:25Z</time></trkpt>
<trkpt lat="13.27217" lon="99.73571"><ele>107</ele><time>2018-06-16T09:58:27Z</time></trkpt>
<trkpt lat="13.27214" lon="99.73576"><ele>107</ele><time>2018-06-16T09:58:28Z</time></trkpt>
<trkpt lat="13.27211" lon="99.73581"><ele>107</ele><time>2018-06-16T09:58:29Z</time></trkpt>
<trkpt lat="13.27207" lon="99.73586"><ele>106</ele><time>2018-06-16T09:58:30Z</time></trkpt>
<trkpt lat="13.27204" lon="99.73591"><ele>106</ele><time>2018-06-16T09:58:31Z</time></trkpt>
<trkpt lat="13.27200" lon="99.73597"><ele>106</ele><time>2018-06-16T09:58:32Z</time></trkpt>
<trkpt lat="13.27197" lon="99.73602"><ele>105</ele><time>2018-06-16T09:58:33Z</time></trkpt>
<trkpt lat="13.27193" lon="99.73607"><ele>105</ele><time>2018-06-16T09:58:34Z</time></trkpt>
<trkpt lat="13.27189" lon="99.73612"><ele>105</ele><time>2018-06-16T09:58:35Z</time></trkpt>
<trkpt lat="13.27185" lon="99.73616"><ele>105</ele><time>2018-06-16T09:58:36Z</time></trkpt>
<trkpt lat="13.27182" lon="99.73621"><ele>104</ele><time>2018-06-16T09:58:37Z</time></trkpt>
<trkpt lat="13.27178" lon="99.73626"><ele>104</ele><time>2018-06-16T09:58:38Z</time></trkpt>
<trkpt lat="13.27175" lon="99.73630"><ele>104</ele><time>2018-06-16T09:58:39Z</time></trkpt>
<trkpt lat="13.27171" lon="99.73635"><ele>104</ele><time>2018-06-16T09:58:40Z</time></trkpt>
<trkpt lat="13.27168" lon="99.73639"><ele>104</ele><time>2018-06-16T09:58:41Z</time></trkpt>
<trkpt lat="13.27164" lon="99.73644"><ele>104</ele><time>2018-06-16T09:58:42Z</time></trkpt>
<trkpt lat="13.27160" lon="99.73648"><ele>105</ele><time>2018-06-16T09:58:43Z</time></trkpt>
<trkpt lat="13.27156" lon="99.73652"><ele>105</ele><time>2018-06-16T09:58:44Z</time></trkpt>
<trkpt lat="13.27152" lon="99.73657"><ele>105</ele><time>2018-06-16T09:58:45Z</time></trkpt>
<trkpt lat="13.27149" lon="99.73661"><ele>104</ele><time>2018-06-16T09:58:46Z</time></trkpt>
<trkpt lat="13.27145" lon="99.73666"><ele>104</ele><time>2018-06-16T09:58:47Z</time></trkpt>
<trkpt lat="13.27141" lon="99.73670"><ele>104</ele><time>2018-06-16T09:58:48Z</time></trkpt>
<trkpt lat="13.27137" lon="99.73675"><ele>104</ele><time>2018-06-16T09:58:49Z</time></trkpt>
<trkpt lat="13.27134" lon="99.73680"><ele>104</ele><time>2018-06-16T09:58:50Z</time></trkpt>
<trkpt lat="13.27130" lon="99.73685"><ele>104</ele><time>2018-06-16T09:58:51Z</time></trkpt>
<trkpt lat="13.27126" lon="99.73690"><ele>104</ele><time>2018-06-16T09:58:52Z</time></trkpt>
<trkpt lat="13.27122" lon="99.73695"><ele>103</ele><time>2018-06-16T09:58:53Z</time></trkpt>
<trkpt lat="13.27118" lon="99.73699"><ele>103</ele><time>2018-06-16T09:58:54Z</time></trkpt>
<trkpt lat="13.27113" lon="99.73704"><ele>103</ele><time>2018-06-16T09:58:55Z</time></trkpt>
<trkpt lat="13.27109" lon="99.73709"><ele>104</ele><time>2018-06-16T09:58:56Z</time></trkpt>
<trkpt lat="13.27106" lon="99.73714"><ele>104</ele><time>2018-06-16T09:58:57Z</time></trkpt>
<trkpt lat="13.27104" lon="99.73719"><ele>104</ele><time>2018-06-16T09:58:58Z</time></trkpt>
<trkpt lat="13.27103" lon="99.73725"><ele>104</ele><time>2018-06-16T09:58:59Z</time></trkpt>
<trkpt lat="13.27102" lon="99.73731"><ele>104</ele><time>2018-06-16T09:59:00Z</time></trkpt>
<trkpt lat="13.27102" lon="99.73737"><ele>103</ele><time>2018-06-16T09:59:01Z</time></trkpt>
<trkpt lat="13.27102" lon="99.73743"><ele>103</ele><time>2018-06-16T09:59:02Z</time></trkpt>
<trkpt lat="13.27102" lon="99.73750"><ele>103</ele><time>2018-06-16T09:59:03Z</time></trkpt>
<trkpt lat="13.27102" lon="99.73756"><ele>103</ele><time>2018-06-16T09:59:04Z</time></trkpt>
<trkpt lat="13.27102" lon="99.73763"><ele>104</ele><time>2018-06-16T09:59:05Z</time></trkpt>
<trkpt lat="13.27102" lon="99.73770"><ele>104</ele><time>2018-06-16T09:59:06Z</time></trkpt>
<trkpt lat="13.27102" lon="99.73777"><ele>104</ele><time>2018-06-16T09:59:07Z</time></trkpt>
<trkpt lat="13.27102" lon="99.73784"><ele>103</ele><time>2018-06-16T09:59:08Z</time></trkpt>
<trkpt lat="13.27103" lon="99.73791"><ele>103</ele><time>2018-06-16T09:59:09Z</time></trkpt>
<trkpt lat="13.27103" lon="99.73799"><ele>103</ele><time>2018-06-16T09:59:10Z</time></trkpt>
<trkpt lat="13.27103" lon="99.73806"><ele>103</ele><time>2018-06-16T09:59:11Z</time></trkpt>
<trkpt lat="13.27103" lon="99.73814"><ele>103</ele><time>2018-06-16T09:59:12Z</time></trkpt>
<trkpt lat="13.27103" lon="99.73822"><ele>103</ele><time>2018-06-16T09:59:13Z</time></trkpt>
<trkpt lat="13.27103" lon="99.73830"><ele>103</ele><time>2018-06-16T09:59:14Z</time></trkpt>
<trkpt lat="13.27104" lon="99.73838"><ele>103</ele><time>2018-06-16T09:59:15Z</time></trkpt>
<trkpt lat="13.27104" lon="99.73845"><ele>103</ele><time>2018-06-16T09:59:16Z</time></trkpt>
<trkpt lat="13.27104" lon="99.73853"><ele>103</ele><time>2018-06-16T09:59:17Z</time></trkpt>
<trkpt lat="13.27105" lon="99.73860"><ele>102</ele><time>2018-06-16T09:59:18Z</time></trkpt>
<trkpt lat="13.27105" lon="99.73867"><ele>102</ele><time>2018-06-16T09:59:19Z</time></trkpt>
<trkpt lat="13.27106" lon="99.73874"><ele>103</ele><time>2018-06-16T09:59:20Z</time></trkpt>
<trkpt lat="13.27106" lon="99.73881"><ele>103</ele><time>2018-06-16T09:59:21Z</time></trkpt>
<trkpt lat="13.27106" lon="99.73888"><ele>103</ele><time>2018-06-16T09:59:22Z</time></trkpt>
<trkpt lat="13.27107" lon="99.73894"><ele>103</ele><time>2018-06-16T09:59:23Z</time></trkpt>
<trkpt lat="13.27107" lon="99.73901"><ele>103</ele><time>2018-06-16T09:59:24Z</time></trkpt>
<trkpt lat="13.27108" lon="99.73908"><ele>103</ele><time>2018-06-16T09:59:25Z</time></trkpt>
<trkpt lat="13.27108" lon="99.73915"><ele>103</ele><time>2018-06-16T09:59:26Z</time></trkpt>
<trkpt lat="13.27108" lon="99.73921"><ele>103</ele><time>2018-06-16T09:59:27Z</time></trkpt>
<trkpt lat="13.27108" lon="99.73928"><ele>103</ele><time>2018-06-16T09:59:28Z</time></trkpt>
<trkpt lat="13.27109" lon="99.73935"><ele>103</ele><time>2018-06-16T09:59:29Z</time></trkpt>
<trkpt lat="13.27109" lon="99.73942"><ele>103</ele><time>2018-06-16T09:59:30Z</time></trkpt>
<trkpt lat="13.27109" lon="99.73949"><ele>103</ele><time>2018-06-16T09:59:31Z</time></trkpt>
<trkpt lat="13.27110" lon="99.73956"><ele>102</ele><time>2018-06-16T09:59:32Z</time></trkpt>
<trkpt lat="13.27110" lon="99.73964"><ele>102</ele><time>2018-06-16T09:59:33Z</time></trkpt>
<trkpt lat="13.27110" lon="99.73971"><ele>102</ele><time>2018-06-16T09:59:34Z</time></trkpt>
<trkpt lat="13.27110" lon="99.73979"><ele>102</ele><time>2018-06-16T09:59:35Z</time></trkpt>
<trkpt lat="13.27111" lon="99.73986"><ele>102</ele><time>2018-06-16T09:59:36Z</time></trkpt>
<trkpt lat="13.27111" lon="99.73994"><ele>102</ele><time>2018-06-16T09:59:37Z</time></trkpt>
<trkpt lat="13.27111" lon="99.74002"><ele>102</ele><time>2018-06-16T09:59:38Z</time></trkpt>
<trkpt lat="13.27112" lon="99.74010"><ele>102</ele><time>2018-06-16T09:59:39Z</time></trkpt>
<trkpt lat="13.27112" lon="99.74017"><ele>101</ele><time>2018-06-16T09:59:40Z</time></trkpt>
<trkpt lat="13.27112" lon="99.74025"><ele>101</ele><time>2018-06-16T09:59:41Z</time></trkpt>
<trkpt lat="13.27111" lon="99.74033"><ele>101</ele><time>2018-06-16T09:59:42Z</time></trkpt>
<trkpt lat="13.27110" lon="99.74041"><ele>101</ele><time>2018-06-16T09:59:43Z</time></trkpt>
<trkpt lat="13.27107" lon="99.74048"><ele>101</ele><time>2018-06-16T09:59:44Z</time></trkpt>
<trkpt lat="13.27104" lon="99.74054"><ele>100</ele><time>2018-06-16T09:59:45Z</time></trkpt>
<trkpt lat="13.27100" lon="99.74060"><ele>100</ele><time>2018-06-16T09:59:46Z</time></trkpt>
<trkpt lat="13.27096" lon="99.74066"><ele>101</ele><time>2018-06-16T09:59:47Z</time></trkpt>
<trkpt lat="13.27091" lon="99.74072"><ele>101</ele><time>2018-06-16T09:59:48Z</time></trkpt>
<trkpt lat="13.27086" lon="99.74077"><ele>101</ele><time>2018-06-16T09:59:49Z</time></trkpt>
<trkpt lat="13.27081" lon="99.74082"><ele>100</ele><time>2018-06-16T09:59:50Z</time></trkpt>
<trkpt lat="13.27076" lon="99.74087"><ele>100</ele><time>2018-06-16T09:59:51Z</time></trkpt>
<trkpt lat="13.27071" lon="99.74091"><ele>100</ele><time>2018-06-16T09:59:52Z</time></trkpt>
<trkpt lat="13.27065" lon="99.74096"><ele>100</ele><time>2018-06-16T09:59:53Z</time></trkpt>
<trkpt lat="13.27060" lon="99.74100"><ele>100</ele><time>2018-06-16T09:59:54Z</time></trkpt>
<trkpt lat="13.27054" lon="99.74105"><ele>100</ele><time>2018-06-16T09:59:55Z</time></trkpt>
<trkpt lat="13.27048" lon="99.74109"><ele>100</ele><time>2018-06-16T09:59:56Z</time></trkpt>
<trkpt lat="13.27043" lon="99.74114"><ele>100</ele><time>2018-06-16T09:59:57Z</time></trkpt>
<trkpt lat="13.27037" lon="99.74119"><ele>100</ele><time>2018-06-16T09:59:58Z</time></trkpt>
<trkpt lat="13.27033" lon="99.74124"><ele>100</ele><time>2018-06-16T09:59:59Z</time></trkpt>
<trkpt lat="13.27029" lon="99.74131"><ele>100</ele><time>2018-06-16T10:00:01Z</time></trkpt>
<trkpt lat="13.27028" lon="99.74140"><ele>100</ele><time>2018-06-16T10:00:03Z</time></trkpt>
<trkpt lat="13.27030" lon="99.74148"><ele>100</ele><time>2018-06-16T10:00:04Z</time></trkpt>
<trkpt lat="13.27032" lon="99.74155"><ele>100</ele><time>2018-06-16T10:00:05Z</time></trkpt>
<trkpt lat="13.27034" lon="99.74161"><ele>100</ele><time>2018-06-16T10:00:06Z</time></trkpt>
<trkpt lat="13.27036" lon="99.74167"><ele>100</ele><time>2018-06-16T10:00:07Z</time></trkpt>
<trkpt lat="13.27039" lon="99.74173"><ele>100</ele><time>2018-06-16T10:00:08Z</time></trkpt>
<trkpt lat="13.27042" lon="99.74179"><ele>100</ele><time>2018-06-16T10:00:09Z</time></trkpt>
<trkpt lat="13.27043" lon="99.74185"><ele>100</ele><time>2018-06-16T10:00:10Z</time></trkpt>
<trkpt lat="13.27043" lon="99.74193"><ele>100</ele><time>2018-06-16T10:00:12Z</time></trkpt>
<trkpt lat="13.27039" lon="99.74199"><ele>100</ele><time>2018-06-16T10:00:14Z</time></trkpt>
<trkpt lat="13.27035" lon="99.74205"><ele>100</ele><time>2018-06-16T10:00:16Z</time></trkpt>
<trkpt lat="13.27031" lon="99.74212"><ele>100</ele><time>2018-06-16T10:00:18Z</time></trkpt>
<trkpt lat="13.27028" lon="99.74219"><ele>100</ele><time>2018-06-16T10:00:20Z</time></trkpt>
<trkpt lat="13.27024" lon="99.74226"><ele>100</ele><time>2018-06-16T10:00:22Z</time></trkpt>
<trkpt lat="13.27021" lon="99.74233"><ele>100</ele><time>2018-06-16T10:00:24Z</time></trkpt>
<trkpt lat="13.27017" lon="99.74241"><ele>101</ele><time>2018-06-16T10:00:26Z</time></trkpt>
<trkpt lat="13.27013" lon="99.74250"><ele>101</ele><time>2018-06-16T10:00:28Z</time></trkpt>
<trkpt lat="13.27011" lon="99.74254"><ele>101</ele><time>2018-06-16T10:00:29Z</time></trkpt>
<trkpt lat="13.27009" lon="99.74258"><ele>101</ele><time>2018-06-16T10:00:30Z</time></trkpt>
<trkpt lat="13.27007" lon="99.74263"><ele>100</ele><time>2018-06-16T10:00:31Z</time></trkpt>
<trkpt lat="13.27005" lon="99.74267"><ele>100</ele><time>2018-06-16T10:00:32Z</time></trkpt>
<trkpt lat="13.27003" lon="99.74271"><ele>101</ele><time>2018-06-16T10:00:33Z</time></trkpt>
<trkpt lat="13.27001" lon="99.74276"><ele>101</ele><time>2018-06-16T10:00:34Z</time></trkpt>
<trkpt lat="13.26999" lon="99.74281"><ele>100</ele><time>2018-06-16T10:00:35Z</time></trkpt>
<trkpt lat="13.26997" lon="99.74285"><ele>100</ele><time>2018-06-16T10:00:36Z</time></trkpt>
<trkpt lat="13.26995" lon="99.74290"><ele>100</ele><time>2018-06-16T10:00:37Z</time></trkpt>
<trkpt lat="13.26993" lon="99.74295"><ele>100</ele><time>2018-06-16T10:00:38Z</time></trkpt>
<trkpt lat="13.26986" lon="99.74310"><ele>100</ele><time>2018-06-16T10:00:39Z</time></trkpt>
<trkpt lat="13.26984" lon="99.74317"><ele>100</ele><time>2018-06-16T10:00:40Z</time></trkpt>
<trkpt lat="13.26982" lon="99.74322"><ele>100</ele><time>2018-06-16T10:00:41Z</time></trkpt>
<trkpt lat="13.26981" lon="99.74327"><ele>100</ele><time>2018-06-16T10:00:42Z</time></trkpt>
<trkpt lat="13.26980" lon="99.74332"><ele>100</ele><time>2018-06-16T10:00:43Z</time></trkpt>
<trkpt lat="13.26978" lon="99.74337"><ele>100</ele><time>2018-06-16T10:00:44Z</time></trkpt>
<trkpt lat="13.26978" lon="99.74342"><ele>100</ele><time>2018-06-16T10:00:45Z</time></trkpt>
<trkpt lat="13.26977" lon="99.74347"><ele>100</ele><time>2018-06-16T10:00:46Z</time></trkpt>
<trkpt lat="13.26974" lon="99.74353"><ele>99</ele><time>2018-06-16T10:00:48Z</time></trkpt>
<trkpt lat="13.26968" lon="99.74356"><ele>100</ele><time>2018-06-16T10:00:50Z</time></trkpt>
<trkpt lat="13.26959" lon="99.74360"><ele>100</ele><time>2018-06-16T10:00:52Z</time></trkpt>
<trkpt lat="13.26955" lon="99.74362"><ele>99</ele><time>2018-06-16T10:00:54Z</time></trkpt>
<trkpt lat="13.26949" lon="99.74368"><ele>99</ele><time>2018-06-16T10:00:56Z</time></trkpt>
<trkpt lat="13.26946" lon="99.74372"><ele>99</ele><time>2018-06-16T10:00:57Z</time></trkpt>
<trkpt lat="13.26944" lon="99.74376"><ele>99</ele><time>2018-06-16T10:00:58Z</time></trkpt>
<trkpt lat="13.26942" lon="99.74381"><ele>99</ele><time>2018-06-16T10:00:59Z</time></trkpt>
<trkpt lat="13.26941" lon="99.74385"><ele>98</ele><time>2018-06-16T10:01:00Z</time></trkpt>
<trkpt lat="13.26939" lon="99.74390"><ele>98</ele><time>2018-06-16T10:01:01Z</time></trkpt>
<trkpt lat="13.26937" lon="99.74395"><ele>98</ele><time>2018-06-16T10:01:02Z</time></trkpt>
<trkpt lat="13.26936" lon="99.74400"><ele>98</ele><time>2018-06-16T10:01:03Z</time></trkpt>
<trkpt lat="13.26936" lon="99.74405"><ele>97</ele><time>2018-06-16T10:01:04Z</time></trkpt>
<trkpt lat="13.26938" lon="99.74413"><ele>98</ele><time>2018-06-16T10:01:06Z</time></trkpt>
<trkpt lat="13.26941" lon="99.74418"><ele>96</ele><time>2018-06-16T10:01:07Z</time></trkpt>
<trkpt lat="13.26944" lon="99.74423"><ele>95</ele><time>2018-06-16T10:01:08Z</time></trkpt>
<trkpt lat="13.26948" lon="99.74427"><ele>95</ele><time>2018-06-16T10:01:09Z</time></trkpt>
<trkpt lat="13.26952" lon="99.74431"><ele>95</ele><time>2018-06-16T10:01:10Z</time></trkpt>
<trkpt lat="13.26956" lon="99.74435"><ele>96</ele><time>2018-06-16T10:01:11Z</time></trkpt>
<trkpt lat="13.26959" lon="99.74439"><ele>96</ele><time>2018-06-16T10:01:12Z</time></trkpt>
<trkpt lat="13.26963" lon="99.74443"><ele>96</ele><time>2018-06-16T10:01:13Z</time></trkpt>
<trkpt lat="13.26968" lon="99.74449"><ele>96</ele><time>2018-06-16T10:01:15Z</time></trkpt>
<trkpt lat="13.26972" lon="99.74453"><ele>96</ele><time>2018-06-16T10:01:17Z</time></trkpt>
<trkpt lat="13.26975" lon="99.74457"><ele>96</ele><time>2018-06-16T10:01:19Z</time></trkpt>
<trkpt lat="13.26978" lon="99.74462"><ele>99</ele><time>2018-06-16T10:01:49Z</time></trkpt>
<trkpt lat="13.26979" lon="99.74466"><ele>98</ele><time>2018-06-16T10:01:53Z</time></trkpt>
<trkpt lat="13.26979" lon="99.74475"><ele>97</ele><time>2018-06-16T10:01:55Z</time></trkpt>
<trkpt lat="13.26980" lon="99.74480"><ele>98</ele><time>2018-06-16T10:01:56Z</time></trkpt>
<trkpt lat="13.26984" lon="99.74487"><ele>97</ele><time>2018-06-16T10:01:58Z</time></trkpt>
<trkpt lat="13.26988" lon="99.74490"><ele>96</ele><time>2018-06-16T10:01:59Z</time></trkpt>
<trkpt lat="13.26992" lon="99.74493"><ele>96</ele><time>2018-06-16T10:02:00Z</time></trkpt>
<trkpt lat="13.26996" lon="99.74496"><ele>96</ele><time>2018-06-16T10:02:01Z</time></trkpt>
<trkpt lat="13.27000" lon="99.74498"><ele>96</ele><time>2018-06-16T10:02:02Z</time></trkpt>
<trkpt lat="13.27005" lon="99.74500"><ele>96</ele><time>2018-06-16T10:02:03Z</time></trkpt>
<trkpt lat="13.27009" lon="99.74503"><ele>96</ele><time>2018-06-16T10:02:04Z</time></trkpt>
<trkpt lat="13.27014" lon="99.74505"><ele>96</ele><time>2018-06-16T10:02:05Z</time></trkpt>
<trkpt lat="13.27019" lon="99.74508"><ele>95</ele><time>2018-06-16T10:02:06Z</time></trkpt>
<trkpt lat="13.27024" lon="99.74510"><ele>95</ele><time>2018-06-16T10:02:07Z</time></trkpt>
<trkpt lat="13.27030" lon="99.74511"><ele>95</ele><time>2018-06-16T10:02:08Z</time></trkpt>
<trkpt lat="13.27036" lon="99.74511"><ele>95</ele><time>2018-06-16T10:02:09Z</time></trkpt>
<trkpt lat="13.27042" lon="99.74511"><ele>95</ele><time>2018-06-16T10:02:10Z</time></trkpt>
<trkpt lat="13.27047" lon="99.74510"><ele>95</ele><time>2018-06-16T10:02:11Z</time></trkpt>
<trkpt lat="13.27052" lon="99.74510"><ele>95</ele><time>2018-06-16T10:02:12Z</time></trkpt>
<trkpt lat="13.27057" lon="99.74509"><ele>95</ele><time>2018-06-16T10:02:13Z</time></trkpt>
<trkpt lat="13.27062" lon="99.74508"><ele>95</ele><time>2018-06-16T10:02:14Z</time></trkpt>
<trkpt lat="13.27070" lon="99.74506"><ele>95</ele><time>2018-06-16T10:02:15Z</time></trkpt>
<trkpt lat="13.27076" lon="99.74505"><ele>95</ele><time>2018-06-16T10:02:16Z</time></trkpt>
<trkpt lat="13.27081" lon="99.74504"><ele>95</ele><time>2018-06-16T10:02:17Z</time></trkpt>
<trkpt lat="13.27086" lon="99.74503"><ele>95</ele><time>2018-06-16T10:02:18Z</time></trkpt>
<trkpt lat="13.27093" lon="99.74503"><ele>95</ele><time>2018-06-16T10:02:20Z</time></trkpt>
<trkpt lat="13.27101" lon="99.74506"><ele>95</ele><time>2018-06-16T10:02:22Z</time></trkpt>
<trkpt lat="13.27105" lon="99.74507"><ele>95</ele><time>2018-06-16T10:02:23Z</time></trkpt>
<trkpt lat="13.27110" lon="99.74508"><ele>95</ele><time>2018-06-16T10:02:24Z</time></trkpt>
<trkpt lat="13.27115" lon="99.74509"><ele>95</ele><time>2018-06-16T10:02:25Z</time></trkpt>
<trkpt lat="13.27120" lon="99.74510"><ele>95</ele><time>2018-06-16T10:02:26Z</time></trkpt>
<trkpt lat="13.27127" lon="99.74515"><ele>95</ele><time>2018-06-16T10:02:28Z</time></trkpt>
<trkpt lat="13.27132" lon="99.74523"><ele>95</ele><time>2018-06-16T10:02:30Z</time></trkpt>
<trkpt lat="13.27133" lon="99.74527"><ele>95</ele><time>2018-06-16T10:02:31Z</time></trkpt>
<trkpt lat="13.27134" lon="99.74532"><ele>95</ele><time>2018-06-16T10:02:32Z</time></trkpt>
<trkpt lat="13.27137" lon="99.74541"><ele>95</ele><time>2018-06-16T10:02:34Z</time></trkpt>
<trkpt lat="13.27138" lon="99.74549"><ele>95</ele><time>2018-06-16T10:02:36Z</time></trkpt>
<trkpt lat="13.27139" lon="99.74557"><ele>95</ele><time>2018-06-16T10:02:38Z</time></trkpt>
<trkpt lat="13.27140" lon="99.74565"><ele>95</ele><time>2018-06-16T10:02:40Z</time></trkpt>
<trkpt lat="13.27141" lon="99.74574"><ele>95</ele><time>2018-06-16T10:02:42Z</time></trkpt>
<trkpt lat="13.27142" lon="99.74583"><ele>95</ele><time>2018-06-16T10:02:44Z</time></trkpt>
<trkpt lat="13.27143" lon="99.74592"><ele>95</ele><time>2018-06-16T10:02:46Z</time></trkpt>
<trkpt lat="13.27144" lon="99.74596"><ele>95</ele><time>2018-06-16T10:02:47Z</time></trkpt>
<trkpt lat="13.27145" lon="99.74601"><ele>95</ele><time>2018-06-16T10:02:48Z</time></trkpt>
<trkpt lat="13.27145" lon="99.74606"><ele>95</ele><time>2018-06-16T10:02:49Z</time></trkpt>
<trkpt lat="13.27146" lon="99.74610"><ele>95</ele><time>2018-06-16T10:02:50Z</time></trkpt>
<trkpt lat="13.27147" lon="99.74615"><ele>95</ele><time>2018-06-16T10:02:51Z</time></trkpt>
<trkpt lat="13.27148" lon="99.74620"><ele>95</ele><time>2018-06-16T10:02:52Z</time></trkpt>
<trkpt lat="13.27148" lon="99.74624"><ele>95</ele><time>2018-06-16T10:02:53Z</time></trkpt>
<trkpt lat="13.27149" lon="99.74629"><ele>96</ele><time>2018-06-16T10:02:54Z</time></trkpt>
<trkpt lat="13.27150" lon="99.74634"><ele>96</ele><time>2018-06-16T10:02:55Z</time></trkpt>
<trkpt lat="13.27151" lon="99.74643"><ele>96</ele><time>2018-06-16T10:02:57Z</time></trkpt>
<trkpt lat="13.27152" lon="99.74652"><ele>96</ele><time>2018-06-16T10:02:59Z</time></trkpt>
<trkpt lat="13.27153" lon="99.74661"><ele>96</ele><time>2018-06-16T10:03:01Z</time></trkpt>
<trkpt lat="13.27154" lon="99.74670"><ele>96</ele><time>2018-06-16T10:03:03Z</time></trkpt>
<trkpt lat="13.27155" lon="99.74675"><ele>96</ele><time>2018-06-16T10:03:04Z</time></trkpt>
<trkpt lat="13.27158" lon="99.74683"><ele>96</ele><time>2018-06-16T10:03:06Z</time></trkpt>
<trkpt lat="13.27161" lon="99.74692"><ele>97</ele><time>2018-06-16T10:03:08Z</time></trkpt>
<trkpt lat="13.27163" lon="99.74700"><ele>96</ele><time>2018-06-16T10:03:10Z</time></trkpt>
<trkpt lat="13.27166" lon="99.74709"><ele>97</ele><time>2018-06-16T10:03:12Z</time></trkpt>
<trkpt lat="13.27168" lon="99.74718"><ele>96</ele><time>2018-06-16T10:03:14Z</time></trkpt>
<trkpt lat="13.27171" lon="99.74726"><ele>96</ele><time>2018-06-16T10:03:16Z</time></trkpt>
<trkpt lat="13.27174" lon="99.74734"><ele>97</ele><time>2018-06-16T10:03:18Z</time></trkpt>
<trkpt lat="13.27177" lon="99.74742"><ele>97</ele><time>2018-06-16T10:03:20Z</time></trkpt>
<trkpt lat="13.27179" lon="99.74750"><ele>97</ele><time>2018-06-16T10:03:22Z</time></trkpt>
<trkpt lat="13.27181" lon="99.74757"><ele>97</ele><time>2018-06-16T10:03:24Z</time></trkpt>
<trkpt lat="13.27184" lon="99.74764"><ele>98</ele><time>2018-06-16T10:03:26Z</time></trkpt>
<trkpt lat="13.27186" lon="99.74769"><ele>98</ele><time>2018-06-16T10:03:28Z</time></trkpt>
<trkpt lat="13.27189" lon="99.74774"><ele>99</ele><time>2018-06-16T10:03:31Z</time></trkpt>
<trkpt lat="13.27194" lon="99.74773"><ele>98</ele><time>2018-06-16T10:03:33Z</time></trkpt>
<trkpt lat="13.27200" lon="99.74771"><ele>98</ele><time>2018-06-16T10:03:35Z</time></trkpt>
<trkpt lat="13.27208" lon="99.74768"><ele>98</ele><time>2018-06-16T10:03:37Z</time></trkpt>
<trkpt lat="13.27212" lon="99.74766"><ele>98</ele><time>2018-06-16T10:03:38Z</time></trkpt>
<trkpt lat="13.27216" lon="99.74764"><ele>98</ele><time>2018-06-16T10:03:39Z</time></trkpt>
<trkpt lat="13.27220" lon="99.74762"><ele>98</ele><time>2018-06-16T10:03:40Z</time></trkpt>
<trkpt lat="13.27225" lon="99.74760"><ele>98</ele><time>2018-06-16T10:03:41Z</time></trkpt>
<trkpt lat="13.27229" lon="99.74758"><ele>98</ele><time>2018-06-16T10:03:42Z</time></trkpt>
<trkpt lat="13.27234" lon="99.74756"><ele>98</ele><time>2018-06-16T10:03:43Z</time></trkpt>
<trkpt lat="13.27238" lon="99.74754"><ele>98</ele><time>2018-06-16T10:03:44Z</time></trkpt>
<trkpt lat="13.27243" lon="99.74751"><ele>98</ele><time>2018-06-16T10:03:45Z</time></trkpt>
<trkpt lat="13.27248" lon="99.74749"><ele>98</ele><time>2018-06-16T10:03:46Z</time></trkpt>
<trkpt lat="13.27253" lon="99.74747"><ele>98</ele><time>2018-06-16T10:03:47Z</time></trkpt>
<trkpt lat="13.27258" lon="99.74745"><ele>98</ele><time>2018-06-16T10:03:48Z</time></trkpt>
<trkpt lat="13.27262" lon="99.74743"><ele>98</ele><time>2018-06-16T10:03:49Z</time></trkpt>
<trkpt lat="13.27267" lon="99.74741"><ele>98</ele><time>2018-06-16T10:03:50Z</time></trkpt>
<trkpt lat="13.27271" lon="99.74739"><ele>98</ele><time>2018-06-16T10:03:51Z</time></trkpt>
<trkpt lat="13.27275" lon="99.74738"><ele>98</ele><time>2018-06-16T10:03:52Z</time></trkpt>
<trkpt lat="13.27280" lon="99.74736"><ele>98</ele><time>2018-06-16T10:03:53Z</time></trkpt>
<trkpt lat="13.27284" lon="99.74735"><ele>98</ele><time>2018-06-16T10:03:54Z</time></trkpt>
<trkpt lat="13.27289" lon="99.74734"><ele>98</ele><time>2018-06-16T10:03:55Z</time></trkpt>
<trkpt lat="13.27294" lon="99.74733"><ele>98</ele><time>2018-06-16T10:03:56Z</time></trkpt>
<trkpt lat="13.27298" lon="99.74732"><ele>98</ele><time>2018-06-16T10:03:57Z</time></trkpt>
<trkpt lat="13.27306" lon="99.74733"><ele>98</ele><time>2018-06-16T10:03:59Z</time></trkpt>
<trkpt lat="13.27308" lon="99.74740"><ele>98</ele><time>2018-06-16T10:04:01Z</time></trkpt>
<trkpt lat="13.27309" lon="99.74748"><ele>98</ele><time>2018-06-16T10:04:03Z</time></trkpt>
<trkpt lat="13.27309" lon="99.74753"><ele>97</ele><time>2018-06-16T10:04:04Z</time></trkpt>
<trkpt lat="13.27310" lon="99.74758"><ele>97</ele><time>2018-06-16T10:04:05Z</time></trkpt>
<trkpt lat="13.27311" lon="99.74763"><ele>97</ele><time>2018-06-16T10:04:06Z</time></trkpt>
<trkpt lat="13.27311" lon="99.74769"><ele>97</ele><time>2018-06-16T10:04:07Z</time></trkpt>
<trkpt lat="13.27312" lon="99.74774"><ele>97</ele><time>2018-06-16T10:04:08Z</time></trkpt>
<trkpt lat="13.27313" lon="99.74779"><ele>97</ele><time>2018-06-16T10:04:09Z</time></trkpt>
<trkpt lat="13.27314" lon="99.74784"><ele>97</ele><time>2018-06-16T10:04:10Z</time></trkpt>
<trkpt lat="13.27315" lon="99.74790"><ele>97</ele><time>2018-06-16T10:04:11Z</time></trkpt>
<trkpt lat="13.27315" lon="99.74795"><ele>97</ele><time>2018-06-16T10:04:12Z</time></trkpt>
<trkpt lat="13.27316" lon="99.74801"><ele>97</ele><time>2018-06-16T10:04:13Z</time></trkpt>
<trkpt lat="13.27317" lon="99.74806"><ele>97</ele><time>2018-06-16T10:04:14Z</time></trkpt>
<trkpt lat="13.27318" lon="99.74812"><ele>97</ele><time>2018-06-16T10:04:15Z</time></trkpt>
<trkpt lat="13.27319" lon="99.74818"><ele>97</ele><time>2018-06-16T10:04:16Z</time></trkpt>
<trkpt lat="13.27320" lon="99.74824"><ele>97</ele><time>2018-06-16T10:04:17Z</time></trkpt>
<trkpt lat="13.27321" lon="99.74830"><ele>97</ele><time>2018-06-16T10:04:18Z</time></trkpt>
<trkpt lat="13.27321" lon="99.74835"><ele>97</ele><time>2018-06-16T10:04:19Z</time></trkpt>
<trkpt lat="13.27322" lon="99.74841"><ele>97</ele><time>2018-06-16T10:04:20Z</time></trkpt>
<trkpt lat="13.27323" lon="99.74847"><ele>97</ele><time>2018-06-16T10:04:21Z</time></trkpt>
<trkpt lat="13.27323" lon="99.74853"><ele>97</ele><time>2018-06-16T10:04:22Z</time></trkpt>
<trkpt lat="13.27324" lon="99.74858"><ele>97</ele><time>2018-06-16T10:04:23Z</time></trkpt>
<trkpt lat="13.27324" lon="99.74864"><ele>97</ele><time>2018-06-16T10:04:24Z</time></trkpt>
<trkpt lat="13.27325" lon="99.74870"><ele>97</ele><time>2018-06-16T10:04:25Z</time></trkpt>
<trkpt lat="13.27325" lon="99.74877"><ele>97</ele><time>2018-06-16T10:04:26Z</time></trkpt>
<trkpt lat="13.27326" lon="99.74883"><ele>97</ele><time>2018-06-16T10:04:27Z</time></trkpt>
<trkpt lat="13.27327" lon="99.74890"><ele>97</ele><time>2018-06-16T10:04:28Z</time></trkpt>
<trkpt lat="13.27328" lon="99.74896"><ele>97</ele><time>2018-06-16T10:04:29Z</time></trkpt>
<trkpt lat="13.27329" lon="99.74903"><ele>97</ele><time>2018-06-16T10:04:30Z</time></trkpt>
<trkpt lat="13.27330" lon="99.74909"><ele>97</ele><time>2018-06-16T10:04:31Z</time></trkpt>
<trkpt lat="13.27330" lon="99.74915"><ele>97</ele><time>2018-06-16T10:04:32Z</time></trkpt>
<trkpt lat="13.27331" lon="99.74922"><ele>97</ele><time>2018-06-16T10:04:33Z</time></trkpt>
<trkpt lat="13.27332" lon="99.74928"><ele>97</ele><time>2018-06-16T10:04:34Z</time></trkpt>
<trkpt lat="13.27333" lon="99.74934"><ele>97</ele><time>2018-06-16T10:04:35Z</time></trkpt>
<trkpt lat="13.27334" lon="99.74940"><ele>97</ele><time>2018-06-16T10:04:36Z</time></trkpt>
<trkpt lat="13.27335" lon="99.74946"><ele>96</ele><time>2018-06-16T10:04:37Z</time></trkpt>
<trkpt lat="13.27336" lon="99.74952"><ele>97</ele><time>2018-06-16T10:04:38Z</time></trkpt>
<trkpt lat="13.27337" lon="99.74958"><ele>97</ele><time>2018-06-16T10:04:39Z</time></trkpt>
<trkpt lat="13.27338" lon="99.74964"><ele>97</ele><time>2018-06-16T10:04:40Z</time></trkpt>
<trkpt lat="13.27339" lon="99.74971"><ele>97</ele><time>2018-06-16T10:04:41Z</time></trkpt>
<trkpt lat="13.27340" lon="99.74977"><ele>96</ele><time>2018-06-16T10:04:42Z</time></trkpt>
<trkpt lat="13.27340" lon="99.74983"><ele>97</ele><time>2018-06-16T10:04:43Z</time></trkpt>
<trkpt lat="13.27340" lon="99.74989"><ele>97</ele><time>2018-06-16T10:04:44Z</time></trkpt>
<trkpt lat="13.27339" lon="99.74995"><ele>96</ele><time>2018-06-16T10:04:45Z</time></trkpt>
<trkpt lat="13.27337" lon="99.75000"><ele>96</ele><time>2018-06-16T10:04:46Z</time></trkpt>
<trkpt lat="13.27335" lon="99.75006"><ele>96</ele><time>2018-06-16T10:04:47Z</time></trkpt>
<trkpt lat="13.27333" lon="99.75011"><ele>96</ele><time>2018-06-16T10:04:48Z</time></trkpt>
<trkpt lat="13.27330" lon="99.75017"><ele>96</ele><time>2018-06-16T10:04:49Z</time></trkpt>
<trkpt lat="13.27328" lon="99.75022"><ele>96</ele><time>2018-06-16T10:04:50Z</time></trkpt>
<trkpt lat="13.27326" lon="99.75028"><ele>96</ele><time>2018-06-16T10:04:51Z</time></trkpt>
<trkpt lat="13.27324" lon="99.75033"><ele>96</ele><time>2018-06-16T10:04:52Z</time></trkpt>
<trkpt lat="13.27322" lon="99.75039"><ele>96</ele><time>2018-06-16T10:04:53Z</time></trkpt>
<trkpt lat="13.27320" lon="99.75044"><ele>96</ele><time>2018-06-16T10:04:54Z</time></trkpt>
<trkpt lat="13.27317" lon="99.75049"><ele>95</ele><time>2018-06-16T10:04:55Z</time></trkpt>
<trkpt lat="13.27315" lon="99.75055"><ele>95</ele><time>2018-06-16T10:04:56Z</time></trkpt>
<trkpt lat="13.27313" lon="99.75060"><ele>95</ele><time>2018-06-16T10:04:57Z</time></trkpt>
<trkpt lat="13.27311" lon="99.75066"><ele>95</ele><time>2018-06-16T10:04:58Z</time></trkpt>
<trkpt lat="13.27309" lon="99.75072"><ele>95</ele><time>2018-06-16T10:04:59Z</time></trkpt>
<trkpt lat="13.27307" lon="99.75078"><ele>95</ele><time>2018-06-16T10:05:00Z</time></trkpt>
<trkpt lat="13.27306" lon="99.75084"><ele>95</ele><time>2018-06-16T10:05:01Z</time></trkpt>
<trkpt lat="13.27305" lon="99.75089"><ele>95</ele><time>2018-06-16T10:05:02Z</time></trkpt>
<trkpt lat="13.27304" lon="99.75095"><ele>95</ele><time>2018-06-16T10:05:03Z</time></trkpt>
<trkpt lat="13.27304" lon="99.75101"><ele>95</ele><time>2018-06-16T10:05:04Z</time></trkpt>
<trkpt lat="13.27304" lon="99.75107"><ele>95</ele><time>2018-06-16T10:05:05Z</time></trkpt>
<trkpt lat="13.27304" lon="99.75113"><ele>94</ele><time>2018-06-16T10:05:06Z</time></trkpt>
<trkpt lat="13.27304" lon="99.75119"><ele>95</ele><time>2018-06-16T10:05:07Z</time></trkpt>
<trkpt lat="13.27305" lon="99.75125"><ele>95</ele><time>2018-06-16T10:05:08Z</time></trkpt>
<trkpt lat="13.27305" lon="99.75132"><ele>95</ele><time>2018-06-16T10:05:09Z</time></trkpt>
<trkpt lat="13.27305" lon="99.75137"><ele>95</ele><time>2018-06-16T10:05:11Z</time></trkpt>
<trkpt lat="13.27307" lon="99.75146"><ele>95</ele><time>2018-06-16T10:05:13Z</time></trkpt>
<trkpt lat="13.27310" lon="99.75155"><ele>95</ele><time>2018-06-16T10:05:14Z</time></trkpt>
<trkpt lat="13.27311" lon="99.75162"><ele>95</ele><time>2018-06-16T10:05:15Z</time></trkpt>
<trkpt lat="13.27312" lon="99.75168"><ele>95</ele><time>2018-06-16T10:05:16Z</time></trkpt>
<trkpt lat="13.27313" lon="99.75174"><ele>95</ele><time>2018-06-16T10:05:17Z</time></trkpt>
<trkpt lat="13.27314" lon="99.75180"><ele>95</ele><time>2018-06-16T10:05:18Z</time></trkpt>
<trkpt lat="13.27314" lon="99.75186"><ele>95</ele><time>2018-06-16T10:05:19Z</time></trkpt>
<trkpt lat="13.27315" lon="99.75191"><ele>95</ele><time>2018-06-16T10:05:20Z</time></trkpt>
<trkpt lat="13.27316" lon="99.75197"><ele>95</ele><time>2018-06-16T10:05:21Z</time></trkpt>
<trkpt lat="13.27317" lon="99.75202"><ele>95</ele><time>2018-06-16T10:05:22Z</time></trkpt>
<trkpt lat="13.27318" lon="99.75208"><ele>95</ele><time>2018-06-16T10:05:23Z</time></trkpt>
<trkpt lat="13.27319" lon="99.75214"><ele>94</ele><time>2018-06-16T10:05:24Z</time></trkpt>
<trkpt lat="13.27320" lon="99.75220"><ele>94</ele><time>2018-06-16T10:05:25Z</time></trkpt>
<trkpt lat="13.27322" lon="99.75227"><ele>94</ele><time>2018-06-16T10:05:27Z</time></trkpt>
<trkpt lat="13.27323" lon="99.75232"><ele>93</ele><time>2018-06-16T10:05:28Z</time></trkpt>
<trkpt lat="13.27325" lon="99.75237"><ele>93</ele><time>2018-06-16T10:05:29Z</time></trkpt>
<trkpt lat="13.27329" lon="99.75246"><ele>94</ele><time>2018-06-16T10:05:30Z</time></trkpt>
<trkpt lat="13.27332" lon="99.75253"><ele>94</ele><time>2018-06-16T10:05:31Z</time></trkpt>
<trkpt lat="13.27333" lon="99.75259"><ele>94</ele><time>2018-06-16T10:05:32Z</time></trkpt>
<trkpt lat="13.27334" lon="99.75265"><ele>94</ele><time>2018-06-16T10:05:33Z</time></trkpt>
<trkpt lat="13.27334" lon="99.75270"><ele>94</ele><time>2018-06-16T10:05:34Z</time></trkpt>
<trkpt lat="13.27332" lon="99.75278"><ele>93</ele><time>2018-06-16T10:05:36Z</time></trkpt>
<trkpt lat="13.27329" lon="99.75282"><ele>93</ele><time>2018-06-16T10:05:38Z</time></trkpt>
<trkpt lat="13.27324" lon="99.75283"><ele>94</ele><time>2018-06-16T10:05:41Z</time></trkpt>
<trkpt lat="13.27320" lon="99.75286"><ele>97</ele><time>2018-06-16T10:07:18Z</time></trkpt>
<trkpt lat="13.27316" lon="99.75289"><ele>97</ele><time>2018-06-16T10:07:22Z</time></trkpt>
<trkpt lat="13.27311" lon="99.75290"><ele>96</ele><time>2018-06-16T10:07:25Z</time></trkpt>
<trkpt lat="13.27306" lon="99.75291"><ele>96</ele><time>2018-06-16T10:07:27Z</time></trkpt>
<trkpt lat="13.27301" lon="99.75291"><ele>96</ele><time>2018-06-16T10:07:29Z</time></trkpt>
<trkpt lat="13.27295" lon="99.75291"><ele>96</ele><time>2018-06-16T10:07:31Z</time></trkpt>
<trkpt lat="13.27289" lon="99.75290"><ele>97</ele><time>2018-06-16T10:07:33Z</time></trkpt>
<trkpt lat="13.27283" lon="99.75288"><ele>97</ele><time>2018-06-16T10:07:35Z</time></trkpt>
<trkpt lat="13.27276" lon="99.75284"><ele>97</ele><time>2018-06-16T10:07:37Z</time></trkpt>
<trkpt lat="13.27270" lon="99.75279"><ele>98</ele><time>2018-06-16T10:07:39Z</time></trkpt>
<trkpt lat="13.27263" lon="99.75274"><ele>98</ele><time>2018-06-16T10:07:41Z</time></trkpt>
<trkpt lat="13.27256" lon="99.75269"><ele>98</ele><time>2018-06-16T10:07:43Z</time></trkpt>
<trkpt lat="13.27248" lon="99.75266"><ele>98</ele><time>2018-06-16T10:07:45Z</time></trkpt>
<trkpt lat="13.27240" lon="99.75262"><ele>98</ele><time>2018-06-16T10:07:47Z</time></trkpt>
<trkpt lat="13.27233" lon="99.75259"><ele>98</ele><time>2018-06-16T10:07:49Z</time></trkpt>
<trkpt lat="13.27225" lon="99.75257"><ele>97</ele><time>2018-06-16T10:07:51Z</time></trkpt>
<trkpt lat="13.27218" lon="99.75255"><ele>97</ele><time>2018-06-16T10:07:53Z</time></trkpt>
<trkpt lat="13.27210" lon="99.75253"><ele>97</ele><time>2018-06-16T10:07:55Z</time></trkpt>
<trkpt lat="13.27203" lon="99.75253"><ele>97</ele><time>2018-06-16T10:07:57Z</time></trkpt>
<trkpt lat="13.27196" lon="99.75253"><ele>97</ele><time>2018-06-16T10:07:59Z</time></trkpt>
<trkpt lat="13.27189" lon="99.75254"><ele>97</ele><time>2018-06-16T10:08:01Z</time></trkpt>
<trkpt lat="13.27182" lon="99.75255"><ele>97</ele><time>2018-06-16T10:08:03Z</time></trkpt>
<trkpt lat="13.27176" lon="99.75257"><ele>97</ele><time>2018-06-16T10:08:05Z</time></trkpt>
<trkpt lat="13.27168" lon="99.75257"><ele>97</ele><time>2018-06-16T10:08:07Z</time></trkpt>
<trkpt lat="13.27161" lon="99.75258"><ele>97</ele><time>2018-06-16T10:08:09Z</time></trkpt>
<trkpt lat="13.27153" lon="99.75258"><ele>97</ele><time>2018-06-16T10:08:11Z</time></trkpt>
<trkpt lat="13.27145" lon="99.75259"><ele>97</ele><time>2018-06-16T10:08:13Z</time></trkpt>
<trkpt lat="13.27140" lon="99.75259"><ele>97</ele><time>2018-06-16T10:08:14Z</time></trkpt>
<trkpt lat="13.27135" lon="99.75260"><ele>97</ele><time>2018-06-16T10:08:15Z</time></trkpt>
<trkpt lat="13.27130" lon="99.75260"><ele>97</ele><time>2018-06-16T10:08:16Z</time></trkpt>
<trkpt lat="13.27121" lon="99.75260"><ele>97</ele><time>2018-06-16T10:08:18Z</time></trkpt>
<trkpt lat="13.27117" lon="99.75261"><ele>97</ele><time>2018-06-16T10:08:19Z</time></trkpt>
<trkpt lat="13.27108" lon="99.75261"><ele>97</ele><time>2018-06-16T10:08:21Z</time></trkpt>
<trkpt lat="13.27103" lon="99.75261"><ele>97</ele><time>2018-06-16T10:08:22Z</time></trkpt>
<trkpt lat="13.27099" lon="99.75262"><ele>97</ele><time>2018-06-16T10:08:23Z</time></trkpt>
<trkpt lat="13.27094" lon="99.75262"><ele>97</ele><time>2018-06-16T10:08:24Z</time></trkpt>
<trkpt lat="13.27089" lon="99.75262"><ele>97</ele><time>2018-06-16T10:08:25Z</time></trkpt>
<trkpt lat="13.27084" lon="99.75262"><ele>97</ele><time>2018-06-16T10:08:26Z</time></trkpt>
<trkpt lat="13.27079" lon="99.75262"><ele>97</ele><time>2018-06-16T10:08:27Z</time></trkpt>
<trkpt lat="13.27074" lon="99.75262"><ele>97</ele><time>2018-06-16T10:08:28Z</time></trkpt>
<trkpt lat="13.27069" lon="99.75262"><ele>97</ele><time>2018-06-16T10:08:29Z</time></trkpt>
<trkpt lat="13.27064" lon="99.75262"><ele>97</ele><time>2018-06-16T10:08:30Z</time></trkpt>
<trkpt lat="13.27059" lon="99.75261"><ele>97</ele><time>2018-06-16T10:08:31Z</time></trkpt>
<trkpt lat="13.27054" lon="99.75261"><ele>97</ele><time>2018-06-16T10:08:32Z</time></trkpt>
<trkpt lat="13.27049" lon="99.75261"><ele>97</ele><time>2018-06-16T10:08:33Z</time></trkpt>
<trkpt lat="13.27044" lon="99.75261"><ele>97</ele><time>2018-06-16T10:08:34Z</time></trkpt>
<trkpt lat="13.27040" lon="99.75262"><ele>97</ele><time>2018-06-16T10:08:35Z</time></trkpt>
<trkpt lat="13.27031" lon="99.75263"><ele>97</ele><time>2018-06-16T10:08:37Z</time></trkpt>
<trkpt lat="13.27024" lon="99.75264"><ele>98</ele><time>2018-06-16T10:08:39Z</time></trkpt>
<trkpt lat="13.27013" lon="99.75264"><ele>98</ele><time>2018-06-16T10:08:41Z</time></trkpt>
<trkpt lat="13.27008" lon="99.75265"><ele>98</ele><time>2018-06-16T10:08:42Z</time></trkpt>
<trkpt lat="13.26999" lon="99.75265"><ele>98</ele><time>2018-06-16T10:08:44Z</time></trkpt>
<trkpt lat="13.26990" lon="99.75266"><ele>99</ele><time>2018-06-16T10:08:46Z</time></trkpt>
<trkpt lat="13.26982" lon="99.75266"><ele>99</ele><time>2018-06-16T10:08:48Z</time></trkpt>
<trkpt lat="13.26973" lon="99.75267"><ele>99</ele><time>2018-06-16T10:08:50Z</time></trkpt>
<trkpt lat="13.26968" lon="99.75266"><ele>99</ele><time>2018-06-16T10:08:51Z</time></trkpt>
<trkpt lat="13.26963" lon="99.75267"><ele>99</ele><time>2018-06-16T10:08:52Z</time></trkpt>
<trkpt lat="13.26958" lon="99.75267"><ele>99</ele><time>2018-06-16T10:08:53Z</time></trkpt>
<trkpt lat="13.26951" lon="99.75270"><ele>100</ele><time>2018-06-16T10:08:55Z</time></trkpt>
<trkpt lat="13.26950" lon="99.75278"><ele>99</ele><time>2018-06-16T10:08:57Z</time></trkpt>
<trkpt lat="13.26950" lon="99.75287"><ele>100</ele><time>2018-06-16T10:08:59Z</time></trkpt>
<trkpt lat="13.26953" lon="99.75295"><ele>100</ele><time>2018-06-16T10:09:01Z</time></trkpt>
<trkpt lat="13.26955" lon="99.75303"><ele>100</ele><time>2018-06-16T10:09:03Z</time></trkpt>
<trkpt lat="13.26958" lon="99.75311"><ele>100</ele><time>2018-06-16T10:09:05Z</time></trkpt>
<trkpt lat="13.26959" lon="99.75315"><ele>100</ele><time>2018-06-16T10:09:06Z</time></trkpt>
<trkpt lat="13.26961" lon="99.75320"><ele>100</ele><time>2018-06-16T10:09:07Z</time></trkpt>
<trkpt lat="13.26962" lon="99.75325"><ele>101</ele><time>2018-06-16T10:09:08Z</time></trkpt>
<trkpt lat="13.26963" lon="99.75329"><ele>101</ele><time>2018-06-16T10:09:09Z</time></trkpt>
<trkpt lat="13.26967" lon="99.75338"><ele>101</ele><time>2018-06-16T10:09:11Z</time></trkpt>
<trkpt lat="13.26968" lon="99.75342"><ele>101</ele><time>2018-06-16T10:09:12Z</time></trkpt>
<trkpt lat="13.26970" lon="99.75347"><ele>101</ele><time>2018-06-16T10:09:13Z</time></trkpt>
<trkpt lat="13.26974" lon="99.75355"><ele>101</ele><time>2018-06-16T10:09:15Z</time></trkpt>
<trkpt lat="13.26978" lon="99.75363"><ele>101</ele><time>2018-06-16T10:09:17Z</time></trkpt>
<trkpt lat="13.26981" lon="99.75371"><ele>102</ele><time>2018-06-16T10:09:19Z</time></trkpt>
<trkpt lat="13.26985" lon="99.75380"><ele>101</ele><time>2018-06-16T10:09:21Z</time></trkpt>
<trkpt lat="13.26989" lon="99.75387"><ele>101</ele><time>2018-06-16T10:09:23Z</time></trkpt>
<trkpt lat="13.26992" lon="99.75395"><ele>101</ele><time>2018-06-16T10:09:25Z</time></trkpt>
<trkpt lat="13.26996" lon="99.75403"><ele>102</ele><time>2018-06-16T10:09:27Z</time></trkpt>
<trkpt lat="13.26999" lon="99.75411"><ele>102</ele><time>2018-06-16T10:09:29Z</time></trkpt>
<trkpt lat="13.27003" lon="99.75418"><ele>102</ele><time>2018-06-16T10:09:31Z</time></trkpt>
<trkpt lat="13.27007" lon="99.75425"><ele>103</ele><time>2018-06-16T10:09:33Z</time></trkpt>
<trkpt lat="13.27011" lon="99.75432"><ele>103</ele><time>2018-06-16T10:09:35Z</time></trkpt>
<trkpt lat="13.27014" lon="99.75440"><ele>103</ele><time>2018-06-16T10:09:37Z</time></trkpt>
<trkpt lat="13.27016" lon="99.75447"><ele>104</ele><time>2018-06-16T10:09:39Z</time></trkpt>
<trkpt lat="13.27019" lon="99.75454"><ele>103</ele><time>2018-06-16T10:09:41Z</time></trkpt>
<trkpt lat="13.27023" lon="99.75461"><ele>104</ele><time>2018-06-16T10:09:43Z</time></trkpt>
<trkpt lat="13.27027" lon="99.75468"><ele>104</ele><time>2018-06-16T10:09:45Z</time></trkpt>
<trkpt lat="13.27032" lon="99.75475"><ele>105</ele><time>2018-06-16T10:09:47Z</time></trkpt>
<trkpt lat="13.27036" lon="99.75482"><ele>105</ele><time>2018-06-16T10:09:49Z</time></trkpt>
<trkpt lat="13.27040" lon="99.75489"><ele>105</ele><time>2018-06-16T10:09:51Z</time></trkpt>
<trkpt lat="13.27043" lon="99.75497"><ele>105</ele><time>2018-06-16T10:09:53Z</time></trkpt>
<trkpt lat="13.27046" lon="99.75505"><ele>106</ele><time>2018-06-16T10:09:55Z</time></trkpt>
<trkpt lat="13.27047" lon="99.75511"><ele>107</ele><time>2018-06-16T10:09:57Z</time></trkpt>
<trkpt lat="13.27047" lon="99.75519"><ele>107</ele><time>2018-06-16T10:09:59Z</time></trkpt>
<trkpt lat="13.27046" lon="99.75527"><ele>107</ele><time>2018-06-16T10:10:01Z</time></trkpt>
<trkpt lat="13.27045" lon="99.75536"><ele>107</ele><time>2018-06-16T10:10:03Z</time></trkpt>
<trkpt lat="13.27044" lon="99.75543"><ele>107</ele><time>2018-06-16T10:10:05Z</time></trkpt>
<trkpt lat="13.27046" lon="99.75548"><ele>106</ele><time>2018-06-16T10:10:07Z</time></trkpt>
<trkpt lat="13.27050" lon="99.75551"><ele>107</ele><time>2018-06-16T10:10:10Z</time></trkpt>
<trkpt lat="13.27055" lon="99.75551"><ele>109</ele><time>2018-06-16T10:11:10Z</time></trkpt>
<trkpt lat="13.27059" lon="99.75554"><ele>108</ele><time>2018-06-16T10:11:12Z</time></trkpt>
<trkpt lat="13.27064" lon="99.75558"><ele>107</ele><time>2018-06-16T10:11:14Z</time></trkpt>
<trkpt lat="13.27068" lon="99.75563"><ele>108</ele><time>2018-06-16T10:11:16Z</time></trkpt>
<trkpt lat="13.27072" lon="99.75570"><ele>108</ele><time>2018-06-16T10:11:18Z</time></trkpt>
<trkpt lat="13.27077" lon="99.75578"><ele>107</ele><time>2018-06-16T10:11:20Z</time></trkpt>
<trkpt lat="13.27080" lon="99.75584"><ele>108</ele><time>2018-06-16T10:11:22Z</time></trkpt>
<trkpt lat="13.27082" lon="99.75589"><ele>108</ele><time>2018-06-16T10:11:23Z</time></trkpt>
<trkpt lat="13.27084" lon="99.75594"><ele>108</ele><time>2018-06-16T10:11:24Z</time></trkpt>
<trkpt lat="13.27085" lon="99.75601"><ele>108</ele><time>2018-06-16T10:11:25Z</time></trkpt>
<trkpt lat="13.27085" lon="99.75607"><ele>108</ele><time>2018-06-16T10:11:26Z</time></trkpt>
<trkpt lat="13.27085" lon="99.75612"><ele>108</ele><time>2018-06-16T10:11:27Z</time></trkpt>
<trkpt lat="13.27084" lon="99.75616"><ele>108</ele><time>2018-06-16T10:11:28Z</time></trkpt>
<trkpt lat="13.27083" lon="99.75625"><ele>109</ele><time>2018-06-16T10:11:30Z</time></trkpt>
<trkpt lat="13.27082" lon="99.75634"><ele>109</ele><time>2018-06-16T10:11:32Z</time></trkpt>
<trkpt lat="13.27082" lon="99.75642"><ele>109</ele><time>2018-06-16T10:11:34Z</time></trkpt>
<trkpt lat="13.27081" lon="99.75649"><ele>109</ele><time>2018-06-16T10:11:36Z</time></trkpt>
<trkpt lat="13.27080" lon="99.75657"><ele>109</ele><time>2018-06-16T10:11:38Z</time></trkpt>
<trkpt lat="13.27079" lon="99.75666"><ele>109</ele><time>2018-06-16T10:11:40Z</time></trkpt>
<trkpt lat="13.27078" lon="99.75674"><ele>109</ele><time>2018-06-16T10:11:42Z</time></trkpt>
<trkpt lat="13.27078" lon="99.75681"><ele>108</ele><time>2018-06-16T10:11:44Z</time></trkpt>
<trkpt lat="13.27079" lon="99.75689"><ele>109</ele><time>2018-06-16T10:11:46Z</time></trkpt>
<trkpt lat="13.27082" lon="99.75698"><ele>109</ele><time>2018-06-16T10:11:48Z</time></trkpt>
<trkpt lat="13.27085" lon="99.75706"><ele>109</ele><time>2018-06-16T10:11:50Z</time></trkpt>
<trkpt lat="13.27086" lon="99.75710"><ele>109</ele><time>2018-06-16T10:11:51Z</time></trkpt>
<trkpt lat="13.27088" lon="99.75715"><ele>109</ele><time>2018-06-16T10:11:52Z</time></trkpt>
<trkpt lat="13.27090" lon="99.75719"><ele>109</ele><time>2018-06-16T10:11:53Z</time></trkpt>
<trkpt lat="13.27093" lon="99.75724"><ele>109</ele><time>2018-06-16T10:11:54Z</time></trkpt>
<trkpt lat="13.27095" lon="99.75728"><ele>109</ele><time>2018-06-16T10:11:55Z</time></trkpt>
<trkpt lat="13.27097" lon="99.75732"><ele>109</ele><time>2018-06-16T10:11:56Z</time></trkpt>
<trkpt lat="13.27099" lon="99.75740"><ele>109</ele><time>2018-06-16T10:11:58Z</time></trkpt>
<trkpt lat="13.27097" lon="99.75746"><ele>109</ele><time>2018-06-16T10:12:00Z</time></trkpt>
<trkpt lat="13.27092" lon="99.75750"><ele>108</ele><time>2018-06-16T10:12:02Z</time></trkpt>
<trkpt lat="13.27087" lon="99.75751"><ele>108</ele><time>2018-06-16T10:12:04Z</time></trkpt>
<trkpt lat="13.27081" lon="99.75754"><ele>108</ele><time>2018-06-16T10:12:07Z</time></trkpt>
<trkpt lat="13.27077" lon="99.75757"><ele>108</ele><time>2018-06-16T10:12:10Z</time></trkpt>
<trkpt lat="13.27075" lon="99.75762"><ele>109</ele><time>2018-06-16T10:12:13Z</time></trkpt>
<trkpt lat="13.27074" lon="99.75767"><ele>109</ele><time>2018-06-16T10:12:16Z</time></trkpt>
<trkpt lat="13.27073" lon="99.75772"><ele>108</ele><time>2018-06-16T10:12:19Z</time></trkpt>
<trkpt lat="13.27073" lon="99.75777"><ele>108</ele><time>2018-06-16T10:12:23Z</time></trkpt>
<trkpt lat="13.27074" lon="99.75783"><ele>109</ele><time>2018-06-16T10:12:26Z</time></trkpt>
<trkpt lat="13.27075" lon="99.75787"><ele>109</ele><time>2018-06-16T10:12:28Z</time></trkpt>
<trkpt lat="13.27075" lon="99.75793"><ele>109</ele><time>2018-06-16T10:12:31Z</time></trkpt>
<trkpt lat="13.27075" lon="99.75799"><ele>109</ele><time>2018-06-16T10:12:34Z</time></trkpt>
<trkpt lat="13.27076" lon="99.75804"><ele>109</ele><time>2018-06-16T10:12:38Z</time></trkpt>
<trkpt lat="13.27077" lon="99.75809"><ele>108</ele><time>2018-06-16T10:12:41Z</time></trkpt>
<trkpt lat="13.27078" lon="99.75816"><ele>109</ele><time>2018-06-16T10:12:43Z</time></trkpt>
<trkpt lat="13.27080" lon="99.75824"><ele>108</ele><time>2018-06-16T10:12:45Z</time></trkpt>
<trkpt lat="13.27083" lon="99.75833"><ele>108</ele><time>2018-06-16T10:12:47Z</time></trkpt>
<trkpt lat="13.27083" lon="99.75841"><ele>108</ele><time>2018-06-16T10:12:49Z</time></trkpt>
<trkpt lat="13.27081" lon="99.75849"><ele>107</ele><time>2018-06-16T10:12:51Z</time></trkpt>
<trkpt lat="13.27080" lon="99.75856"><ele>107</ele><time>2018-06-16T10:12:53Z</time></trkpt>
<trkpt lat="13.27078" lon="99.75862"><ele>107</ele><time>2018-06-16T10:12:55Z</time></trkpt>
<trkpt lat="13.27076" lon="99.75869"><ele>107</ele><time>2018-06-16T10:12:57Z</time></trkpt>
<trkpt lat="13.27075" lon="99.75876"><ele>107</ele><time>2018-06-16T10:12:59Z</time></trkpt>
<trkpt lat="13.27074" lon="99.75882"><ele>107</ele><time>2018-06-16T10:13:01Z</time></trkpt>
<trkpt lat="13.27074" lon="99.75887"><ele>106</ele><time>2018-06-16T10:13:05Z</time></trkpt>
<trkpt lat="13.27080" lon="99.75890"><ele>106</ele><time>2018-06-16T10:13:10Z</time></trkpt>
<trkpt lat="13.27083" lon="99.75893"><ele>107</ele><time>2018-06-16T10:13:14Z</time></trkpt>
<trkpt lat="13.27082" lon="99.75898"><ele>107</ele><time>2018-06-16T10:13:19Z</time></trkpt>
<trkpt lat="13.27078" lon="99.75902"><ele>107</ele><time>2018-06-16T10:13:25Z</time></trkpt>
<trkpt lat="13.27074" lon="99.75906"><ele>107</ele><time>2018-06-16T10:13:29Z</time></trkpt>
<trkpt lat="13.27071" lon="99.75911"><ele>107</ele><time>2018-06-16T10:13:32Z</time></trkpt>
<trkpt lat="13.27068" lon="99.75915"><ele>107</ele><time>2018-06-16T10:13:36Z</time></trkpt>
<trkpt lat="13.27064" lon="99.75919"><ele>106</ele><time>2018-06-16T10:13:39Z</time></trkpt>
<trkpt lat="13.27064" lon="99.75925"><ele>107</ele><time>2018-06-16T10:13:45Z</time></trkpt>
<trkpt lat="13.27063" lon="99.75930"><ele>107</ele><time>2018-06-16T10:13:48Z</time></trkpt>
<trkpt lat="13.27062" lon="99.75934"><ele>107</ele><time>2018-06-16T10:13:50Z</time></trkpt>
<trkpt lat="13.27062" lon="99.75939"><ele>107</ele><time>2018-06-16T10:13:52Z</time></trkpt>
<trkpt lat="13.27061" lon="99.75944"><ele>107</ele><time>2018-06-16T10:13:54Z</time></trkpt>
<trkpt lat="13.27059" lon="99.75950"><ele>107</ele><time>2018-06-16T10:13:56Z</time></trkpt>
<trkpt lat="13.27058" lon="99.75956"><ele>107</ele><time>2018-06-16T10:13:58Z</time></trkpt>
<trkpt lat="13.27056" lon="99.75962"><ele>107</ele><time>2018-06-16T10:14:00Z</time></trkpt>
<trkpt lat="13.27052" lon="99.75964"><ele>107</ele><time>2018-06-16T10:14:02Z</time></trkpt>
<trkpt lat="13.27047" lon="99.75966"><ele>107</ele><time>2018-06-16T10:14:04Z</time></trkpt>
<trkpt lat="13.27044" lon="99.75972"><ele>107</ele><time>2018-06-16T10:14:06Z</time></trkpt>
<trkpt lat="13.27042" lon="99.75978"><ele>107</ele><time>2018-06-16T10:14:08Z</time></trkpt>
<trkpt lat="13.27040" lon="99.75986"><ele>107</ele><time>2018-06-16T10:14:10Z</time></trkpt>
<trkpt lat="13.27037" lon="99.75994"><ele>106</ele><time>2018-06-16T10:14:12Z</time></trkpt>
<trkpt lat="13.27033" lon="99.76002"><ele>105</ele><time>2018-06-16T10:14:14Z</time></trkpt>
<trkpt lat="13.27028" lon="99.76010"><ele>105</ele><time>2018-06-16T10:14:16Z</time></trkpt>
<trkpt lat="13.27023" lon="99.76016"><ele>105</ele><time>2018-06-16T10:14:18Z</time></trkpt>
<trkpt lat="13.27020" lon="99.76020"><ele>105</ele><time>2018-06-16T10:14:20Z</time></trkpt>
<trkpt lat="13.27017" lon="99.76023"><ele>105</ele><time>2018-06-16T10:14:26Z</time></trkpt>
<trkpt lat="13.27013" lon="99.76028"><ele>102</ele><time>2018-06-16T10:15:31Z</time></trkpt>
<trkpt lat="13.27007" lon="99.76032"><ele>103</ele><time>2018-06-16T10:15:34Z</time></trkpt>
<trkpt lat="13.27001" lon="99.76037"><ele>103</ele><time>2018-06-16T10:15:36Z</time></trkpt>
<trkpt lat="13.26997" lon="99.76040"><ele>103</ele><time>2018-06-16T10:15:37Z</time></trkpt>
<trkpt lat="13.26993" lon="99.76045"><ele>103</ele><time>2018-06-16T10:15:38Z</time></trkpt>
<trkpt lat="13.26989" lon="99.76049"><ele>102</ele><time>2018-06-16T10:15:39Z</time></trkpt>
<trkpt lat="13.26985" lon="99.76053"><ele>102</ele><time>2018-06-16T10:15:40Z</time></trkpt>
<trkpt lat="13.26982" lon="99.76057"><ele>102</ele><time>2018-06-16T10:15:41Z</time></trkpt>
<trkpt lat="13.26979" lon="99.76062"><ele>102</ele><time>2018-06-16T10:15:42Z</time></trkpt>
<trkpt lat="13.26976" lon="99.76066"><ele>102</ele><time>2018-06-16T10:15:43Z</time></trkpt>
<trkpt lat="13.26975" lon="99.76072"><ele>102</ele><time>2018-06-16T10:15:44Z</time></trkpt>
<trkpt lat="13.26973" lon="99.76077"><ele>101</ele><time>2018-06-16T10:15:45Z</time></trkpt>
<trkpt lat="13.26971" lon="99.76084"><ele>101</ele><time>2018-06-16T10:15:46Z</time></trkpt>
<trkpt lat="13.26970" lon="99.76091"><ele>101</ele><time>2018-06-16T10:15:47Z</time></trkpt>
<trkpt lat="13.26967" lon="99.76097"><ele>101</ele><time>2018-06-16T10:15:48Z</time></trkpt>
<trkpt lat="13.26962" lon="99.76102"><ele>101</ele><time>2018-06-16T10:15:51Z</time></trkpt>
<trkpt lat="13.26953" lon="99.76110"><ele>100</ele><time>2018-06-16T10:15:53Z</time></trkpt>
<trkpt lat="13.26949" lon="99.76114"><ele>99</ele><time>2018-06-16T10:15:54Z</time></trkpt>
<trkpt lat="13.26946" lon="99.76119"><ele>99</ele><time>2018-06-16T10:15:55Z</time></trkpt>
<trkpt lat="13.26944" lon="99.76124"><ele>99</ele><time>2018-06-16T10:15:56Z</time></trkpt>
<trkpt lat="13.26942" lon="99.76130"><ele>98</ele><time>2018-06-16T10:15:58Z</time></trkpt>
<trkpt lat="13.26940" lon="99.76138"><ele>97</ele><time>2018-06-16T10:16:00Z</time></trkpt>
<trkpt lat="13.26938" lon="99.76143"><ele>97</ele><time>2018-06-16T10:16:01Z</time></trkpt>
<trkpt lat="13.26937" lon="99.76149"><ele>97</ele><time>2018-06-16T10:16:02Z</time></trkpt>
<trkpt lat="13.26936" lon="99.76155"><ele>97</ele><time>2018-06-16T10:16:03Z</time></trkpt>
<trkpt lat="13.26935" lon="99.76160"><ele>96</ele><time>2018-06-16T10:16:04Z</time></trkpt>
<trkpt lat="13.26932" lon="99.76171"><ele>97</ele><time>2018-06-16T10:16:05Z</time></trkpt>
<trkpt lat="13.26930" lon="99.76180"><ele>97</ele><time>2018-06-16T10:16:06Z</time></trkpt>
<trkpt lat="13.26929" lon="99.76187"><ele>97</ele><time>2018-06-16T10:16:07Z</time></trkpt>
<trkpt lat="13.26928" lon="99.76194"><ele>97</ele><time>2018-06-16T10:16:08Z</time></trkpt>
<trkpt lat="13.26926" lon="99.76200"><ele>97</ele><time>2018-06-16T10:16:09Z</time></trkpt>
<trkpt lat="13.26924" lon="99.76207"><ele>93</ele><time>2018-06-16T10:16:11Z</time></trkpt>
<trkpt lat="13.26922" lon="99.76212"><ele>92</ele><time>2018-06-16T10:16:12Z</time></trkpt>
<trkpt lat="13.26920" lon="99.76217"><ele>91</ele><time>2018-06-16T10:16:13Z</time></trkpt>
<trkpt lat="13.26917" lon="99.76228"><ele>90</ele><time>2018-06-16T10:16:14Z</time></trkpt>
<trkpt lat="13.26914" lon="99.76237"><ele>90</ele><time>2018-06-16T10:16:15Z</time></trkpt>
<trkpt lat="13.26914" lon="99.76245"><ele>90</ele><time>2018-06-16T10:16:16Z</time></trkpt>
<trkpt lat="13.26915" lon="99.76251"><ele>90</ele><time>2018-06-16T10:16:17Z</time></trkpt>
<trkpt lat="13.26914" lon="99.76259"><ele>90</ele><time>2018-06-16T10:16:19Z</time></trkpt>
<trkpt lat="13.26911" lon="99.76266"><ele>90</ele><time>2018-06-16T10:16:21Z</time></trkpt>
<trkpt lat="13.26907" lon="99.76274"><ele>91</ele><time>2018-06-16T10:16:23Z</time></trkpt>
<trkpt lat="13.26905" lon="99.76282"><ele>91</ele><time>2018-06-16T10:16:25Z</time></trkpt>
<trkpt lat="13.26904" lon="99.76288"><ele>91</ele><time>2018-06-16T10:16:27Z</time></trkpt>
<trkpt lat="13.26903" lon="99.76293"><ele>92</ele><time>2018-06-16T10:16:29Z</time></trkpt>
<trkpt lat="13.26906" lon="99.76298"><ele>92</ele><time>2018-06-16T10:16:32Z</time></trkpt>
<trkpt lat="13.26911" lon="99.76302"><ele>93</ele><time>2018-06-16T10:16:35Z</time></trkpt>
<trkpt lat="13.26915" lon="99.76304"><ele>90</ele><time>2018-06-16T10:16:37Z</time></trkpt>
<trkpt lat="13.26920" lon="99.76306"><ele>91</ele><time>2018-06-16T10:16:39Z</time></trkpt>
<trkpt lat="13.26921" lon="99.76313"><ele>91</ele><time>2018-06-16T10:16:42Z</time></trkpt>
<trkpt lat="13.26920" lon="99.76321"><ele>90</ele><time>2018-06-16T10:16:44Z</time></trkpt>
<trkpt lat="13.26919" lon="99.76329"><ele>89</ele><time>2018-06-16T10:16:46Z</time></trkpt>
<trkpt lat="13.26921" lon="99.76344"><ele>88</ele><time>2018-06-16T10:16:47Z</time></trkpt>
<trkpt lat="13.26922" lon="99.76349"><ele>88</ele><time>2018-06-16T10:16:48Z</time></trkpt>
<trkpt lat="13.26924" lon="99.76354"><ele>88</ele><time>2018-06-16T10:16:49Z</time></trkpt>
<trkpt lat="13.26926" lon="99.76359"><ele>89</ele><time>2018-06-16T10:16:50Z</time></trkpt>
<trkpt lat="13.26925" lon="99.76367"><ele>88</ele><time>2018-06-16T10:16:52Z</time></trkpt>
<trkpt lat="13.26919" lon="99.76371"><ele>90</ele><time>2018-06-16T10:16:54Z</time></trkpt>
<trkpt lat="13.26912" lon="99.76373"><ele>90</ele><time>2018-06-16T10:16:56Z</time></trkpt>
<trkpt lat="13.26906" lon="99.76375"><ele>91</ele><time>2018-06-16T10:16:58Z</time></trkpt>
<trkpt lat="13.26901" lon="99.76377"><ele>91</ele><time>2018-06-16T10:17:00Z</time></trkpt>
<trkpt lat="13.26895" lon="99.76379"><ele>91</ele><time>2018-06-16T10:17:02Z</time></trkpt>
<trkpt lat="13.26890" lon="99.76381"><ele>92</ele><time>2018-06-16T10:17:04Z</time></trkpt>
<trkpt lat="13.26885" lon="99.76383"><ele>92</ele><time>2018-06-16T10:17:06Z</time></trkpt>
<trkpt lat="13.26880" lon="99.76385"><ele>92</ele><time>2018-06-16T10:17:08Z</time></trkpt>
<trkpt lat="13.26877" lon="99.76388"><ele>93</ele><time>2018-06-16T10:17:10Z</time></trkpt>
<trkpt lat="13.26870" lon="99.76390"><ele>93</ele><time>2018-06-16T10:17:13Z</time></trkpt>
<trkpt lat="13.26865" lon="99.76392"><ele>93</ele><time>2018-06-16T10:17:15Z</time></trkpt>
<trkpt lat="13.26859" lon="99.76394"><ele>93</ele><time>2018-06-16T10:17:17Z</time></trkpt>
<trkpt lat="13.26855" lon="99.76396"><ele>93</ele><time>2018-06-16T10:17:19Z</time></trkpt>
<trkpt lat="13.26850" lon="99.76398"><ele>93</ele><time>2018-06-16T10:17:21Z</time></trkpt>
<trkpt lat="13.26844" lon="99.76400"><ele>93</ele><time>2018-06-16T10:17:23Z</time></trkpt>
<trkpt lat="13.26839" lon="99.76401"><ele>93</ele><time>2018-06-16T10:17:25Z</time></trkpt>
<trkpt lat="13.26833" lon="99.76402"><ele>93</ele><time>2018-06-16T10:17:27Z</time></trkpt>
<trkpt lat="13.26828" lon="99.76404"><ele>93</ele><time>2018-06-16T10:17:29Z</time></trkpt>
<trkpt lat="13.26821" lon="99.76405"><ele>93</ele><time>2018-06-16T10:17:31Z</time></trkpt>
<trkpt lat="13.26815" lon="99.76407"><ele>94</ele><time>2018-06-16T10:17:33Z</time></trkpt>
<trkpt lat="13.26807" lon="99.76409"><ele>93</ele><time>2018-06-16T10:17:35Z</time></trkpt>
<trkpt lat="13.26802" lon="99.76411"><ele>93</ele><time>2018-06-16T10:17:36Z</time></trkpt>
<trkpt lat="13.26798" lon="99.76412"><ele>94</ele><time>2018-06-16T10:17:37Z</time></trkpt>
<trkpt lat="13.26790" lon="99.76416"><ele>94</ele><time>2018-06-16T10:17:39Z</time></trkpt>
<trkpt lat="13.26784" lon="99.76421"><ele>94</ele><time>2018-06-16T10:17:41Z</time></trkpt>
<trkpt lat="13.26780" lon="99.76427"><ele>94</ele><time>2018-06-16T10:17:43Z</time></trkpt>
<trkpt lat="13.26778" lon="99.76434"><ele>95</ele><time>2018-06-16T10:17:45Z</time></trkpt>
<trkpt lat="13.26778" lon="99.76440"><ele>95</ele><time>2018-06-16T10:17:47Z</time></trkpt>
<trkpt lat="13.26777" lon="99.76447"><ele>95</ele><time>2018-06-16T10:17:49Z</time></trkpt>
<trkpt lat="13.26776" lon="99.76453"><ele>96</ele><time>2018-06-16T10:17:51Z</time></trkpt>
<trkpt lat="13.26772" lon="99.76458"><ele>96</ele><time>2018-06-16T10:17:53Z</time></trkpt>
<trkpt lat="13.26766" lon="99.76459"><ele>95</ele><time>2018-06-16T10:17:55Z</time></trkpt>
<trkpt lat="13.26761" lon="99.76460"><ele>96</ele><time>2018-06-16T10:17:57Z</time></trkpt>
<trkpt lat="13.26755" lon="99.76461"><ele>96</ele><time>2018-06-16T10:18:00Z</time></trkpt>
<trkpt lat="13.26749" lon="99.76462"><ele>97</ele><time>2018-06-16T10:18:04Z</time></trkpt>
<trkpt lat="13.26744" lon="99.76462"><ele>97</ele><time>2018-06-16T10:18:07Z</time></trkpt>
<trkpt lat="13.26739" lon="99.76459"><ele>96</ele><time>2018-06-16T10:18:30Z</time></trkpt>
<trkpt lat="13.26734" lon="99.76457"><ele>95</ele><time>2018-06-16T10:18:33Z</time></trkpt>
<trkpt lat="13.26730" lon="99.76455"><ele>96</ele><time>2018-06-16T10:18:36Z</time></trkpt>
<trkpt lat="13.26725" lon="99.76454"><ele>96</ele><time>2018-06-16T10:18:38Z</time></trkpt>
<trkpt lat="13.26720" lon="99.76452"><ele>96</ele><time>2018-06-16T10:18:40Z</time></trkpt>
<trkpt lat="13.26715" lon="99.76452"><ele>97</ele><time>2018-06-16T10:18:42Z</time></trkpt>
<trkpt lat="13.26709" lon="99.76451"><ele>97</ele><time>2018-06-16T10:18:45Z</time></trkpt>
<trkpt lat="13.26704" lon="99.76452"><ele>98</ele><time>2018-06-16T10:18:48Z</time></trkpt>
<trkpt lat="13.26698" lon="99.76454"><ele>98</ele><time>2018-06-16T10:18:51Z</time></trkpt>
<trkpt lat="13.26694" lon="99.76457"><ele>98</ele><time>2018-06-16T10:18:53Z</time></trkpt>
<trkpt lat="13.26690" lon="99.76460"><ele>97</ele><time>2018-06-16T10:18:56Z</time></trkpt>
<trkpt lat="13.26690" lon="99.76466"><ele>97</ele><time>2018-06-16T10:19:01Z</time></trkpt>
<trkpt lat="13.26688" lon="99.76471"><ele>98</ele><time>2018-06-16T10:19:06Z</time></trkpt>
<trkpt lat="13.26683" lon="99.76475"><ele>97</ele><time>2018-06-16T10:19:09Z</time></trkpt>
<trkpt lat="13.26679" lon="99.76477"><ele>98</ele><time>2018-06-16T10:19:14Z</time></trkpt>
<trkpt lat="13.26675" lon="99.76478"><ele>99</ele><time>2018-06-16T10:19:19Z</time></trkpt>
<trkpt lat="13.26670" lon="99.76479"><ele>99</ele><time>2018-06-16T10:19:24Z</time></trkpt>
<trkpt lat="13.26664" lon="99.76477"><ele>97</ele><time>2018-06-16T10:19:28Z</time></trkpt>
<trkpt lat="13.26660" lon="99.76479"><ele>98</ele><time>2018-06-16T10:19:33Z</time></trkpt>
<trkpt lat="13.26655" lon="99.76480"><ele>98</ele><time>2018-06-16T10:19:37Z</time></trkpt>
<trkpt lat="13.26650" lon="99.76478"><ele>99</ele><time>2018-06-16T10:19:41Z</time></trkpt>
<trkpt lat="13.26645" lon="99.76477"><ele>101</ele><time>2018-06-16T10:19:47Z</time></trkpt>
<trkpt lat="13.26644" lon="99.76482"><ele>102</ele><time>2018-06-16T10:19:54Z</time></trkpt>
<trkpt lat="13.26641" lon="99.76486"><ele>102</ele><time>2018-06-16T10:20:06Z</time></trkpt>
<trkpt lat="13.26641" lon="99.76491"><ele>104</ele><time>2018-06-16T10:20:44Z</time></trkpt>
<trkpt lat="13.26639" lon="99.76495"><ele>104</ele><time>2018-06-16T10:21:30Z</time></trkpt>
<trkpt lat="13.26638" lon="99.76500"><ele>104</ele><time>2018-06-16T10:21:38Z</time></trkpt>
<trkpt lat="13.26637" lon="99.76506"><ele>104</ele><time>2018-06-16T10:21:42Z</time></trkpt>
<trkpt lat="13.26639" lon="99.76510"><ele>103</ele><time>2018-06-16T10:21:45Z</time></trkpt>
<trkpt lat="13.26641" lon="99.76515"><ele>103</ele><time>2018-06-16T10:21:47Z</time></trkpt>
<trkpt lat="13.26641" lon="99.76521"><ele>103</ele><time>2018-06-16T10:21:49Z</time></trkpt>
<trkpt lat="13.26641" lon="99.76528"><ele>103</ele><time>2018-06-16T10:21:51Z</time></trkpt>
<trkpt lat="13.26640" lon="99.76535"><ele>104</ele><time>2018-06-16T10:21:53Z</time></trkpt>
<trkpt lat="13.26639" lon="99.76542"><ele>103</ele><time>2018-06-16T10:21:55Z</time></trkpt>
<trkpt lat="13.26637" lon="99.76548"><ele>103</ele><time>2018-06-16T10:21:57Z</time></trkpt>
<trkpt lat="13.26635" lon="99.76553"><ele>103</ele><time>2018-06-16T10:21:59Z</time></trkpt>
<trkpt lat="13.26634" lon="99.76559"><ele>102</ele><time>2018-06-16T10:22:01Z</time></trkpt>
<trkpt lat="13.26632" lon="99.76566"><ele>104</ele><time>2018-06-16T10:22:03Z</time></trkpt>
<trkpt lat="13.26632" lon="99.76573"><ele>103</ele><time>2018-06-16T10:22:05Z</time></trkpt>
<trkpt lat="13.26631" lon="99.76579"><ele>103</ele><time>2018-06-16T10:22:07Z</time></trkpt>
<trkpt lat="13.26630" lon="99.76585"><ele>103</ele><time>2018-06-16T10:22:09Z</time></trkpt>
<trkpt lat="13.26630" lon="99.76591"><ele>103</ele><time>2018-06-16T10:22:11Z</time></trkpt>
<trkpt lat="13.26632" lon="99.76597"><ele>103</ele><time>2018-06-16T10:22:13Z</time></trkpt>
<trkpt lat="13.26633" lon="99.76604"><ele>102</ele><time>2018-06-16T10:22:15Z</time></trkpt>
<trkpt lat="13.26635" lon="99.76612"><ele>102</ele><time>2018-06-16T10:22:17Z</time></trkpt>
<trkpt lat="13.26637" lon="99.76620"><ele>102</ele><time>2018-06-16T10:22:19Z</time></trkpt>
<trkpt lat="13.26636" lon="99.76628"><ele>101</ele><time>2018-06-16T10:22:21Z</time></trkpt>
<trkpt lat="13.26635" lon="99.76637"><ele>102</ele><time>2018-06-16T10:22:23Z</time></trkpt>
<trkpt lat="13.26634" lon="99.76646"><ele>102</ele><time>2018-06-16T10:22:25Z</time></trkpt>
<trkpt lat="13.26631" lon="99.76654"><ele>102</ele><time>2018-06-16T10:22:27Z</time></trkpt>
<trkpt lat="13.26627" lon="99.76662"><ele>103</ele><time>2018-06-16T10:22:29Z</time></trkpt>
<trkpt lat="13.26622" lon="99.76670"><ele>103</ele><time>2018-06-16T10:22:31Z</time></trkpt>
<trkpt lat="13.26620" lon="99.76674"><ele>103</ele><time>2018-06-16T10:22:32Z</time></trkpt>
<trkpt lat="13.26616" lon="99.76682"><ele>103</ele><time>2018-06-16T10:22:34Z</time></trkpt>
<trkpt lat="13.26612" lon="99.76689"><ele>102</ele><time>2018-06-16T10:22:36Z</time></trkpt>
<trkpt lat="13.26609" lon="99.76695"><ele>102</ele><time>2018-06-16T10:22:38Z</time></trkpt>
<trkpt lat="13.26606" lon="99.76703"><ele>101</ele><time>2018-06-16T10:22:40Z</time></trkpt>
<trkpt lat="13.26604" lon="99.76709"><ele>100</ele><time>2018-06-16T10:22:42Z</time></trkpt>
<trkpt lat="13.26603" lon="99.76715"><ele>101</ele><time>2018-06-16T10:22:45Z</time></trkpt>
<trkpt lat="13.26602" lon="99.76721"><ele>101</ele><time>2018-06-16T10:22:49Z</time></trkpt>
<trkpt lat="13.26598" lon="99.76725"><ele>101</ele><time>2018-06-16T10:22:52Z</time></trkpt>
<trkpt lat="13.26593" lon="99.76725"><ele>101</ele><time>2018-06-16T10:22:55Z</time></trkpt>
<trkpt lat="13.26588" lon="99.76724"><ele>100</ele><time>2018-06-16T10:23:49Z</time></trkpt>
<trkpt lat="13.26584" lon="99.76723"><ele>99</ele><time>2018-06-16T10:23:52Z</time></trkpt>
<trkpt lat="13.26578" lon="99.76723"><ele>99</ele><time>2018-06-16T10:23:55Z</time></trkpt>
<trkpt lat="13.26572" lon="99.76724"><ele>98</ele><time>2018-06-16T10:23:57Z</time></trkpt>
<trkpt lat="13.26566" lon="99.76725"><ele>98</ele><time>2018-06-16T10:23:59Z</time></trkpt>
<trkpt lat="13.26559" lon="99.76727"><ele>98</ele><time>2018-06-16T10:24:01Z</time></trkpt>
<trkpt lat="13.26553" lon="99.76729"><ele>98</ele><time>2018-06-16T10:24:03Z</time></trkpt>
<trkpt lat="13.26546" lon="99.76731"><ele>98</ele><time>2018-06-16T10:24:05Z</time></trkpt>
<trkpt lat="13.26538" lon="99.76734"><ele>99</ele><time>2018-06-16T10:24:07Z</time></trkpt>
<trkpt lat="13.26530" lon="99.76736"><ele>98</ele><time>2018-06-16T10:24:09Z</time></trkpt>
<trkpt lat="13.26522" lon="99.76737"><ele>98</ele><time>2018-06-16T10:24:11Z</time></trkpt>
<trkpt lat="13.26514" lon="99.76737"><ele>98</ele><time>2018-06-16T10:24:13Z</time></trkpt>
<trkpt lat="13.26507" lon="99.76738"><ele>99</ele><time>2018-06-16T10:24:15Z</time></trkpt>
<trkpt lat="13.26500" lon="99.76740"><ele>99</ele><time>2018-06-16T10:24:17Z</time></trkpt>
<trkpt lat="13.26494" lon="99.76742"><ele>99</ele><time>2018-06-16T10:24:19Z</time></trkpt>
<trkpt lat="13.26488" lon="99.76746"><ele>98</ele><time>2018-06-16T10:24:21Z</time></trkpt>
<trkpt lat="13.26485" lon="99.76753"><ele>97</ele><time>2018-06-16T10:24:23Z</time></trkpt>
<trkpt lat="13.26485" lon="99.76761"><ele>98</ele><time>2018-06-16T10:24:25Z</time></trkpt>
<trkpt lat="13.26484" lon="99.76768"><ele>99</ele><time>2018-06-16T10:24:27Z</time></trkpt>
<trkpt lat="13.26483" lon="99.76776"><ele>98</ele><time>2018-06-16T10:24:29Z</time></trkpt>
<trkpt lat="13.26482" lon="99.76784"><ele>98</ele><time>2018-06-16T10:24:31Z</time></trkpt>
<trkpt lat="13.26481" lon="99.76788"><ele>98</ele><time>2018-06-16T10:24:32Z</time></trkpt>
<trkpt lat="13.26481" lon="99.76793"><ele>98</ele><time>2018-06-16T10:24:33Z</time></trkpt>
<trkpt lat="13.26481" lon="99.76798"><ele>97</ele><time>2018-06-16T10:24:34Z</time></trkpt>
<trkpt lat="13.26479" lon="99.76806"><ele>97</ele><time>2018-06-16T10:24:36Z</time></trkpt>
<trkpt lat="13.26478" lon="99.76815"><ele>95</ele><time>2018-06-16T10:24:38Z</time></trkpt>
<trkpt lat="13.26477" lon="99.76820"><ele>95</ele><time>2018-06-16T10:24:39Z</time></trkpt>
<trkpt lat="13.26478" lon="99.76829"><ele>95</ele><time>2018-06-16T10:24:41Z</time></trkpt>
<trkpt lat="13.26479" lon="99.76835"><ele>95</ele><time>2018-06-16T10:24:43Z</time></trkpt>
<trkpt lat="13.26479" lon="99.76841"><ele>96</ele><time>2018-06-16T10:24:46Z</time></trkpt>
<trkpt lat="13.26482" lon="99.76847"><ele>96</ele><time>2018-06-16T10:24:49Z</time></trkpt>
<trkpt lat="13.26483" lon="99.76852"><ele>96</ele><time>2018-06-16T10:24:51Z</time></trkpt>
<trkpt lat="13.26483" lon="99.76857"><ele>96</ele><time>2018-06-16T10:24:53Z</time></trkpt>
<trkpt lat="13.26485" lon="99.76863"><ele>95</ele><time>2018-06-16T10:24:57Z</time></trkpt>
<trkpt lat="13.26488" lon="99.76869"><ele>95</ele><time>2018-06-16T10:25:00Z</time></trkpt>
<trkpt lat="13.26490" lon="99.76873"><ele>95</ele><time>2018-06-16T10:25:04Z</time></trkpt>
<trkpt lat="13.26493" lon="99.76876"><ele>94</ele><time>2018-06-16T10:25:09Z</time></trkpt>
<trkpt lat="13.26498" lon="99.76879"><ele>93</ele><time>2018-06-16T10:25:13Z</time></trkpt>
<trkpt lat="13.26502" lon="99.76881"><ele>93</ele><time>2018-06-16T10:25:17Z</time></trkpt>
<trkpt lat="13.26508" lon="99.76882"><ele>92</ele><time>2018-06-16T10:25:20Z</time></trkpt>
<trkpt lat="13.26513" lon="99.76882"><ele>93</ele><time>2018-06-16T10:25:22Z</time></trkpt>
<trkpt lat="13.26518" lon="99.76883"><ele>94</ele><time>2018-06-16T10:25:24Z</time></trkpt>
<trkpt lat="13.26524" lon="99.76883"><ele>93</ele><time>2018-06-16T10:25:26Z</time></trkpt>
<trkpt lat="13.26530" lon="99.76883"><ele>93</ele><time>2018-06-16T10:25:27Z</time></trkpt>
<trkpt lat="13.26536" lon="99.76881"><ele>93</ele><time>2018-06-16T10:25:29Z</time></trkpt>
<trkpt lat="13.26543" lon="99.76879"><ele>92</ele><time>2018-06-16T10:25:31Z</time></trkpt>
<trkpt lat="13.26549" lon="99.76876"><ele>93</ele><time>2018-06-16T10:25:33Z</time></trkpt>
<trkpt lat="13.26554" lon="99.76875"><ele>92</ele><time>2018-06-16T10:25:35Z</time></trkpt>
<trkpt lat="13.26560" lon="99.76876"><ele>89</ele><time>2018-06-16T10:25:38Z</time></trkpt>
<trkpt lat="13.26565" lon="99.76878"><ele>89</ele><time>2018-06-16T10:25:40Z</time></trkpt>
<trkpt lat="13.26571" lon="99.76882"><ele>89</ele><time>2018-06-16T10:25:42Z</time></trkpt>
<trkpt lat="13.26575" lon="99.76883"><ele>89</ele><time>2018-06-16T10:25:44Z</time></trkpt>
<trkpt lat="13.26580" lon="99.76886"><ele>89</ele><time>2018-06-16T10:25:46Z</time></trkpt>
<trkpt lat="13.26586" lon="99.76890"><ele>89</ele><time>2018-06-16T10:25:48Z</time></trkpt>
<trkpt lat="13.26591" lon="99.76894"><ele>89</ele><time>2018-06-16T10:25:50Z</time></trkpt>
<trkpt lat="13.26596" lon="99.76900"><ele>89</ele><time>2018-06-16T10:25:52Z</time></trkpt>
<trkpt lat="13.26600" lon="99.76904"><ele>89</ele><time>2018-06-16T10:25:54Z</time></trkpt>
<trkpt lat="13.26604" lon="99.76908"><ele>90</ele><time>2018-06-16T10:25:56Z</time></trkpt>
<trkpt lat="13.26608" lon="99.76911"><ele>90</ele><time>2018-06-16T10:25:58Z</time></trkpt>
<trkpt lat="13.26611" lon="99.76914"><ele>90</ele><time>2018-06-16T10:26:00Z</time></trkpt>
<trkpt lat="13.26616" lon="99.76918"><ele>91</ele><time>2018-06-16T10:26:03Z</time></trkpt>
<trkpt lat="13.26621" lon="99.76921"><ele>91</ele><time>2018-06-16T10:26:06Z</time></trkpt>
<trkpt lat="13.26626" lon="99.76926"><ele>92</ele><time>2018-06-16T10:26:09Z</time></trkpt>
<trkpt lat="13.26629" lon="99.76929"><ele>93</ele><time>2018-06-16T10:26:11Z</time></trkpt>
<trkpt lat="13.26634" lon="99.76932"><ele>93</ele><time>2018-06-16T10:26:13Z</time></trkpt>
<trkpt lat="13.26639" lon="99.76934"><ele>93</ele><time>2018-06-16T10:26:15Z</time></trkpt>
<trkpt lat="13.26644" lon="99.76937"><ele>93</ele><time>2018-06-16T10:26:17Z</time></trkpt>
<trkpt lat="13.26649" lon="99.76939"><ele>93</ele><time>2018-06-16T10:26:19Z</time></trkpt>
<trkpt lat="13.26655" lon="99.76941"><ele>93</ele><time>2018-06-16T10:26:21Z</time></trkpt>
<trkpt lat="13.26660" lon="99.76943"><ele>93</ele><time>2018-06-16T10:26:23Z</time></trkpt>
<trkpt lat="13.26665" lon="99.76946"><ele>93</ele><time>2018-06-16T10:26:25Z</time></trkpt>
<trkpt lat="13.26669" lon="99.76950"><ele>92</ele><time>2018-06-16T10:26:27Z</time></trkpt>
<trkpt lat="13.26674" lon="99.76953"><ele>92</ele><time>2018-06-16T10:26:29Z</time></trkpt>
<trkpt lat="13.26679" lon="99.76957"><ele>93</ele><time>2018-06-16T10:26:31Z</time></trkpt>
<trkpt lat="13.26685" lon="99.76961"><ele>94</ele><time>2018-06-16T10:26:33Z</time></trkpt>
<trkpt lat="13.26691" lon="99.76966"><ele>94</ele><time>2018-06-16T10:26:35Z</time></trkpt>
<trkpt lat="13.26696" lon="99.76968"><ele>93</ele><time>2018-06-16T10:26:36Z</time></trkpt>
<trkpt lat="13.26701" lon="99.76969"><ele>94</ele><time>2018-06-16T10:26:37Z</time></trkpt>
<trkpt lat="13.26705" lon="99.76970"><ele>94</ele><time>2018-06-16T10:26:38Z</time></trkpt>
<trkpt lat="13.26710" lon="99.76972"><ele>94</ele><time>2018-06-16T10:26:39Z</time></trkpt>
<trkpt lat="13.26714" lon="99.76974"><ele>93</ele><time>2018-06-16T10:26:40Z</time></trkpt>
<trkpt lat="13.26718" lon="99.76976"><ele>93</ele><time>2018-06-16T10:26:41Z</time></trkpt>
<trkpt lat="13.26722" lon="99.76978"><ele>94</ele><time>2018-06-16T10:26:42Z</time></trkpt>
<trkpt lat="13.26725" lon="99.76982"><ele>94</ele><time>2018-06-16T10:26:43Z</time></trkpt>
<trkpt lat="13.26728" lon="99.76985"><ele>93</ele><time>2018-06-16T10:26:44Z</time></trkpt>
<trkpt lat="13.26731" lon="99.76994"><ele>94</ele><time>2018-06-16T10:26:46Z</time></trkpt>
<trkpt lat="13.26732" lon="99.76998"><ele>93</ele><time>2018-06-16T10:26:47Z</time></trkpt>
<trkpt lat="13.26733" lon="99.77003"><ele>93</ele><time>2018-06-16T10:26:48Z</time></trkpt>
<trkpt lat="13.26734" lon="99.77008"><ele>93</ele><time>2018-06-16T10:26:49Z</time></trkpt>
<trkpt lat="13.26736" lon="99.77012"><ele>93</ele><time>2018-06-16T10:26:50Z</time></trkpt>
<trkpt lat="13.26739" lon="99.77020"><ele>93</ele><time>2018-06-16T10:26:52Z</time></trkpt>
<trkpt lat="13.26743" lon="99.77029"><ele>94</ele><time>2018-06-16T10:26:54Z</time></trkpt>
<trkpt lat="13.26747" lon="99.77035"><ele>94</ele><time>2018-06-16T10:26:56Z</time></trkpt>
<trkpt lat="13.26751" lon="99.77044"><ele>93</ele><time>2018-06-16T10:26:58Z</time></trkpt>
<trkpt lat="13.26753" lon="99.77048"><ele>93</ele><time>2018-06-16T10:26:59Z</time></trkpt>
<trkpt lat="13.26756" lon="99.77052"><ele>93</ele><time>2018-06-16T10:27:00Z</time></trkpt>
<trkpt lat="13.26758" lon="99.77057"><ele>92</ele><time>2018-06-16T10:27:01Z</time></trkpt>
<trkpt lat="13.26761" lon="99.77061"><ele>93</ele><time>2018-06-16T10:27:02Z</time></trkpt>
<trkpt lat="13.26764" lon="99.77065"><ele>93</ele><time>2018-06-16T10:27:03Z</time></trkpt>
<trkpt lat="13.26767" lon="99.77068"><ele>93</ele><time>2018-06-16T10:27:04Z</time></trkpt>
<trkpt lat="13.26771" lon="99.77072"><ele>93</ele><time>2018-06-16T10:27:05Z</time></trkpt>
<trkpt lat="13.26775" lon="99.77076"><ele>93</ele><time>2018-06-16T10:27:06Z</time></trkpt>
<trkpt lat="13.26780" lon="99.77080"><ele>94</ele><time>2018-06-16T10:27:07Z</time></trkpt>
<trkpt lat="13.26785" lon="99.77084"><ele>92</ele><time>2018-06-16T10:27:08Z</time></trkpt>
<trkpt lat="13.26788" lon="99.77089"><ele>92</ele><time>2018-06-16T10:27:09Z</time></trkpt>
<trkpt lat="13.26790" lon="99.77096"><ele>92</ele><time>2018-06-16T10:27:11Z</time></trkpt>
<trkpt lat="13.26793" lon="99.77102"><ele>91</ele><time>2018-06-16T10:27:13Z</time></trkpt>
<trkpt lat="13.26796" lon="99.77109"><ele>90</ele><time>2018-06-16T10:27:15Z</time></trkpt>
<trkpt lat="13.26799" lon="99.77114"><ele>91</ele><time>2018-06-16T10:27:17Z</time></trkpt>
<trkpt lat="13.26802" lon="99.77119"><ele>91</ele><time>2018-06-16T10:27:19Z</time></trkpt>
<trkpt lat="13.26805" lon="99.77125"><ele>92</ele><time>2018-06-16T10:27:21Z</time></trkpt>
<trkpt lat="13.26805" lon="99.77130"><ele>92</ele><time>2018-06-16T10:27:24Z</time></trkpt>
<trkpt lat="13.26800" lon="99.77131"><ele>91</ele><time>2018-06-16T10:27:41Z</time></trkpt>
<trkpt lat="13.26794" lon="99.77132"><ele>91</ele><time>2018-06-16T10:27:44Z</time></trkpt>
<trkpt lat="13.26788" lon="99.77135"><ele>91</ele><time>2018-06-16T10:27:47Z</time></trkpt>
<trkpt lat="13.26782" lon="99.77138"><ele>90</ele><time>2018-06-16T10:27:49Z</time></trkpt>
<trkpt lat="13.26778" lon="99.77141"><ele>90</ele><time>2018-06-16T10:27:51Z</time></trkpt>
<trkpt lat="13.26774" lon="99.77146"><ele>90</ele><time>2018-06-16T10:27:53Z</time></trkpt>
<trkpt lat="13.26771" lon="99.77151"><ele>90</ele><time>2018-06-16T10:27:55Z</time></trkpt>
<trkpt lat="13.26768" lon="99.77157"><ele>90</ele><time>2018-06-16T10:27:57Z</time></trkpt>
<trkpt lat="13.26767" lon="99.77163"><ele>90</ele><time>2018-06-16T10:27:59Z</time></trkpt>
<trkpt lat="13.26765" lon="99.77169"><ele>90</ele><time>2018-06-16T10:28:01Z</time></trkpt>
<trkpt lat="13.26763" lon="99.77178"><ele>90</ele><time>2018-06-16T10:28:03Z</time></trkpt>
<trkpt lat="13.26761" lon="99.77186"><ele>90</ele><time>2018-06-16T10:28:05Z</time></trkpt>
<trkpt lat="13.26761" lon="99.77192"><ele>90</ele><time>2018-06-16T10:28:07Z</time></trkpt>
<trkpt lat="13.26761" lon="99.77198"><ele>89</ele><time>2018-06-16T10:28:09Z</time></trkpt>
<trkpt lat="13.26763" lon="99.77205"><ele>88</ele><time>2018-06-16T10:28:11Z</time></trkpt>
<trkpt lat="13.26764" lon="99.77212"><ele>88</ele><time>2018-06-16T10:28:13Z</time></trkpt>
<trkpt lat="13.26766" lon="99.77222"><ele>89</ele><time>2018-06-16T10:28:15Z</time></trkpt>
<trkpt lat="13.26765" lon="99.77226"><ele>90</ele><time>2018-06-16T10:28:16Z</time></trkpt>
<trkpt lat="13.26762" lon="99.77234"><ele>90</ele><time>2018-06-16T10:28:18Z</time></trkpt>
<trkpt lat="13.26758" lon="99.77239"><ele>90</ele><time>2018-06-16T10:28:20Z</time></trkpt>
<trkpt lat="13.26754" lon="99.77245"><ele>89</ele><time>2018-06-16T10:28:22Z</time></trkpt>
<trkpt lat="13.26749" lon="99.77251"><ele>89</ele><time>2018-06-16T10:28:24Z</time></trkpt>
<trkpt lat="13.26744" lon="99.77256"><ele>89</ele><time>2018-06-16T10:28:26Z</time></trkpt>
<trkpt lat="13.26737" lon="99.77260"><ele>89</ele><time>2018-06-16T10:28:28Z</time></trkpt>
<trkpt lat="13.26730" lon="99.77266"><ele>89</ele><time>2018-06-16T10:28:30Z</time></trkpt>
<trkpt lat="13.26724" lon="99.77270"><ele>89</ele><time>2018-06-16T10:28:31Z</time></trkpt>
<trkpt lat="13.26720" lon="99.77272"><ele>89</ele><time>2018-06-16T10:28:32Z</time></trkpt>
<trkpt lat="13.26716" lon="99.77275"><ele>89</ele><time>2018-06-16T10:28:33Z</time></trkpt>
<trkpt lat="13.26712" lon="99.77278"><ele>89</ele><time>2018-06-16T10:28:34Z</time></trkpt>
<trkpt lat="13.26707" lon="99.77282"><ele>89</ele><time>2018-06-16T10:28:36Z</time></trkpt>
<trkpt lat="13.26703" lon="99.77285"><ele>88</ele><time>2018-06-16T10:28:38Z</time></trkpt>
<trkpt lat="13.26699" lon="99.77289"><ele>88</ele><time>2018-06-16T10:28:41Z</time></trkpt>
<trkpt lat="13.26700" lon="99.77294"><ele>90</ele><time>2018-06-16T10:28:55Z</time></trkpt>
<trkpt lat="13.26703" lon="99.77298"><ele>91</ele><time>2018-06-16T10:29:00Z</time></trkpt>
<trkpt lat="13.26701" lon="99.77304"><ele>91</ele><time>2018-06-16T10:29:05Z</time></trkpt>
<trkpt lat="13.26698" lon="99.77308"><ele>91</ele><time>2018-06-16T10:29:08Z</time></trkpt>
<trkpt lat="13.26694" lon="99.77312"><ele>91</ele><time>2018-06-16T10:29:10Z</time></trkpt>
<trkpt lat="13.26691" lon="99.77315"><ele>90</ele><time>2018-06-16T10:29:11Z</time></trkpt>
<trkpt lat="13.26685" lon="99.77319"><ele>90</ele><time>2018-06-16T10:29:13Z</time></trkpt>
<trkpt lat="13.26680" lon="99.77323"><ele>89</ele><time>2018-06-16T10:29:15Z</time></trkpt>
<trkpt lat="13.26675" lon="99.77327"><ele>89</ele><time>2018-06-16T10:29:17Z</time></trkpt>
<trkpt lat="13.26671" lon="99.77331"><ele>89</ele><time>2018-06-16T10:29:19Z</time></trkpt>
<trkpt lat="13.26666" lon="99.77336"><ele>89</ele><time>2018-06-16T10:29:21Z</time></trkpt>
<trkpt lat="13.26662" lon="99.77341"><ele>90</ele><time>2018-06-16T10:29:23Z</time></trkpt>
<trkpt lat="13.26657" lon="99.77346"><ele>90</ele><time>2018-06-16T10:29:25Z</time></trkpt>
<trkpt lat="13.26653" lon="99.77352"><ele>90</ele><time>2018-06-16T10:29:27Z</time></trkpt>
<trkpt lat="13.26649" lon="99.77357"><ele>90</ele><time>2018-06-16T10:29:29Z</time></trkpt>
<trkpt lat="13.26645" lon="99.77362"><ele>90</ele><time>2018-06-16T10:29:31Z</time></trkpt>
<trkpt lat="13.26641" lon="99.77367"><ele>91</ele><time>2018-06-16T10:29:33Z</time></trkpt>
<trkpt lat="13.26636" lon="99.77373"><ele>91</ele><time>2018-06-16T10:29:35Z</time></trkpt>
<trkpt lat="13.26632" lon="99.77377"><ele>91</ele><time>2018-06-16T10:29:37Z</time></trkpt>
<trkpt lat="13.26628" lon="99.77381"><ele>92</ele><time>2018-06-16T10:29:39Z</time></trkpt>
<trkpt lat="13.26624" lon="99.77384"><ele>93</ele><time>2018-06-16T10:29:41Z</time></trkpt>
<trkpt lat="13.26620" lon="99.77386"><ele>93</ele><time>2018-06-16T10:29:43Z</time></trkpt>
<trkpt lat="13.26615" lon="99.77388"><ele>93</ele><time>2018-06-16T10:29:46Z</time></trkpt>
<trkpt lat="13.26608" lon="99.77389"><ele>92</ele><time>2018-06-16T10:29:49Z</time></trkpt>
<trkpt lat="13.26604" lon="99.77390"><ele>92</ele><time>2018-06-16T10:29:52Z</time></trkpt>
<trkpt lat="13.26599" lon="99.77392"><ele>92</ele><time>2018-06-16T10:29:55Z</time></trkpt>
<trkpt lat="13.26594" lon="99.77394"><ele>92</ele><time>2018-06-16T10:29:58Z</time></trkpt>
<trkpt lat="13.26589" lon="99.77397"><ele>92</ele><time>2018-06-16T10:30:01Z</time></trkpt>
<trkpt lat="13.26585" lon="99.77399"><ele>92</ele><time>2018-06-16T10:30:03Z</time></trkpt>
<trkpt lat="13.26580" lon="99.77404"><ele>93</ele><time>2018-06-16T10:30:06Z</time></trkpt>
<trkpt lat="13.26575" lon="99.77408"><ele>93</ele><time>2018-06-16T10:30:09Z</time></trkpt>
<trkpt lat="13.26569" lon="99.77410"><ele>92</ele><time>2018-06-16T10:30:12Z</time></trkpt>
<trkpt lat="13.26565" lon="99.77411"><ele>92</ele><time>2018-06-16T10:30:14Z</time></trkpt>
<trkpt lat="13.26559" lon="99.77413"><ele>92</ele><time>2018-06-16T10:30:17Z</time></trkpt>
<trkpt lat="13.26554" lon="99.77414"><ele>91</ele><time>2018-06-16T10:30:19Z</time></trkpt>
<trkpt lat="13.26549" lon="99.77413"><ele>91</ele><time>2018-06-16T10:30:21Z</time></trkpt>
<trkpt lat="13.26542" lon="99.77413"><ele>91</ele><time>2018-06-16T10:30:23Z</time></trkpt>
<trkpt lat="13.26537" lon="99.77413"><ele>91</ele><time>2018-06-16T10:30:25Z</time></trkpt>
<trkpt lat="13.26531" lon="99.77413"><ele>92</ele><time>2018-06-16T10:30:28Z</time></trkpt>
<trkpt lat="13.26527" lon="99.77414"><ele>93</ele><time>2018-06-16T10:30:31Z</time></trkpt>
<trkpt lat="13.26522" lon="99.77417"><ele>94</ele><time>2018-06-16T10:30:34Z</time></trkpt>
<trkpt lat="13.26517" lon="99.77422"><ele>94</ele><time>2018-06-16T10:30:37Z</time></trkpt>
<trkpt lat="13.26512" lon="99.77426"><ele>94</ele><time>2018-06-16T10:30:40Z</time></trkpt>
<trkpt lat="13.26507" lon="99.77429"><ele>94</ele><time>2018-06-16T10:30:42Z</time></trkpt>
<trkpt lat="13.26503" lon="99.77430"><ele>94</ele><time>2018-06-16T10:30:44Z</time></trkpt>
<trkpt lat="13.26497" lon="99.77430"><ele>95</ele><time>2018-06-16T10:30:47Z</time></trkpt>
<trkpt lat="13.26490" lon="99.77429"><ele>95</ele><time>2018-06-16T10:30:50Z</time></trkpt>
<trkpt lat="13.26483" lon="99.77430"><ele>96</ele><time>2018-06-16T10:30:53Z</time></trkpt>
<trkpt lat="13.26479" lon="99.77430"><ele>96</ele><time>2018-06-16T10:30:55Z</time></trkpt>
<trkpt lat="13.26472" lon="99.77430"><ele>96</ele><time>2018-06-16T10:30:57Z</time></trkpt>
<trkpt lat="13.26465" lon="99.77430"><ele>96</ele><time>2018-06-16T10:30:59Z</time></trkpt>
<trkpt lat="13.26460" lon="99.77431"><ele>97</ele><time>2018-06-16T10:31:02Z</time></trkpt>
<trkpt lat="13.26455" lon="99.77433"><ele>97</ele><time>2018-06-16T10:31:05Z</time></trkpt>
<trkpt lat="13.26449" lon="99.77434"><ele>97</ele><time>2018-06-16T10:31:08Z</time></trkpt>
<trkpt lat="13.26444" lon="99.77435"><ele>98</ele><time>2018-06-16T10:31:11Z</time></trkpt>
<trkpt lat="13.26439" lon="99.77437"><ele>99</ele><time>2018-06-16T10:31:15Z</time></trkpt>
<trkpt lat="13.26434" lon="99.77441"><ele>102</ele><time>2018-06-16T10:32:39Z</time></trkpt>
<trkpt lat="13.26430" lon="99.77444"><ele>102</ele><time>2018-06-16T10:32:42Z</time></trkpt>
<trkpt lat="13.26426" lon="99.77449"><ele>103</ele><time>2018-06-16T10:32:45Z</time></trkpt>
<trkpt lat="13.26421" lon="99.77453"><ele>102</ele><time>2018-06-16T10:32:48Z</time></trkpt>
<trkpt lat="13.26416" lon="99.77457"><ele>101</ele><time>2018-06-16T10:32:50Z</time></trkpt>
<trkpt lat="13.26411" lon="99.77461"><ele>100</ele><time>2018-06-16T10:32:52Z</time></trkpt>
<trkpt lat="13.26406" lon="99.77465"><ele>100</ele><time>2018-06-16T10:32:54Z</time></trkpt>
<trkpt lat="13.26402" lon="99.77469"><ele>101</ele><time>2018-06-16T10:32:56Z</time></trkpt>
<trkpt lat="13.26397" lon="99.77473"><ele>101</ele><time>2018-06-16T10:32:58Z</time></trkpt>
<trkpt lat="13.26394" lon="99.77478"><ele>101</ele><time>2018-06-16T10:33:00Z</time></trkpt>
<trkpt lat="13.26390" lon="99.77483"><ele>101</ele><time>2018-06-16T10:33:02Z</time></trkpt>
<trkpt lat="13.26387" lon="99.77487"><ele>101</ele><time>2018-06-16T10:33:04Z</time></trkpt>
<trkpt lat="13.26383" lon="99.77492"><ele>101</ele><time>2018-06-16T10:33:06Z</time></trkpt>
<trkpt lat="13.26377" lon="99.77497"><ele>101</ele><time>2018-06-16T10:33:08Z</time></trkpt>
<trkpt lat="13.26371" lon="99.77503"><ele>101</ele><time>2018-06-16T10:33:10Z</time></trkpt>
<trkpt lat="13.26365" lon="99.77510"><ele>101</ele><time>2018-06-16T10:33:12Z</time></trkpt>
<trkpt lat="13.26361" lon="99.77516"><ele>100</ele><time>2018-06-16T10:33:14Z</time></trkpt>
<trkpt lat="13.26358" lon="99.77521"><ele>100</ele><time>2018-06-16T10:33:16Z</time></trkpt>
<trkpt lat="13.26354" lon="99.77527"><ele>100</ele><time>2018-06-16T10:33:18Z</time></trkpt>
<trkpt lat="13.26352" lon="99.77536"><ele>100</ele><time>2018-06-16T10:33:20Z</time></trkpt>
<trkpt lat="13.26351" lon="99.77541"><ele>100</ele><time>2018-06-16T10:33:21Z</time></trkpt>
<trkpt lat="13.26349" lon="99.77545"><ele>100</ele><time>2018-06-16T10:33:22Z</time></trkpt>
<trkpt lat="13.26344" lon="99.77552"><ele>100</ele><time>2018-06-16T10:33:24Z</time></trkpt>
<trkpt lat="13.26341" lon="99.77556"><ele>100</ele><time>2018-06-16T10:33:25Z</time></trkpt>
<trkpt lat="13.26339" lon="99.77561"><ele>100</ele><time>2018-06-16T10:33:26Z</time></trkpt>
<trkpt lat="13.26338" lon="99.77566"><ele>99</ele><time>2018-06-16T10:33:27Z</time></trkpt>
<trkpt lat="13.26336" lon="99.77571"><ele>99</ele><time>2018-06-16T10:33:28Z</time></trkpt>
<trkpt lat="13.26333" lon="99.77575"><ele>99</ele><time>2018-06-16T10:33:29Z</time></trkpt>
<trkpt lat="13.26330" lon="99.77580"><ele>99</ele><time>2018-06-16T10:33:30Z</time></trkpt>
<trkpt lat="13.26327" lon="99.77584"><ele>99</ele><time>2018-06-16T10:33:31Z</time></trkpt>
<trkpt lat="13.26324" lon="99.77589"><ele>98</ele><time>2018-06-16T10:33:32Z</time></trkpt>
<trkpt lat="13.26321" lon="99.77594"><ele>98</ele><time>2018-06-16T10:33:33Z</time></trkpt>
<trkpt lat="13.26318" lon="99.77599"><ele>98</ele><time>2018-06-16T10:33:34Z</time></trkpt>
<trkpt lat="13.26316" lon="99.77605"><ele>98</ele><time>2018-06-16T10:33:35Z</time></trkpt>
<trkpt lat="13.26314" lon="99.77611"><ele>98</ele><time>2018-06-16T10:33:36Z</time></trkpt>
<trkpt lat="13.26313" lon="99.77617"><ele>98</ele><time>2018-06-16T10:33:37Z</time></trkpt>
<trkpt lat="13.26312" lon="99.77623"><ele>97</ele><time>2018-06-16T10:33:38Z</time></trkpt>
<trkpt lat="13.26312" lon="99.77629"><ele>97</ele><time>2018-06-16T10:33:39Z</time></trkpt>
<trkpt lat="13.26311" lon="99.77635"><ele>97</ele><time>2018-06-16T10:33:40Z</time></trkpt>
<trkpt lat="13.26310" lon="99.77640"><ele>96</ele><time>2018-06-16T10:33:41Z</time></trkpt>
<trkpt lat="13.26310" lon="99.77646"><ele>96</ele><time>2018-06-16T10:33:42Z</time></trkpt>
<trkpt lat="13.26310" lon="99.77651"><ele>96</ele><time>2018-06-16T10:33:43Z</time></trkpt>
<trkpt lat="13.26311" lon="99.77656"><ele>96</ele><time>2018-06-16T10:33:44Z</time></trkpt>
<trkpt lat="13.26311" lon="99.77661"><ele>96</ele><time>2018-06-16T10:33:45Z</time></trkpt>
<trkpt lat="13.26311" lon="99.77667"><ele>96</ele><time>2018-06-16T10:33:46Z</time></trkpt>
<trkpt lat="13.26310" lon="99.77672"><ele>96</ele><time>2018-06-16T10:33:47Z</time></trkpt>
<trkpt lat="13.26309" lon="99.77678"><ele>96</ele><time>2018-06-16T10:33:48Z</time></trkpt>
<trkpt lat="13.26309" lon="99.77684"><ele>96</ele><time>2018-06-16T10:33:49Z</time></trkpt>
<trkpt lat="13.26310" lon="99.77689"><ele>96</ele><time>2018-06-16T10:33:50Z</time></trkpt>
<trkpt lat="13.26310" lon="99.77695"><ele>97</ele><time>2018-06-16T10:33:51Z</time></trkpt>
<trkpt lat="13.26310" lon="99.77701"><ele>96</ele><time>2018-06-16T10:33:52Z</time></trkpt>
<trkpt lat="13.26309" lon="99.77707"><ele>96</ele><time>2018-06-16T10:33:53Z</time></trkpt>
<trkpt lat="13.26309" lon="99.77712"><ele>96</ele><time>2018-06-16T10:33:54Z</time></trkpt>
<trkpt lat="13.26308" lon="99.77718"><ele>96</ele><time>2018-06-16T10:33:55Z</time></trkpt>
<trkpt lat="13.26307" lon="99.77724"><ele>96</ele><time>2018-06-16T10:33:56Z</time></trkpt>
<trkpt lat="13.26305" lon="99.77729"><ele>96</ele><time>2018-06-16T10:33:57Z</time></trkpt>
<trkpt lat="13.26303" lon="99.77734"><ele>96</ele><time>2018-06-16T10:33:58Z</time></trkpt>
<trkpt lat="13.26301" lon="99.77740"><ele>96</ele><time>2018-06-16T10:33:59Z</time></trkpt>
<trkpt lat="13.26299" lon="99.77745"><ele>96</ele><time>2018-06-16T10:34:00Z</time></trkpt>
<trkpt lat="13.26296" lon="99.77750"><ele>95</ele><time>2018-06-16T10:34:01Z</time></trkpt>
<trkpt lat="13.26294" lon="99.77756"><ele>96</ele><time>2018-06-16T10:34:02Z</time></trkpt>
<trkpt lat="13.26292" lon="99.77762"><ele>96</ele><time>2018-06-16T10:34:03Z</time></trkpt>
<trkpt lat="13.26290" lon="99.77768"><ele>95</ele><time>2018-06-16T10:34:04Z</time></trkpt>
<trkpt lat="13.26289" lon="99.77774"><ele>96</ele><time>2018-06-16T10:34:05Z</time></trkpt>
<trkpt lat="13.26287" lon="99.77780"><ele>95</ele><time>2018-06-16T10:34:06Z</time></trkpt>
<trkpt lat="13.26287" lon="99.77787"><ele>95</ele><time>2018-06-16T10:34:07Z</time></trkpt>
<trkpt lat="13.26287" lon="99.77793"><ele>95</ele><time>2018-06-16T10:34:08Z</time></trkpt>
<trkpt lat="13.26287" lon="99.77799"><ele>95</ele><time>2018-06-16T10:34:09Z</time></trkpt>
<trkpt lat="13.26287" lon="99.77806"><ele>95</ele><time>2018-06-16T10:34:10Z</time></trkpt>
<trkpt lat="13.26288" lon="99.77812"><ele>95</ele><time>2018-06-16T10:34:11Z</time></trkpt>
<trkpt lat="13.26288" lon="99.77818"><ele>95</ele><time>2018-06-16T10:34:12Z</time></trkpt>
<trkpt lat="13.26288" lon="99.77823"><ele>95</ele><time>2018-06-16T10:34:13Z</time></trkpt>
<trkpt lat="13.26288" lon="99.77829"><ele>95</ele><time>2018-06-16T10:34:14Z</time></trkpt>
<trkpt lat="13.26288" lon="99.77834"><ele>95</ele><time>2018-06-16T10:34:15Z</time></trkpt>
<trkpt lat="13.26289" lon="99.77839"><ele>95</ele><time>2018-06-16T10:34:17Z</time></trkpt>
<trkpt lat="13.26294" lon="99.77841"><ele>95</ele><time>2018-06-16T10:34:22Z</time></trkpt>
<trkpt lat="13.26297" lon="99.77846"><ele>95</ele><time>2018-06-16T10:34:26Z</time></trkpt>
<trkpt lat="13.26298" lon="99.77851"><ele>95</ele><time>2018-06-16T10:34:28Z</time></trkpt>
<trkpt lat="13.26299" lon="99.77859"><ele>94</ele><time>2018-06-16T10:34:30Z</time></trkpt>
<trkpt lat="13.26300" lon="99.77864"><ele>94</ele><time>2018-06-16T10:34:31Z</time></trkpt>
<trkpt lat="13.26301" lon="99.77869"><ele>94</ele><time>2018-06-16T10:34:32Z</time></trkpt>
<trkpt lat="13.26303" lon="99.77874"><ele>94</ele><time>2018-06-16T10:34:33Z</time></trkpt>
<trkpt lat="13.26304" lon="99.77880"><ele>95</ele><time>2018-06-16T10:34:34Z</time></trkpt>
<trkpt lat="13.26304" lon="99.77886"><ele>95</ele><time>2018-06-16T10:34:35Z</time></trkpt>
<trkpt lat="13.26304" lon="99.77892"><ele>94</ele><time>2018-06-16T10:34:36Z</time></trkpt>
<trkpt lat="13.26304" lon="99.77897"><ele>94</ele><time>2018-06-16T10:34:37Z</time></trkpt>
<trkpt lat="13.26304" lon="99.77903"><ele>93</ele><time>2018-06-16T10:34:38Z</time></trkpt>
<trkpt lat="13.26303" lon="99.77908"><ele>93</ele><time>2018-06-16T10:34:39Z</time></trkpt>
<trkpt lat="13.26302" lon="99.77914"><ele>93</ele><time>2018-06-16T10:34:40Z</time></trkpt>
<trkpt lat="13.26302" lon="99.77919"><ele>93</ele><time>2018-06-16T10:34:41Z</time></trkpt>
<trkpt lat="13.26301" lon="99.77924"><ele>94</ele><time>2018-06-16T10:34:42Z</time></trkpt>
<trkpt lat="13.26296" lon="99.77930"><ele>92</ele><time>2018-06-16T10:34:44Z</time></trkpt>
<trkpt lat="13.26293" lon="99.77934"><ele>93</ele><time>2018-06-16T10:34:46Z</time></trkpt>
<trkpt lat="13.26290" lon="99.77940"><ele>92</ele><time>2018-06-16T10:34:48Z</time></trkpt>
<trkpt lat="13.26288" lon="99.77948"><ele>92</ele><time>2018-06-16T10:34:50Z</time></trkpt>
<trkpt lat="13.26286" lon="99.77956"><ele>92</ele><time>2018-06-16T10:34:52Z</time></trkpt>
<trkpt lat="13.26285" lon="99.77964"><ele>93</ele><time>2018-06-16T10:34:54Z</time></trkpt>
<trkpt lat="13.26285" lon="99.77971"><ele>93</ele><time>2018-06-16T10:34:56Z</time></trkpt>
<trkpt lat="13.26285" lon="99.77978"><ele>93</ele><time>2018-06-16T10:34:58Z</time></trkpt>
<trkpt lat="13.26284" lon="99.77986"><ele>93</ele><time>2018-06-16T10:35:00Z</time></trkpt>
<trkpt lat="13.26281" lon="99.77993"><ele>93</ele><time>2018-06-16T10:35:02Z</time></trkpt>
<trkpt lat="13.26277" lon="99.78001"><ele>93</ele><time>2018-06-16T10:35:04Z</time></trkpt>
<trkpt lat="13.26273" lon="99.78008"><ele>93</ele><time>2018-06-16T10:35:06Z</time></trkpt>
<trkpt lat="13.26270" lon="99.78012"><ele>93</ele><time>2018-06-16T10:35:07Z</time></trkpt>
<trkpt lat="13.26267" lon="99.78016"><ele>94</ele><time>2018-06-16T10:35:08Z</time></trkpt>
<trkpt lat="13.26264" lon="99.78021"><ele>93</ele><time>2018-06-16T10:35:09Z</time></trkpt>
<trkpt lat="13.26262" lon="99.78025"><ele>93</ele><time>2018-06-16T10:35:10Z</time></trkpt>
<trkpt lat="13.26259" lon="99.78030"><ele>93</ele><time>2018-06-16T10:35:11Z</time></trkpt>
<trkpt lat="13.26257" lon="99.78035"><ele>93</ele><time>2018-06-16T10:35:12Z</time></trkpt>
<trkpt lat="13.26255" lon="99.78039"><ele>93</ele><time>2018-06-16T10:35:13Z</time></trkpt>
<trkpt lat="13.26252" lon="99.78044"><ele>93</ele><time>2018-06-16T10:35:14Z</time></trkpt>
<trkpt lat="13.26250" lon="99.78050"><ele>93</ele><time>2018-06-16T10:35:15Z</time></trkpt>
<trkpt lat="13.26248" lon="99.78055"><ele>93</ele><time>2018-06-16T10:35:16Z</time></trkpt>
<trkpt lat="13.26245" lon="99.78060"><ele>93</ele><time>2018-06-16T10:35:17Z</time></trkpt>
<trkpt lat="13.26241" lon="99.78065"><ele>92</ele><time>2018-06-16T10:35:18Z</time></trkpt>
<trkpt lat="13.26238" lon="99.78071"><ele>92</ele><time>2018-06-16T10:35:19Z</time></trkpt>
<trkpt lat="13.26234" lon="99.78075"><ele>92</ele><time>2018-06-16T10:35:20Z</time></trkpt>
<trkpt lat="13.26230" lon="99.78080"><ele>92</ele><time>2018-06-16T10:35:21Z</time></trkpt>
<trkpt lat="13.26227" lon="99.78084"><ele>92</ele><time>2018-06-16T10:35:22Z</time></trkpt>
<trkpt lat="13.26223" lon="99.78088"><ele>92</ele><time>2018-06-16T10:35:23Z</time></trkpt>
<trkpt lat="13.26218" lon="99.78093"><ele>92</ele><time>2018-06-16T10:35:24Z</time></trkpt>
<trkpt lat="13.26214" lon="99.78096"><ele>92</ele><time>2018-06-16T10:35:25Z</time></trkpt>
<trkpt lat="13.26209" lon="99.78100"><ele>91</ele><time>2018-06-16T10:35:26Z</time></trkpt>
<trkpt lat="13.26204" lon="99.78103"><ele>92</ele><time>2018-06-16T10:35:27Z</time></trkpt>
<trkpt lat="13.26200" lon="99.78107"><ele>92</ele><time>2018-06-16T10:35:28Z</time></trkpt>
<trkpt lat="13.26195" lon="99.78110"><ele>92</ele><time>2018-06-16T10:35:29Z</time></trkpt>
<trkpt lat="13.26192" lon="99.78114"><ele>92</ele><time>2018-06-16T10:35:30Z</time></trkpt>
<trkpt lat="13.26188" lon="99.78118"><ele>92</ele><time>2018-06-16T10:35:31Z</time></trkpt>
<trkpt lat="13.26185" lon="99.78121"><ele>92</ele><time>2018-06-16T10:35:32Z</time></trkpt>
<trkpt lat="13.26181" lon="99.78125"><ele>92</ele><time>2018-06-16T10:35:33Z</time></trkpt>
<trkpt lat="13.26178" lon="99.78128"><ele>92</ele><time>2018-06-16T10:35:34Z</time></trkpt>
<trkpt lat="13.26175" lon="99.78132"><ele>92</ele><time>2018-06-16T10:35:35Z</time></trkpt>
<trkpt lat="13.26171" lon="99.78136"><ele>93</ele><time>2018-06-16T10:35:36Z</time></trkpt>
<trkpt lat="13.26168" lon="99.78139"><ele>93</ele><time>2018-06-16T10:35:37Z</time></trkpt>
<trkpt lat="13.26162" lon="99.78146"><ele>93</ele><time>2018-06-16T10:35:39Z</time></trkpt>
<trkpt lat="13.26159" lon="99.78150"><ele>92</ele><time>2018-06-16T10:35:40Z</time></trkpt>
<trkpt lat="13.26155" lon="99.78154"><ele>92</ele><time>2018-06-16T10:35:41Z</time></trkpt>
<trkpt lat="13.26151" lon="99.78158"><ele>92</ele><time>2018-06-16T10:35:42Z</time></trkpt>
<trkpt lat="13.26147" lon="99.78162"><ele>92</ele><time>2018-06-16T10:35:43Z</time></trkpt>
<trkpt lat="13.26143" lon="99.78165"><ele>92</ele><time>2018-06-16T10:35:44Z</time></trkpt>
<trkpt lat="13.26137" lon="99.78168"><ele>92</ele><time>2018-06-16T10:35:45Z</time></trkpt>
<trkpt lat="13.26132" lon="99.78171"><ele>91</ele><time>2018-06-16T10:35:46Z</time></trkpt>
<trkpt lat="13.26126" lon="99.78175"><ele>91</ele><time>2018-06-16T10:35:47Z</time></trkpt>
<trkpt lat="13.26120" lon="99.78178"><ele>91</ele><time>2018-06-16T10:35:48Z</time></trkpt>
<trkpt lat="13.26114" lon="99.78182"><ele>91</ele><time>2018-06-16T10:35:49Z</time></trkpt>
<trkpt lat="13.26108" lon="99.78186"><ele>91</ele><time>2018-06-16T10:35:50Z</time></trkpt>
<trkpt lat="13.26103" lon="99.78189"><ele>90</ele><time>2018-06-16T10:35:51Z</time></trkpt>
<trkpt lat="13.26098" lon="99.78194"><ele>90</ele><time>2018-06-16T10:35:52Z</time></trkpt>
<trkpt lat="13.26093" lon="99.78200"><ele>90</ele><time>2018-06-16T10:35:53Z</time></trkpt>
<trkpt lat="13.26088" lon="99.78205"><ele>90</ele><time>2018-06-16T10:35:54Z</time></trkpt>
<trkpt lat="13.26083" lon="99.78211"><ele>90</ele><time>2018-06-16T10:35:55Z</time></trkpt>
<trkpt lat="13.26078" lon="99.78216"><ele>90</ele><time>2018-06-16T10:35:56Z</time></trkpt>
<trkpt lat="13.26073" lon="99.78221"><ele>89</ele><time>2018-06-16T10:35:57Z</time></trkpt>
<trkpt lat="13.26069" lon="99.78225"><ele>89</ele><time>2018-06-16T10:35:58Z</time></trkpt>
<trkpt lat="13.26064" lon="99.78230"><ele>89</ele><time>2018-06-16T10:35:59Z</time></trkpt>
<trkpt lat="13.26060" lon="99.78234"><ele>89</ele><time>2018-06-16T10:36:00Z</time></trkpt>
<trkpt lat="13.26055" lon="99.78239"><ele>89</ele><time>2018-06-16T10:36:01Z</time></trkpt>
<trkpt lat="13.26051" lon="99.78243"><ele>89</ele><time>2018-06-16T10:36:02Z</time></trkpt>
<trkpt lat="13.26046" lon="99.78247"><ele>88</ele><time>2018-06-16T10:36:03Z</time></trkpt>
<trkpt lat="13.26041" lon="99.78251"><ele>88</ele><time>2018-06-16T10:36:04Z</time></trkpt>
<trkpt lat="13.26035" lon="99.78253"><ele>88</ele><time>2018-06-16T10:36:05Z</time></trkpt>
<trkpt lat="13.26029" lon="99.78255"><ele>88</ele><time>2018-06-16T10:36:06Z</time></trkpt>
<trkpt lat="13.26023" lon="99.78257"><ele>88</ele><time>2018-06-16T10:36:07Z</time></trkpt>
<trkpt lat="13.26017" lon="99.78259"><ele>88</ele><time>2018-06-16T10:36:08Z</time></trkpt>
<trkpt lat="13.26011" lon="99.78261"><ele>89</ele><time>2018-06-16T10:36:09Z</time></trkpt>
<trkpt lat="13.26006" lon="99.78263"><ele>89</ele><time>2018-06-16T10:36:10Z</time></trkpt>
<trkpt lat="13.26000" lon="99.78265"><ele>88</ele><time>2018-06-16T10:36:11Z</time></trkpt>
<trkpt lat="13.25993" lon="99.78267"><ele>88</ele><time>2018-06-16T10:36:12Z</time></trkpt>
<trkpt lat="13.25987" lon="99.78269"><ele>88</ele><time>2018-06-16T10:36:13Z</time></trkpt>
<trkpt lat="13.25981" lon="99.78271"><ele>87</ele><time>2018-06-16T10:36:14Z</time></trkpt>
<trkpt lat="13.25976" lon="99.78274"><ele>87</ele><time>2018-06-16T10:36:15Z</time></trkpt>
<trkpt lat="13.25970" lon="99.78278"><ele>87</ele><time>2018-06-16T10:36:16Z</time></trkpt>
<trkpt lat="13.25965" lon="99.78281"><ele>87</ele><time>2018-06-16T10:36:17Z</time></trkpt>
<trkpt lat="13.25961" lon="99.78285"><ele>87</ele><time>2018-06-16T10:36:18Z</time></trkpt>
<trkpt lat="13.25958" lon="99.78289"><ele>87</ele><time>2018-06-16T10:36:19Z</time></trkpt>
<trkpt lat="13.25954" lon="99.78294"><ele>87</ele><time>2018-06-16T10:36:20Z</time></trkpt>
<trkpt lat="13.25951" lon="99.78298"><ele>87</ele><time>2018-06-16T10:36:21Z</time></trkpt>
<trkpt lat="13.25947" lon="99.78302"><ele>87</ele><time>2018-06-16T10:36:22Z</time></trkpt>
<trkpt lat="13.25944" lon="99.78307"><ele>87</ele><time>2018-06-16T10:36:23Z</time></trkpt>
<trkpt lat="13.25940" lon="99.78312"><ele>87</ele><time>2018-06-16T10:36:24Z</time></trkpt>
<trkpt lat="13.25937" lon="99.78317"><ele>86</ele><time>2018-06-16T10:36:25Z</time></trkpt>
<trkpt lat="13.25933" lon="99.78322"><ele>86</ele><time>2018-06-16T10:36:26Z</time></trkpt>
<trkpt lat="13.25930" lon="99.78327"><ele>86</ele><time>2018-06-16T10:36:27Z</time></trkpt>
<trkpt lat="13.25927" lon="99.78331"><ele>86</ele><time>2018-06-16T10:36:28Z</time></trkpt>
<trkpt lat="13.25924" lon="99.78336"><ele>87</ele><time>2018-06-16T10:36:29Z</time></trkpt>
<trkpt lat="13.25921" lon="99.78340"><ele>87</ele><time>2018-06-16T10:36:30Z</time></trkpt>
<trkpt lat="13.25917" lon="99.78344"><ele>86</ele><time>2018-06-16T10:36:31Z</time></trkpt>
<trkpt lat="13.25913" lon="99.78349"><ele>86</ele><time>2018-06-16T10:36:32Z</time></trkpt>
<trkpt lat="13.25909" lon="99.78352"><ele>86</ele><time>2018-06-16T10:36:33Z</time></trkpt>
<trkpt lat="13.25905" lon="99.78356"><ele>86</ele><time>2018-06-16T10:36:34Z</time></trkpt>
<trkpt lat="13.25901" lon="99.78360"><ele>86</ele><time>2018-06-16T10:36:35Z</time></trkpt>
<trkpt lat="13.25897" lon="99.78365"><ele>86</ele><time>2018-06-16T10:36:36Z</time></trkpt>
<trkpt lat="13.25894" lon="99.78369"><ele>87</ele><time>2018-06-16T10:36:37Z</time></trkpt>
<trkpt lat="13.25890" lon="99.78373"><ele>87</ele><time>2018-06-16T10:36:38Z</time></trkpt>
<trkpt lat="13.25886" lon="99.78376"><ele>87</ele><time>2018-06-16T10:36:39Z</time></trkpt>
<trkpt lat="13.25883" lon="99.78380"><ele>87</ele><time>2018-06-16T10:36:40Z</time></trkpt>
<trkpt lat="13.25880" lon="99.78383"><ele>87</ele><time>2018-06-16T10:36:41Z</time></trkpt>
<trkpt lat="13.25876" lon="99.78387"><ele>86</ele><time>2018-06-16T10:36:42Z</time></trkpt>
<trkpt lat="13.25871" lon="99.78394"><ele>87</ele><time>2018-06-16T10:36:44Z</time></trkpt>
<trkpt lat="13.25866" lon="99.78401"><ele>86</ele><time>2018-06-16T10:36:46Z</time></trkpt>
<trkpt lat="13.25862" lon="99.78409"><ele>86</ele><time>2018-06-16T10:36:48Z</time></trkpt>
<trkpt lat="13.25860" lon="99.78416"><ele>85</ele><time>2018-06-16T10:36:50Z</time></trkpt>
<trkpt lat="13.25858" lon="99.78425"><ele>85</ele><time>2018-06-16T10:36:52Z</time></trkpt>
<trkpt lat="13.25856" lon="99.78429"><ele>85</ele><time>2018-06-16T10:36:53Z</time></trkpt>
<trkpt lat="13.25856" lon="99.78434"><ele>84</ele><time>2018-06-16T10:36:54Z</time></trkpt>
<trkpt lat="13.25852" lon="99.78442"><ele>85</ele><time>2018-06-16T10:36:56Z</time></trkpt>
<trkpt lat="13.25847" lon="99.78449"><ele>85</ele><time>2018-06-16T10:36:58Z</time></trkpt>
<trkpt lat="13.25842" lon="99.78457"><ele>84</ele><time>2018-06-16T10:37:00Z</time></trkpt>
<trkpt lat="13.25839" lon="99.78461"><ele>85</ele><time>2018-06-16T10:37:01Z</time></trkpt>
<trkpt lat="13.25834" lon="99.78468"><ele>84</ele><time>2018-06-16T10:37:03Z</time></trkpt>
<trkpt lat="13.25830" lon="99.78477"><ele>83</ele><time>2018-06-16T10:37:05Z</time></trkpt>
<trkpt lat="13.25828" lon="99.78481"><ele>83</ele><time>2018-06-16T10:37:06Z</time></trkpt>
<trkpt lat="13.25826" lon="99.78485"><ele>83</ele><time>2018-06-16T10:37:07Z</time></trkpt>
<trkpt lat="13.25824" lon="99.78490"><ele>83</ele><time>2018-06-16T10:37:08Z</time></trkpt>
<trkpt lat="13.25822" lon="99.78495"><ele>83</ele><time>2018-06-16T10:37:09Z</time></trkpt>
<trkpt lat="13.25820" lon="99.78499"><ele>83</ele><time>2018-06-16T10:37:10Z</time></trkpt>
<trkpt lat="13.25818" lon="99.78504"><ele>83</ele><time>2018-06-16T10:37:11Z</time></trkpt>
<trkpt lat="13.25816" lon="99.78508"><ele>83</ele><time>2018-06-16T10:37:12Z</time></trkpt>
<trkpt lat="13.25814" lon="99.78512"><ele>83</ele><time>2018-06-16T10:37:13Z</time></trkpt>
<trkpt lat="13.25812" lon="99.78517"><ele>83</ele><time>2018-06-16T10:37:14Z</time></trkpt>
<trkpt lat="13.25810" lon="99.78521"><ele>83</ele><time>2018-06-16T10:37:15Z</time></trkpt>
<trkpt lat="13.25808" lon="99.78526"><ele>84</ele><time>2018-06-16T10:37:16Z</time></trkpt>
<trkpt lat="13.25804" lon="99.78534"><ele>84</ele><time>2018-06-16T10:37:18Z</time></trkpt>
<trkpt lat="13.25801" lon="99.78542"><ele>84</ele><time>2018-06-16T10:37:20Z</time></trkpt>
<trkpt lat="13.25797" lon="99.78549"><ele>83</ele><time>2018-06-16T10:37:22Z</time></trkpt>
<trkpt lat="13.25793" lon="99.78557"><ele>84</ele><time>2018-06-16T10:37:24Z</time></trkpt>
<trkpt lat="13.25788" lon="99.78564"><ele>84</ele><time>2018-06-16T10:37:26Z</time></trkpt>
<trkpt lat="13.25784" lon="99.78571"><ele>84</ele><time>2018-06-16T10:37:28Z</time></trkpt>
<trkpt lat="13.25780" lon="99.78578"><ele>84</ele><time>2018-06-16T10:37:30Z</time></trkpt>
<trkpt lat="13.25775" lon="99.78585"><ele>83</ele><time>2018-06-16T10:37:32Z</time></trkpt>
<trkpt lat="13.25771" lon="99.78593"><ele>84</ele><time>2018-06-16T10:37:34Z</time></trkpt>
<trkpt lat="13.25769" lon="99.78601"><ele>83</ele><time>2018-06-16T10:37:36Z</time></trkpt>
<trkpt lat="13.25768" lon="99.78610"><ele>83</ele><time>2018-06-16T10:37:38Z</time></trkpt>
<trkpt lat="13.25766" lon="99.78617"><ele>82</ele><time>2018-06-16T10:37:40Z</time></trkpt>
<trkpt lat="13.25763" lon="99.78625"><ele>82</ele><time>2018-06-16T10:37:42Z</time></trkpt>
<trkpt lat="13.25759" lon="99.78632"><ele>82</ele><time>2018-06-16T10:37:44Z</time></trkpt>
<trkpt lat="13.25754" lon="99.78638"><ele>82</ele><time>2018-06-16T10:37:46Z</time></trkpt>
<trkpt lat="13.25747" lon="99.78643"><ele>82</ele><time>2018-06-16T10:37:48Z</time></trkpt>
<trkpt lat="13.25741" lon="99.78647"><ele>82</ele><time>2018-06-16T10:37:50Z</time></trkpt>
<trkpt lat="13.25737" lon="99.78653"><ele>82</ele><time>2018-06-16T10:37:52Z</time></trkpt>
<trkpt lat="13.25736" lon="99.78659"><ele>82</ele><time>2018-06-16T10:37:54Z</time></trkpt>
<trkpt lat="13.25736" lon="99.78665"><ele>82</ele><time>2018-06-16T10:37:57Z</time></trkpt>
<trkpt lat="13.25731" lon="99.78667"><ele>81</ele><time>2018-06-16T10:38:01Z</time></trkpt>
<trkpt lat="13.25725" lon="99.78666"><ele>80</ele><time>2018-06-16T10:38:04Z</time></trkpt>
<trkpt lat="13.25719" lon="99.78664"><ele>81</ele><time>2018-06-16T10:38:07Z</time></trkpt>
<trkpt lat="13.25715" lon="99.78664"><ele>81</ele><time>2018-06-16T10:38:09Z</time></trkpt>
<trkpt lat="13.25710" lon="99.78666"><ele>81</ele><time>2018-06-16T10:38:12Z</time></trkpt>
<trkpt lat="13.25706" lon="99.78669"><ele>82</ele><time>2018-06-16T10:38:16Z</time></trkpt>
<trkpt lat="13.25706" lon="99.78669"><ele>82</ele><time>2018-06-16T10:38:17Z</time></trkpt>
</trkseg>
</trk>
</gpx>
<!-- Summary -->
<!-- Creator: Ultra GPS Logger 3.146c -->
<!-- Name: Khao_Yoi_Saturday_16_June -->
<!-- Duration: 05:28:25 -->
<!-- Length: 38523.98 -->
<!-- Speed: 7.04 -->
<!-- POI: 0 -->
<!-- Category: Car -->
<!-- From: 13.25744; 99.78707 To: 13.25706; 99.78669 -->
<!-- FromCity: Khao Yoi ToCity: Khao Yoi -->
<!-- FromUTC: 2018-06-16T05:09:52Z [7.0] ToUTC: 2018-06-16T10:38:17Z [7.0] -->
<!-- Trigger: 5 TimeTrigger: 1000 DistTrigger: 0 -->
<!-- MaxSpeed: 39.13 -->
<!-- Stopped: 00:00:00 (0) -->
<!-- AvgMovSpeed: 7.04 -->
<!-- DeviceName: Samsung SM-G965F -->
